<?xml version='1.0' encoding='UTF-8'?><gpx version="1.1" creator="JPX - https://github.com/jenetics/jpx" xmlns="http://www.topografix.com/GPX/1/1"><trk><trkseg><trkpt lat="42.10827162359082" lon="13.393094012367934"><ele>860.5</ele><time>2026-04-18T13:28:50.108Z</time></trkpt><trkpt lat="42.108208389878264" lon="13.39308323837923"><ele>860.0</ele><time>2026-04-18T13:29:13Z</time></trkpt><trkpt lat="42.10814540781783" lon="13.393026934675932"><ele>859.5</ele><time>2026-04-18T13:29:15Z</time></trkpt><trkpt lat="42.10814283868864" lon="13.39292313658906"><ele>859.0</ele><time>2026-04-18T13:29:17Z</time></trkpt><trkpt lat="42.108114485845896" lon="13.392815470854012"><ele>858.5</ele><time>2026-04-18T13:29:21Z</time></trkpt><trkpt lat="42.10800525235217" lon="13.39280321804708"><ele>858.0</ele><time>2026-04-18T13:29:23Z</time></trkpt><trkpt lat="42.10793621647072" lon="13.3928500773557"><ele>858.0</ele><time>2026-04-18T13:29:24Z</time></trkpt><trkpt lat="42.10786397400709" lon="13.392910970975489"><ele>858.0</ele><time>2026-04-18T13:29:25Z</time></trkpt><trkpt lat="42.10780351796335" lon="13.39295564913263"><ele>858.0</ele><time>2026-04-18T13:29:26Z</time></trkpt><trkpt lat="42.10772878629393" lon="13.39300379270344"><ele>858.0</ele><time>2026-04-18T13:29:27Z</time></trkpt><trkpt lat="42.107639275868344" lon="13.393050652328753"><ele>858.0</ele><time>2026-04-18T13:29:28Z</time></trkpt><trkpt lat="42.10753802138716" lon="13.393121870558042"><ele>858.0</ele><time>2026-04-18T13:29:29Z</time></trkpt><trkpt lat="42.10742101314565" lon="13.393190635419257"><ele>856.5</ele><time>2026-04-18T13:29:30Z</time></trkpt><trkpt lat="42.10731942410028" lon="13.393276766898806"><ele>855.0</ele><time>2026-04-18T13:29:31Z</time></trkpt><trkpt lat="42.10720806105727" lon="13.393349672778013"><ele>853.5</ele><time>2026-04-18T13:29:32Z</time></trkpt><trkpt lat="42.10710850715661" lon="13.393414847714892"><ele>852.0</ele><time>2026-04-18T13:29:33Z</time></trkpt><trkpt lat="42.10700912436345" lon="13.393480613585567"><ele>852.0</ele><time>2026-04-18T13:29:34Z</time></trkpt><trkpt lat="42.10691565103844" lon="13.39354855053471"><ele>852.0</ele><time>2026-04-18T13:29:35Z</time></trkpt><trkpt lat="42.10681757792808" lon="13.393614469911775"><ele>852.0</ele><time>2026-04-18T13:29:36Z</time></trkpt><trkpt lat="42.10670476651906" lon="13.39367447293792"><ele>852.0</ele><time>2026-04-18T13:29:37Z</time></trkpt><trkpt lat="42.10658135431054" lon="13.393713674995533"><ele>849.75</ele><time>2026-04-18T13:29:38Z</time></trkpt><trkpt lat="42.10645623051517" lon="13.393764347791077"><ele>847.5</ele><time>2026-04-18T13:29:39Z</time></trkpt><trkpt lat="42.1063266270683" lon="13.393808672271042"><ele>845.25</ele><time>2026-04-18T13:29:40Z</time></trkpt><trkpt lat="42.106200470271126" lon="13.393837393002284"><ele>843.0</ele><time>2026-04-18T13:29:41Z</time></trkpt><trkpt lat="42.10608228376985" lon="13.393854275152556"><ele>843.0</ele><time>2026-04-18T13:29:42Z</time></trkpt><trkpt lat="42.105968961263876" lon="13.393873753534494"><ele>843.0</ele><time>2026-04-18T13:29:43Z</time></trkpt><trkpt lat="42.105859958174456" lon="13.393875589123303"><ele>843.0</ele><time>2026-04-18T13:29:44Z</time></trkpt><trkpt lat="42.10575439557911" lon="13.39390734606126"><ele>843.0</ele><time>2026-04-18T13:29:45Z</time></trkpt><trkpt lat="42.10565737798782" lon="13.393921036511927"><ele>843.0</ele><time>2026-04-18T13:29:46Z</time></trkpt><trkpt lat="42.10556651294122" lon="13.393942225075635"><ele>841.2</ele><time>2026-04-18T13:29:47Z</time></trkpt><trkpt lat="42.10547098246306" lon="13.393965277525336"><ele>839.4</ele><time>2026-04-18T13:29:48Z</time></trkpt><trkpt lat="42.10537852969085" lon="13.393975879675972"><ele>837.6</ele><time>2026-04-18T13:29:49Z</time></trkpt><trkpt lat="42.10528794858331" lon="13.393997547101991"><ele>835.8000000000001</ele><time>2026-04-18T13:29:50Z</time></trkpt><trkpt lat="42.10518778158547" lon="13.394054757252588"><ele>834.0</ele><time>2026-04-18T13:29:51Z</time></trkpt><trkpt lat="42.10510202863907" lon="13.39414908930092"><ele>834.0</ele><time>2026-04-18T13:29:52Z</time></trkpt><trkpt lat="42.10502408722262" lon="13.394274137961972"><ele>834.0</ele><time>2026-04-18T13:29:53Z</time></trkpt><trkpt lat="42.10492421285782" lon="13.394392392584566"><ele>834.0</ele><time>2026-04-18T13:29:54Z</time></trkpt><trkpt lat="42.10483892265896" lon="13.394525814756054"><ele>834.0</ele><time>2026-04-18T13:29:55Z</time></trkpt><trkpt lat="42.10474985264781" lon="13.39462610688639"><ele>832.0</ele><time>2026-04-18T13:29:56Z</time></trkpt><trkpt lat="42.104661125957755" lon="13.394747662254028"><ele>830.0</ele><time>2026-04-18T13:29:57Z</time></trkpt><trkpt lat="42.104540983050896" lon="13.394820088949276"><ele>828.0</ele><time>2026-04-18T13:29:58Z</time></trkpt><trkpt lat="42.10439987877649" lon="13.394884906608294"><ele>826.0</ele><time>2026-04-18T13:29:59Z</time></trkpt><trkpt lat="42.10425536128355" lon="13.394935673852064"><ele>826.0</ele><time>2026-04-18T13:30:00Z</time></trkpt><trkpt lat="42.1040936662725" lon="13.394988625372248"><ele>826.0</ele><time>2026-04-18T13:30:01Z</time></trkpt><trkpt lat="42.10392933025877" lon="13.395007879943359"><ele>826.0</ele><time>2026-04-18T13:30:02Z</time></trkpt><trkpt lat="42.10378309461718" lon="13.395056531480575"><ele>825.25</ele><time>2026-04-18T13:30:03Z</time></trkpt><trkpt lat="42.103660272532025" lon="13.395097233871198"><ele>824.5</ele><time>2026-04-18T13:30:04Z</time></trkpt><trkpt lat="42.10353695650357" lon="13.395129710558663"><ele>823.75</ele><time>2026-04-18T13:30:05Z</time></trkpt><trkpt lat="42.103411840278206" lon="13.395160796913228"><ele>823.0</ele><time>2026-04-18T13:30:06Z</time></trkpt><trkpt lat="42.10326131296467" lon="13.395204239367644"><ele>822.0</ele><time>2026-04-18T13:30:07Z</time></trkpt><trkpt lat="42.10310202722922" lon="13.39524900997347"><ele>821.0</ele><time>2026-04-18T13:30:08Z</time></trkpt><trkpt lat="42.102933685493454" lon="13.395304159225077"><ele>820.0</ele><time>2026-04-18T13:30:09Z</time></trkpt><trkpt lat="42.102752464902515" lon="13.395366289017403"><ele>820.0</ele><time>2026-04-18T13:30:10Z</time></trkpt><trkpt lat="42.10256346402402" lon="13.395441811547983"><ele>820.0</ele><time>2026-04-18T13:30:11Z</time></trkpt><trkpt lat="42.102383385328714" lon="13.39553541508062"><ele>820.0</ele><time>2026-04-18T13:30:12Z</time></trkpt><trkpt lat="42.10220548041229" lon="13.395677140729628"><ele>822.5</ele><time>2026-04-18T13:30:13Z</time></trkpt><trkpt lat="42.10201409353631" lon="13.395856006503834"><ele>825.0</ele><time>2026-04-18T13:30:14Z</time></trkpt><trkpt lat="42.101822979668924" lon="13.396059441240649"><ele>825.0</ele><time>2026-04-18T13:30:15Z</time></trkpt><trkpt lat="42.10162510430424" lon="13.396264060622903"><ele>825.0</ele><time>2026-04-18T13:30:16Z</time></trkpt><trkpt lat="42.10142050530691" lon="13.396476333164609"><ele>827.0</ele><time>2026-04-18T13:30:17Z</time></trkpt><trkpt lat="42.10121394781832" lon="13.396688636513105"><ele>829.0</ele><time>2026-04-18T13:30:18Z</time></trkpt><trkpt lat="42.10099650332085" lon="13.39690885015525"><ele>829.0</ele><time>2026-04-18T13:30:18.999Z</time></trkpt><trkpt lat="42.100783267018535" lon="13.397119827112025"><ele>829.0</ele><time>2026-04-18T13:30:19.999Z</time></trkpt><trkpt lat="42.100572889456856" lon="13.397331198439346"><ele>830.5</ele><time>2026-04-18T13:30:20.999Z</time></trkpt><trkpt lat="42.10036046728774" lon="13.39754699523975"><ele>832.0</ele><time>2026-04-18T13:30:21.999Z</time></trkpt><trkpt lat="42.100152781835824" lon="13.397765920578657"><ele>832.0</ele><time>2026-04-18T13:30:22.999Z</time></trkpt><trkpt lat="42.09995406096817" lon="13.397983772534374"><ele>832.0</ele><time>2026-04-18T13:30:23.999Z</time></trkpt><trkpt lat="42.09977051865861" lon="13.398206865823509"><ele>834.5</ele><time>2026-04-18T13:30:24.999Z</time></trkpt><trkpt lat="42.099592056852224" lon="13.398432286067235"><ele>837.0</ele><time>2026-04-18T13:30:25.999Z</time></trkpt><trkpt lat="42.09942396008694" lon="13.398671488249777"><ele>838.5</ele><time>2026-04-18T13:30:26.999Z</time></trkpt><trkpt lat="42.099254103190624" lon="13.398926655537869"><ele>840.0</ele><time>2026-04-18T13:30:27.999Z</time></trkpt><trkpt lat="42.099082285622565" lon="13.399178967112208"><ele>840.0</ele><time>2026-04-18T13:30:28.999Z</time></trkpt><trkpt lat="42.098903448642794" lon="13.399422923505604"><ele>840.0</ele><time>2026-04-18T13:30:29.999Z</time></trkpt><trkpt lat="42.09871298452593" lon="13.399653678754914"><ele>841.5</ele><time>2026-04-18T13:30:30.999Z</time></trkpt><trkpt lat="42.09850770899691" lon="13.399870620771084"><ele>843.0</ele><time>2026-04-18T13:30:31.999Z</time></trkpt><trkpt lat="42.098299876775584" lon="13.400086884035623"><ele>843.5</ele><time>2026-04-18T13:30:32.999Z</time></trkpt><trkpt lat="42.09808545407533" lon="13.400303516157079"><ele>844.0</ele><time>2026-04-18T13:30:33.999Z</time></trkpt><trkpt lat="42.09787077100035" lon="13.400525050006813"><ele>844.5</ele><time>2026-04-18T13:30:34.999Z</time></trkpt><trkpt lat="42.09765279344984" lon="13.400749966827602"><ele>845.0</ele><time>2026-04-18T13:30:35.999Z</time></trkpt><trkpt lat="42.0974306670291" lon="13.40097624620994"><ele>845.5</ele><time>2026-04-18T13:30:36.999Z</time></trkpt><trkpt lat="42.097206760949895" lon="13.40119735072727"><ele>846.0</ele><time>2026-04-18T13:30:37.999Z</time></trkpt><trkpt lat="42.09697862256116" lon="13.40140810152162"><ele>847.0</ele><time>2026-04-18T13:30:38.999Z</time></trkpt><trkpt lat="42.09674550025159" lon="13.401609235904752"><ele>848.0</ele><time>2026-04-18T13:30:39.999Z</time></trkpt><trkpt lat="42.09650902026378" lon="13.401798896572885"><ele>849.5</ele><time>2026-04-18T13:30:40.999Z</time></trkpt><trkpt lat="42.09627121992867" lon="13.401985044109729"><ele>851.0</ele><time>2026-04-18T13:30:41.999Z</time></trkpt><trkpt lat="42.096028236154055" lon="13.402159283604938"><ele>852.0</ele><time>2026-04-18T13:30:42.999Z</time></trkpt><trkpt lat="42.09578056440039" lon="13.402320559484702"><ele>853.0</ele><time>2026-04-18T13:30:43.999Z</time></trkpt><trkpt lat="42.095531680743754" lon="13.40247131558878"><ele>853.5</ele><time>2026-04-18T13:30:44.999Z</time></trkpt><trkpt lat="42.09528473828664" lon="13.402619368136799"><ele>854.0</ele><time>2026-04-18T13:30:46.001Z</time></trkpt><trkpt lat="42.09503636939002" lon="13.402767035579911"><ele>854.5</ele><time>2026-04-18T13:30:47.001Z</time></trkpt><trkpt lat="42.094790286954606" lon="13.402919086384072"><ele>855.0</ele><time>2026-04-18T13:30:48Z</time></trkpt><trkpt lat="42.09453995807925" lon="13.403070799528436"><ele>855.0</ele><time>2026-04-18T13:30:49Z</time></trkpt><trkpt lat="42.094308901663744" lon="13.403208268188964"><ele>855.0</ele><time>2026-04-18T13:30:50Z</time></trkpt><trkpt lat="42.094102342002394" lon="13.403333250772414"><ele>854.6666666666667</ele><time>2026-04-18T13:30:51Z</time></trkpt><trkpt lat="42.09391289775271" lon="13.403448431143328"><ele>854.3333333333334</ele><time>2026-04-18T13:30:52Z</time></trkpt><trkpt lat="42.093723983497945" lon="13.403563129608251"><ele>854.0</ele><time>2026-04-18T13:30:53Z</time></trkpt><trkpt lat="42.09353269584969" lon="13.403697628403101"><ele>856.0</ele><time>2026-04-18T13:30:54Z</time></trkpt><trkpt lat="42.09334072572006" lon="13.403868293274751"><ele>858.0</ele><time>2026-04-18T13:30:55Z</time></trkpt><trkpt lat="42.093156721272116" lon="13.404085301997279"><ele>858.0</ele><time>2026-04-18T13:30:56Z</time></trkpt><trkpt lat="42.09297137916187" lon="13.404320514454216"><ele>858.0</ele><time>2026-04-18T13:30:57Z</time></trkpt><trkpt lat="42.09278986905868" lon="13.404538218020832"><ele>858.6666666666667</ele><time>2026-04-18T13:30:58Z</time></trkpt><trkpt lat="42.092629567324956" lon="13.404731126053651"><ele>859.3333333333334</ele><time>2026-04-18T13:30:59Z</time></trkpt><trkpt lat="42.09248249802018" lon="13.404904969345678"><ele>860.0</ele><time>2026-04-18T13:31:00Z</time></trkpt><trkpt lat="42.09235050902847" lon="13.4050624585748"><ele>860.0</ele><time>2026-04-18T13:31:01Z</time></trkpt><trkpt lat="42.09223565168808" lon="13.405221897268275"><ele>860.0</ele><time>2026-04-18T13:31:02Z</time></trkpt><trkpt lat="42.092125195692724" lon="13.405411007379808"><ele>860.0</ele><time>2026-04-18T13:31:03Z</time></trkpt><trkpt lat="42.09204046028629" lon="13.405638325793134"><ele>861.3333333333334</ele><time>2026-04-18T13:31:04Z</time></trkpt><trkpt lat="42.091983410184476" lon="13.405884679910821"><ele>862.6666666666667</ele><time>2026-04-18T13:31:05Z</time></trkpt><trkpt lat="42.09196597506579" lon="13.406141874175113"><ele>864.0</ele><time>2026-04-18T13:31:06Z</time></trkpt><trkpt lat="42.09200512321442" lon="13.40640853918965"><ele>866.0</ele><time>2026-04-18T13:31:07Z</time></trkpt><trkpt lat="42.09207730913891" lon="13.406691175842848"><ele>868.0</ele><time>2026-04-18T13:31:08Z</time></trkpt><trkpt lat="42.09216460253011" lon="13.407000518219581"><ele>871.0</ele><time>2026-04-18T13:31:09Z</time></trkpt><trkpt lat="42.09224280395088" lon="13.407335258303931"><ele>874.0</ele><time>2026-04-18T13:31:10Z</time></trkpt><trkpt lat="42.09231792193506" lon="13.407688970291117"><ele>875.5</ele><time>2026-04-18T13:31:11Z</time></trkpt><trkpt lat="42.09238342134597" lon="13.408053178294038"><ele>877.0</ele><time>2026-04-18T13:31:12Z</time></trkpt><trkpt lat="42.09244284453802" lon="13.408428347559445"><ele>877.5</ele><time>2026-04-18T13:31:13Z</time></trkpt><trkpt lat="42.09249333016103" lon="13.408823563102434"><ele>878.0</ele><time>2026-04-18T13:31:14Z</time></trkpt><trkpt lat="42.09253891268379" lon="13.409226319983842"><ele>880.5</ele><time>2026-04-18T13:31:15Z</time></trkpt><trkpt lat="42.09258956444036" lon="13.409627679103323"><ele>883.0</ele><time>2026-04-18T13:31:16Z</time></trkpt><trkpt lat="42.092643137199076" lon="13.41003912911779"><ele>883.0</ele><time>2026-04-18T13:31:17Z</time></trkpt><trkpt lat="42.092693344423" lon="13.410446437734413"><ele>883.0</ele><time>2026-04-18T13:31:18Z</time></trkpt><trkpt lat="42.09274383162396" lon="13.410839307029024"><ele>885.5</ele><time>2026-04-18T13:31:19Z</time></trkpt><trkpt lat="42.09279328697067" lon="13.411229865430531"><ele>888.0</ele><time>2026-04-18T13:31:20Z</time></trkpt><trkpt lat="42.09284209242552" lon="13.411619893712727"><ele>891.0</ele><time>2026-04-18T13:31:21Z</time></trkpt><trkpt lat="42.09288975114313" lon="13.412005729668344"><ele>894.0</ele><time>2026-04-18T13:31:22Z</time></trkpt><trkpt lat="42.09293804565198" lon="13.412390248196902"><ele>896.5</ele><time>2026-04-18T13:31:23Z</time></trkpt><trkpt lat="42.092987210775185" lon="13.412773951877668"><ele>899.0</ele><time>2026-04-18T13:31:24Z</time></trkpt><trkpt lat="42.09303527863813" lon="13.413157769330704"><ele>899.0</ele><time>2026-04-18T13:31:25Z</time></trkpt><trkpt lat="42.093085019375" lon="13.413547426177502"><ele>899.0</ele><time>2026-04-18T13:31:26Z</time></trkpt><trkpt lat="42.093135420409354" lon="13.41394294011678"><ele>901.0</ele><time>2026-04-18T13:31:27Z</time></trkpt><trkpt lat="42.09318729781649" lon="13.414342382374985"><ele>903.0</ele><time>2026-04-18T13:31:28Z</time></trkpt><trkpt lat="42.09324881344161" lon="13.414740832083991"><ele>905.0</ele><time>2026-04-18T13:31:29Z</time></trkpt><trkpt lat="42.09333229402185" lon="13.415143299443308"><ele>907.0</ele><time>2026-04-18T13:31:30Z</time></trkpt><trkpt lat="42.09343882140231" lon="13.41554909238073"><ele>908.0</ele><time>2026-04-18T13:31:31Z</time></trkpt><trkpt lat="42.093548762712885" lon="13.415949816766027"><ele>909.0</ele><time>2026-04-18T13:31:32Z</time></trkpt><trkpt lat="42.09364377780068" lon="13.416309952864657"><ele>911.0</ele><time>2026-04-18T13:31:33Z</time></trkpt><trkpt lat="42.093729877724044" lon="13.41663322409452"><ele>913.0</ele><time>2026-04-18T13:31:34Z</time></trkpt><trkpt lat="42.09381238022455" lon="13.416955286751827"><ele>914.5</ele><time>2026-04-18T13:31:35Z</time></trkpt><trkpt lat="42.09389697628008" lon="13.417284326781722"><ele>916.0</ele><time>2026-04-18T13:31:36Z</time></trkpt><trkpt lat="42.09397877580325" lon="13.41760651175174"><ele>916.0</ele><time>2026-04-18T13:31:37Z</time></trkpt><trkpt lat="42.09405188661185" lon="13.417893320792247"><ele>916.0</ele><time>2026-04-18T13:31:38Z</time></trkpt><trkpt lat="42.09411136626599" lon="13.41817091756357"><ele>916.0</ele><time>2026-04-18T13:31:39Z</time></trkpt><trkpt lat="42.09414860288411" lon="13.41847095021955"><ele>917.5</ele><time>2026-04-18T13:31:40Z</time></trkpt><trkpt lat="42.094123203823884" lon="13.418795870331248"><ele>919.0</ele><time>2026-04-18T13:31:41Z</time></trkpt><trkpt lat="42.09409438045086" lon="13.419137189610653"><ele>920.5</ele><time>2026-04-18T13:31:42Z</time></trkpt><trkpt lat="42.09407456828064" lon="13.419500027173692"><ele>922.0</ele><time>2026-04-18T13:31:43Z</time></trkpt><trkpt lat="42.09403166987238" lon="13.41986268471092"><ele>923.5</ele><time>2026-04-18T13:31:44Z</time></trkpt><trkpt lat="42.09396096184653" lon="13.420225661785121"><ele>925.0</ele><time>2026-04-18T13:31:45Z</time></trkpt><trkpt lat="42.09387092275179" lon="13.420587971817204"><ele>926.0</ele><time>2026-04-18T13:31:46Z</time></trkpt><trkpt lat="42.093757354297985" lon="13.42093947376569"><ele>927.0</ele><time>2026-04-18T13:31:47Z</time></trkpt><trkpt lat="42.09366533701796" lon="13.421263978425827"><ele>928.3333333333333</ele><time>2026-04-18T13:31:48Z</time></trkpt><trkpt lat="42.09356535928569" lon="13.42154714619446"><ele>929.6666666666666</ele><time>2026-04-18T13:31:49Z</time></trkpt><trkpt lat="42.09348045508484" lon="13.421805895137593"><ele>931.0</ele><time>2026-04-18T13:31:50Z</time></trkpt><trkpt lat="42.0934006818765" lon="13.422047870573193"><ele>931.6666666666666</ele><time>2026-04-18T13:31:51Z</time></trkpt><trkpt lat="42.093327709429104" lon="13.422272854877122"><ele>932.3333333333333</ele><time>2026-04-18T13:31:52Z</time></trkpt><trkpt lat="42.093254440742164" lon="13.422484892186672"><ele>933.0</ele><time>2026-04-18T13:31:53Z</time></trkpt><trkpt lat="42.09317367367683" lon="13.422708813712205"><ele>933.0</ele><time>2026-04-18T13:31:54Z</time></trkpt><trkpt lat="42.09305392976764" lon="13.422948200141557"><ele>933.0</ele><time>2026-04-18T13:31:55Z</time></trkpt><trkpt lat="42.092920977834545" lon="13.423205115758476"><ele>933.0</ele><time>2026-04-18T13:31:56Z</time></trkpt><trkpt lat="42.092791179693066" lon="13.423473745395214"><ele>933.3333333333333</ele><time>2026-04-18T13:31:57Z</time></trkpt><trkpt lat="42.092669799544005" lon="13.423697649917461"><ele>933.6666666666666</ele><time>2026-04-18T13:31:58Z</time></trkpt><trkpt lat="42.0925554661012" lon="13.423903483027546"><ele>934.0</ele><time>2026-04-18T13:31:59Z</time></trkpt><trkpt lat="42.09244997367133" lon="13.424097997622207"><ele>934.0</ele><time>2026-04-18T13:32:00Z</time></trkpt><trkpt lat="42.09235201330693" lon="13.424279889394962"><ele>934.0</ele><time>2026-04-18T13:32:01Z</time></trkpt><trkpt lat="42.09225810977313" lon="13.424452569698843"><ele>934.0</ele><time>2026-04-18T13:32:01.999Z</time></trkpt><trkpt lat="42.09217415279714" lon="13.424608933361714"><ele>933.75</ele><time>2026-04-18T13:32:02.999Z</time></trkpt><trkpt lat="42.092100520503585" lon="13.42475861787166"><ele>933.5</ele><time>2026-04-18T13:32:03.999Z</time></trkpt><trkpt lat="42.09200255352642" lon="13.42490681322912"><ele>933.25</ele><time>2026-04-18T13:32:04.999Z</time></trkpt><trkpt lat="42.09191733462264" lon="13.425102280073164"><ele>933.0</ele><time>2026-04-18T13:32:05.999Z</time></trkpt><trkpt lat="42.09179618005491" lon="13.425270574051803"><ele>933.0</ele><time>2026-04-18T13:32:06.999Z</time></trkpt><trkpt lat="42.09164610841595" lon="13.425423741713534"><ele>933.0</ele><time>2026-04-18T13:32:07.999Z</time></trkpt><trkpt lat="42.09148001694662" lon="13.42556165025057"><ele>933.0</ele><time>2026-04-18T13:32:08.999Z</time></trkpt><trkpt lat="42.09132114328016" lon="13.425682461212741"><ele>932.0</ele><time>2026-04-18T13:32:09.999Z</time></trkpt><trkpt lat="42.091164054961624" lon="13.425797577093867"><ele>931.0</ele><time>2026-04-18T13:32:10.999Z</time></trkpt><trkpt lat="42.091001254190154" lon="13.425908911856096"><ele>930.0</ele><time>2026-04-18T13:32:11.999Z</time></trkpt><trkpt lat="42.09083344564767" lon="13.426006349501536"><ele>928.0</ele><time>2026-04-18T13:32:12.999Z</time></trkpt><trkpt lat="42.09066929397469" lon="13.426081938757097"><ele>926.0</ele><time>2026-04-18T13:32:13.999Z</time></trkpt><trkpt lat="42.09051046113705" lon="13.426135968911899"><ele>924.0</ele><time>2026-04-18T13:32:14.999Z</time></trkpt><trkpt lat="42.09035478469958" lon="13.42616761402634"><ele>924.0</ele><time>2026-04-18T13:32:15.999Z</time></trkpt><trkpt lat="42.090202478197966" lon="13.426183923465873"><ele>924.0</ele><time>2026-04-18T13:32:16.999Z</time></trkpt><trkpt lat="42.09003458070688" lon="13.426206705616849"><ele>924.0</ele><time>2026-04-18T13:32:17.999Z</time></trkpt><trkpt lat="42.08985123119256" lon="13.426246069277571"><ele>923.3333333333333</ele><time>2026-04-18T13:32:18.999Z</time></trkpt><trkpt lat="42.089655044268284" lon="13.426296500650729"><ele>922.6666666666666</ele><time>2026-04-18T13:32:19.999Z</time></trkpt><trkpt lat="42.08944706536335" lon="13.426359892316693"><ele>922.0</ele><time>2026-04-18T13:32:20.999Z</time></trkpt><trkpt lat="42.089227706191025" lon="13.426441943459094"><ele>918.5</ele><time>2026-04-18T13:32:21.999Z</time></trkpt><trkpt lat="42.08900259212441" lon="13.426537504279738"><ele>915.0</ele><time>2026-04-18T13:32:22.999Z</time></trkpt><trkpt lat="42.08877196689245" lon="13.426644498467976"><ele>915.0</ele><time>2026-04-18T13:32:23.999Z</time></trkpt><trkpt lat="42.088556184443405" lon="13.426749033121935"><ele>915.0</ele><time>2026-04-18T13:32:24.999Z</time></trkpt><trkpt lat="42.088345755612366" lon="13.426856187193662"><ele>913.0</ele><time>2026-04-18T13:32:25.999Z</time></trkpt><trkpt lat="42.08813006688737" lon="13.426968022371414"><ele>911.0</ele><time>2026-04-18T13:32:26.999Z</time></trkpt><trkpt lat="42.087907238607244" lon="13.427094452110815"><ele>911.5</ele><time>2026-04-18T13:32:27.999Z</time></trkpt><trkpt lat="42.08766337092564" lon="13.427238767528062"><ele>912.0</ele><time>2026-04-18T13:32:28.999Z</time></trkpt><trkpt lat="42.08741648336478" lon="13.427384121443446"><ele>909.5</ele><time>2026-04-18T13:32:29.999Z</time></trkpt><trkpt lat="42.08714952968348" lon="13.42754290825678"><ele>907.0</ele><time>2026-04-18T13:32:30.999Z</time></trkpt><trkpt lat="42.086888918271676" lon="13.427696489318917"><ele>907.0</ele><time>2026-04-18T13:32:31.999Z</time></trkpt><trkpt lat="42.086647573805415" lon="13.427836188352197"><ele>907.0</ele><time>2026-04-18T13:32:32.999Z</time></trkpt><trkpt lat="42.08641648202674" lon="13.42797416759422"><ele>904.5</ele><time>2026-04-18T13:32:33.999Z</time></trkpt><trkpt lat="42.08619385566838" lon="13.428107248613589"><ele>902.0</ele><time>2026-04-18T13:32:34.999Z</time></trkpt><trkpt lat="42.085983148175494" lon="13.428235301922212"><ele>902.0</ele><time>2026-04-18T13:32:35.999Z</time></trkpt><trkpt lat="42.08576780594471" lon="13.428361830410754"><ele>902.0</ele><time>2026-04-18T13:32:36.999Z</time></trkpt><trkpt lat="42.085546814352085" lon="13.4284872367507"><ele>897.5</ele><time>2026-04-18T13:32:37.999Z</time></trkpt><trkpt lat="42.08531273002357" lon="13.428606954828332"><ele>893.0</ele><time>2026-04-18T13:32:38.999Z</time></trkpt><trkpt lat="42.08507601554301" lon="13.42872579427493"><ele>889.5</ele><time>2026-04-18T13:32:39.999Z</time></trkpt><trkpt lat="42.08483393723398" lon="13.428825228740077"><ele>886.0</ele><time>2026-04-18T13:32:40.999Z</time></trkpt><trkpt lat="42.08457141880491" lon="13.428905845624781"><ele>886.0</ele><time>2026-04-18T13:32:41.999Z</time></trkpt><trkpt lat="42.08428775820446" lon="13.428968191872782"><ele>886.0</ele><time>2026-04-18T13:32:42.999Z</time></trkpt><trkpt lat="42.08398288411524" lon="13.429019646383734"><ele>884.5</ele><time>2026-04-18T13:32:43.999Z</time></trkpt><trkpt lat="42.08367542043895" lon="13.429075996684935"><ele>883.0</ele><time>2026-04-18T13:32:44.999Z</time></trkpt><trkpt lat="42.08337149788003" lon="13.429135068789835"><ele>881.0</ele><time>2026-04-18T13:32:45.999Z</time></trkpt><trkpt lat="42.08306996212338" lon="13.429187914747555"><ele>879.0</ele><time>2026-04-18T13:32:46.999Z</time></trkpt><trkpt lat="42.08277317281183" lon="13.429230521993063"><ele>879.0</ele><time>2026-04-18T13:32:47.999Z</time></trkpt><trkpt lat="42.08248024799036" lon="13.42925807946034"><ele>879.0</ele><time>2026-04-18T13:32:48.999Z</time></trkpt><trkpt lat="42.08219270965087" lon="13.429270206389385"><ele>879.0</ele><time>2026-04-18T13:32:49.999Z</time></trkpt><trkpt lat="42.08190192464308" lon="13.429279620390274"><ele>879.0</ele><time>2026-04-18T13:32:50.999Z</time></trkpt><trkpt lat="42.08160774055835" lon="13.429290089588877"><ele>881.0</ele><time>2026-04-18T13:32:52Z</time></trkpt><trkpt lat="42.08133635814407" lon="13.429296909909956"><ele>883.0</ele><time>2026-04-18T13:32:53Z</time></trkpt><trkpt lat="42.08108638994302" lon="13.429300921238513"><ele>883.0</ele><time>2026-04-18T13:32:54Z</time></trkpt><trkpt lat="42.080852025641356" lon="13.429307897691201"><ele>883.0</ele><time>2026-04-18T13:32:55Z</time></trkpt><trkpt lat="42.08062848308366" lon="13.429315278836263"><ele>882.0</ele><time>2026-04-18T13:32:56Z</time></trkpt><trkpt lat="42.080409228180635" lon="13.429321901694289"><ele>881.0</ele><time>2026-04-18T13:32:57Z</time></trkpt><trkpt lat="42.08019086369097" lon="13.429326360114887"><ele>880.0</ele><time>2026-04-18T13:32:58Z</time></trkpt><trkpt lat="42.079973766887164" lon="13.429337258231975"><ele>878.6666666666666</ele><time>2026-04-18T13:32:59Z</time></trkpt><trkpt lat="42.079755659877556" lon="13.429359531536992"><ele>877.3333333333333</ele><time>2026-04-18T13:33:00Z</time></trkpt><trkpt lat="42.0795358219876" lon="13.42939178024882"><ele>876.0</ele><time>2026-04-18T13:33:01Z</time></trkpt><trkpt lat="42.07931249894369" lon="13.42943562458467"><ele>872.5</ele><time>2026-04-18T13:33:02Z</time></trkpt><trkpt lat="42.07908597287004" lon="13.429488070964775"><ele>869.0</ele><time>2026-04-18T13:33:03Z</time></trkpt><trkpt lat="42.078857918352284" lon="13.42955002749495"><ele>869.0</ele><time>2026-04-18T13:33:04Z</time></trkpt><trkpt lat="42.07863069992972" lon="13.429626941521384"><ele>869.0</ele><time>2026-04-18T13:33:05Z</time></trkpt><trkpt lat="42.07839610943267" lon="13.42970805852266"><ele>868.0</ele><time>2026-04-18T13:33:06Z</time></trkpt><trkpt lat="42.07815793625838" lon="13.429800424609924"><ele>867.0</ele><time>2026-04-18T13:33:07Z</time></trkpt><trkpt lat="42.07791370961534" lon="13.429901279915363"><ele>867.0</ele><time>2026-04-18T13:33:08Z</time></trkpt><trkpt lat="42.077663294314725" lon="13.430002869771295"><ele>867.0</ele><time>2026-04-18T13:33:09Z</time></trkpt><trkpt lat="42.077409961617576" lon="13.430107037541493"><ele>864.5</ele><time>2026-04-18T13:33:10Z</time></trkpt><trkpt lat="42.07715603866388" lon="13.43020569663719"><ele>862.0</ele><time>2026-04-18T13:33:11Z</time></trkpt><trkpt lat="42.07690239937444" lon="13.430304118035824"><ele>862.0</ele><time>2026-04-18T13:33:12Z</time></trkpt><trkpt lat="42.07663328082562" lon="13.430410675533661"><ele>862.0</ele><time>2026-04-18T13:33:13Z</time></trkpt><trkpt lat="42.076359627313494" lon="13.430520303695776"><ele>861.0</ele><time>2026-04-18T13:33:14Z</time></trkpt><trkpt lat="42.07609611315299" lon="13.430622637183635"><ele>860.0</ele><time>2026-04-18T13:33:15Z</time></trkpt><trkpt lat="42.07585122847425" lon="13.430718263082266"><ele>857.0</ele><time>2026-04-18T13:33:16Z</time></trkpt><trkpt lat="42.07562039429823" lon="13.430809122431027"><ele>854.0</ele><time>2026-04-18T13:33:17Z</time></trkpt><trkpt lat="42.075396434376266" lon="13.430899062874296"><ele>854.0</ele><time>2026-04-18T13:33:18Z</time></trkpt><trkpt lat="42.075173458230005" lon="13.430992137625427"><ele>854.0</ele><time>2026-04-18T13:33:19Z</time></trkpt><trkpt lat="42.07493951768677" lon="13.43109624336549"><ele>851.5</ele><time>2026-04-18T13:33:20Z</time></trkpt><trkpt lat="42.074700972448326" lon="13.431234580837042"><ele>849.0</ele><time>2026-04-18T13:33:21Z</time></trkpt><trkpt lat="42.074464438158635" lon="13.431402534005542"><ele>849.0</ele><time>2026-04-18T13:33:22Z</time></trkpt><trkpt lat="42.074229689607975" lon="13.43161249318455"><ele>849.0</ele><time>2026-04-18T13:33:23Z</time></trkpt><trkpt lat="42.0739877921256" lon="13.431837390347487"><ele>846.5</ele><time>2026-04-18T13:33:24Z</time></trkpt><trkpt lat="42.07373811839246" lon="13.432080800668075"><ele>844.0</ele><time>2026-04-18T13:33:25Z</time></trkpt><trkpt lat="42.073480078031956" lon="13.432331346588725"><ele>840.5</ele><time>2026-04-18T13:33:26Z</time></trkpt><trkpt lat="42.07320740648557" lon="13.432584095138356"><ele>837.0</ele><time>2026-04-18T13:33:27Z</time></trkpt><trkpt lat="42.07293707756821" lon="13.432834963284822"><ele>836.5</ele><time>2026-04-18T13:33:28Z</time></trkpt><trkpt lat="42.07267757301881" lon="13.433079599894445"><ele>836.0</ele><time>2026-04-18T13:33:29Z</time></trkpt><trkpt lat="42.07243145189916" lon="13.43331101059053"><ele>834.5</ele><time>2026-04-18T13:33:30Z</time></trkpt><trkpt lat="42.07220118500396" lon="13.433528890641593"><ele>833.0</ele><time>2026-04-18T13:33:31Z</time></trkpt><trkpt lat="42.0719752887738" lon="13.433746710386218"><ele>833.5</ele><time>2026-04-18T13:33:32Z</time></trkpt><trkpt lat="42.07175190345295" lon="13.433959351138892"><ele>834.0</ele><time>2026-04-18T13:33:33Z</time></trkpt><trkpt lat="42.07152657730413" lon="13.434174261805333"><ele>832.0</ele><time>2026-04-18T13:33:34Z</time></trkpt><trkpt lat="42.07129001000064" lon="13.434386453324725"><ele>830.0</ele><time>2026-04-18T13:33:35Z</time></trkpt><trkpt lat="42.07103194138695" lon="13.434579473692425"><ele>826.5</ele><time>2026-04-18T13:33:36Z</time></trkpt><trkpt lat="42.070747073993545" lon="13.434729046294867"><ele>823.0</ele><time>2026-04-18T13:33:37Z</time></trkpt><trkpt lat="42.07044111060128" lon="13.434835308739165"><ele>823.0</ele><time>2026-04-18T13:33:38Z</time></trkpt><trkpt lat="42.07011236910204" lon="13.434897321727657"><ele>823.0</ele><time>2026-04-18T13:33:39Z</time></trkpt><trkpt lat="42.069774210008646" lon="13.434942283029926"><ele>820.0</ele><time>2026-04-18T13:33:40Z</time></trkpt><trkpt lat="42.06944386572497" lon="13.434981714409961"><ele>817.0</ele><time>2026-04-18T13:33:41Z</time></trkpt><trkpt lat="42.06915084483508" lon="13.435013717193673"><ele>815.5</ele><time>2026-04-18T13:33:42Z</time></trkpt><trkpt lat="42.068887484716065" lon="13.435049800318195"><ele>814.0</ele><time>2026-04-18T13:33:43Z</time></trkpt><trkpt lat="42.06863918211671" lon="13.435081750332179"><ele>814.0</ele><time>2026-04-18T13:33:44Z</time></trkpt><trkpt lat="42.06840667444513" lon="13.435115037709952"><ele>814.0</ele><time>2026-04-18T13:33:45Z</time></trkpt><trkpt lat="42.06819739138952" lon="13.43514561527549"><ele>814.0</ele><time>2026-04-18T13:33:46Z</time></trkpt><trkpt lat="42.067991061755286" lon="13.435175549953868"><ele>813.3333333333333</ele><time>2026-04-18T13:33:47Z</time></trkpt><trkpt lat="42.06779773097644" lon="13.43520330646781"><ele>812.6666666666667</ele><time>2026-04-18T13:33:48Z</time></trkpt><trkpt lat="42.06761721640754" lon="13.435229475204965"><ele>812.0</ele><time>2026-04-18T13:33:49Z</time></trkpt><trkpt lat="42.06744698333826" lon="13.43525377632348"><ele>812.0</ele><time>2026-04-18T13:33:50Z</time></trkpt><trkpt lat="42.06728757843917" lon="13.43527700021587"><ele>812.0</ele><time>2026-04-18T13:33:51Z</time></trkpt><trkpt lat="42.06713032252627" lon="13.435296481508509"><ele>812.0</ele><time>2026-04-18T13:33:52Z</time></trkpt><trkpt lat="42.06698800862481" lon="13.435320926731602"><ele>812.0</ele><time>2026-04-18T13:33:53Z</time></trkpt><trkpt lat="42.06685190014016" lon="13.435341481899812"><ele>812.0</ele><time>2026-04-18T13:33:54Z</time></trkpt><trkpt lat="42.06672629621365" lon="13.43535887941791"><ele>812.0</ele><time>2026-04-18T13:33:55Z</time></trkpt><trkpt lat="42.06660218757238" lon="13.435373450009068"><ele>812.0</ele><time>2026-04-18T13:33:56Z</time></trkpt><trkpt lat="42.06648045595899" lon="13.435380440047004"><ele>810.75</ele><time>2026-04-18T13:33:57Z</time></trkpt><trkpt lat="42.06634755221409" lon="13.435388203558391"><ele>809.5</ele><time>2026-04-18T13:33:58Z</time></trkpt><trkpt lat="42.06620304054623" lon="13.435398143748476"><ele>808.25</ele><time>2026-04-18T13:33:59Z</time></trkpt><trkpt lat="42.06604429779465" lon="13.435398819014727"><ele>807.0</ele><time>2026-04-18T13:34:00Z</time></trkpt><trkpt lat="42.065869142766196" lon="13.435382800295631"><ele>805.6666666666667</ele><time>2026-04-18T13:34:01Z</time></trkpt><trkpt lat="42.065673094825705" lon="13.435365391254294"><ele>804.3333333333334</ele><time>2026-04-18T13:34:02Z</time></trkpt><trkpt lat="42.06544796904946" lon="13.435340630195714"><ele>803.0</ele><time>2026-04-18T13:34:03Z</time></trkpt><trkpt lat="42.065198164961" lon="13.435307673307527"><ele>802.5</ele><time>2026-04-18T13:34:03.999Z</time></trkpt><trkpt lat="42.06493274822274" lon="13.435268105785019"><ele>802.0</ele><time>2026-04-18T13:34:04.999Z</time></trkpt><trkpt lat="42.064646927162656" lon="13.435220497525005"><ele>802.0</ele><time>2026-04-18T13:34:05.999Z</time></trkpt><trkpt lat="42.06434789468875" lon="13.435172844067553"><ele>802.0</ele><time>2026-04-18T13:34:06.999Z</time></trkpt><trkpt lat="42.064029688960524" lon="13.435130931321629"><ele>801.0</ele><time>2026-04-18T13:34:07.999Z</time></trkpt><trkpt lat="42.06371672839424" lon="13.435089948911447"><ele>800.0</ele><time>2026-04-18T13:34:08.999Z</time></trkpt><trkpt lat="42.063420347030046" lon="13.435055300829694"><ele>797.0</ele><time>2026-04-18T13:34:09.999Z</time></trkpt><trkpt lat="42.06311150763958" lon="13.435014691523168"><ele>794.0</ele><time>2026-04-18T13:34:10.999Z</time></trkpt><trkpt lat="42.06281029654523" lon="13.43497566512901"><ele>794.0</ele><time>2026-04-18T13:34:11.999Z</time></trkpt><trkpt lat="42.06251150061478" lon="13.43493807295777"><ele>794.0</ele><time>2026-04-18T13:34:12.999Z</time></trkpt><trkpt lat="42.06220578303909" lon="13.434899699844621"><ele>792.0</ele><time>2026-04-18T13:34:13.999Z</time></trkpt><trkpt lat="42.06189617704541" lon="13.434861003974222"><ele>790.0</ele><time>2026-04-18T13:34:14.999Z</time></trkpt><trkpt lat="42.061582614105085" lon="13.434818949955222"><ele>788.0</ele><time>2026-04-18T13:34:15.999Z</time></trkpt><trkpt lat="42.06126447811311" lon="13.434780416390911"><ele>786.0</ele><time>2026-04-18T13:34:16.999Z</time></trkpt><trkpt lat="42.06094681644887" lon="13.434742288025745"><ele>786.0</ele><time>2026-04-18T13:34:17.999Z</time></trkpt><trkpt lat="42.060656149937884" lon="13.434704375368652"><ele>786.0</ele><time>2026-04-18T13:34:18.999Z</time></trkpt><trkpt lat="42.06038025314576" lon="13.434666896900687"><ele>785.0</ele><time>2026-04-18T13:34:19.999Z</time></trkpt><trkpt lat="42.06012026554643" lon="13.434634782551363"><ele>784.0</ele><time>2026-04-18T13:34:20.999Z</time></trkpt><trkpt lat="42.05986834350561" lon="13.434599343710689"><ele>782.5</ele><time>2026-04-18T13:34:21.999Z</time></trkpt><trkpt lat="42.0596363120485" lon="13.434564425613337"><ele>781.0</ele><time>2026-04-18T13:34:22.999Z</time></trkpt><trkpt lat="42.05941714805207" lon="13.43453486316223"><ele>781.0</ele><time>2026-04-18T13:34:23.999Z</time></trkpt><trkpt lat="42.05920809300194" lon="13.434507640888159"><ele>781.0</ele><time>2026-04-18T13:34:24.999Z</time></trkpt><trkpt lat="42.059007902078" lon="13.434479876916054"><ele>781.0</ele><time>2026-04-18T13:34:25.999Z</time></trkpt><trkpt lat="42.05881897215225" lon="13.434454006056262"><ele>779.3333333333333</ele><time>2026-04-18T13:34:26.999Z</time></trkpt><trkpt lat="42.05863581472817" lon="13.434430836968618"><ele>777.6666666666667</ele><time>2026-04-18T13:34:27.999Z</time></trkpt><trkpt lat="42.05846339112362" lon="13.434407640191264"><ele>776.0</ele><time>2026-04-18T13:34:28.999Z</time></trkpt><trkpt lat="42.058297594018676" lon="13.434384867800766"><ele>774.5</ele><time>2026-04-18T13:34:29.999Z</time></trkpt><trkpt lat="42.058139887752056" lon="13.4343659743655"><ele>773.0</ele><time>2026-04-18T13:34:30.999Z</time></trkpt><trkpt lat="42.057990701707375" lon="13.43434701312831"><ele>771.5</ele><time>2026-04-18T13:34:31.999Z</time></trkpt><trkpt lat="42.0578562743315" lon="13.43432993249777"><ele>770.0</ele><time>2026-04-18T13:34:32.999Z</time></trkpt><trkpt lat="42.057733060520576" lon="13.434316156387606"><ele>770.0</ele><time>2026-04-18T13:34:33.999Z</time></trkpt><trkpt lat="42.05762408140154" lon="13.434303293565065"><ele>770.0</ele><time>2026-04-18T13:34:34.999Z</time></trkpt><trkpt lat="42.05751856303908" lon="13.434288039034168"><ele>770.0</ele><time>2026-04-18T13:34:35.999Z</time></trkpt><trkpt lat="42.05743043536867" lon="13.434257987253044"><ele>770.0</ele><time>2026-04-18T13:34:36.999Z</time></trkpt><trkpt lat="42.057357129850395" lon="13.434203330225841"><ele>770.0</ele><time>2026-04-18T13:34:37.999Z</time></trkpt><trkpt lat="42.05729889527422" lon="13.434137408401126"><ele>769.3333333333334</ele><time>2026-04-18T13:34:38.999Z</time></trkpt><trkpt lat="42.05724557321488" lon="13.434064429502135"><ele>768.6666666666667</ele><time>2026-04-18T13:34:39.999Z</time></trkpt><trkpt lat="42.05718532756285" lon="13.434026496903071"><ele>768.0</ele><time>2026-04-18T13:34:40.999Z</time></trkpt><trkpt lat="42.05711796749531" lon="13.434023314705495"><ele>767.3333333333334</ele><time>2026-04-18T13:34:41.999Z</time></trkpt><trkpt lat="42.05704989658846" lon="13.434063184133542"><ele>766.6666666666667</ele><time>2026-04-18T13:34:42.999Z</time></trkpt><trkpt lat="42.05697356215361" lon="13.434129317799616"><ele>766.0</ele><time>2026-04-18T13:34:43.999Z</time></trkpt><trkpt lat="42.05687208460946" lon="13.434147673049024"><ele>766.0</ele><time>2026-04-18T13:34:44.999Z</time></trkpt><trkpt lat="42.05674447092071" lon="13.434118363397328"><ele>766.0</ele><time>2026-04-18T13:34:45.999Z</time></trkpt><trkpt lat="42.056584115198895" lon="13.434073368640995"><ele>766.0</ele><time>2026-04-18T13:34:46.999Z</time></trkpt><trkpt lat="42.05640259463193" lon="13.434025747064425"><ele>766.0</ele><time>2026-04-18T13:34:47.999Z</time></trkpt><trkpt lat="42.056187990520755" lon="13.43397140830645"><ele>766.0</ele><time>2026-04-18T13:34:48.999Z</time></trkpt><trkpt lat="42.055962992591596" lon="13.433913719996378"><ele>766.0</ele><time>2026-04-18T13:34:49.999Z</time></trkpt><trkpt lat="42.05570824905511" lon="13.433844248945713"><ele>763.5</ele><time>2026-04-18T13:34:50.999Z</time></trkpt><trkpt lat="42.0554404456879" lon="13.433757109076762"><ele>761.0</ele><time>2026-04-18T13:34:51.999Z</time></trkpt><trkpt lat="42.055203361328246" lon="13.43367234383693"><ele>761.0</ele><time>2026-04-18T13:34:52.999Z</time></trkpt><trkpt lat="42.054984430270835" lon="13.433599526136316"><ele>761.0</ele><time>2026-04-18T13:34:53.999Z</time></trkpt><trkpt lat="42.054768431718365" lon="13.433539471947638"><ele>761.0</ele><time>2026-04-18T13:34:54.999Z</time></trkpt><trkpt lat="42.05457270674859" lon="13.433479254815719"><ele>759.6666666666666</ele><time>2026-04-18T13:34:55.999Z</time></trkpt><trkpt lat="42.054363753750486" lon="13.433474672963557"><ele>758.3333333333334</ele><time>2026-04-18T13:34:56.999Z</time></trkpt><trkpt lat="42.054156524625235" lon="13.43348188754788"><ele>757.0</ele><time>2026-04-18T13:34:58Z</time></trkpt><trkpt lat="42.05396294954977" lon="13.433501292998626"><ele>756.0</ele><time>2026-04-18T13:34:59Z</time></trkpt><trkpt lat="42.0537817218457" lon="13.433525370490356"><ele>755.0</ele><time>2026-04-18T13:35:00Z</time></trkpt><trkpt lat="42.053609544777984" lon="13.433551948891784"><ele>754.0</ele><time>2026-04-18T13:35:01Z</time></trkpt><trkpt lat="42.05344580928176" lon="13.433580174938783"><ele>754.0</ele><time>2026-04-18T13:35:02Z</time></trkpt><trkpt lat="42.053289785478555" lon="13.433602433898102"><ele>754.0</ele><time>2026-04-18T13:35:03Z</time></trkpt><trkpt lat="42.05314157086488" lon="13.43362084510391"><ele>754.0</ele><time>2026-04-18T13:35:04Z</time></trkpt><trkpt lat="42.05299711180224" lon="13.43364143075868"><ele>752.3333333333334</ele><time>2026-04-18T13:35:05Z</time></trkpt><trkpt lat="42.052844044841365" lon="13.433665272907739"><ele>750.6666666666666</ele><time>2026-04-18T13:35:06Z</time></trkpt><trkpt lat="42.05268492387938" lon="13.433691213197283"><ele>749.0</ele><time>2026-04-18T13:35:07Z</time></trkpt><trkpt lat="42.05252132684774" lon="13.433719379988789"><ele>748.6666666666666</ele><time>2026-04-18T13:35:08Z</time></trkpt><trkpt lat="42.05235421616722" lon="13.433757222773307"><ele>748.3333333333334</ele><time>2026-04-18T13:35:09Z</time></trkpt><trkpt lat="42.05219192189324" lon="13.43379918733937"><ele>748.0</ele><time>2026-04-18T13:35:10Z</time></trkpt><trkpt lat="42.05204109154244" lon="13.433846106597406"><ele>748.0</ele><time>2026-04-18T13:35:11Z</time></trkpt><trkpt lat="42.05189949226625" lon="13.433890690821247"><ele>748.0</ele><time>2026-04-18T13:35:12Z</time></trkpt><trkpt lat="42.05176607580858" lon="13.433927936109072"><ele>748.0</ele><time>2026-04-18T13:35:13Z</time></trkpt><trkpt lat="42.05163893187697" lon="13.433971060257122"><ele>748.0</ele><time>2026-04-18T13:35:14Z</time></trkpt><trkpt lat="42.05151988345182" lon="13.4340159374011"><ele>747.2</ele><time>2026-04-18T13:35:15Z</time></trkpt><trkpt lat="42.05141336318548" lon="13.434055518231272"><ele>746.4</ele><time>2026-04-18T13:35:16Z</time></trkpt><trkpt lat="42.05130696573179" lon="13.434091578893904"><ele>745.6</ele><time>2026-04-18T13:35:17Z</time></trkpt><trkpt lat="42.05120673772444" lon="13.434127911237589"><ele>744.8000000000001</ele><time>2026-04-18T13:35:18Z</time></trkpt><trkpt lat="42.05109354081935" lon="13.434168774921247"><ele>744.0</ele><time>2026-04-18T13:35:19Z</time></trkpt><trkpt lat="42.05096517079284" lon="13.434189721333663"><ele>744.0</ele><time>2026-04-18T13:35:20Z</time></trkpt><trkpt lat="42.05082962313826" lon="13.434203607520622"><ele>744.0</ele><time>2026-04-18T13:35:21Z</time></trkpt><trkpt lat="42.050674656590154" lon="13.434211118860553"><ele>744.0</ele><time>2026-04-18T13:35:22Z</time></trkpt><trkpt lat="42.05051821177772" lon="13.434204336395203"><ele>744.0</ele><time>2026-04-18T13:35:23Z</time></trkpt><trkpt lat="42.05036609195735" lon="13.434194555135166"><ele>743.75</ele><time>2026-04-18T13:35:24Z</time></trkpt><trkpt lat="42.050224054142184" lon="13.434184008323573"><ele>743.5</ele><time>2026-04-18T13:35:25Z</time></trkpt><trkpt lat="42.050089287801455" lon="13.434169273089704"><ele>743.25</ele><time>2026-04-18T13:35:26Z</time></trkpt><trkpt lat="42.04996099315842" lon="13.434154601934672"><ele>743.0</ele><time>2026-04-18T13:35:27Z</time></trkpt><trkpt lat="42.0498336349389" lon="13.434141713841388"><ele>741.75</ele><time>2026-04-18T13:35:28Z</time></trkpt><trkpt lat="42.049703920068396" lon="13.434127433499446"><ele>740.5</ele><time>2026-04-18T13:35:29Z</time></trkpt><trkpt lat="42.04957191810182" lon="13.43411159637613"><ele>739.25</ele><time>2026-04-18T13:35:30Z</time></trkpt><trkpt lat="42.049436087612655" lon="13.434093111322866"><ele>738.0</ele><time>2026-04-18T13:35:31Z</time></trkpt><trkpt lat="42.049294873582916" lon="13.434070030245962"><ele>738.0</ele><time>2026-04-18T13:35:32Z</time></trkpt><trkpt lat="42.049151528933095" lon="13.43403585091213"><ele>738.0</ele><time>2026-04-18T13:35:33Z</time></trkpt><trkpt lat="42.049003463018195" lon="13.433995088308887"><ele>738.0</ele><time>2026-04-18T13:35:34Z</time></trkpt><trkpt lat="42.048849188772564" lon="13.433946475383514"><ele>737.0</ele><time>2026-04-18T13:35:35Z</time></trkpt><trkpt lat="42.04869543221773" lon="13.433889089450954"><ele>736.0</ele><time>2026-04-18T13:35:36Z</time></trkpt><trkpt lat="42.04855114263848" lon="13.43383521054873"><ele>735.0</ele><time>2026-04-18T13:35:37Z</time></trkpt><trkpt lat="42.04841110857656" lon="13.433786001026188"><ele>734.5</ele><time>2026-04-18T13:35:38Z</time></trkpt><trkpt lat="42.04827625031652" lon="13.433737403902647"><ele>734.0</ele><time>2026-04-18T13:35:39Z</time></trkpt><trkpt lat="42.04814172416573" lon="13.433687169390694"><ele>733.5</ele><time>2026-04-18T13:35:40Z</time></trkpt><trkpt lat="42.04800159810475" lon="13.433638315021863"><ele>733.0</ele><time>2026-04-18T13:35:41Z</time></trkpt><trkpt lat="42.04785393351231" lon="13.433593209916621"><ele>733.0</ele><time>2026-04-18T13:35:42Z</time></trkpt><trkpt lat="42.0476998496132" lon="13.433544431843375"><ele>733.0</ele><time>2026-04-18T13:35:43Z</time></trkpt><trkpt lat="42.04755101163348" lon="13.433498428747166"><ele>733.0</ele><time>2026-04-18T13:35:44Z</time></trkpt><trkpt lat="42.047410155951" lon="13.433449184915998"><ele>732.5</ele><time>2026-04-18T13:35:45Z</time></trkpt><trkpt lat="42.04727632462132" lon="13.433399246270579"><ele>732.0</ele><time>2026-04-18T13:35:46Z</time></trkpt><trkpt lat="42.0471466828484" lon="13.433354221316838"><ele>731.5</ele><time>2026-04-18T13:35:47Z</time></trkpt><trkpt lat="42.047020439652975" lon="13.433310305633599"><ele>731.0</ele><time>2026-04-18T13:35:48Z</time></trkpt><trkpt lat="42.04689792244099" lon="13.433267622985138"><ele>731.0</ele><time>2026-04-18T13:35:49Z</time></trkpt><trkpt lat="42.046776217593425" lon="13.43323431751674"><ele>731.0</ele><time>2026-04-18T13:35:50Z</time></trkpt><trkpt lat="42.04665762082677" lon="13.43319960137936"><ele>731.0</ele><time>2026-04-18T13:35:51Z</time></trkpt><trkpt lat="42.04653756087142" lon="13.43316264736587"><ele>731.0</ele><time>2026-04-18T13:35:52Z</time></trkpt><trkpt lat="42.04642197274339" lon="13.433127006964357"><ele>730.0</ele><time>2026-04-18T13:35:53Z</time></trkpt><trkpt lat="42.04631251008895" lon="13.433094944156528"><ele>729.0</ele><time>2026-04-18T13:35:54Z</time></trkpt><trkpt lat="42.04620573847514" lon="13.433064875430178"><ele>728.0</ele><time>2026-04-18T13:35:55Z</time></trkpt><trkpt lat="42.04610114535611" lon="13.433034346020648"><ele>727.0</ele><time>2026-04-18T13:35:56Z</time></trkpt><trkpt lat="42.045998246111914" lon="13.433008052110818"><ele>726.0</ele><time>2026-04-18T13:35:57Z</time></trkpt><trkpt lat="42.04589424996691" lon="13.4329815041382"><ele>725.1999999999999</ele><time>2026-04-18T13:35:58Z</time></trkpt><trkpt lat="42.04578811013248" lon="13.432956737143128"><ele>724.4</ele><time>2026-04-18T13:35:59Z</time></trkpt><trkpt lat="42.0456811694007" lon="13.432936800293938"><ele>723.6</ele><time>2026-04-18T13:36:00Z</time></trkpt><trkpt lat="42.04557170542156" lon="13.43292360310975"><ele>722.8</ele><time>2026-04-18T13:36:01Z</time></trkpt><trkpt lat="42.045466562482595" lon="13.432916121181966"><ele>722.0</ele><time>2026-04-18T13:36:02Z</time></trkpt><trkpt lat="42.04535559195795" lon="13.432912539248152"><ele>722.0</ele><time>2026-04-18T13:36:03Z</time></trkpt><trkpt lat="42.0452504228458" lon="13.432906585492569"><ele>722.0</ele><time>2026-04-18T13:36:04Z</time></trkpt><trkpt lat="42.04514817207797" lon="13.432900982238841"><ele>722.0</ele><time>2026-04-18T13:36:05Z</time></trkpt><trkpt lat="42.04504970761764" lon="13.432896223102535"><ele>722.0</ele><time>2026-04-18T13:36:06Z</time></trkpt><trkpt lat="42.0449519668645" lon="13.43289186637481"><ele>722.0</ele><time>2026-04-18T13:36:06.999Z</time></trkpt><trkpt lat="42.04485266075831" lon="13.432885697123137"><ele>721.4000000000001</ele><time>2026-04-18T13:36:07.999Z</time></trkpt><trkpt lat="42.044754627386794" lon="13.4328751787088"><ele>720.8000000000001</ele><time>2026-04-18T13:36:08.999Z</time></trkpt><trkpt lat="42.04465844989235" lon="13.432859464369335"><ele>720.2</ele><time>2026-04-18T13:36:09.999Z</time></trkpt><trkpt lat="42.044569811215936" lon="13.43284242550329"><ele>719.6</ele><time>2026-04-18T13:36:10.999Z</time></trkpt><trkpt lat="42.04449355736627" lon="13.432826893688663"><ele>719.0</ele><time>2026-04-18T13:36:11.999Z</time></trkpt><trkpt lat="42.04438344841529" lon="13.432791318587519"><ele>719.0</ele><time>2026-04-18T13:36:13.999Z</time></trkpt><trkpt lat="42.04431668479875" lon="13.432758654121036"><ele>719.0</ele><time>2026-04-18T13:36:15.999Z</time></trkpt><trkpt lat="42.04425461881833" lon="13.432707726824836"><ele>719.0</ele><time>2026-04-18T13:36:17.999Z</time></trkpt><trkpt lat="42.0441813118664" lon="13.43260328721655"><ele>719.0</ele><time>2026-04-18T13:36:19.999Z</time></trkpt><trkpt lat="42.04406875378319" lon="13.432577753664562"><ele>719.0</ele><time>2026-04-18T13:36:21.999Z</time></trkpt><trkpt lat="42.0439774493441" lon="13.43267893461619"><ele>718.6</ele><time>2026-04-18T13:36:23.999Z</time></trkpt><trkpt lat="42.04393628298731" lon="13.432748321928253"><ele>718.2</ele><time>2026-04-18T13:36:24.999Z</time></trkpt><trkpt lat="42.04380012166093" lon="13.432822394264718"><ele>717.8000000000001</ele><time>2026-04-18T13:36:26.999Z</time></trkpt><trkpt lat="42.04370213810709" lon="13.432782767533624"><ele>717.4000000000001</ele><time>2026-04-18T13:36:27.999Z</time></trkpt><trkpt lat="42.04363100868592" lon="13.432797178744572"><ele>717.0</ele><time>2026-04-18T13:36:28.999Z</time></trkpt><trkpt lat="42.043550695113495" lon="13.432812381439895"><ele>717.0</ele><time>2026-04-18T13:36:29.999Z</time></trkpt><trkpt lat="42.043462670598196" lon="13.432822827937528"><ele>717.0</ele><time>2026-04-18T13:36:30.999Z</time></trkpt><trkpt lat="42.04337829625574" lon="13.43282292939515"><ele>717.0</ele><time>2026-04-18T13:36:31.999Z</time></trkpt><trkpt lat="42.043296858451946" lon="13.432812155115847"><ele>717.0</ele><time>2026-04-18T13:36:32.999Z</time></trkpt><trkpt lat="42.04321920323562" lon="13.432802331121547"><ele>717.0</ele><time>2026-04-18T13:36:33.999Z</time></trkpt><trkpt lat="42.04314355797125" lon="13.43279928146697"><ele>717.0</ele><time>2026-04-18T13:36:34.999Z</time></trkpt><trkpt lat="42.04307077493778" lon="13.432807825088421"><ele>716.0</ele><time>2026-04-18T13:36:35.999Z</time></trkpt><trkpt lat="42.0429958842917" lon="13.4328237224077"><ele>715.0</ele><time>2026-04-18T13:36:36.999Z</time></trkpt><trkpt lat="42.0429190746049" lon="13.432852536826456"><ele>714.0</ele><time>2026-04-18T13:36:37.999Z</time></trkpt><trkpt lat="42.04283888480985" lon="13.432891135175765"><ele>713.0</ele><time>2026-04-18T13:36:38.999Z</time></trkpt><trkpt lat="42.04276055726105" lon="13.432936820756844"><ele>712.0</ele><time>2026-04-18T13:36:39.999Z</time></trkpt><trkpt lat="42.042682330358716" lon="13.43299503312366"><ele>711.0</ele><time>2026-04-18T13:36:40.999Z</time></trkpt><trkpt lat="42.04260030293052" lon="13.433061936996456"><ele>710.6666666666666</ele><time>2026-04-18T13:36:41.999Z</time></trkpt><trkpt lat="42.04251813709027" lon="13.433123663949544"><ele>710.3333333333334</ele><time>2026-04-18T13:36:42.999Z</time></trkpt><trkpt lat="42.04244263728693" lon="13.43318198411142"><ele>710.0</ele><time>2026-04-18T13:36:43.999Z</time></trkpt><trkpt lat="42.04236514640199" lon="13.433241867389897"><ele>709.6666666666667</ele><time>2026-04-18T13:36:44.999Z</time></trkpt><trkpt lat="42.042289973238155" lon="13.433303156570929"><ele>709.3333333333334</ele><time>2026-04-18T13:36:45.999Z</time></trkpt><trkpt lat="42.04221472544226" lon="13.433360723851907"><ele>709.0</ele><time>2026-04-18T13:36:46.999Z</time></trkpt><trkpt lat="42.042136600648725" lon="13.433430165045495"><ele>707.8000000000001</ele><time>2026-04-18T13:36:47.999Z</time></trkpt><trkpt lat="42.042048415008665" lon="13.43349418141428"><ele>706.6</ele><time>2026-04-18T13:36:48.999Z</time></trkpt><trkpt lat="42.04195140934053" lon="13.433570062067057"><ele>705.4</ele><time>2026-04-18T13:36:49.999Z</time></trkpt><trkpt lat="42.0418513902849" lon="13.433643636348451"><ele>704.2</ele><time>2026-04-18T13:36:50.999Z</time></trkpt><trkpt lat="42.041752260616065" lon="13.43371201342637"><ele>703.0</ele><time>2026-04-18T13:36:51.999Z</time></trkpt><trkpt lat="42.04165384098118" lon="13.433777090080993"><ele>701.25</ele><time>2026-04-18T13:36:52.999Z</time></trkpt><trkpt lat="42.04157672200199" lon="13.433848135574895"><ele>699.5</ele><time>2026-04-18T13:36:53.999Z</time></trkpt><trkpt lat="42.04145603113803" lon="13.433919744086701"><ele>697.75</ele><time>2026-04-18T13:36:54.999Z</time></trkpt><trkpt lat="42.04133314452361" lon="13.433998948349858"><ele>696.0</ele><time>2026-04-18T13:36:55.999Z</time></trkpt><trkpt lat="42.04121797055879" lon="13.434090475290844"><ele>696.0</ele><time>2026-04-18T13:36:56.999Z</time></trkpt><trkpt lat="42.04109543186457" lon="13.434177121638614"><ele>696.0</ele><time>2026-04-18T13:36:57.999Z</time></trkpt><trkpt lat="42.040983295465246" lon="13.434257269884638"><ele>696.0</ele><time>2026-04-18T13:36:58.999Z</time></trkpt><trkpt lat="42.04087605503141" lon="13.43433547923464"><ele>696.0</ele><time>2026-04-18T13:36:59.999Z</time></trkpt><trkpt lat="42.040775401618674" lon="13.434411924571332"><ele>696.1999999999999</ele><time>2026-04-18T13:37:00.999Z</time></trkpt><trkpt lat="42.04067803599333" lon="13.43448367793967"><ele>696.4</ele><time>2026-04-18T13:37:01.999Z</time></trkpt><trkpt lat="42.040585895091596" lon="13.434550953614481"><ele>696.6</ele><time>2026-04-18T13:37:02.999Z</time></trkpt><trkpt lat="42.040496016500626" lon="13.434617884324783"><ele>696.8</ele><time>2026-04-18T13:37:04Z</time></trkpt><trkpt lat="42.040409071734224" lon="13.434683505204946"><ele>697.0</ele><time>2026-04-18T13:37:05Z</time></trkpt><trkpt lat="42.04032452436139" lon="13.434747636247591"><ele>696.2</ele><time>2026-04-18T13:37:06Z</time></trkpt><trkpt lat="42.040239282416884" lon="13.434814453823506"><ele>695.4000000000001</ele><time>2026-04-18T13:37:07Z</time></trkpt><trkpt lat="42.04015155188612" lon="13.434881607094402"><ele>694.5999999999999</ele><time>2026-04-18T13:37:08Z</time></trkpt><trkpt lat="42.04006001748794" lon="13.434953352894127"><ele>693.8</ele><time>2026-04-18T13:37:09Z</time></trkpt><trkpt lat="42.0399564689464" lon="13.435035709475592"><ele>693.0</ele><time>2026-04-18T13:37:10Z</time></trkpt><trkpt lat="42.039848216837676" lon="13.435122157342535"><ele>692.75</ele><time>2026-04-18T13:37:11Z</time></trkpt><trkpt lat="42.03973707760259" lon="13.435200904460107"><ele>692.5</ele><time>2026-04-18T13:37:12Z</time></trkpt><trkpt lat="42.039624828612745" lon="13.435281948395216"><ele>692.25</ele><time>2026-04-18T13:37:13Z</time></trkpt><trkpt lat="42.03950371156602" lon="13.435382481910786"><ele>692.0</ele><time>2026-04-18T13:37:14Z</time></trkpt><trkpt lat="42.03937697402989" lon="13.435481646363163"><ele>691.75</ele><time>2026-04-18T13:37:15Z</time></trkpt><trkpt lat="42.03925950485569" lon="13.435571130334916"><ele>691.5</ele><time>2026-04-18T13:37:16Z</time></trkpt><trkpt lat="42.03914815821773" lon="13.435649625502672"><ele>691.25</ele><time>2026-04-18T13:37:17Z</time></trkpt><trkpt lat="42.03903943240818" lon="13.435722720574777"><ele>691.0</ele><time>2026-04-18T13:37:18Z</time></trkpt><trkpt lat="42.03893829760319" lon="13.435791799230417"><ele>690.8333333333334</ele><time>2026-04-18T13:37:19Z</time></trkpt><trkpt lat="42.038844969042934" lon="13.435860309005811"><ele>690.6666666666667</ele><time>2026-04-18T13:37:20Z</time></trkpt><trkpt lat="42.03875849551489" lon="13.435923600980903"><ele>690.5</ele><time>2026-04-18T13:37:21Z</time></trkpt><trkpt lat="42.03868164173714" lon="13.435981554329922"><ele>690.3333333333334</ele><time>2026-04-18T13:37:22Z</time></trkpt><trkpt lat="42.03861512306081" lon="13.436038417636444"><ele>690.1666666666666</ele><time>2026-04-18T13:37:23Z</time></trkpt><trkpt lat="42.03856125248361" lon="13.436092685302976"><ele>690.0</ele><time>2026-04-18T13:37:24Z</time></trkpt><trkpt lat="42.03845979009929" lon="13.43616953067642"><ele>690.0</ele><time>2026-04-18T13:37:26Z</time></trkpt><trkpt lat="42.03837965316852" lon="13.436227100035962"><ele>690.0</ele><time>2026-04-18T13:37:28Z</time></trkpt><trkpt lat="42.03829182654831" lon="13.436274910314648"><ele>690.0</ele><time>2026-04-18T13:37:30Z</time></trkpt><trkpt lat="42.03820534729673" lon="13.436343859871663"><ele>690.0</ele><time>2026-04-18T13:37:32Z</time></trkpt><trkpt lat="42.03813520987266" lon="13.4363942856867"><ele>690.0</ele><time>2026-04-18T13:37:34Z</time></trkpt><trkpt lat="42.03817639760289" lon="13.436586386437591"><ele>689.8333333333334</ele><time>2026-04-18T13:37:36Z</time></trkpt><trkpt lat="42.038236481289914" lon="13.43672638439777"><ele>689.6666666666666</ele><time>2026-04-18T13:37:38Z</time></trkpt><trkpt lat="42.03827134641808" lon="13.436807338442224"><ele>689.5</ele><time>2026-04-18T13:37:39Z</time></trkpt><trkpt lat="42.0383066550617" lon="13.436890887049527"><ele>689.3333333333333</ele><time>2026-04-18T13:37:40Z</time></trkpt><trkpt lat="42.03834482000309" lon="13.436979764034346"><ele>689.1666666666666</ele><time>2026-04-18T13:37:41Z</time></trkpt><trkpt lat="42.038383197982924" lon="13.43706907197618"><ele>689.0</ele><time>2026-04-18T13:37:42Z</time></trkpt><trkpt lat="42.03842456944284" lon="13.437169679879613"><ele>688.6</ele><time>2026-04-18T13:37:43Z</time></trkpt><trkpt lat="42.03846380095164" lon="13.437265358750924"><ele>688.2</ele><time>2026-04-18T13:37:44Z</time></trkpt><trkpt lat="42.038504914652634" lon="13.437366701721253"><ele>687.8000000000001</ele><time>2026-04-18T13:37:45Z</time></trkpt><trkpt lat="42.03854922527339" lon="13.437474349016172"><ele>687.4000000000001</ele><time>2026-04-18T13:37:46Z</time></trkpt><trkpt lat="42.038596120113375" lon="13.437587338340775"><ele>687.0</ele><time>2026-04-18T13:37:47Z</time></trkpt><trkpt lat="42.038643453603704" lon="13.437702470002423"><ele>687.0</ele><time>2026-04-18T13:37:48Z</time></trkpt><trkpt lat="42.03869040716977" lon="13.437817343387612"><ele>687.0</ele><time>2026-04-18T13:37:49Z</time></trkpt><trkpt lat="42.03873937531809" lon="13.437927508545341"><ele>687.0</ele><time>2026-04-18T13:37:50Z</time></trkpt><trkpt lat="42.038788456165314" lon="13.438042358748763"><ele>687.0</ele><time>2026-04-18T13:37:51Z</time></trkpt><trkpt lat="42.038839177748464" lon="13.438160312304523"><ele>687.0</ele><time>2026-04-18T13:37:52Z</time></trkpt><trkpt lat="42.03889078474715" lon="13.4382825064263"><ele>687.0</ele><time>2026-04-18T13:37:53Z</time></trkpt><trkpt lat="42.03894599844933" lon="13.438406290003735"><ele>687.0</ele><time>2026-04-18T13:37:54Z</time></trkpt><trkpt lat="42.0390018227803" lon="13.438539804081485"><ele>687.0</ele><time>2026-04-18T13:37:55Z</time></trkpt><trkpt lat="42.03905524495074" lon="13.438670042028319"><ele>687.0</ele><time>2026-04-18T13:37:56Z</time></trkpt><trkpt lat="42.03910453856727" lon="13.438789422081232"><ele>687.0</ele><time>2026-04-18T13:37:57Z</time></trkpt><trkpt lat="42.03915085629604" lon="13.43890184927519"><ele>687.6</ele><time>2026-04-18T13:37:58Z</time></trkpt><trkpt lat="42.039195652353584" lon="13.439011257314316"><ele>688.2</ele><time>2026-04-18T13:37:59Z</time></trkpt><trkpt lat="42.039245309138366" lon="13.439126556738737"><ele>688.8</ele><time>2026-04-18T13:38:00Z</time></trkpt><trkpt lat="42.03929671545606" lon="13.439244612466043"><ele>689.4</ele><time>2026-04-18T13:38:01Z</time></trkpt><trkpt lat="42.03934364530032" lon="13.439358640119805"><ele>690.0</ele><time>2026-04-18T13:38:02Z</time></trkpt><trkpt lat="42.03938518757633" lon="13.439463277530715"><ele>690.0</ele><time>2026-04-18T13:38:03Z</time></trkpt><trkpt lat="42.03942048875286" lon="13.439561581131878"><ele>690.0</ele><time>2026-04-18T13:38:04Z</time></trkpt><trkpt lat="42.03944606936596" lon="13.439650726224341"><ele>690.0</ele><time>2026-04-18T13:38:05Z</time></trkpt><trkpt lat="42.03945509183472" lon="13.439804077503316"><ele>690.0</ele><time>2026-04-18T13:38:07Z</time></trkpt><trkpt lat="42.039409799697864" lon="13.439911992898152"><ele>690.0</ele><time>2026-04-18T13:38:08.999Z</time></trkpt><trkpt lat="42.03935756175939" lon="13.440010913323981"><ele>690.0</ele><time>2026-04-18T13:38:10.999Z</time></trkpt><trkpt lat="42.03940325070022" lon="13.440137270165009"><ele>689.6</ele><time>2026-04-18T13:38:12.999Z</time></trkpt><trkpt lat="42.03949886353615" lon="13.440202417192273"><ele>689.2</ele><time>2026-04-18T13:38:14.999Z</time></trkpt><trkpt lat="42.039592735046874" lon="13.44019822458762"><ele>688.8</ele><time>2026-04-18T13:38:16.999Z</time></trkpt><trkpt lat="42.0396707388389" lon="13.440243389090057"><ele>688.4</ele><time>2026-04-18T13:38:18.999Z</time></trkpt><trkpt lat="42.03975165674043" lon="13.440345844246822"><ele>688.0</ele><time>2026-04-18T13:38:20.999Z</time></trkpt><trkpt lat="42.03982002356435" lon="13.440467302500089"><ele>687.75</ele><time>2026-04-18T13:38:22.999Z</time></trkpt><trkpt lat="42.03988396220758" lon="13.440595601759933"><ele>687.5</ele><time>2026-04-18T13:38:24.999Z</time></trkpt><trkpt lat="42.039955775970306" lon="13.44073286255861"><ele>687.25</ele><time>2026-04-18T13:38:26.999Z</time></trkpt><trkpt lat="42.04002916219166" lon="13.440868890551368"><ele>687.0</ele><time>2026-04-18T13:38:28.999Z</time></trkpt><trkpt lat="42.04009677853907" lon="13.440994339746164"><ele>687.8</ele><time>2026-04-18T13:38:30.999Z</time></trkpt><trkpt lat="42.04015449092713" lon="13.441101785064872"><ele>688.6</ele><time>2026-04-18T13:38:32.999Z</time></trkpt><trkpt lat="42.04021031928088" lon="13.441200657303964"><ele>689.4</ele><time>2026-04-18T13:38:34.999Z</time></trkpt><trkpt lat="42.0402718374376" lon="13.441311206936005"><ele>690.1999999999999</ele><time>2026-04-18T13:38:36.999Z</time></trkpt><trkpt lat="42.04033817122346" lon="13.441437508739561"><ele>691.0</ele><time>2026-04-18T13:38:38.999Z</time></trkpt><trkpt lat="42.04040068381075" lon="13.44157937352725"><ele>690.9999999999999</ele><time>2026-04-18T13:38:40.999Z</time></trkpt><trkpt lat="42.040444692965835" lon="13.441640899651146"><ele>691.0</ele><time>2026-04-18T13:38:41.999Z</time></trkpt><trkpt lat="42.040484415478836" lon="13.441712662954572"><ele>691.0</ele><time>2026-04-18T13:38:42.999Z</time></trkpt><trkpt lat="42.040524559794584" lon="13.441784447120233"><ele>691.0</ele><time>2026-04-18T13:38:43.999Z</time></trkpt><trkpt lat="42.04056642188621" lon="13.441862564204968"><ele>691.0</ele><time>2026-04-18T13:38:44.999Z</time></trkpt><trkpt lat="42.04061155678077" lon="13.441944087726284"><ele>690.9999999999999</ele><time>2026-04-18T13:38:45.999Z</time></trkpt><trkpt lat="42.04065918333052" lon="13.442029644355749"><ele>691.0</ele><time>2026-04-18T13:38:46.999Z</time></trkpt><trkpt lat="42.04071636486682" lon="13.442117365868405"><ele>691.1999999999999</ele><time>2026-04-18T13:38:47.999Z</time></trkpt><trkpt lat="42.040786010008375" lon="13.442227125178592"><ele>691.4</ele><time>2026-04-18T13:38:48.999Z</time></trkpt><trkpt lat="42.04083258949701" lon="13.442369037100233"><ele>691.6</ele><time>2026-04-18T13:38:49.999Z</time></trkpt><trkpt lat="42.040889588510524" lon="13.442473673952925"><ele>691.8</ele><time>2026-04-18T13:38:50.999Z</time></trkpt><trkpt lat="42.04095119412881" lon="13.442560965935872"><ele>692.0</ele><time>2026-04-18T13:38:51.999Z</time></trkpt><trkpt lat="42.040993848029956" lon="13.442651882184451"><ele>692.8333333333333</ele><time>2026-04-18T13:38:52.999Z</time></trkpt><trkpt lat="42.041034815274266" lon="13.442731831591129"><ele>693.6666666666666</ele><time>2026-04-18T13:38:53.999Z</time></trkpt><trkpt lat="42.041073055405796" lon="13.442814523654826"><ele>694.5</ele><time>2026-04-18T13:38:54.999Z</time></trkpt><trkpt lat="42.04111143873809" lon="13.442898678756274"><ele>695.3333333333334</ele><time>2026-04-18T13:38:55.999Z</time></trkpt><trkpt lat="42.04115283617927" lon="13.442978961468292"><ele>696.1666666666667</ele><time>2026-04-18T13:38:56.999Z</time></trkpt><trkpt lat="42.0412024996202" lon="13.443075136166364"><ele>697.0</ele><time>2026-04-18T13:38:57.999Z</time></trkpt><trkpt lat="42.04126238419584" lon="13.443189810283924"><ele>697.0</ele><time>2026-04-18T13:38:58.999Z</time></trkpt><trkpt lat="42.04133073331791" lon="13.443315370131817"><ele>697.0</ele><time>2026-04-18T13:38:59.999Z</time></trkpt><trkpt lat="42.04141649019555" lon="13.443461949118149"><ele>697.0</ele><time>2026-04-18T13:39:00.999Z</time></trkpt><trkpt lat="42.041530364288306" lon="13.443655026157389"><ele>697.0</ele><time>2026-04-18T13:39:01.999Z</time></trkpt><trkpt lat="42.04166457837224" lon="13.443901969963399"><ele>697.5</ele><time>2026-04-18T13:39:02.999Z</time></trkpt><trkpt lat="42.041819691635794" lon="13.444180218739103"><ele>698.0</ele><time>2026-04-18T13:39:03.999Z</time></trkpt><trkpt lat="42.041974390391765" lon="13.444460457788688"><ele>698.5</ele><time>2026-04-18T13:39:04.999Z</time></trkpt><trkpt lat="42.04210206077982" lon="13.444705406239631"><ele>699.0</ele><time>2026-04-18T13:39:05.999Z</time></trkpt><trkpt lat="42.0422469890028" lon="13.44496650472965"><ele>699.0</ele><time>2026-04-18T13:39:06.999Z</time></trkpt><trkpt lat="42.042419958031395" lon="13.445279684288245"><ele>699.0</ele><time>2026-04-18T13:39:07.999Z</time></trkpt><trkpt lat="42.042587792497386" lon="13.44558146506473"><ele>700.0</ele><time>2026-04-18T13:39:08.999Z</time></trkpt><trkpt lat="42.04273112806568" lon="13.445853863704798"><ele>701.0</ele><time>2026-04-18T13:39:10Z</time></trkpt><trkpt lat="42.042870627001484" lon="13.446107842819536"><ele>702.0</ele><time>2026-04-18T13:39:11Z</time></trkpt><trkpt lat="42.04299620431873" lon="13.446345127338951"><ele>703.0</ele><time>2026-04-18T13:39:12Z</time></trkpt><trkpt lat="42.043134556743496" lon="13.446607085643194"><ele>703.0</ele><time>2026-04-18T13:39:13Z</time></trkpt><trkpt lat="42.04328568337399" lon="13.446884807905896"><ele>703.0</ele><time>2026-04-18T13:39:14Z</time></trkpt><trkpt lat="42.043442855954545" lon="13.44717657461061"><ele>703.0</ele><time>2026-04-18T13:39:15Z</time></trkpt><trkpt lat="42.043584255882394" lon="13.447436795895541"><ele>703.0</ele><time>2026-04-18T13:39:16Z</time></trkpt><trkpt lat="42.043708630470036" lon="13.447672167445292"><ele>703.0</ele><time>2026-04-18T13:39:17Z</time></trkpt><trkpt lat="42.043819724749994" lon="13.447884687540531"><ele>703.0</ele><time>2026-04-18T13:39:18Z</time></trkpt><trkpt lat="42.04392675513017" lon="13.4480806726057"><ele>703.0</ele><time>2026-04-18T13:39:19Z</time></trkpt><trkpt lat="42.04404519012291" lon="13.448298435425533"><ele>703.3333333333334</ele><time>2026-04-18T13:39:20Z</time></trkpt><trkpt lat="42.04417239221603" lon="13.448539259208362"><ele>703.6666666666666</ele><time>2026-04-18T13:39:21Z</time></trkpt><trkpt lat="42.0442799170169" lon="13.44873791191753"><ele>704.0</ele><time>2026-04-18T13:39:22Z</time></trkpt><trkpt lat="42.04437243890865" lon="13.44890955924165"><ele>703.25</ele><time>2026-04-18T13:39:23Z</time></trkpt><trkpt lat="42.04445473844805" lon="13.449064470230118"><ele>702.5</ele><time>2026-04-18T13:39:24Z</time></trkpt><trkpt lat="42.04452761765365" lon="13.449205827018936"><ele>701.75</ele><time>2026-04-18T13:39:25Z</time></trkpt><trkpt lat="42.04458656259317" lon="13.449329162385405"><ele>701.0</ele><time>2026-04-18T13:39:26Z</time></trkpt><trkpt lat="42.04462208059239" lon="13.449424147653067"><ele>701.0</ele><time>2026-04-18T13:39:28Z</time></trkpt><trkpt lat="42.044649456742874" lon="13.449533730650572"><ele>701.0</ele><time>2026-04-18T13:39:31Z</time></trkpt><trkpt lat="42.04470816644175" lon="13.449636752295376"><ele>701.0</ele><time>2026-04-18T13:39:33Z</time></trkpt><trkpt lat="42.04482484505559" lon="13.44976479214552"><ele>701.0</ele><time>2026-04-18T13:39:35Z</time></trkpt><trkpt lat="42.04490733882135" lon="13.449877329185888"><ele>702.0</ele><time>2026-04-18T13:39:36Z</time></trkpt><trkpt lat="42.044991405521024" lon="13.450026941999498"><ele>703.0</ele><time>2026-04-18T13:39:37Z</time></trkpt><trkpt lat="42.04509284760819" lon="13.450227935528302"><ele>704.0</ele><time>2026-04-18T13:39:38Z</time></trkpt><trkpt lat="42.04520916348302" lon="13.450453170100529"><ele>703.3333333333333</ele><time>2026-04-18T13:39:39Z</time></trkpt><trkpt lat="42.045337770684" lon="13.450691935963336"><ele>702.6666666666666</ele><time>2026-04-18T13:39:40Z</time></trkpt><trkpt lat="42.04545614363621" lon="13.450906143651267"><ele>702.0</ele><time>2026-04-18T13:39:41Z</time></trkpt><trkpt lat="42.04556016830184" lon="13.451098552703547"><ele>702.0</ele><time>2026-04-18T13:39:42Z</time></trkpt><trkpt lat="42.04565266991053" lon="13.451269751768118"><ele>702.0</ele><time>2026-04-18T13:39:43Z</time></trkpt><trkpt lat="42.045739567653065" lon="13.45143545844204"><ele>702.0</ele><time>2026-04-18T13:39:44Z</time></trkpt><trkpt lat="42.04582403232627" lon="13.451591457801625"><ele>702.5</ele><time>2026-04-18T13:39:45Z</time></trkpt><trkpt lat="42.045903722425344" lon="13.451734126616948"><ele>703.0</ele><time>2026-04-18T13:39:46Z</time></trkpt><trkpt lat="42.04597566267224" lon="13.451866566226629"><ele>703.5</ele><time>2026-04-18T13:39:47Z</time></trkpt><trkpt lat="42.046042849249766" lon="13.451989314330408"><ele>704.0</ele><time>2026-04-18T13:39:48Z</time></trkpt><trkpt lat="42.0461076203637" lon="13.452108263789423"><ele>704.0</ele><time>2026-04-18T13:39:49Z</time></trkpt><trkpt lat="42.04616425114487" lon="13.452210389714814"><ele>704.0</ele><time>2026-04-18T13:39:50Z</time></trkpt><trkpt lat="42.046216581380406" lon="13.452304017924138"><ele>704.0</ele><time>2026-04-18T13:39:51Z</time></trkpt><trkpt lat="42.04627146661311" lon="13.452402259149197"><ele>704.0</ele><time>2026-04-18T13:39:52Z</time></trkpt><trkpt lat="42.04632872923303" lon="13.452503011517647"><ele>704.0</ele><time>2026-04-18T13:39:53Z</time></trkpt><trkpt lat="42.04638812041274" lon="13.452609984249381"><ele>704.0</ele><time>2026-04-18T13:39:54Z</time></trkpt><trkpt lat="42.04644704237423" lon="13.452718801301094"><ele>704.0</ele><time>2026-04-18T13:39:55Z</time></trkpt><trkpt lat="42.04650626328732" lon="13.452830505135609"><ele>704.0</ele><time>2026-04-18T13:39:56Z</time></trkpt><trkpt lat="42.046570549306196" lon="13.45294431894406"><ele>704.0</ele><time>2026-04-18T13:39:57Z</time></trkpt><trkpt lat="42.04663993698675" lon="13.453070541219235"><ele>704.0</ele><time>2026-04-18T13:39:58Z</time></trkpt><trkpt lat="42.046754536774024" lon="13.453255921117387"><ele>704.3333333333333</ele><time>2026-04-18T13:39:59Z</time></trkpt><trkpt lat="42.04687875699814" lon="13.45348329234406"><ele>704.6666666666666</ele><time>2026-04-18T13:40:00Z</time></trkpt><trkpt lat="42.047007282523836" lon="13.453732425280547"><ele>705.0</ele><time>2026-04-18T13:40:01Z</time></trkpt><trkpt lat="42.04716804992806" lon="13.454028782451447"><ele>705.0</ele><time>2026-04-18T13:40:02Z</time></trkpt><trkpt lat="42.04734479761249" lon="13.454340278855799"><ele>705.0</ele><time>2026-04-18T13:40:03Z</time></trkpt><trkpt lat="42.047511136401695" lon="13.454587948460404"><ele>705.3333333333334</ele><time>2026-04-18T13:40:04Z</time></trkpt><trkpt lat="42.04767188958971" lon="13.454791075644515"><ele>705.6666666666667</ele><time>2026-04-18T13:40:05Z</time></trkpt><trkpt lat="42.04771320837031" lon="13.455037053656202"><ele>706.0</ele><time>2026-04-18T13:40:06Z</time></trkpt><trkpt lat="42.047836980157335" lon="13.455238457655735"><ele>706.0</ele><time>2026-04-18T13:40:06.999Z</time></trkpt><trkpt lat="42.0479368838297" lon="13.455426147397025"><ele>706.0</ele><time>2026-04-18T13:40:07.999Z</time></trkpt><trkpt lat="42.04802397124705" lon="13.455594406365195"><ele>706.0</ele><time>2026-04-18T13:40:08.999Z</time></trkpt><trkpt lat="42.0481069806761" lon="13.455750399335553"><ele>706.0</ele><time>2026-04-18T13:40:09.999Z</time></trkpt><trkpt lat="42.04818517279031" lon="13.455898456713198"><ele>706.0</ele><time>2026-04-18T13:40:10.999Z</time></trkpt><trkpt lat="42.048264565807294" lon="13.456050533427701"><ele>706.0</ele><time>2026-04-18T13:40:11.999Z</time></trkpt><trkpt lat="42.04834250488886" lon="13.456192434820146"><ele>706.0</ele><time>2026-04-18T13:40:12.999Z</time></trkpt><trkpt lat="42.04841667768962" lon="13.456319415182914"><ele>706.0</ele><time>2026-04-18T13:40:13.999Z</time></trkpt><trkpt lat="42.04849861546227" lon="13.456463425460145"><ele>706.0</ele><time>2026-04-18T13:40:14.999Z</time></trkpt><trkpt lat="42.048578342742324" lon="13.456609276163471"><ele>706.0</ele><time>2026-04-18T13:40:15.999Z</time></trkpt><trkpt lat="42.04865018732406" lon="13.456741363369568"><ele>706.0</ele><time>2026-04-18T13:40:16.999Z</time></trkpt><trkpt lat="42.04871484099358" lon="13.45686345507849"><ele>706.0</ele><time>2026-04-18T13:40:17.999Z</time></trkpt><trkpt lat="42.048774587812865" lon="13.456977469661743"><ele>706.0</ele><time>2026-04-18T13:40:18.999Z</time></trkpt><trkpt lat="42.04883236349364" lon="13.4570864259562"><ele>706.0</ele><time>2026-04-18T13:40:19.999Z</time></trkpt><trkpt lat="42.0488948887064" lon="13.457202644821379"><ele>706.0</ele><time>2026-04-18T13:40:20.999Z</time></trkpt><trkpt lat="42.04896657997028" lon="13.457330999063338"><ele>706.0</ele><time>2026-04-18T13:40:21.999Z</time></trkpt><trkpt lat="42.04904267385196" lon="13.457469327206299"><ele>706.0</ele><time>2026-04-18T13:40:22.999Z</time></trkpt><trkpt lat="42.04911089247136" lon="13.457596597642574"><ele>706.0</ele><time>2026-04-18T13:40:23.999Z</time></trkpt><trkpt lat="42.049173985422684" lon="13.457714844846667"><ele>706.0</ele><time>2026-04-18T13:40:24.999Z</time></trkpt><trkpt lat="42.049238412870835" lon="13.45783546251245"><ele>706.0</ele><time>2026-04-18T13:40:25.999Z</time></trkpt><trkpt lat="42.049316266247246" lon="13.457975174808995"><ele>705.5</ele><time>2026-04-18T13:40:26.999Z</time></trkpt><trkpt lat="42.04939575024092" lon="13.458120207129705"><ele>705.0</ele><time>2026-04-18T13:40:27.999Z</time></trkpt><trkpt lat="42.04947389421016" lon="13.458260162445264"><ele>704.5</ele><time>2026-04-18T13:40:28.999Z</time></trkpt><trkpt lat="42.04954871951478" lon="13.458390146511542"><ele>704.0</ele><time>2026-04-18T13:40:29.999Z</time></trkpt><trkpt lat="42.04961488673813" lon="13.458521434981579"><ele>704.0</ele><time>2026-04-18T13:40:30.999Z</time></trkpt><trkpt lat="42.049681376014675" lon="13.458643602090666"><ele>704.0</ele><time>2026-04-18T13:40:31.999Z</time></trkpt><trkpt lat="42.04974718377267" lon="13.458766557149001"><ele>704.0</ele><time>2026-04-18T13:40:32.999Z</time></trkpt><trkpt lat="42.04981764203191" lon="13.458896781140059"><ele>704.0</ele><time>2026-04-18T13:40:33.999Z</time></trkpt><trkpt lat="42.04989675816951" lon="13.4590357763259"><ele>704.25</ele><time>2026-04-18T13:40:34.999Z</time></trkpt><trkpt lat="42.04997029433957" lon="13.45918149253324"><ele>704.5</ele><time>2026-04-18T13:40:35.999Z</time></trkpt><trkpt lat="42.05004016476669" lon="13.459302718084887"><ele>704.75</ele><time>2026-04-18T13:40:36.999Z</time></trkpt><trkpt lat="42.050100916080794" lon="13.45942050640429"><ele>705.0</ele><time>2026-04-18T13:40:37.999Z</time></trkpt><trkpt lat="42.05016455491849" lon="13.459537221437122"><ele>704.75</ele><time>2026-04-18T13:40:38.999Z</time></trkpt><trkpt lat="42.05023442194014" lon="13.459671385336328"><ele>704.5</ele><time>2026-04-18T13:40:39.999Z</time></trkpt><trkpt lat="42.050310027639014" lon="13.45981227150722"><ele>704.25</ele><time>2026-04-18T13:40:40.999Z</time></trkpt><trkpt lat="42.050379462037114" lon="13.459939932299422"><ele>704.0</ele><time>2026-04-18T13:40:41.999Z</time></trkpt><trkpt lat="42.05044316182783" lon="13.460048082065025"><ele>704.0</ele><time>2026-04-18T13:40:42.999Z</time></trkpt><trkpt lat="42.050494848374555" lon="13.460153759752087"><ele>704.0</ele><time>2026-04-18T13:40:43.999Z</time></trkpt><trkpt lat="42.0505527859674" lon="13.460253061932368"><ele>704.0</ele><time>2026-04-18T13:40:44.999Z</time></trkpt><trkpt lat="42.050608730939736" lon="13.460371035835571"><ele>704.0</ele><time>2026-04-18T13:40:45.999Z</time></trkpt><trkpt lat="42.05066922359012" lon="13.46047859661669"><ele>704.0</ele><time>2026-04-18T13:40:46.999Z</time></trkpt><trkpt lat="42.05072435398772" lon="13.460583562130449"><ele>704.0</ele><time>2026-04-18T13:40:47.999Z</time></trkpt><trkpt lat="42.05077431083083" lon="13.460678377495489"><ele>704.0</ele><time>2026-04-18T13:40:48.999Z</time></trkpt><trkpt lat="42.050821730981845" lon="13.460768023582885"><ele>704.0</ele><time>2026-04-18T13:40:49.999Z</time></trkpt><trkpt lat="42.050868199934435" lon="13.460851733774314"><ele>704.0</ele><time>2026-04-18T13:40:50.999Z</time></trkpt><trkpt lat="42.050920396601796" lon="13.460946793875754"><ele>704.0</ele><time>2026-04-18T13:40:51.999Z</time></trkpt><trkpt lat="42.05096617915966" lon="13.461026949840013"><ele>704.0</ele><time>2026-04-18T13:40:52.999Z</time></trkpt><trkpt lat="42.051006500096975" lon="13.461092963604521"><ele>704.0</ele><time>2026-04-18T13:40:53.999Z</time></trkpt><trkpt lat="42.051076698327144" lon="13.461193833562263"><ele>704.0</ele><time>2026-04-18T13:40:55.999Z</time></trkpt><trkpt lat="42.051118225970484" lon="13.461278585618993"><ele>704.0</ele><time>2026-04-18T13:40:57.999Z</time></trkpt><trkpt lat="42.05116275199934" lon="13.46136939812712"><ele>704.0</ele><time>2026-04-18T13:41:00.999Z</time></trkpt><trkpt lat="42.051210566139915" lon="13.46145078758116"><ele>704.0</ele><time>2026-04-18T13:41:07.999Z</time></trkpt><trkpt lat="42.05124293317508" lon="13.461567442745354"><ele>704.0</ele><time>2026-04-18T13:41:10.999Z</time></trkpt><trkpt lat="42.051325694814935" lon="13.461674224963398"><ele>703.5</ele><time>2026-04-18T13:41:12.999Z</time></trkpt><trkpt lat="42.0513702462717" lon="13.46175545406258"><ele>703.0</ele><time>2026-04-18T13:41:13.999Z</time></trkpt><trkpt lat="42.05141539952501" lon="13.461836907783594"><ele>702.5</ele><time>2026-04-18T13:41:14.999Z</time></trkpt><trkpt lat="42.051457264890445" lon="13.461913660500176"><ele>702.0</ele><time>2026-04-18T13:41:16Z</time></trkpt><trkpt lat="42.051513104491825" lon="13.462009063224418"><ele>701.5</ele><time>2026-04-18T13:41:17Z</time></trkpt><trkpt lat="42.05156161104637" lon="13.462104767887766"><ele>701.0</ele><time>2026-04-18T13:41:18Z</time></trkpt><trkpt lat="42.05161271741296" lon="13.462199383879943"><ele>701.4</ele><time>2026-04-18T13:41:19Z</time></trkpt><trkpt lat="42.05167242415973" lon="13.462307271130038"><ele>701.8</ele><time>2026-04-18T13:41:20Z</time></trkpt><trkpt lat="42.05173222936835" lon="13.462422871470551"><ele>702.1999999999999</ele><time>2026-04-18T13:41:21Z</time></trkpt><trkpt lat="42.051793106064274" lon="13.462543547702973"><ele>702.5999999999999</ele><time>2026-04-18T13:41:22Z</time></trkpt><trkpt lat="42.051847667925806" lon="13.46265318079889"><ele>703.0</ele><time>2026-04-18T13:41:23Z</time></trkpt><trkpt lat="42.05190431927762" lon="13.462760374010255"><ele>703.0</ele><time>2026-04-18T13:41:24Z</time></trkpt><trkpt lat="42.05196201997471" lon="13.462866499630596"><ele>703.0</ele><time>2026-04-18T13:41:25Z</time></trkpt><trkpt lat="42.0520219778186" lon="13.462977041603471"><ele>703.0</ele><time>2026-04-18T13:41:26Z</time></trkpt><trkpt lat="42.05208052033781" lon="13.463087841339306"><ele>703.0</ele><time>2026-04-18T13:41:27Z</time></trkpt><trkpt lat="42.052141366743164" lon="13.463204434898127"><ele>703.0</ele><time>2026-04-18T13:41:28Z</time></trkpt><trkpt lat="42.05220002682325" lon="13.46331556432999"><ele>702.4</ele><time>2026-04-18T13:41:29Z</time></trkpt><trkpt lat="42.052261756984045" lon="13.463429300675447"><ele>701.8</ele><time>2026-04-18T13:41:30Z</time></trkpt><trkpt lat="42.0523227687549" lon="13.463543418647754"><ele>701.2</ele><time>2026-04-18T13:41:31Z</time></trkpt><trkpt lat="42.052384453908445" lon="13.463656086640812"><ele>700.6</ele><time>2026-04-18T13:41:32Z</time></trkpt><trkpt lat="42.05244660523352" lon="13.463772552380032"><ele>700.0</ele><time>2026-04-18T13:41:33Z</time></trkpt><trkpt lat="42.052507867044326" lon="13.463894479990529"><ele>700.0</ele><time>2026-04-18T13:41:34Z</time></trkpt><trkpt lat="42.052564396721976" lon="13.463999639415722"><ele>700.0</ele><time>2026-04-18T13:41:35Z</time></trkpt><trkpt lat="42.05261836440365" lon="13.464103405054283"><ele>700.0</ele><time>2026-04-18T13:41:36Z</time></trkpt><trkpt lat="42.05266928249682" lon="13.464200182889696"><ele>700.0</ele><time>2026-04-18T13:41:37Z</time></trkpt><trkpt lat="42.05272533645951" lon="13.464302347609193"><ele>700.0</ele><time>2026-04-18T13:41:38Z</time></trkpt><trkpt lat="42.052783271556095" lon="13.46441086055345"><ele>700.0</ele><time>2026-04-18T13:41:39Z</time></trkpt><trkpt lat="42.05284020588319" lon="13.464518845121225"><ele>700.0</ele><time>2026-04-18T13:41:40Z</time></trkpt><trkpt lat="42.05289924857013" lon="13.464630887186154"><ele>700.0</ele><time>2026-04-18T13:41:41Z</time></trkpt><trkpt lat="42.05296015840235" lon="13.464742805811877"><ele>700.0</ele><time>2026-04-18T13:41:42Z</time></trkpt><trkpt lat="42.05301976603972" lon="13.464859210939283"><ele>700.0</ele><time>2026-04-18T13:41:43Z</time></trkpt><trkpt lat="42.053082798586786" lon="13.464977963405005"><ele>700.0</ele><time>2026-04-18T13:41:44Z</time></trkpt><trkpt lat="42.05314989778407" lon="13.465107289499247"><ele>700.0</ele><time>2026-04-18T13:41:45Z</time></trkpt><trkpt lat="42.05322332631907" lon="13.46523703876024"><ele>700.0</ele><time>2026-04-18T13:41:46Z</time></trkpt><trkpt lat="42.05329987822069" lon="13.465371600177779"><ele>700.0</ele><time>2026-04-18T13:41:47Z</time></trkpt><trkpt lat="42.0533691092964" lon="13.465502454027023"><ele>699.75</ele><time>2026-04-18T13:41:48Z</time></trkpt><trkpt lat="42.05343909587027" lon="13.465637323273135"><ele>699.5</ele><time>2026-04-18T13:41:49Z</time></trkpt><trkpt lat="42.05351155508296" lon="13.465765667803419"><ele>699.25</ele><time>2026-04-18T13:41:50Z</time></trkpt><trkpt lat="42.053583932235675" lon="13.46590455731612"><ele>699.0</ele><time>2026-04-18T13:41:51Z</time></trkpt><trkpt lat="42.05366177759579" lon="13.46606097095489"><ele>699.0</ele><time>2026-04-18T13:41:52Z</time></trkpt><trkpt lat="42.053747511365856" lon="13.466229386975327"><ele>699.0</ele><time>2026-04-18T13:41:53Z</time></trkpt><trkpt lat="42.053838156886954" lon="13.466401150207052"><ele>699.0</ele><time>2026-04-18T13:41:54Z</time></trkpt><trkpt lat="42.053927188664424" lon="13.466574326745045"><ele>699.0</ele><time>2026-04-18T13:41:55Z</time></trkpt><trkpt lat="42.0540198156536" lon="13.466744296149288"><ele>699.0</ele><time>2026-04-18T13:41:56Z</time></trkpt><trkpt lat="42.0541088053514" lon="13.466908832577712"><ele>699.0</ele><time>2026-04-18T13:41:57Z</time></trkpt><trkpt lat="42.054187440545746" lon="13.467066841592226"><ele>699.0</ele><time>2026-04-18T13:41:58Z</time></trkpt><trkpt lat="42.05426880365715" lon="13.46722189144911"><ele>698.0</ele><time>2026-04-18T13:41:59Z</time></trkpt><trkpt lat="42.05435999351465" lon="13.467394785957962"><ele>697.0</ele><time>2026-04-18T13:42:00Z</time></trkpt><trkpt lat="42.05445989669824" lon="13.467587085846281"><ele>696.0</ele><time>2026-04-18T13:42:01Z</time></trkpt><trkpt lat="42.05455897095322" lon="13.467773477022774"><ele>695.5</ele><time>2026-04-18T13:42:02Z</time></trkpt><trkpt lat="42.054647780962505" lon="13.46794658167701"><ele>695.0</ele><time>2026-04-18T13:42:03Z</time></trkpt><trkpt lat="42.054732961877704" lon="13.468108236315835"><ele>694.5</ele><time>2026-04-18T13:42:04Z</time></trkpt><trkpt lat="42.054809422943755" lon="13.46824881525773"><ele>694.0</ele><time>2026-04-18T13:42:05Z</time></trkpt><trkpt lat="42.05488160611017" lon="13.46838451249953"><ele>694.3333333333334</ele><time>2026-04-18T13:42:06Z</time></trkpt><trkpt lat="42.054958488488445" lon="13.468526629704284"><ele>694.6666666666666</ele><time>2026-04-18T13:42:07Z</time></trkpt><trkpt lat="42.05505139806675" lon="13.468694402319423"><ele>695.0</ele><time>2026-04-18T13:42:08Z</time></trkpt><trkpt lat="42.05515480284839" lon="13.468887885438043"><ele>695.0</ele><time>2026-04-18T13:42:09Z</time></trkpt><trkpt lat="42.055265157467716" lon="13.469092967101068"><ele>695.0</ele><time>2026-04-18T13:42:10Z</time></trkpt><trkpt lat="42.055377129650275" lon="13.46930302635877"><ele>695.0</ele><time>2026-04-18T13:42:11Z</time></trkpt><trkpt lat="42.055468865837504" lon="13.469491844251252"><ele>694.25</ele><time>2026-04-18T13:42:12Z</time></trkpt><trkpt lat="42.05555424652887" lon="13.46966810902968"><ele>693.5</ele><time>2026-04-18T13:42:13Z</time></trkpt><trkpt lat="42.055633027434986" lon="13.469824540534933"><ele>692.75</ele><time>2026-04-18T13:42:14Z</time></trkpt><trkpt lat="42.05570566707081" lon="13.469978258080262"><ele>692.0</ele><time>2026-04-18T13:42:15Z</time></trkpt><trkpt lat="42.0557699325334" lon="13.47013590402945"><ele>692.0</ele><time>2026-04-18T13:42:16Z</time></trkpt><trkpt lat="42.055832875017686" lon="13.470311261830282"><ele>692.0</ele><time>2026-04-18T13:42:16.999Z</time></trkpt><trkpt lat="42.05589464730656" lon="13.470513760703161"><ele>692.0</ele><time>2026-04-18T13:42:17.999Z</time></trkpt><trkpt lat="42.05595924886051" lon="13.470720432497092"><ele>692.0</ele><time>2026-04-18T13:42:18.999Z</time></trkpt><trkpt lat="42.05602216157893" lon="13.47094286212682"><ele>692.0</ele><time>2026-04-18T13:42:19.999Z</time></trkpt><trkpt lat="42.056083603268334" lon="13.471165345502296"><ele>692.0</ele><time>2026-04-18T13:42:20.999Z</time></trkpt><trkpt lat="42.056141740142266" lon="13.471379974158245"><ele>691.3333333333333</ele><time>2026-04-18T13:42:21.999Z</time></trkpt><trkpt lat="42.05619771642009" lon="13.471580149860003"><ele>690.6666666666666</ele><time>2026-04-18T13:42:22.999Z</time></trkpt><trkpt lat="42.05625246885381" lon="13.4717716863764"><ele>690.0</ele><time>2026-04-18T13:42:23.999Z</time></trkpt><trkpt lat="42.05630826507065" lon="13.471970197189597"><ele>689.5</ele><time>2026-04-18T13:42:24.999Z</time></trkpt><trkpt lat="42.05635976741705" lon="13.472152481780716"><ele>689.0</ele><time>2026-04-18T13:42:25.999Z</time></trkpt><trkpt lat="42.05640923484494" lon="13.472327279541675"><ele>688.5</ele><time>2026-04-18T13:42:26.999Z</time></trkpt><trkpt lat="42.056453901023026" lon="13.472494442299922"><ele>688.0</ele><time>2026-04-18T13:42:27.999Z</time></trkpt><trkpt lat="42.05649763351842" lon="13.472655568896052"><ele>688.0</ele><time>2026-04-18T13:42:28.999Z</time></trkpt><trkpt lat="42.056544488332754" lon="13.472823136423784"><ele>688.0</ele><time>2026-04-18T13:42:29.999Z</time></trkpt><trkpt lat="42.056594992814055" lon="13.472998984814046"><ele>688.0</ele><time>2026-04-18T13:42:30.999Z</time></trkpt><trkpt lat="42.056646444503166" lon="13.473181715286113"><ele>688.0</ele><time>2026-04-18T13:42:31.999Z</time></trkpt><trkpt lat="42.05669956675088" lon="13.473373053127029"><ele>688.25</ele><time>2026-04-18T13:42:32.999Z</time></trkpt><trkpt lat="42.05675415517505" lon="13.47357023523907"><ele>688.5</ele><time>2026-04-18T13:42:33.999Z</time></trkpt><trkpt lat="42.056806943465006" lon="13.473757508316167"><ele>688.75</ele><time>2026-04-18T13:42:34.999Z</time></trkpt><trkpt lat="42.05685436521702" lon="13.473931537916629"><ele>689.0</ele><time>2026-04-18T13:42:35.999Z</time></trkpt><trkpt lat="42.05690073951883" lon="13.474096540327665"><ele>689.0</ele><time>2026-04-18T13:42:36.999Z</time></trkpt><trkpt lat="42.056945065568854" lon="13.474251731607954"><ele>689.0</ele><time>2026-04-18T13:42:37.999Z</time></trkpt><trkpt lat="42.05697181878743" lon="13.474409506010128"><ele>689.0</ele><time>2026-04-18T13:42:38.999Z</time></trkpt><trkpt lat="42.05702664663383" lon="13.474544700494665"><ele>689.0</ele><time>2026-04-18T13:42:39.999Z</time></trkpt><trkpt lat="42.057062033310864" lon="13.474676800075034"><ele>688.4000000000001</ele><time>2026-04-18T13:42:40.999Z</time></trkpt><trkpt lat="42.057095644867736" lon="13.474799388995221"><ele>687.8</ele><time>2026-04-18T13:42:41.999Z</time></trkpt><trkpt lat="42.05712790862121" lon="13.474917494701943"><ele>687.2</ele><time>2026-04-18T13:42:42.999Z</time></trkpt><trkpt lat="42.05716217879869" lon="13.475046611357977"><ele>686.5999999999999</ele><time>2026-04-18T13:42:43.999Z</time></trkpt><trkpt lat="42.05720217488757" lon="13.475190924255463"><ele>686.0</ele><time>2026-04-18T13:42:44.999Z</time></trkpt><trkpt lat="42.05724353328419" lon="13.475345146886168"><ele>685.1999999999999</ele><time>2026-04-18T13:42:45.999Z</time></trkpt><trkpt lat="42.05728305263873" lon="13.47548556796158"><ele>684.4</ele><time>2026-04-18T13:42:46.999Z</time></trkpt><trkpt lat="42.05732094656849" lon="13.475624195396081"><ele>683.6</ele><time>2026-04-18T13:42:47.999Z</time></trkpt><trkpt lat="42.05736035475295" lon="13.475763734811064"><ele>682.8</ele><time>2026-04-18T13:42:48.999Z</time></trkpt><trkpt lat="42.057399647478285" lon="13.475900519763734"><ele>682.0</ele><time>2026-04-18T13:42:49.999Z</time></trkpt><trkpt lat="42.05743874259897" lon="13.476034571479303"><ele>682.6</ele><time>2026-04-18T13:42:50.999Z</time></trkpt><trkpt lat="42.05747763255996" lon="13.476166779124387"><ele>683.2</ele><time>2026-04-18T13:42:51.999Z</time></trkpt><trkpt lat="42.05751681124991" lon="13.476299160493786"><ele>683.8</ele><time>2026-04-18T13:42:52.999Z</time></trkpt><trkpt lat="42.05754034363631" lon="13.4764423401434"><ele>684.4</ele><time>2026-04-18T13:42:53.999Z</time></trkpt><trkpt lat="42.05758424687328" lon="13.476594511297726"><ele>685.0</ele><time>2026-04-18T13:42:54.999Z</time></trkpt><trkpt lat="42.057636068919926" lon="13.476763590860163"><ele>685.0</ele><time>2026-04-18T13:42:55.999Z</time></trkpt><trkpt lat="42.05768899009971" lon="13.476925540606004"><ele>685.0</ele><time>2026-04-18T13:42:56.999Z</time></trkpt><trkpt lat="42.05775824743155" lon="13.477139672470608"><ele>685.0</ele><time>2026-04-18T13:42:57.999Z</time></trkpt><trkpt lat="42.05784431408731" lon="13.47739642828828"><ele>683.6666666666667</ele><time>2026-04-18T13:42:58.999Z</time></trkpt><trkpt lat="42.057934882609544" lon="13.477663798633737"><ele>682.3333333333334</ele><time>2026-04-18T13:42:59.999Z</time></trkpt><trkpt lat="42.058019730613786" lon="13.47791336550276"><ele>681.0</ele><time>2026-04-18T13:43:00.999Z</time></trkpt><trkpt lat="42.058099684193586" lon="13.47814576535977"><ele>680.3333333333334</ele><time>2026-04-18T13:43:01.999Z</time></trkpt><trkpt lat="42.058175504590864" lon="13.478362433636415"><ele>679.6666666666667</ele><time>2026-04-18T13:43:02.999Z</time></trkpt><trkpt lat="42.058247263255005" lon="13.478567543602864"><ele>679.0</ele><time>2026-04-18T13:43:03.999Z</time></trkpt><trkpt lat="42.05831245016506" lon="13.478753877325602"><ele>680.25</ele><time>2026-04-18T13:43:04.999Z</time></trkpt><trkpt lat="42.058373051594806" lon="13.478931762976396"><ele>681.5</ele><time>2026-04-18T13:43:05.999Z</time></trkpt><trkpt lat="42.05842936063364" lon="13.479097432605764"><ele>682.75</ele><time>2026-04-18T13:43:06.999Z</time></trkpt><trkpt lat="42.058483256305884" lon="13.479256002783469"><ele>684.0</ele><time>2026-04-18T13:43:07.999Z</time></trkpt><trkpt lat="42.05853343487675" lon="13.479403636184195"><ele>684.0</ele><time>2026-04-18T13:43:08.999Z</time></trkpt><trkpt lat="42.05858083477102" lon="13.479543094079524"><ele>684.0</ele><time>2026-04-18T13:43:09.999Z</time></trkpt><trkpt lat="42.058640432746586" lon="13.47966618076696"><ele>684.0</ele><time>2026-04-18T13:43:10.999Z</time></trkpt><trkpt lat="42.05868193212129" lon="13.479793290639686"><ele>684.0</ele><time>2026-04-18T13:43:11.999Z</time></trkpt><trkpt lat="42.05871897447725" lon="13.479904960859113"><ele>684.0</ele><time>2026-04-18T13:43:12.999Z</time></trkpt><trkpt lat="42.0587534127658" lon="13.480006978622272"><ele>683.2</ele><time>2026-04-18T13:43:13.999Z</time></trkpt><trkpt lat="42.05878309179389" lon="13.480093642688358"><ele>682.4000000000001</ele><time>2026-04-18T13:43:14.999Z</time></trkpt><trkpt lat="42.05882074965203" lon="13.480207989635616"><ele>681.6</ele><time>2026-04-18T13:43:16.999Z</time></trkpt><trkpt lat="42.05886804680619" lon="13.480353219705531"><ele>680.8</ele><time>2026-04-18T13:43:31Z</time></trkpt><trkpt lat="42.05890283824922" lon="13.48044843064245"><ele>680.0</ele><time>2026-04-18T13:43:32Z</time></trkpt><trkpt lat="42.058949711745264" lon="13.480583094083784"><ele>679.6666666666666</ele><time>2026-04-18T13:43:33Z</time></trkpt><trkpt lat="42.0590033839612" lon="13.480732770912704"><ele>679.3333333333334</ele><time>2026-04-18T13:43:34Z</time></trkpt><trkpt lat="42.05906758564358" lon="13.480918598888518"><ele>679.0</ele><time>2026-04-18T13:43:35Z</time></trkpt><trkpt lat="42.059146101983586" lon="13.481151304520335"><ele>681.5</ele><time>2026-04-18T13:43:36Z</time></trkpt><trkpt lat="42.05923603574875" lon="13.481412314323844"><ele>684.0</ele><time>2026-04-18T13:43:37Z</time></trkpt><trkpt lat="42.05934370041566" lon="13.481698639335697"><ele>684.0</ele><time>2026-04-18T13:43:38Z</time></trkpt><trkpt lat="42.05948017124581" lon="13.482021383076498"><ele>684.0</ele><time>2026-04-18T13:43:39Z</time></trkpt><trkpt lat="42.059631444690304" lon="13.48235758533011"><ele>683.0</ele><time>2026-04-18T13:43:40Z</time></trkpt><trkpt lat="42.05978891136019" lon="13.482684176213153"><ele>682.0</ele><time>2026-04-18T13:43:41Z</time></trkpt><trkpt lat="42.05991174922336" lon="13.482982796070296"><ele>683.5</ele><time>2026-04-18T13:43:42Z</time></trkpt><trkpt lat="42.06004604986189" lon="13.483273997735996"><ele>685.0</ele><time>2026-04-18T13:43:43Z</time></trkpt><trkpt lat="42.0601926003316" lon="13.483592072836272"><ele>683.0</ele><time>2026-04-18T13:43:44Z</time></trkpt><trkpt lat="42.060334594771334" lon="13.483900888625897"><ele>681.0</ele><time>2026-04-18T13:43:45Z</time></trkpt><trkpt lat="42.06046960315579" lon="13.484194510767276"><ele>681.0</ele><time>2026-04-18T13:43:46Z</time></trkpt><trkpt lat="42.0605981410267" lon="13.484474060568992"><ele>681.0</ele><time>2026-04-18T13:43:47Z</time></trkpt><trkpt lat="42.06072061192728" lon="13.48474000357498"><ele>682.5</ele><time>2026-04-18T13:43:48Z</time></trkpt><trkpt lat="42.060840226167464" lon="13.484999451176384"><ele>684.0</ele><time>2026-04-18T13:43:49Z</time></trkpt><trkpt lat="42.06097612847609" lon="13.48529422842421"><ele>681.5</ele><time>2026-04-18T13:43:50Z</time></trkpt><trkpt lat="42.061125740029745" lon="13.485618741410462"><ele>679.0</ele><time>2026-04-18T13:43:51Z</time></trkpt><trkpt lat="42.06129763072281" lon="13.485951326629712"><ele>678.5</ele><time>2026-04-18T13:43:52Z</time></trkpt><trkpt lat="42.06145576616494" lon="13.486336282738032"><ele>678.0</ele><time>2026-04-18T13:43:53Z</time></trkpt><trkpt lat="42.06163295490341" lon="13.486723042335814"><ele>679.5</ele><time>2026-04-18T13:43:54Z</time></trkpt><trkpt lat="42.061797742607894" lon="13.48707448614435"><ele>681.0</ele><time>2026-04-18T13:43:55Z</time></trkpt><trkpt lat="42.06194893389591" lon="13.487395464751536"><ele>681.0</ele><time>2026-04-18T13:43:56Z</time></trkpt><trkpt lat="42.062102170611524" lon="13.487732276420882"><ele>681.0</ele><time>2026-04-18T13:43:57Z</time></trkpt><trkpt lat="42.062258006262375" lon="13.488092527987444"><ele>681.5</ele><time>2026-04-18T13:43:58Z</time></trkpt><trkpt lat="42.06239535821736" lon="13.488456446109971"><ele>682.0</ele><time>2026-04-18T13:43:59Z</time></trkpt><trkpt lat="42.06249384524344" lon="13.488820247644092"><ele>682.0</ele><time>2026-04-18T13:44:00Z</time></trkpt><trkpt lat="42.06255957407223" lon="13.489167848929183"><ele>682.0</ele><time>2026-04-18T13:44:01Z</time></trkpt><trkpt lat="42.06259981671861" lon="13.489530365501775"><ele>681.0</ele><time>2026-04-18T13:44:02Z</time></trkpt><trkpt lat="42.06262388682732" lon="13.489944557088648"><ele>680.0</ele><time>2026-04-18T13:44:03Z</time></trkpt><trkpt lat="42.06263755603262" lon="13.490381647451096"><ele>679.0</ele><time>2026-04-18T13:44:04Z</time></trkpt><trkpt lat="42.062641228267346" lon="13.49083899294649"><ele>678.0</ele><time>2026-04-18T13:44:05Z</time></trkpt><trkpt lat="42.06264705904612" lon="13.491314225574575"><ele>678.0</ele><time>2026-04-18T13:44:06Z</time></trkpt><trkpt lat="42.0626537299147" lon="13.491801143539675"><ele>678.0</ele><time>2026-04-18T13:44:07Z</time></trkpt><trkpt lat="42.06266126722353" lon="13.492298471339263"><ele>678.5</ele><time>2026-04-18T13:44:08Z</time></trkpt><trkpt lat="42.06266993729995" lon="13.492806488065574"><ele>679.0</ele><time>2026-04-18T13:44:09Z</time></trkpt><trkpt lat="42.06267822970012" lon="13.493329241048324"><ele>680.0</ele><time>2026-04-18T13:44:10Z</time></trkpt><trkpt lat="42.06270743779295" lon="13.493843761617653"><ele>681.0</ele><time>2026-04-18T13:44:11Z</time></trkpt><trkpt lat="42.06271001975162" lon="13.494302188914105"><ele>682.0</ele><time>2026-04-18T13:44:12Z</time></trkpt><trkpt lat="42.06271733591757" lon="13.494744770072804"><ele>683.0</ele><time>2026-04-18T13:44:13Z</time></trkpt><trkpt lat="42.06272567977341" lon="13.495214430944516"><ele>683.0</ele><time>2026-04-18T13:44:14Z</time></trkpt><trkpt lat="42.062731848450824" lon="13.49565849833161"><ele>683.0</ele><time>2026-04-18T13:44:15Z</time></trkpt><trkpt lat="42.0627374031972" lon="13.496065254408935"><ele>682.5</ele><time>2026-04-18T13:44:16Z</time></trkpt><trkpt lat="42.062720105448086" lon="13.496463114919546"><ele>682.0</ele><time>2026-04-18T13:44:17Z</time></trkpt><trkpt lat="42.06272669420831" lon="13.496885896291664"><ele>681.0</ele><time>2026-04-18T13:44:18Z</time></trkpt><trkpt lat="42.06273298290155" lon="13.497289423460224"><ele>680.0</ele><time>2026-04-18T13:44:19Z</time></trkpt><trkpt lat="42.06273874097597" lon="13.49765890216363"><ele>680.5</ele><time>2026-04-18T13:44:19.999Z</time></trkpt><trkpt lat="42.06274407559408" lon="13.498001209055277"><ele>681.0</ele><time>2026-04-18T13:44:20.999Z</time></trkpt><trkpt lat="42.06274957503712" lon="13.498354092107782"><ele>681.0</ele><time>2026-04-18T13:44:21.999Z</time></trkpt><trkpt lat="42.06277105962471" lon="13.498734484230102"><ele>681.0</ele><time>2026-04-18T13:44:22.999Z</time></trkpt><trkpt lat="42.06277587427559" lon="13.499094607714884"><ele>681.5</ele><time>2026-04-18T13:44:23.999Z</time></trkpt><trkpt lat="42.062779963682736" lon="13.499416618609642"><ele>682.0</ele><time>2026-04-18T13:44:24.999Z</time></trkpt><trkpt lat="42.06278117234977" lon="13.499718219311502"><ele>682.0</ele><time>2026-04-18T13:44:25.999Z</time></trkpt><trkpt lat="42.06278303836043" lon="13.500004757219592"><ele>682.0</ele><time>2026-04-18T13:44:26.999Z</time></trkpt><trkpt lat="42.06278659207844" lon="13.500269127589297"><ele>682.0</ele><time>2026-04-18T13:44:27.999Z</time></trkpt><trkpt lat="42.0627917650407" lon="13.500524999747132"><ele>682.0</ele><time>2026-04-18T13:44:28.999Z</time></trkpt><trkpt lat="42.062799502844456" lon="13.50079179808076"><ele>682.0</ele><time>2026-04-18T13:44:29.999Z</time></trkpt><trkpt lat="42.06278756957308" lon="13.501076332631207"><ele>682.0</ele><time>2026-04-18T13:44:30.999Z</time></trkpt><trkpt lat="42.06279145710411" lon="13.501332929343878"><ele>682.3333333333334</ele><time>2026-04-18T13:44:31.999Z</time></trkpt><trkpt lat="42.06280651360982" lon="13.50157001343576"><ele>682.6666666666666</ele><time>2026-04-18T13:44:32.999Z</time></trkpt><trkpt lat="42.062809744501806" lon="13.50179965498861"><ele>683.0</ele><time>2026-04-18T13:44:33.999Z</time></trkpt><trkpt lat="42.06281419899361" lon="13.502051344849855"><ele>682.6666666666666</ele><time>2026-04-18T13:44:34.999Z</time></trkpt><trkpt lat="42.06281919722959" lon="13.502313776189855"><ele>682.3333333333334</ele><time>2026-04-18T13:44:35.999Z</time></trkpt><trkpt lat="42.06282539317687" lon="13.502576342276022"><ele>682.0</ele><time>2026-04-18T13:44:36.999Z</time></trkpt><trkpt lat="42.06281296816715" lon="13.50285352691332"><ele>682.0</ele><time>2026-04-18T13:44:37.999Z</time></trkpt><trkpt lat="42.06285986098749" lon="13.503180564056803"><ele>682.0</ele><time>2026-04-18T13:44:38.999Z</time></trkpt><trkpt lat="42.06286620623413" lon="13.50354394617103"><ele>682.0</ele><time>2026-04-18T13:44:39.999Z</time></trkpt><trkpt lat="42.06285283959864" lon="13.503887135335132"><ele>682.0</ele><time>2026-04-18T13:44:40.999Z</time></trkpt><trkpt lat="42.06284661028423" lon="13.504185871085928"><ele>682.0</ele><time>2026-04-18T13:44:41.999Z</time></trkpt><trkpt lat="42.06285020552814" lon="13.504454080507296"><ele>682.0</ele><time>2026-04-18T13:44:42.999Z</time></trkpt><trkpt lat="42.06285184649145" lon="13.504702378419692"><ele>682.0</ele><time>2026-04-18T13:44:43.999Z</time></trkpt><trkpt lat="42.06285433641596" lon="13.504932800559486"><ele>682.3333333333334</ele><time>2026-04-18T13:44:44.999Z</time></trkpt><trkpt lat="42.06285659002538" lon="13.50515218375906"><ele>682.6666666666666</ele><time>2026-04-18T13:44:45.999Z</time></trkpt><trkpt lat="42.062858349070474" lon="13.505378073148721"><ele>683.0</ele><time>2026-04-18T13:44:46.999Z</time></trkpt><trkpt lat="42.062861296767686" lon="13.505618084799382"><ele>683.3333333333333</ele><time>2026-04-18T13:44:47.999Z</time></trkpt><trkpt lat="42.0628642254428" lon="13.505859681330898"><ele>683.6666666666666</ele><time>2026-04-18T13:44:48.999Z</time></trkpt><trkpt lat="42.062866835733665" lon="13.506106663893602"><ele>684.0</ele><time>2026-04-18T13:44:49.999Z</time></trkpt><trkpt lat="42.062868847922665" lon="13.506363443773713"><ele>684.0</ele><time>2026-04-18T13:44:50.999Z</time></trkpt><trkpt lat="42.06287094232227" lon="13.506619989845081"><ele>684.0</ele><time>2026-04-18T13:44:51.999Z</time></trkpt><trkpt lat="42.062874332823924" lon="13.506860890552716"><ele>684.0</ele><time>2026-04-18T13:44:52.999Z</time></trkpt><trkpt lat="42.062877706517874" lon="13.50709762750476"><ele>684.0</ele><time>2026-04-18T13:44:53.999Z</time></trkpt><trkpt lat="42.06288364635456" lon="13.507345354979561"><ele>684.0</ele><time>2026-04-18T13:44:54.999Z</time></trkpt><trkpt lat="42.06289234667908" lon="13.507599828148283"><ele>684.0</ele><time>2026-04-18T13:44:55.999Z</time></trkpt><trkpt lat="42.06290269004304" lon="13.50786063257442"><ele>684.5</ele><time>2026-04-18T13:44:56.999Z</time></trkpt><trkpt lat="42.062925833206414" lon="13.508153334966455"><ele>685.0</ele><time>2026-04-18T13:44:57.999Z</time></trkpt><trkpt lat="42.06293639504948" lon="13.508500619145622"><ele>685.0</ele><time>2026-04-18T13:44:58.999Z</time></trkpt><trkpt lat="42.062929406201796" lon="13.50888932573741"><ele>685.0</ele><time>2026-04-18T13:44:59.999Z</time></trkpt><trkpt lat="42.062929445380135" lon="13.509293627399833"><ele>684.5</ele><time>2026-04-18T13:45:00.999Z</time></trkpt><trkpt lat="42.062936810641354" lon="13.509663801507568"><ele>684.0</ele><time>2026-04-18T13:45:01.999Z</time></trkpt><trkpt lat="42.062944894244865" lon="13.510001995408384"><ele>684.0</ele><time>2026-04-18T13:45:02.999Z</time></trkpt><trkpt lat="42.06294604976536" lon="13.510314744692312"><ele>684.0</ele><time>2026-04-18T13:45:03.999Z</time></trkpt><trkpt lat="42.06294333618927" lon="13.51058288137837"><ele>684.0</ele><time>2026-04-18T13:45:04.999Z</time></trkpt><trkpt lat="42.06294456113413" lon="13.510813403213445"><ele>684.0</ele><time>2026-04-18T13:45:05.999Z</time></trkpt><trkpt lat="42.062945983041196" lon="13.511015832485011"><ele>684.0</ele><time>2026-04-18T13:45:06.999Z</time></trkpt><trkpt lat="42.062946199368916" lon="13.511189622282787"><ele>684.0</ele><time>2026-04-18T13:45:07.999Z</time></trkpt><trkpt lat="42.06294647192924" lon="13.511353022207306"><ele>684.0</ele><time>2026-04-18T13:45:08.999Z</time></trkpt><trkpt lat="42.062946672111245" lon="13.51150472249372"><ele>684.0</ele><time>2026-04-18T13:45:09.999Z</time></trkpt><trkpt lat="42.06294738346458" lon="13.511659800904301"><ele>684.0</ele><time>2026-04-18T13:45:10.999Z</time></trkpt><trkpt lat="42.06294980255827" lon="13.511831080519881"><ele>684.0</ele><time>2026-04-18T13:45:11.999Z</time></trkpt><trkpt lat="42.062951952953185" lon="13.51200298927408"><ele>684.0</ele><time>2026-04-18T13:45:12.999Z</time></trkpt><trkpt lat="42.06295227006061" lon="13.51216653834001"><ele>684.0</ele><time>2026-04-18T13:45:13.999Z</time></trkpt><trkpt lat="42.062952348552585" lon="13.512316452487385"><ele>684.0</ele><time>2026-04-18T13:45:14.999Z</time></trkpt><trkpt lat="42.062951916305664" lon="13.512457740069681"><ele>684.0</ele><time>2026-04-18T13:45:15.999Z</time></trkpt><trkpt lat="42.062952379814796" lon="13.512592625363236"><ele>684.0</ele><time>2026-04-18T13:45:16.999Z</time></trkpt><trkpt lat="42.062954710000874" lon="13.512736851092049"><ele>684.0</ele><time>2026-04-18T13:45:17.999Z</time></trkpt><trkpt lat="42.062958854099676" lon="13.512894954859167"><ele>684.5</ele><time>2026-04-18T13:45:18.999Z</time></trkpt><trkpt lat="42.062961676187385" lon="13.513064528126478"><ele>685.0</ele><time>2026-04-18T13:45:19.999Z</time></trkpt><trkpt lat="42.06296851668685" lon="13.51324140397919"><ele>685.5</ele><time>2026-04-18T13:45:20.999Z</time></trkpt><trkpt lat="42.06297199303451" lon="13.513398566958532"><ele>686.0</ele><time>2026-04-18T13:45:21.999Z</time></trkpt><trkpt lat="42.06297255804387" lon="13.513545874480675"><ele>686.0</ele><time>2026-04-18T13:45:22.999Z</time></trkpt><trkpt lat="42.06297482236971" lon="13.513697919311234"><ele>686.0</ele><time>2026-04-18T13:45:23.999Z</time></trkpt><trkpt lat="42.062978545097934" lon="13.51384917124269"><ele>686.0</ele><time>2026-04-18T13:45:24.999Z</time></trkpt><trkpt lat="42.062981409989845" lon="13.514005981909593"><ele>686.0</ele><time>2026-04-18T13:45:25.999Z</time></trkpt><trkpt lat="42.06298513572884" lon="13.514165375351485"><ele>685.6666666666666</ele><time>2026-04-18T13:45:26.999Z</time></trkpt><trkpt lat="42.062990062769046" lon="13.514349637769646"><ele>685.3333333333334</ele><time>2026-04-18T13:45:28Z</time></trkpt><trkpt lat="42.062991452424995" lon="13.514553849995512"><ele>685.0</ele><time>2026-04-18T13:45:29Z</time></trkpt><trkpt lat="42.062996446215536" lon="13.514774089939236"><ele>685.0</ele><time>2026-04-18T13:45:30Z</time></trkpt><trkpt lat="42.06300916594233" lon="13.515029080648606"><ele>685.0</ele><time>2026-04-18T13:45:31Z</time></trkpt><trkpt lat="42.06302025012074" lon="13.51532860926587"><ele>685.0</ele><time>2026-04-18T13:45:32Z</time></trkpt><trkpt lat="42.06301836173043" lon="13.515667405107598"><ele>684.6666666666667</ele><time>2026-04-18T13:45:33Z</time></trkpt><trkpt lat="42.06301367421721" lon="13.515957907581967"><ele>684.3333333333334</ele><time>2026-04-18T13:45:34Z</time></trkpt><trkpt lat="42.0630149811002" lon="13.51622357293797"><ele>684.0</ele><time>2026-04-18T13:45:35Z</time></trkpt><trkpt lat="42.06302070414402" lon="13.516463941907741"><ele>684.0</ele><time>2026-04-18T13:45:36Z</time></trkpt><trkpt lat="42.06302999499147" lon="13.516690772997686"><ele>684.0</ele><time>2026-04-18T13:45:37Z</time></trkpt><trkpt lat="42.063043466109065" lon="13.516901895596842"><ele>684.0</ele><time>2026-04-18T13:45:38Z</time></trkpt><trkpt lat="42.06306153339583" lon="13.517084687295668"><ele>684.0</ele><time>2026-04-18T13:45:39Z</time></trkpt><trkpt lat="42.06308086900518" lon="13.517255651935734"><ele>684.0</ele><time>2026-04-18T13:45:40Z</time></trkpt><trkpt lat="42.063099963428584" lon="13.517408576587716"><ele>684.0</ele><time>2026-04-18T13:45:41Z</time></trkpt><trkpt lat="42.06311662125314" lon="13.517551240436346"><ele>684.0</ele><time>2026-04-18T13:45:42Z</time></trkpt><trkpt lat="42.063133701991674" lon="13.517694923345315"><ele>684.0</ele><time>2026-04-18T13:45:43Z</time></trkpt><trkpt lat="42.06313617005518" lon="13.517847383532208"><ele>684.0</ele><time>2026-04-18T13:45:44Z</time></trkpt><trkpt lat="42.06310092524004" lon="13.517994240011754"><ele>684.0</ele><time>2026-04-18T13:45:45Z</time></trkpt><trkpt lat="42.063048043778174" lon="13.51812269059839"><ele>684.0</ele><time>2026-04-18T13:45:46Z</time></trkpt><trkpt lat="42.063031466559146" lon="13.518244889937622"><ele>684.0</ele><time>2026-04-18T13:45:47Z</time></trkpt><trkpt lat="42.06305305287134" lon="13.518377593872048"><ele>684.0</ele><time>2026-04-18T13:45:48Z</time></trkpt><trkpt lat="42.06309969091714" lon="13.518503442283208"><ele>684.0</ele><time>2026-04-18T13:45:49Z</time></trkpt><trkpt lat="42.06314623467064" lon="13.518631056676801"><ele>684.0</ele><time>2026-04-18T13:45:50Z</time></trkpt><trkpt lat="42.063137071538065" lon="13.518777883147932"><ele>684.0</ele><time>2026-04-18T13:45:51Z</time></trkpt><trkpt lat="42.063122106051594" lon="13.518946916335645"><ele>684.0</ele><time>2026-04-18T13:45:52Z</time></trkpt><trkpt lat="42.06310329314203" lon="13.519150670463628"><ele>684.0</ele><time>2026-04-18T13:45:53Z</time></trkpt><trkpt lat="42.063098160673704" lon="13.519381896367827"><ele>684.0</ele><time>2026-04-18T13:45:54Z</time></trkpt><trkpt lat="42.06307200772016" lon="13.519615321067288"><ele>684.0</ele><time>2026-04-18T13:45:55Z</time></trkpt><trkpt lat="42.06306579270176" lon="13.519843642288727"><ele>684.0</ele><time>2026-04-18T13:45:56Z</time></trkpt><trkpt lat="42.063061182073014" lon="13.520063056914015"><ele>684.0</ele><time>2026-04-18T13:45:57Z</time></trkpt><trkpt lat="42.06304894631809" lon="13.520260853405405"><ele>684.0</ele><time>2026-04-18T13:45:58Z</time></trkpt><trkpt lat="42.06304983448519" lon="13.520454198516004"><ele>684.6666666666666</ele><time>2026-04-18T13:45:59Z</time></trkpt><trkpt lat="42.06305279447914" lon="13.520648729320575"><ele>685.3333333333333</ele><time>2026-04-18T13:46:00Z</time></trkpt><trkpt lat="42.063055848733974" lon="13.520849454966354"><ele>686.0</ele><time>2026-04-18T13:46:01Z</time></trkpt><trkpt lat="42.063059022702284" lon="13.521059681058894"><ele>685.6666666666666</ele><time>2026-04-18T13:46:02Z</time></trkpt><trkpt lat="42.063061605397486" lon="13.521276612812274"><ele>685.3333333333334</ele><time>2026-04-18T13:46:03Z</time></trkpt><trkpt lat="42.063064714702406" lon="13.521502619438063"><ele>685.0</ele><time>2026-04-18T13:46:04Z</time></trkpt><trkpt lat="42.063067995391734" lon="13.521741083334431"><ele>685.0</ele><time>2026-04-18T13:46:05Z</time></trkpt><trkpt lat="42.06307217264121" lon="13.52204471579288"><ele>685.0</ele><time>2026-04-18T13:46:06Z</time></trkpt><trkpt lat="42.06307698677254" lon="13.522394641121377"><ele>686.0</ele><time>2026-04-18T13:46:07Z</time></trkpt><trkpt lat="42.06308299916359" lon="13.522781870231894"><ele>687.0</ele><time>2026-04-18T13:46:08Z</time></trkpt><trkpt lat="42.06308909123598" lon="13.523151578751566"><ele>687.0</ele><time>2026-04-18T13:46:09Z</time></trkpt><trkpt lat="42.06312164166076" lon="13.523469334965087"><ele>687.0</ele><time>2026-04-18T13:46:10Z</time></trkpt><trkpt lat="42.06311884062803" lon="13.523763702963187"><ele>687.0</ele><time>2026-04-18T13:46:11Z</time></trkpt><trkpt lat="42.06311924361004" lon="13.524037135934732"><ele>687.0</ele><time>2026-04-18T13:46:12Z</time></trkpt><trkpt lat="42.06312121854021" lon="13.524294882745593"><ele>687.0</ele><time>2026-04-18T13:46:13Z</time></trkpt><trkpt lat="42.063107198772386" lon="13.524559810905066"><ele>686.3333333333334</ele><time>2026-04-18T13:46:14Z</time></trkpt><trkpt lat="42.06310615982904" lon="13.524839845188579"><ele>685.6666666666667</ele><time>2026-04-18T13:46:15Z</time></trkpt><trkpt lat="42.06309979237557" lon="13.525131124973994"><ele>685.0</ele><time>2026-04-18T13:46:16Z</time></trkpt><trkpt lat="42.063081198843065" lon="13.525416686424006"><ele>685.0</ele><time>2026-04-18T13:46:17Z</time></trkpt><trkpt lat="42.063056838485466" lon="13.52570347125139"><ele>685.0</ele><time>2026-04-18T13:46:18Z</time></trkpt><trkpt lat="42.063023156174864" lon="13.526039677954932"><ele>684.0</ele><time>2026-04-18T13:46:19Z</time></trkpt><trkpt lat="42.06296962813355" lon="13.526427431217554"><ele>683.0</ele><time>2026-04-18T13:46:20Z</time></trkpt><trkpt lat="42.0629054704647" lon="13.526851196496457"><ele>683.0</ele><time>2026-04-18T13:46:21Z</time></trkpt><trkpt lat="42.06283607987604" lon="13.527292036744656"><ele>683.0</ele><time>2026-04-18T13:46:22Z</time></trkpt><trkpt lat="42.06275861087596" lon="13.527766661242955"><ele>683.0</ele><time>2026-04-18T13:46:23Z</time></trkpt><trkpt lat="42.06268109017359" lon="13.528241602677266"><ele>683.0</ele><time>2026-04-18T13:46:24Z</time></trkpt><trkpt lat="42.062600461792904" lon="13.528734712172394"><ele>683.0</ele><time>2026-04-18T13:46:24.999Z</time></trkpt><trkpt lat="42.062525170364836" lon="13.5291945237441"><ele>683.0</ele><time>2026-04-18T13:46:25.999Z</time></trkpt><trkpt lat="42.06245847175398" lon="13.52960185822603"><ele>682.5</ele><time>2026-04-18T13:46:26.999Z</time></trkpt><trkpt lat="42.06239454273541" lon="13.529992278514408"><ele>682.0</ele><time>2026-04-18T13:46:27.999Z</time></trkpt><trkpt lat="42.06233755198544" lon="13.530344908387189"><ele>682.5</ele><time>2026-04-18T13:46:28.999Z</time></trkpt><trkpt lat="42.06229929964837" lon="13.530679336729882"><ele>683.0</ele><time>2026-04-18T13:46:29.999Z</time></trkpt><trkpt lat="42.06224578180723" lon="13.53100431026159"><ele>684.0</ele><time>2026-04-18T13:46:30.999Z</time></trkpt><trkpt lat="42.062190371561556" lon="13.531349000603862"><ele>685.0</ele><time>2026-04-18T13:46:31.999Z</time></trkpt><trkpt lat="42.0621347016359" lon="13.531686627066717"><ele>685.0</ele><time>2026-04-18T13:46:32.999Z</time></trkpt><trkpt lat="42.06208211617325" lon="13.531994414775507"><ele>685.0</ele><time>2026-04-18T13:46:33.999Z</time></trkpt><trkpt lat="42.06203110478867" lon="13.532302151367817"><ele>685.5</ele><time>2026-04-18T13:46:34.999Z</time></trkpt><trkpt lat="42.06197875119236" lon="13.532629940371978"><ele>686.0</ele><time>2026-04-18T13:46:35.999Z</time></trkpt><trkpt lat="42.061906160569244" lon="13.53297973263942"><ele>686.0</ele><time>2026-04-18T13:46:36.999Z</time></trkpt><trkpt lat="42.061844831750285" lon="13.533343508611756"><ele>686.0</ele><time>2026-04-18T13:46:37.999Z</time></trkpt><trkpt lat="42.061779935626994" lon="13.533723297527041"><ele>687.0</ele><time>2026-04-18T13:46:38.999Z</time></trkpt><trkpt lat="42.061713911868665" lon="13.534116646274377"><ele>688.0</ele><time>2026-04-18T13:46:39.999Z</time></trkpt><trkpt lat="42.06166450787576" lon="13.534541807171871"><ele>688.0</ele><time>2026-04-18T13:46:40.999Z</time></trkpt><trkpt lat="42.061591606488875" lon="13.534973531020714"><ele>688.0</ele><time>2026-04-18T13:46:41.999Z</time></trkpt><trkpt lat="42.06151955609732" lon="13.535420730912715"><ele>688.0</ele><time>2026-04-18T13:46:42.999Z</time></trkpt><trkpt lat="42.06144943222073" lon="13.535854053486723"><ele>688.0</ele><time>2026-04-18T13:46:43.999Z</time></trkpt><trkpt lat="42.06138651962321" lon="13.536236331378186"><ele>689.0</ele><time>2026-04-18T13:46:44.999Z</time></trkpt><trkpt lat="42.06132863428956" lon="13.536590108494917"><ele>690.0</ele><time>2026-04-18T13:46:45.999Z</time></trkpt><trkpt lat="42.061269990609745" lon="13.536962327172043"><ele>691.5</ele><time>2026-04-18T13:46:46.999Z</time></trkpt><trkpt lat="42.061207587089754" lon="13.53736020392474"><ele>693.0</ele><time>2026-04-18T13:46:47.999Z</time></trkpt><trkpt lat="42.06114158404125" lon="13.537775685807256"><ele>693.5</ele><time>2026-04-18T13:46:48.999Z</time></trkpt><trkpt lat="42.06107561832556" lon="13.53817887237019"><ele>694.0</ele><time>2026-04-18T13:46:49.999Z</time></trkpt><trkpt lat="42.06101577612653" lon="13.538539420177868"><ele>694.5</ele><time>2026-04-18T13:46:50.999Z</time></trkpt><trkpt lat="42.06096283465359" lon="13.538861599036414"><ele>695.0</ele><time>2026-04-18T13:46:51.999Z</time></trkpt><trkpt lat="42.06091111511437" lon="13.539163687555074"><ele>695.0</ele><time>2026-04-18T13:46:52.999Z</time></trkpt><trkpt lat="42.06086233004529" lon="13.539449365401294"><ele>695.0</ele><time>2026-04-18T13:46:53.999Z</time></trkpt><trkpt lat="42.06081161795705" lon="13.539749593633664"><ele>695.0</ele><time>2026-04-18T13:46:54.999Z</time></trkpt><trkpt lat="42.060762183873685" lon="13.540070629270263"><ele>694.5</ele><time>2026-04-18T13:46:55.999Z</time></trkpt><trkpt lat="42.06071048590965" lon="13.540398867544502"><ele>694.0</ele><time>2026-04-18T13:46:56.999Z</time></trkpt><trkpt lat="42.060656353425614" lon="13.540724529859867"><ele>694.0</ele><time>2026-04-18T13:46:57.999Z</time></trkpt><trkpt lat="42.06060542128756" lon="13.54103218872507"><ele>694.0</ele><time>2026-04-18T13:46:58.999Z</time></trkpt><trkpt lat="42.06055855197548" lon="13.541312486588994"><ele>694.0</ele><time>2026-04-18T13:46:59.999Z</time></trkpt><trkpt lat="42.06051495312795" lon="13.54157166031844"><ele>694.6666666666667</ele><time>2026-04-18T13:47:00.999Z</time></trkpt><trkpt lat="42.06047520645171" lon="13.541817433910301"><ele>695.3333333333334</ele><time>2026-04-18T13:47:01.999Z</time></trkpt><trkpt lat="42.060434536764745" lon="13.542065545381899"><ele>696.0</ele><time>2026-04-18T13:47:02.999Z</time></trkpt><trkpt lat="42.060392057552924" lon="13.54232822639979"><ele>696.0</ele><time>2026-04-18T13:47:03.999Z</time></trkpt><trkpt lat="42.06035071492325" lon="13.542574107277469"><ele>696.0</ele><time>2026-04-18T13:47:04.999Z</time></trkpt><trkpt lat="42.06031286306889" lon="13.542810481985635"><ele>696.0</ele><time>2026-04-18T13:47:05.999Z</time></trkpt><trkpt lat="42.060274017241646" lon="13.543058232767343"><ele>696.0</ele><time>2026-04-18T13:47:06.999Z</time></trkpt><trkpt lat="42.06023446644889" lon="13.543298294926393"><ele>696.0</ele><time>2026-04-18T13:47:07.999Z</time></trkpt><trkpt lat="42.06020034927832" lon="13.543513553293021"><ele>696.0</ele><time>2026-04-18T13:47:08.999Z</time></trkpt><trkpt lat="42.06016650168194" lon="13.543717854034684"><ele>696.0</ele><time>2026-04-18T13:47:09.999Z</time></trkpt><trkpt lat="42.06013531997701" lon="13.543911947933152"><ele>696.0</ele><time>2026-04-18T13:47:10.999Z</time></trkpt><trkpt lat="42.060103926323414" lon="13.544113239117642"><ele>696.0</ele><time>2026-04-18T13:47:11.999Z</time></trkpt><trkpt lat="42.06007133700038" lon="13.5443226497678"><ele>696.0</ele><time>2026-04-18T13:47:12.999Z</time></trkpt><trkpt lat="42.06003452367088" lon="13.544540467734802"><ele>696.0</ele><time>2026-04-18T13:47:13.999Z</time></trkpt><trkpt lat="42.059997293374465" lon="13.544762299031616"><ele>696.0</ele><time>2026-04-18T13:47:14.999Z</time></trkpt><trkpt lat="42.05996146151848" lon="13.54498797690849"><ele>696.0</ele><time>2026-04-18T13:47:15.999Z</time></trkpt><trkpt lat="42.05992586249048" lon="13.545211555497005"><ele>696.0</ele><time>2026-04-18T13:47:16.999Z</time></trkpt><trkpt lat="42.05989067080103" lon="13.54542743657041"><ele>696.0</ele><time>2026-04-18T13:47:17.999Z</time></trkpt><trkpt lat="42.05985834430213" lon="13.545628938634634"><ele>696.0</ele><time>2026-04-18T13:47:18.999Z</time></trkpt><trkpt lat="42.05982737910939" lon="13.545833870371855"><ele>696.0</ele><time>2026-04-18T13:47:19.999Z</time></trkpt><trkpt lat="42.05980104827736" lon="13.546090364858351"><ele>696.0</ele><time>2026-04-18T13:47:20.999Z</time></trkpt><trkpt lat="42.05976495403612" lon="13.54638207560012"><ele>695.5</ele><time>2026-04-18T13:47:21.999Z</time></trkpt><trkpt lat="42.05970908168292" lon="13.54669299086144"><ele>695.0</ele><time>2026-04-18T13:47:22.999Z</time></trkpt><trkpt lat="42.059642188285935" lon="13.547008861759199"><ele>695.3333333333333</ele><time>2026-04-18T13:47:23.999Z</time></trkpt><trkpt lat="42.05958596085479" lon="13.547305335528446"><ele>695.6666666666666</ele><time>2026-04-18T13:47:24.999Z</time></trkpt><trkpt lat="42.05954190103205" lon="13.547579294399215"><ele>696.0</ele><time>2026-04-18T13:47:25.999Z</time></trkpt><trkpt lat="42.05949861650954" lon="13.54784396087837"><ele>695.6666666666666</ele><time>2026-04-18T13:47:26.999Z</time></trkpt><trkpt lat="42.05945865804514" lon="13.548094792266621"><ele>695.3333333333333</ele><time>2026-04-18T13:47:27.999Z</time></trkpt><trkpt lat="42.059419823206376" lon="13.548333367308375"><ele>695.0</ele><time>2026-04-18T13:47:28.999Z</time></trkpt><trkpt lat="42.05938254340347" lon="13.548561903509924"><ele>695.6666666666666</ele><time>2026-04-18T13:47:29.999Z</time></trkpt><trkpt lat="42.05934756524021" lon="13.548777773290313"><ele>696.3333333333334</ele><time>2026-04-18T13:47:30.999Z</time></trkpt><trkpt lat="42.05931408331533" lon="13.548983041591077"><ele>697.0</ele><time>2026-04-18T13:47:31.999Z</time></trkpt><trkpt lat="42.05927922494579" lon="13.549179531036348"><ele>697.0</ele><time>2026-04-18T13:47:32.999Z</time></trkpt><trkpt lat="42.059243306261365" lon="13.549390111819847"><ele>697.0</ele><time>2026-04-18T13:47:34Z</time></trkpt><trkpt lat="42.05920805233419" lon="13.5496122081419"><ele>697.0</ele><time>2026-04-18T13:47:35Z</time></trkpt><trkpt lat="42.059170421186145" lon="13.549843734675557"><ele>697.0</ele><time>2026-04-18T13:47:36Z</time></trkpt><trkpt lat="42.05913010862772" lon="13.55008021180018"><ele>697.0</ele><time>2026-04-18T13:47:37Z</time></trkpt><trkpt lat="42.059090216888514" lon="13.550321132873215"><ele>697.0</ele><time>2026-04-18T13:47:38Z</time></trkpt><trkpt lat="42.05904968120949" lon="13.550563734689822"><ele>696.3333333333334</ele><time>2026-04-18T13:47:39Z</time></trkpt><trkpt lat="42.0590100297195" lon="13.550802947599133"><ele>695.6666666666666</ele><time>2026-04-18T13:47:40Z</time></trkpt><trkpt lat="42.05897047708988" lon="13.551042875094886"><ele>695.0</ele><time>2026-04-18T13:47:41Z</time></trkpt><trkpt lat="42.05893078098577" lon="13.551282691951608"><ele>694.0</ele><time>2026-04-18T13:47:42Z</time></trkpt><trkpt lat="42.05889223879363" lon="13.551515724436916"><ele>693.0</ele><time>2026-04-18T13:47:43Z</time></trkpt><trkpt lat="42.05885542003923" lon="13.551735142866121"><ele>692.0</ele><time>2026-04-18T13:47:44Z</time></trkpt><trkpt lat="42.0588199978505" lon="13.551940626788436"><ele>692.3333333333333</ele><time>2026-04-18T13:47:45Z</time></trkpt><trkpt lat="42.058787776014356" lon="13.552137503278711"><ele>692.6666666666666</ele><time>2026-04-18T13:47:46Z</time></trkpt><trkpt lat="42.05875513567905" lon="13.552347047162334"><ele>693.0</ele><time>2026-04-18T13:47:47Z</time></trkpt><trkpt lat="42.05872063132821" lon="13.55257083071317"><ele>693.0</ele><time>2026-04-18T13:47:48Z</time></trkpt><trkpt lat="42.05868632013068" lon="13.552783222514972"><ele>693.0</ele><time>2026-04-18T13:47:49Z</time></trkpt><trkpt lat="42.0586546411333" lon="13.552972773781127"><ele>693.0</ele><time>2026-04-18T13:47:50Z</time></trkpt><trkpt lat="42.05862514893139" lon="13.553150218799502"><ele>693.0</ele><time>2026-04-18T13:47:51Z</time></trkpt><trkpt lat="42.058597641874215" lon="13.553314383081132"><ele>693.5</ele><time>2026-04-18T13:47:52Z</time></trkpt><trkpt lat="42.058579846147325" lon="13.553459059118873"><ele>694.0</ele><time>2026-04-18T13:47:53Z</time></trkpt><trkpt lat="42.058539784005845" lon="13.553605700095224"><ele>694.5</ele><time>2026-04-18T13:47:54Z</time></trkpt><trkpt lat="42.058506382599894" lon="13.553811754884926"><ele>695.0</ele><time>2026-04-18T13:47:55Z</time></trkpt><trkpt lat="42.058477140177665" lon="13.554078145132626"><ele>696.0</ele><time>2026-04-18T13:47:56Z</time></trkpt><trkpt lat="42.058430384131846" lon="13.55437017886392"><ele>697.0</ele><time>2026-04-18T13:47:57Z</time></trkpt><trkpt lat="42.058392018244845" lon="13.554647046731455"><ele>698.0</ele><time>2026-04-18T13:47:58Z</time></trkpt><trkpt lat="42.0583424375395" lon="13.554884035917658"><ele>698.0</ele><time>2026-04-18T13:47:59Z</time></trkpt><trkpt lat="42.05831423278294" lon="13.555103827738444"><ele>698.0</ele><time>2026-04-18T13:48:00Z</time></trkpt><trkpt lat="42.05828578578467" lon="13.555355706519608"><ele>698.0</ele><time>2026-04-18T13:48:01Z</time></trkpt><trkpt lat="42.058252490021175" lon="13.555660524304464"><ele>697.0</ele><time>2026-04-18T13:48:02Z</time></trkpt><trkpt lat="42.058217959354955" lon="13.555992587234599"><ele>696.0</ele><time>2026-04-18T13:48:03Z</time></trkpt><trkpt lat="42.05820301729874" lon="13.556303309411593"><ele>696.0</ele><time>2026-04-18T13:48:04Z</time></trkpt><trkpt lat="42.058174053859524" lon="13.556584365365552"><ele>696.0</ele><time>2026-04-18T13:48:05Z</time></trkpt><trkpt lat="42.0581572791654" lon="13.556841271885311"><ele>696.0</ele><time>2026-04-18T13:48:06Z</time></trkpt><trkpt lat="42.058145502137975" lon="13.557077157381357"><ele>695.6666666666666</ele><time>2026-04-18T13:48:07Z</time></trkpt><trkpt lat="42.058133175324535" lon="13.557301350998442"><ele>695.3333333333333</ele><time>2026-04-18T13:48:08Z</time></trkpt><trkpt lat="42.05811898346488" lon="13.557529114899602"><ele>695.0</ele><time>2026-04-18T13:48:09Z</time></trkpt><trkpt lat="42.05810474165714" lon="13.557743463221271"><ele>694.75</ele><time>2026-04-18T13:48:10Z</time></trkpt><trkpt lat="42.05809889027214" lon="13.557938989920633"><ele>694.5</ele><time>2026-04-18T13:48:11Z</time></trkpt><trkpt lat="42.058105509490694" lon="13.55811768020013"><ele>694.25</ele><time>2026-04-18T13:48:12Z</time></trkpt><trkpt lat="42.0581167294486" lon="13.558281914088209"><ele>694.0</ele><time>2026-04-18T13:48:13Z</time></trkpt><trkpt lat="42.05813185776736" lon="13.558422694141084"><ele>694.0</ele><time>2026-04-18T13:48:14Z</time></trkpt><trkpt lat="42.05814600952649" lon="13.558547606242938"><ele>694.0</ele><time>2026-04-18T13:48:15Z</time></trkpt><trkpt lat="42.058152000058215" lon="13.55866351555413"><ele>694.0</ele><time>2026-04-18T13:48:16Z</time></trkpt><trkpt lat="42.05814762714442" lon="13.558767829611185"><ele>694.0</ele><time>2026-04-18T13:48:17Z</time></trkpt><trkpt lat="42.05812323511756" lon="13.558864789186336"><ele>694.0</ele><time>2026-04-18T13:48:18Z</time></trkpt><trkpt lat="42.058070735258326" lon="13.558962678632525"><ele>694.0</ele><time>2026-04-18T13:48:19Z</time></trkpt><trkpt lat="42.05801513326738" lon="13.559057693803437"><ele>693.8333333333334</ele><time>2026-04-18T13:48:20Z</time></trkpt><trkpt lat="42.05798674591884" lon="13.559162992220408"><ele>693.6666666666667</ele><time>2026-04-18T13:48:21Z</time></trkpt><trkpt lat="42.05799121363103" lon="13.559268026089589"><ele>693.5</ele><time>2026-04-18T13:48:22Z</time></trkpt><trkpt lat="42.05803472618712" lon="13.559373413118598"><ele>693.3333333333334</ele><time>2026-04-18T13:48:23Z</time></trkpt><trkpt lat="42.05809677827316" lon="13.559472006785953"><ele>693.1666666666666</ele><time>2026-04-18T13:48:24Z</time></trkpt><trkpt lat="42.05818036173526" lon="13.559524585142045"><ele>693.0</ele><time>2026-04-18T13:48:25Z</time></trkpt><trkpt lat="42.05827135676704" lon="13.559519294532311"><ele>693.0</ele><time>2026-04-18T13:48:26Z</time></trkpt><trkpt lat="42.0583596445229" lon="13.559472680746678"><ele>693.0</ele><time>2026-04-18T13:48:26.999Z</time></trkpt><trkpt lat="42.058427231122835" lon="13.559381179860186"><ele>693.0</ele><time>2026-04-18T13:48:27.999Z</time></trkpt><trkpt lat="42.05845894707707" lon="13.559220344560742"><ele>693.0</ele><time>2026-04-18T13:48:28.999Z</time></trkpt><trkpt lat="42.05846385232699" lon="13.559065034703314"><ele>693.0</ele><time>2026-04-18T13:48:29.999Z</time></trkpt><trkpt lat="42.05846726008252" lon="13.558914837301598"><ele>693.0</ele><time>2026-04-18T13:48:30.999Z</time></trkpt><trkpt lat="42.05851608327576" lon="13.558796081246937"><ele>693.0</ele><time>2026-04-18T13:48:31.999Z</time></trkpt><trkpt lat="42.05863486582764" lon="13.558653642902067"><ele>693.0</ele><time>2026-04-18T13:48:32.999Z</time></trkpt><trkpt lat="42.05880822442054" lon="13.558508467020015"><ele>693.5</ele><time>2026-04-18T13:48:33.999Z</time></trkpt><trkpt lat="42.059036241757426" lon="13.558353469454955"><ele>694.0</ele><time>2026-04-18T13:48:34.999Z</time></trkpt><trkpt lat="42.05928485982451" lon="13.558195275297436"><ele>694.0</ele><time>2026-04-18T13:48:35.999Z</time></trkpt><trkpt lat="42.05955598841865" lon="13.557998955551405"><ele>694.0</ele><time>2026-04-18T13:48:36.999Z</time></trkpt><trkpt lat="42.05980231042409" lon="13.557817416263308"><ele>694.0</ele><time>2026-04-18T13:48:37.999Z</time></trkpt><trkpt lat="42.06003762315885" lon="13.557647494342543"><ele>694.0</ele><time>2026-04-18T13:48:38.999Z</time></trkpt><trkpt lat="42.06030845767349" lon="13.5574785036984"><ele>694.0</ele><time>2026-04-18T13:48:39.999Z</time></trkpt><trkpt lat="42.06059164298317" lon="13.55731224915388"><ele>694.0</ele><time>2026-04-18T13:48:40.999Z</time></trkpt><trkpt lat="42.06085158803834" lon="13.557174970106566"><ele>695.0</ele><time>2026-04-18T13:48:41.999Z</time></trkpt><trkpt lat="42.06109004032555" lon="13.5570483515494"><ele>696.0</ele><time>2026-04-18T13:48:42.999Z</time></trkpt><trkpt lat="42.06130980996316" lon="13.556917131812723"><ele>697.0</ele><time>2026-04-18T13:48:43.999Z</time></trkpt><trkpt lat="42.06154059610758" lon="13.556756865258741"><ele>698.0</ele><time>2026-04-18T13:48:44.999Z</time></trkpt><trkpt lat="42.06180319477122" lon="13.556546063000674"><ele>698.0</ele><time>2026-04-18T13:48:45.999Z</time></trkpt><trkpt lat="42.062082166439865" lon="13.5563339166955"><ele>698.0</ele><time>2026-04-18T13:48:46.999Z</time></trkpt><trkpt lat="42.06235577561765" lon="13.55614901920163"><ele>699.5</ele><time>2026-04-18T13:48:47.999Z</time></trkpt><trkpt lat="42.06259735523891" lon="13.555976127786858"><ele>701.0</ele><time>2026-04-18T13:48:48.999Z</time></trkpt><trkpt lat="42.062815005246364" lon="13.55581930090364"><ele>701.0</ele><time>2026-04-18T13:48:49.999Z</time></trkpt><trkpt lat="42.0630183557751" lon="13.555675827442336"><ele>701.0</ele><time>2026-04-18T13:48:50.999Z</time></trkpt><trkpt lat="42.0632146645528" lon="13.555539959220473"><ele>701.5</ele><time>2026-04-18T13:48:51.999Z</time></trkpt><trkpt lat="42.063421391980555" lon="13.555408483846312"><ele>702.0</ele><time>2026-04-18T13:48:52.999Z</time></trkpt><trkpt lat="42.06365642191592" lon="13.55528547330794"><ele>702.0</ele><time>2026-04-18T13:48:53.999Z</time></trkpt><trkpt lat="42.06391597873169" lon="13.555163998316862"><ele>702.0</ele><time>2026-04-18T13:48:54.999Z</time></trkpt><trkpt lat="42.06419203423244" lon="13.555043937497201"><ele>702.0</ele><time>2026-04-18T13:48:55.999Z</time></trkpt><trkpt lat="42.06449239093638" lon="13.55493225856929"><ele>702.0</ele><time>2026-04-18T13:48:56.999Z</time></trkpt><trkpt lat="42.06480330920728" lon="13.554833109520654"><ele>704.5</ele><time>2026-04-18T13:48:57.999Z</time></trkpt><trkpt lat="42.06507764987849" lon="13.554749868246741"><ele>707.0</ele><time>2026-04-18T13:48:58.999Z</time></trkpt><trkpt lat="42.065316738973074" lon="13.554673583019653"><ele>707.0</ele><time>2026-04-18T13:48:59.999Z</time></trkpt><trkpt lat="42.065548223000455" lon="13.55459898614157"><ele>707.0</ele><time>2026-04-18T13:49:00.999Z</time></trkpt><trkpt lat="42.065763724295074" lon="13.554527039940723"><ele>707.6666666666666</ele><time>2026-04-18T13:49:01.999Z</time></trkpt><trkpt lat="42.06596260980288" lon="13.554463206165392"><ele>708.3333333333334</ele><time>2026-04-18T13:49:02.999Z</time></trkpt><trkpt lat="42.06614796484965" lon="13.554404198241249"><ele>709.0</ele><time>2026-04-18T13:49:03.999Z</time></trkpt><trkpt lat="42.06632526832175" lon="13.554352935544873"><ele>709.0</ele><time>2026-04-18T13:49:04.999Z</time></trkpt><trkpt lat="42.066499817269346" lon="13.554299529800412"><ele>709.0</ele><time>2026-04-18T13:49:05.999Z</time></trkpt><trkpt lat="42.06668766521953" lon="13.554245123161275"><ele>709.0</ele><time>2026-04-18T13:49:06.999Z</time></trkpt><trkpt lat="42.06688162786069" lon="13.554213698436161"><ele>710.0</ele><time>2026-04-18T13:49:07.999Z</time></trkpt><trkpt lat="42.06707634597125" lon="13.5542183740846"><ele>711.0</ele><time>2026-04-18T13:49:08.999Z</time></trkpt><trkpt lat="42.06726605748172" lon="13.55425268629494"><ele>712.0</ele><time>2026-04-18T13:49:09.999Z</time></trkpt><trkpt lat="42.06747543397153" lon="13.554321837378073"><ele>712.6666666666667</ele><time>2026-04-18T13:49:10.999Z</time></trkpt><trkpt lat="42.06768086966288" lon="13.554418929741004"><ele>713.3333333333334</ele><time>2026-04-18T13:49:11.999Z</time></trkpt><trkpt lat="42.06786154468404" lon="13.554520759020894"><ele>714.0</ele><time>2026-04-18T13:49:12.999Z</time></trkpt><trkpt lat="42.068030429286985" lon="13.554615657851773"><ele>714.0</ele><time>2026-04-18T13:49:13.999Z</time></trkpt><trkpt lat="42.06818278089995" lon="13.554699797507475"><ele>714.0</ele><time>2026-04-18T13:49:14.999Z</time></trkpt><trkpt lat="42.06832625493963" lon="13.55476032461128"><ele>714.0</ele><time>2026-04-18T13:49:15.999Z</time></trkpt><trkpt lat="42.06847278944016" lon="13.554804947559687"><ele>714.6666666666666</ele><time>2026-04-18T13:49:16.999Z</time></trkpt><trkpt lat="42.06864478499164" lon="13.554763627462732"><ele>715.3333333333333</ele><time>2026-04-18T13:49:17.999Z</time></trkpt><trkpt lat="42.06882904615421" lon="13.554657431737636"><ele>716.0</ele><time>2026-04-18T13:49:18.999Z</time></trkpt><trkpt lat="42.06902297942034" lon="13.5544779641162"><ele>719.0</ele><time>2026-04-18T13:49:19.999Z</time></trkpt><trkpt lat="42.069206032775874" lon="13.554231581863593"><ele>722.0</ele><time>2026-04-18T13:49:20.999Z</time></trkpt><trkpt lat="42.069387413737616" lon="13.554018808543656"><ele>722.0</ele><time>2026-04-18T13:49:21.999Z</time></trkpt><trkpt lat="42.06954611351231" lon="13.553853710716952"><ele>722.0</ele><time>2026-04-18T13:49:22.999Z</time></trkpt><trkpt lat="42.06967507257613" lon="13.553716027598634"><ele>722.0</ele><time>2026-04-18T13:49:23.999Z</time></trkpt><trkpt lat="42.06981133008666" lon="13.553594311499225"><ele>722.0</ele><time>2026-04-18T13:49:24.999Z</time></trkpt><trkpt lat="42.06995806748645" lon="13.553513023903099"><ele>722.0</ele><time>2026-04-18T13:49:25.999Z</time></trkpt><trkpt lat="42.070155575216546" lon="13.553463112990281"><ele>722.0</ele><time>2026-04-18T13:49:26.999Z</time></trkpt><trkpt lat="42.070401343903605" lon="13.553381989524008"><ele>722.0</ele><time>2026-04-18T13:49:27.999Z</time></trkpt><trkpt lat="42.070650096619815" lon="13.553322066472752"><ele>722.0</ele><time>2026-04-18T13:49:28.999Z</time></trkpt><trkpt lat="42.07086498120721" lon="13.553264833700752"><ele>724.6666666666666</ele><time>2026-04-18T13:49:29.999Z</time></trkpt><trkpt lat="42.07105627298739" lon="13.553211477526016"><ele>727.3333333333334</ele><time>2026-04-18T13:49:30.999Z</time></trkpt><trkpt lat="42.07122572356903" lon="13.55314867289164"><ele>730.0</ele><time>2026-04-18T13:49:31.999Z</time></trkpt><trkpt lat="42.07137363248396" lon="13.553057551696115"><ele>730.0</ele><time>2026-04-18T13:49:32.999Z</time></trkpt><trkpt lat="42.07149891027219" lon="13.552950040316087"><ele>730.0</ele><time>2026-04-18T13:49:33.999Z</time></trkpt><trkpt lat="42.071615457226436" lon="13.552851579522853"><ele>730.0</ele><time>2026-04-18T13:49:34.999Z</time></trkpt><trkpt lat="42.07172228351655" lon="13.552767661774007"><ele>730.0</ele><time>2026-04-18T13:49:35.999Z</time></trkpt><trkpt lat="42.07181765613352" lon="13.552697891903607"><ele>729.3333333333334</ele><time>2026-04-18T13:49:36.999Z</time></trkpt><trkpt lat="42.071907244760006" lon="13.55264486823591"><ele>728.6666666666667</ele><time>2026-04-18T13:49:37.999Z</time></trkpt><trkpt lat="42.071994392690364" lon="13.552637545567919"><ele>728.0</ele><time>2026-04-18T13:49:38.999Z</time></trkpt><trkpt lat="42.07207601975524" lon="13.552669500262823"><ele>727.3333333333334</ele><time>2026-04-18T13:49:40Z</time></trkpt><trkpt lat="42.07215169282804" lon="13.552708140799274"><ele>726.6666666666666</ele><time>2026-04-18T13:49:41Z</time></trkpt><trkpt lat="42.07222779190675" lon="13.552745931991545"><ele>726.0</ele><time>2026-04-18T13:49:42Z</time></trkpt><trkpt lat="42.07231214009004" lon="13.55277111656272"><ele>726.0</ele><time>2026-04-18T13:49:43Z</time></trkpt><trkpt lat="42.072420049291665" lon="13.552773006896649"><ele>726.0</ele><time>2026-04-18T13:49:44Z</time></trkpt><trkpt lat="42.07256687995559" lon="13.552719106176461"><ele>726.0</ele><time>2026-04-18T13:49:45Z</time></trkpt><trkpt lat="42.07273589164898" lon="13.55263930906816"><ele>726.0</ele><time>2026-04-18T13:49:46Z</time></trkpt><trkpt lat="42.072923782301736" lon="13.552549206586727"><ele>727.6666666666666</ele><time>2026-04-18T13:49:47Z</time></trkpt><trkpt lat="42.073125477573434" lon="13.552457833654433"><ele>729.3333333333333</ele><time>2026-04-18T13:49:48Z</time></trkpt><trkpt lat="42.0733182987202" lon="13.552372499444015"><ele>731.0</ele><time>2026-04-18T13:49:49Z</time></trkpt><trkpt lat="42.073495843701686" lon="13.552300017683354"><ele>733.3333333333333</ele><time>2026-04-18T13:49:50Z</time></trkpt><trkpt lat="42.073655739919346" lon="13.552236531020284"><ele>735.6666666666666</ele><time>2026-04-18T13:49:51Z</time></trkpt><trkpt lat="42.07381378164459" lon="13.55218919483393"><ele>738.0</ele><time>2026-04-18T13:49:52Z</time></trkpt><trkpt lat="42.07396631701354" lon="13.552165056300614"><ele>740.0</ele><time>2026-04-18T13:49:53Z</time></trkpt><trkpt lat="42.07413329553647" lon="13.552159307459013"><ele>742.0</ele><time>2026-04-18T13:49:54Z</time></trkpt><trkpt lat="42.07431680086771" lon="13.552175988947837"><ele>744.0</ele><time>2026-04-18T13:49:55Z</time></trkpt><trkpt lat="42.0745048924994" lon="13.552220680771168"><ele>744.0</ele><time>2026-04-18T13:49:56Z</time></trkpt><trkpt lat="42.07468901676472" lon="13.552294116386863"><ele>744.0</ele><time>2026-04-18T13:49:57Z</time></trkpt><trkpt lat="42.07485640910217" lon="13.552363144623031"><ele>744.0</ele><time>2026-04-18T13:49:58Z</time></trkpt><trkpt lat="42.07499849806467" lon="13.552459411076917"><ele>743.75</ele><time>2026-04-18T13:49:59Z</time></trkpt><trkpt lat="42.07512403204375" lon="13.552522604338197"><ele>743.5</ele><time>2026-04-18T13:50:00Z</time></trkpt><trkpt lat="42.07524227817846" lon="13.552591230603923"><ele>743.25</ele><time>2026-04-18T13:50:01Z</time></trkpt><trkpt lat="42.07535552347717" lon="13.5526732624836"><ele>743.0</ele><time>2026-04-18T13:50:02Z</time></trkpt><trkpt lat="42.07547030660356" lon="13.552770922472943"><ele>744.5</ele><time>2026-04-18T13:50:03Z</time></trkpt><trkpt lat="42.0755817702122" lon="13.552875618604643"><ele>746.0</ele><time>2026-04-18T13:50:04Z</time></trkpt><trkpt lat="42.075695223594096" lon="13.552985724569377"><ele>747.5</ele><time>2026-04-18T13:50:05Z</time></trkpt><trkpt lat="42.07581659163281" lon="13.55310351170596"><ele>749.0</ele><time>2026-04-18T13:50:06Z</time></trkpt><trkpt lat="42.075936779026996" lon="13.553219513227976"><ele>749.0</ele><time>2026-04-18T13:50:07Z</time></trkpt><trkpt lat="42.07605036397568" lon="13.553326445204412"><ele>749.0</ele><time>2026-04-18T13:50:08Z</time></trkpt><trkpt lat="42.07615499391565" lon="13.553421852925513"><ele>749.0</ele><time>2026-04-18T13:50:09Z</time></trkpt><trkpt lat="42.07626477964242" lon="13.553485630398379"><ele>749.0</ele><time>2026-04-18T13:50:10Z</time></trkpt><trkpt lat="42.0763707942718" lon="13.553536071961261"><ele>749.0</ele><time>2026-04-18T13:50:11Z</time></trkpt><trkpt lat="42.07650845885821" lon="13.553560080171264"><ele>749.0</ele><time>2026-04-18T13:50:12Z</time></trkpt><trkpt lat="42.076647513387066" lon="13.55353575982911"><ele>749.0</ele><time>2026-04-18T13:50:13Z</time></trkpt><trkpt lat="42.07677115995887" lon="13.55349889152675"><ele>749.0</ele><time>2026-04-18T13:50:14Z</time></trkpt><trkpt lat="42.07688246133564" lon="13.553451842164867"><ele>748.2</ele><time>2026-04-18T13:50:15Z</time></trkpt><trkpt lat="42.076986535868905" lon="13.55341295970428"><ele>747.4000000000001</ele><time>2026-04-18T13:50:16Z</time></trkpt><trkpt lat="42.07708835816044" lon="13.55337598121516"><ele>746.6</ele><time>2026-04-18T13:50:17Z</time></trkpt><trkpt lat="42.077183680191574" lon="13.553338140722667"><ele>745.8</ele><time>2026-04-18T13:50:18Z</time></trkpt><trkpt lat="42.07727881505445" lon="13.55330050919839"><ele>745.0</ele><time>2026-04-18T13:50:19Z</time></trkpt><trkpt lat="42.07736474359365" lon="13.553272413015192"><ele>745.4</ele><time>2026-04-18T13:50:20Z</time></trkpt><trkpt lat="42.077451179628454" lon="13.553236762379052"><ele>745.8</ele><time>2026-04-18T13:50:21Z</time></trkpt><trkpt lat="42.07752477497365" lon="13.553178312736105"><ele>746.2</ele><time>2026-04-18T13:50:22Z</time></trkpt><trkpt lat="42.07757652728243" lon="13.553078267300021"><ele>746.6</ele><time>2026-04-18T13:50:23Z</time></trkpt><trkpt lat="42.077602118819556" lon="13.55294752255428"><ele>747.0</ele><time>2026-04-18T13:50:24Z</time></trkpt><trkpt lat="42.077597587983654" lon="13.552799305755915"><ele>748.75</ele><time>2026-04-18T13:50:25Z</time></trkpt><trkpt lat="42.077563323695315" lon="13.552641324699286"><ele>750.5</ele><time>2026-04-18T13:50:26Z</time></trkpt><trkpt lat="42.077519185881776" lon="13.552478755084353"><ele>752.25</ele><time>2026-04-18T13:50:27Z</time></trkpt><trkpt lat="42.077480480877426" lon="13.552327118939477"><ele>754.0</ele><time>2026-04-18T13:50:28Z</time></trkpt><trkpt lat="42.077448181479284" lon="13.552197168181902"><ele>752.6</ele><time>2026-04-18T13:50:29Z</time></trkpt><trkpt lat="42.07741870618708" lon="13.552078231288998"><ele>751.2</ele><time>2026-04-18T13:50:30Z</time></trkpt><trkpt lat="42.0773839912528" lon="13.551960499088565"><ele>749.8000000000001</ele><time>2026-04-18T13:50:30.999Z</time></trkpt><trkpt lat="42.07734705767182" lon="13.551827693442464"><ele>748.4000000000001</ele><time>2026-04-18T13:50:31.999Z</time></trkpt><trkpt lat="42.07729989927768" lon="13.55168978008126"><ele>747.0</ele><time>2026-04-18T13:50:32.999Z</time></trkpt><trkpt lat="42.07724104873262" lon="13.551557554908582"><ele>747.0</ele><time>2026-04-18T13:50:33.999Z</time></trkpt><trkpt lat="42.077171613320544" lon="13.551437131583642"><ele>747.0</ele><time>2026-04-18T13:50:34.999Z</time></trkpt><trkpt lat="42.07709637934624" lon="13.551321006384148"><ele>747.0</ele><time>2026-04-18T13:50:35.999Z</time></trkpt><trkpt lat="42.077007939389965" lon="13.551230637458547"><ele>747.0</ele><time>2026-04-18T13:50:36.999Z</time></trkpt><trkpt lat="42.07691395143206" lon="13.551149029589338"><ele>745.8</ele><time>2026-04-18T13:50:37.999Z</time></trkpt><trkpt lat="42.076812934141095" lon="13.551068677676584"><ele>744.6</ele><time>2026-04-18T13:50:38.999Z</time></trkpt><trkpt lat="42.076716800858286" lon="13.550988596083723"><ele>743.4</ele><time>2026-04-18T13:50:39.999Z</time></trkpt><trkpt lat="42.07665049161824" lon="13.55091311970558"><ele>742.1999999999999</ele><time>2026-04-18T13:50:40.999Z</time></trkpt><trkpt lat="42.07659088648177" lon="13.550846550051363"><ele>741.0</ele><time>2026-04-18T13:50:41.999Z</time></trkpt><trkpt lat="42.07654578997827" lon="13.550780806053684"><ele>741.0</ele><time>2026-04-18T13:50:42.999Z</time></trkpt><trkpt lat="42.076536763277474" lon="13.550689787192006"><ele>741.0</ele><time>2026-04-18T13:50:43.999Z</time></trkpt><trkpt lat="42.07653836123889" lon="13.550600887102064"><ele>741.0</ele><time>2026-04-18T13:50:44.999Z</time></trkpt><trkpt lat="42.07655639831806" lon="13.550504472894056"><ele>741.0</ele><time>2026-04-18T13:50:45.999Z</time></trkpt><trkpt lat="42.07662385002643" lon="13.550412172393932"><ele>741.0</ele><time>2026-04-18T13:50:46.999Z</time></trkpt><trkpt lat="42.0767240091812" lon="13.550368497382525"><ele>741.0</ele><time>2026-04-18T13:50:47.999Z</time></trkpt><trkpt lat="42.07683282294563" lon="13.550330487214993"><ele>743.25</ele><time>2026-04-18T13:50:48.999Z</time></trkpt><trkpt lat="42.07695038291665" lon="13.550282249907438"><ele>745.5</ele><time>2026-04-18T13:50:49.999Z</time></trkpt><trkpt lat="42.07708178241391" lon="13.550228333939918"><ele>747.75</ele><time>2026-04-18T13:50:50.999Z</time></trkpt><trkpt lat="42.0772288027075" lon="13.550168008586528"><ele>750.0</ele><time>2026-04-18T13:50:51.999Z</time></trkpt><trkpt lat="42.07737385782981" lon="13.550088773747383"><ele>753.25</ele><time>2026-04-18T13:50:52.999Z</time></trkpt><trkpt lat="42.07751244154397" lon="13.550031667933508"><ele>756.5</ele><time>2026-04-18T13:50:53.999Z</time></trkpt><trkpt lat="42.077641398834096" lon="13.549996968690735"><ele>759.75</ele><time>2026-04-18T13:50:54.999Z</time></trkpt><trkpt lat="42.07775667184864" lon="13.549940819428075"><ele>763.0</ele><time>2026-04-18T13:50:55.999Z</time></trkpt><trkpt lat="42.07786139162075" lon="13.549858879217453"><ele>763.0</ele><time>2026-04-18T13:50:56.999Z</time></trkpt><trkpt lat="42.07794179773766" lon="13.549768141115367"><ele>763.0</ele><time>2026-04-18T13:50:57.999Z</time></trkpt><trkpt lat="42.07800503150483" lon="13.549657626837043"><ele>763.0</ele><time>2026-04-18T13:50:58.999Z</time></trkpt><trkpt lat="42.07804624415195" lon="13.549530598690435"><ele>763.0</ele><time>2026-04-18T13:50:59.999Z</time></trkpt><trkpt lat="42.07807357846188" lon="13.549386341036636"><ele>763.0</ele><time>2026-04-18T13:51:00.999Z</time></trkpt><trkpt lat="42.078101120724" lon="13.549226571862746"><ele>762.8</ele><time>2026-04-18T13:51:01.999Z</time></trkpt><trkpt lat="42.078129316464725" lon="13.549068868688453"><ele>762.5999999999999</ele><time>2026-04-18T13:51:02.999Z</time></trkpt><trkpt lat="42.07816224522518" lon="13.548930013552276"><ele>762.4000000000001</ele><time>2026-04-18T13:51:03.999Z</time></trkpt><trkpt lat="42.07820433626995" lon="13.548821493887433"><ele>762.2</ele><time>2026-04-18T13:51:04.999Z</time></trkpt><trkpt lat="42.07827248408917" lon="13.548721866055219"><ele>762.0</ele><time>2026-04-18T13:51:05.999Z</time></trkpt><trkpt lat="42.078353344625995" lon="13.548644945415937"><ele>762.0</ele><time>2026-04-18T13:51:06.999Z</time></trkpt><trkpt lat="42.078451624345284" lon="13.548584748297118"><ele>762.0</ele><time>2026-04-18T13:51:07.999Z</time></trkpt><trkpt lat="42.078564473797435" lon="13.548541713964779"><ele>762.0</ele><time>2026-04-18T13:51:08.999Z</time></trkpt><trkpt lat="42.07869899994282" lon="13.548515738095142"><ele>762.0</ele><time>2026-04-18T13:51:09.999Z</time></trkpt><trkpt lat="42.07884395882919" lon="13.54849382214545"><ele>762.0</ele><time>2026-04-18T13:51:10.999Z</time></trkpt><trkpt lat="42.0789852175639" lon="13.54846597228148"><ele>762.0</ele><time>2026-04-18T13:51:11.999Z</time></trkpt><trkpt lat="42.0791141429087" lon="13.54843967815695"><ele>762.0</ele><time>2026-04-18T13:51:12.999Z</time></trkpt><trkpt lat="42.07923341024393" lon="13.5484163369727"><ele>762.0</ele><time>2026-04-18T13:51:13.999Z</time></trkpt><trkpt lat="42.079350801406825" lon="13.548397554583369"><ele>765.25</ele><time>2026-04-18T13:51:14.999Z</time></trkpt><trkpt lat="42.0794662320916" lon="13.548371755097637"><ele>768.5</ele><time>2026-04-18T13:51:15.999Z</time></trkpt><trkpt lat="42.07958316639445" lon="13.548345508121802"><ele>771.75</ele><time>2026-04-18T13:51:16.999Z</time></trkpt><trkpt lat="42.07970451949009" lon="13.54831986323733"><ele>775.0</ele><time>2026-04-18T13:51:17.999Z</time></trkpt><trkpt lat="42.079828289708516" lon="13.548295838304016"><ele>776.0</ele><time>2026-04-18T13:51:18.999Z</time></trkpt><trkpt lat="42.07995064912196" lon="13.548272096068397"><ele>777.0</ele><time>2026-04-18T13:51:19.999Z</time></trkpt><trkpt lat="42.08007292587979" lon="13.548250684378898"><ele>778.0</ele><time>2026-04-18T13:51:20.999Z</time></trkpt><trkpt lat="42.080192075869704" lon="13.548225570283236"><ele>779.0</ele><time>2026-04-18T13:51:21.999Z</time></trkpt><trkpt lat="42.08030399289095" lon="13.548205436708859"><ele>779.0</ele><time>2026-04-18T13:51:22.999Z</time></trkpt><trkpt lat="42.08040172044233" lon="13.548205733555635"><ele>779.0</ele><time>2026-04-18T13:51:23.999Z</time></trkpt><trkpt lat="42.08048283554607" lon="13.548237311639058"><ele>779.0</ele><time>2026-04-18T13:51:24.999Z</time></trkpt><trkpt lat="42.080537052010236" lon="13.548300135496333"><ele>779.0</ele><time>2026-04-18T13:51:25.999Z</time></trkpt><trkpt lat="42.08056406316561" lon="13.54844621274818"><ele>779.0</ele><time>2026-04-18T13:51:27.999Z</time></trkpt><trkpt lat="42.080487059788524" lon="13.548560342102764"><ele>779.0</ele><time>2026-04-18T13:51:29.999Z</time></trkpt><trkpt lat="42.080403495011524" lon="13.548650294690537"><ele>779.0</ele><time>2026-04-18T13:51:30.999Z</time></trkpt><trkpt lat="42.080312561984066" lon="13.548747425298835"><ele>779.0</ele><time>2026-04-18T13:51:31.999Z</time></trkpt><trkpt lat="42.08023391175144" lon="13.548853432849228"><ele>779.0</ele><time>2026-04-18T13:51:32.999Z</time></trkpt><trkpt lat="42.08013189440695" lon="13.548950960965474"><ele>779.25</ele><time>2026-04-18T13:51:33.999Z</time></trkpt><trkpt lat="42.080039699920164" lon="13.54904630310227"><ele>779.5</ele><time>2026-04-18T13:51:34.999Z</time></trkpt><trkpt lat="42.079947422645226" lon="13.549146321642002"><ele>779.75</ele><time>2026-04-18T13:51:35.999Z</time></trkpt><trkpt lat="42.079848284032956" lon="13.54924894187169"><ele>780.0</ele><time>2026-04-18T13:51:36.999Z</time></trkpt><trkpt lat="42.07974484744219" lon="13.549347768696057"><ele>780.0</ele><time>2026-04-18T13:51:37.999Z</time></trkpt><trkpt lat="42.079648838805696" lon="13.549439461663177"><ele>780.0</ele><time>2026-04-18T13:51:38.999Z</time></trkpt><trkpt lat="42.07956567649599" lon="13.549523987908529"><ele>780.0</ele><time>2026-04-18T13:51:39.999Z</time></trkpt><trkpt lat="42.07949669813896" lon="13.549598227814595"><ele>780.0</ele><time>2026-04-18T13:51:40.999Z</time></trkpt><trkpt lat="42.079427411913784" lon="13.549668818974208"><ele>780.0</ele><time>2026-04-18T13:51:41.999Z</time></trkpt><trkpt lat="42.079351599559374" lon="13.549743737324821"><ele>779.4</ele><time>2026-04-18T13:51:42.999Z</time></trkpt><trkpt lat="42.07927196686011" lon="13.549822807868605"><ele>778.8</ele><time>2026-04-18T13:51:43.999Z</time></trkpt><trkpt lat="42.079195163604965" lon="13.549905015604931"><ele>778.2</ele><time>2026-04-18T13:51:44.999Z</time></trkpt><trkpt lat="42.07912127669505" lon="13.549987412008724"><ele>777.6</ele><time>2026-04-18T13:51:46Z</time></trkpt><trkpt lat="42.07904639688963" lon="13.550066529286806"><ele>777.0</ele><time>2026-04-18T13:51:47Z</time></trkpt><trkpt lat="42.07897318544092" lon="13.550145106052897"><ele>777.0</ele><time>2026-04-18T13:51:48Z</time></trkpt><trkpt lat="42.078900358157604" lon="13.55022194749029"><ele>777.0</ele><time>2026-04-18T13:51:49Z</time></trkpt><trkpt lat="42.07883220248074" lon="13.550294239724273"><ele>777.0</ele><time>2026-04-18T13:51:50Z</time></trkpt><trkpt lat="42.0787671510954" lon="13.550365327503885"><ele>777.0</ele><time>2026-04-18T13:51:51Z</time></trkpt><trkpt lat="42.07870958641111" lon="13.55042813774105"><ele>777.0</ele><time>2026-04-18T13:51:52Z</time></trkpt><trkpt lat="42.0786585749507" lon="13.550488933502853"><ele>777.0</ele><time>2026-04-18T13:51:53Z</time></trkpt><trkpt lat="42.07861495346426" lon="13.550553930191034"><ele>778.5</ele><time>2026-04-18T13:51:54Z</time></trkpt><trkpt lat="42.07858308995428" lon="13.550638848347552"><ele>780.0</ele><time>2026-04-18T13:51:55Z</time></trkpt><trkpt lat="42.0785731225523" lon="13.55073179341704"><ele>781.5</ele><time>2026-04-18T13:51:56Z</time></trkpt><trkpt lat="42.078593900868185" lon="13.550828276513803"><ele>783.0</ele><time>2026-04-18T13:51:57Z</time></trkpt><trkpt lat="42.07865714938642" lon="13.550905508702373"><ele>784.5</ele><time>2026-04-18T13:51:58Z</time></trkpt><trkpt lat="42.07873917870598" lon="13.550952556959741"><ele>786.0</ele><time>2026-04-18T13:51:59Z</time></trkpt><trkpt lat="42.07883102621725" lon="13.550953624008153"><ele>786.0</ele><time>2026-04-18T13:52:00Z</time></trkpt><trkpt lat="42.07892123874187" lon="13.550921345124948"><ele>786.0</ele><time>2026-04-18T13:52:01Z</time></trkpt><trkpt lat="42.079000403959576" lon="13.550892822975038"><ele>786.0</ele><time>2026-04-18T13:52:02Z</time></trkpt><trkpt lat="42.07907164238859" lon="13.550878302853548"><ele>786.0</ele><time>2026-04-18T13:52:03Z</time></trkpt><trkpt lat="42.07920093768151" lon="13.550836318335799"><ele>786.0</ele><time>2026-04-18T13:52:05Z</time></trkpt><trkpt lat="42.07926683440204" lon="13.550809744425395"><ele>786.0</ele><time>2026-04-18T13:52:06Z</time></trkpt><trkpt lat="42.0793341283011" lon="13.550794226109458"><ele>788.1666666666666</ele><time>2026-04-18T13:52:07Z</time></trkpt><trkpt lat="42.07940971867469" lon="13.55076713511067"><ele>790.3333333333333</ele><time>2026-04-18T13:52:08Z</time></trkpt><trkpt lat="42.079473145394445" lon="13.55075367286835"><ele>792.5</ele><time>2026-04-18T13:52:09Z</time></trkpt><trkpt lat="42.07952956534372" lon="13.550713399677944"><ele>794.6666666666666</ele><time>2026-04-18T13:52:10Z</time></trkpt><trkpt lat="42.079668607309046" lon="13.55066271451228"><ele>796.8333333333333</ele><time>2026-04-18T13:52:12Z</time></trkpt><trkpt lat="42.0797198877563" lon="13.550611520936584"><ele>799.0</ele><time>2026-04-18T13:52:13Z</time></trkpt><trkpt lat="42.07982233771364" lon="13.550532153242242"><ele>799.0</ele><time>2026-04-18T13:52:15Z</time></trkpt><trkpt lat="42.079872015189295" lon="13.55046415190744"><ele>799.0</ele><time>2026-04-18T13:52:16Z</time></trkpt><trkpt lat="42.07992425812557" lon="13.550406053835536"><ele>799.0</ele><time>2026-04-18T13:52:17Z</time></trkpt><trkpt lat="42.07997383813954" lon="13.550342659800432"><ele>799.0</ele><time>2026-04-18T13:52:18Z</time></trkpt><trkpt lat="42.08002358321874" lon="13.550281646674005"><ele>799.0</ele><time>2026-04-18T13:52:19Z</time></trkpt><trkpt lat="42.080076222785785" lon="13.550219122737545"><ele>799.0</ele><time>2026-04-18T13:52:20Z</time></trkpt><trkpt lat="42.080131404520664" lon="13.550167051952913"><ele>799.0</ele><time>2026-04-18T13:52:21Z</time></trkpt><trkpt lat="42.08019473457931" lon="13.550123019790597"><ele>799.2</ele><time>2026-04-18T13:52:22Z</time></trkpt><trkpt lat="42.08030388290219" lon="13.550052406316789"><ele>799.4000000000001</ele><time>2026-04-18T13:52:24Z</time></trkpt><trkpt lat="42.08039159569328" lon="13.550052300340258"><ele>799.6</ele><time>2026-04-18T13:52:26Z</time></trkpt><trkpt lat="42.080517413246376" lon="13.550043653917493"><ele>799.8</ele><time>2026-04-18T13:52:28Z</time></trkpt><trkpt lat="42.08058807407546" lon="13.55004438954146"><ele>800.0</ele><time>2026-04-18T13:52:29Z</time></trkpt><trkpt lat="42.08065353251484" lon="13.550039519426791"><ele>800.0000000000001</ele><time>2026-04-18T13:52:30Z</time></trkpt><trkpt lat="42.080719402244966" lon="13.55003437336908"><ele>800.0</ele><time>2026-04-18T13:52:31Z</time></trkpt><trkpt lat="42.08084524259333" lon="13.550037316656395"><ele>800.0</ele><time>2026-04-18T13:52:33Z</time></trkpt><trkpt lat="42.080912276988386" lon="13.550034771511722"><ele>800.0</ele><time>2026-04-18T13:52:33.999Z</time></trkpt><trkpt lat="42.0809809663783" lon="13.550028098029058"><ele>800.0000000000001</ele><time>2026-04-18T13:52:34.999Z</time></trkpt><trkpt lat="42.081052981508435" lon="13.550031466693488"><ele>800.0</ele><time>2026-04-18T13:52:35.999Z</time></trkpt><trkpt lat="42.081127559108346" lon="13.550031191306392"><ele>801.5000000000001</ele><time>2026-04-18T13:52:36.999Z</time></trkpt><trkpt lat="42.08120163713573" lon="13.550023788742978"><ele>803.0</ele><time>2026-04-18T13:52:37.999Z</time></trkpt><trkpt lat="42.08128387049045" lon="13.550019722826157"><ele>804.5</ele><time>2026-04-18T13:52:38.999Z</time></trkpt><trkpt lat="42.08137977957962" lon="13.550010569051206"><ele>806.0</ele><time>2026-04-18T13:52:39.999Z</time></trkpt><trkpt lat="42.08146933674489" lon="13.550003038690319"><ele>807.5000000000001</ele><time>2026-04-18T13:52:40.999Z</time></trkpt><trkpt lat="42.08155500000543" lon="13.550002259965222"><ele>809.0</ele><time>2026-04-18T13:52:41.999Z</time></trkpt><trkpt lat="42.08164858661131" lon="13.549998680007848"><ele>810.2</ele><time>2026-04-18T13:52:42.999Z</time></trkpt><trkpt lat="42.08173789008662" lon="13.549982985086965"><ele>811.4000000000001</ele><time>2026-04-18T13:52:43.999Z</time></trkpt><trkpt lat="42.08183481498433" lon="13.549977185808116"><ele>812.6</ele><time>2026-04-18T13:52:44.999Z</time></trkpt><trkpt lat="42.081927153206955" lon="13.549971924672993"><ele>813.8</ele><time>2026-04-18T13:52:45.999Z</time></trkpt><trkpt lat="42.082019169417094" lon="13.549955830764935"><ele>815.0</ele><time>2026-04-18T13:52:46.999Z</time></trkpt><trkpt lat="42.082125878687776" lon="13.549962022579939"><ele>815.0</ele><time>2026-04-18T13:52:47.999Z</time></trkpt><trkpt lat="42.082236470498984" lon="13.549947712144775"><ele>815.0</ele><time>2026-04-18T13:52:48.999Z</time></trkpt><trkpt lat="42.08235851976497" lon="13.549942042621465"><ele>815.0</ele><time>2026-04-18T13:52:49.999Z</time></trkpt><trkpt lat="42.08248514785647" lon="13.549936577017862"><ele>815.0</ele><time>2026-04-18T13:52:50.999Z</time></trkpt><trkpt lat="42.08260904252555" lon="13.549924495977885"><ele>816.5000000000001</ele><time>2026-04-18T13:52:51.999Z</time></trkpt><trkpt lat="42.08271897340996" lon="13.549921892731724"><ele>818.0</ele><time>2026-04-18T13:52:52.999Z</time></trkpt><trkpt lat="42.08280747209525" lon="13.549899593508249"><ele>819.5</ele><time>2026-04-18T13:52:53.999Z</time></trkpt><trkpt lat="42.082892833436226" lon="13.549904359539077"><ele>821.0</ele><time>2026-04-18T13:52:54.999Z</time></trkpt><trkpt lat="42.082977966189866" lon="13.54991151045365"><ele>822.5000000000001</ele><time>2026-04-18T13:52:55.999Z</time></trkpt><trkpt lat="42.08304367367268" lon="13.549922196842768"><ele>824.0</ele><time>2026-04-18T13:52:56.999Z</time></trkpt><trkpt lat="42.08314514875068" lon="13.549931150200283"><ele>825.2</ele><time>2026-04-18T13:52:58.999Z</time></trkpt><trkpt lat="42.0832683457597" lon="13.549907885212562"><ele>826.4000000000001</ele><time>2026-04-18T13:53:00.999Z</time></trkpt><trkpt lat="42.08335625940798" lon="13.549905256900646"><ele>827.6</ele><time>2026-04-18T13:53:01.999Z</time></trkpt><trkpt lat="42.08344540927532" lon="13.549894938645977"><ele>828.8</ele><time>2026-04-18T13:53:02.999Z</time></trkpt><trkpt lat="42.08351841890902" lon="13.549874977099593"><ele>830.0</ele><time>2026-04-18T13:53:03.999Z</time></trkpt><trkpt lat="42.08359978998088" lon="13.549870572788205"><ele>830.0</ele><time>2026-04-18T13:53:04.999Z</time></trkpt><trkpt lat="42.083680211013274" lon="13.549862810172117"><ele>830.0</ele><time>2026-04-18T13:53:05.999Z</time></trkpt><trkpt lat="42.0838017665204" lon="13.549847393115927"><ele>830.0</ele><time>2026-04-18T13:53:07.999Z</time></trkpt><trkpt lat="42.083912411670845" lon="13.54983607531684"><ele>830.0</ele><time>2026-04-18T13:53:09.999Z</time></trkpt><trkpt lat="42.083975910540026" lon="13.549827482588082"><ele>830.0</ele><time>2026-04-18T13:53:10.999Z</time></trkpt><trkpt lat="42.08406307545014" lon="13.54978302987866"><ele>829.6</ele><time>2026-04-18T13:53:12.999Z</time></trkpt><trkpt lat="42.08412903778935" lon="13.549755090013848"><ele>829.2</ele><time>2026-04-18T13:53:14.999Z</time></trkpt><trkpt lat="42.08413010037937" lon="13.549525251866624"><ele>828.8</ele><time>2026-04-18T13:53:15.999Z</time></trkpt><trkpt lat="42.08411889042778" lon="13.549413810464015"><ele>828.4</ele><time>2026-04-18T13:53:16.999Z</time></trkpt><trkpt lat="42.0841090029489" lon="13.54931212472585"><ele>828.0</ele><time>2026-04-18T13:53:17.999Z</time></trkpt><trkpt lat="42.08409687300736" lon="13.54921902039088"><ele>826.2857142857143</ele><time>2026-04-18T13:53:18.999Z</time></trkpt><trkpt lat="42.0840878493619" lon="13.549130447182945"><ele>824.5714285714286</ele><time>2026-04-18T13:53:19.999Z</time></trkpt><trkpt lat="42.08407891994992" lon="13.549037650349842"><ele>822.8571428571429</ele><time>2026-04-18T13:53:20.999Z</time></trkpt><trkpt lat="42.084066801849524" lon="13.54894091138698"><ele>821.1428571428571</ele><time>2026-04-18T13:53:21.999Z</time></trkpt><trkpt lat="42.08405510673107" lon="13.548848531413642"><ele>819.4285714285714</ele><time>2026-04-18T13:53:22.999Z</time></trkpt><trkpt lat="42.084047700352905" lon="13.548758059223074"><ele>817.7142857142858</ele><time>2026-04-18T13:53:23.999Z</time></trkpt><trkpt lat="42.08403906357231" lon="13.548668728483861"><ele>816.0</ele><time>2026-04-18T13:53:24.999Z</time></trkpt><trkpt lat="42.084027232201635" lon="13.548535693007741"><ele>814.8</ele><time>2026-04-18T13:53:26.999Z</time></trkpt><trkpt lat="42.084050197857025" lon="13.54842810647072"><ele>813.5999999999999</ele><time>2026-04-18T13:53:28.999Z</time></trkpt><trkpt lat="42.08414434299412" lon="13.548358408580233"><ele>812.4</ele><time>2026-04-18T13:53:30.999Z</time></trkpt><trkpt lat="42.08420814599225" lon="13.548343671638207"><ele>811.2</ele><time>2026-04-18T13:53:31.999Z</time></trkpt><trkpt lat="42.08430391102172" lon="13.548344310160086"><ele>810.0</ele><time>2026-04-18T13:53:33.999Z</time></trkpt><trkpt lat="42.08440448422168" lon="13.548327653845629"><ele>814.0</ele><time>2026-04-18T13:53:35.999Z</time></trkpt><trkpt lat="42.08451394195538" lon="13.548308341996309"><ele>818.0</ele><time>2026-04-18T13:53:37.999Z</time></trkpt><trkpt lat="42.08462471367349" lon="13.54830873695199"><ele>822.0</ele><time>2026-04-18T13:53:39.999Z</time></trkpt><trkpt lat="42.084715472998205" lon="13.548304127306205"><ele>826.0</ele><time>2026-04-18T13:53:41.999Z</time></trkpt><trkpt lat="42.08484699660323" lon="13.548302502884535"><ele>830.0</ele><time>2026-04-18T13:53:43.999Z</time></trkpt><trkpt lat="42.084934552231765" lon="13.548299509098154"><ele>831.0</ele><time>2026-04-18T13:53:44.999Z</time></trkpt><trkpt lat="42.0850277288757" lon="13.548275384082025"><ele>832.0</ele><time>2026-04-18T13:53:45.999Z</time></trkpt><trkpt lat="42.08512186285202" lon="13.548257896915887"><ele>833.0</ele><time>2026-04-18T13:53:46.999Z</time></trkpt><trkpt lat="42.08521406587366" lon="13.548255398478897"><ele>834.0</ele><time>2026-04-18T13:53:47.999Z</time></trkpt><trkpt lat="42.08529883786543" lon="13.54824983418435"><ele>835.0</ele><time>2026-04-18T13:53:48.999Z</time></trkpt><trkpt lat="42.08538362879929" lon="13.548240040755768"><ele>835.0</ele><time>2026-04-18T13:53:49.999Z</time></trkpt><trkpt lat="42.085464485610316" lon="13.548239376165037"><ele>835.0</ele><time>2026-04-18T13:53:50.999Z</time></trkpt><trkpt lat="42.08556195500402" lon="13.548224759008237"><ele>835.0</ele><time>2026-04-18T13:53:52Z</time></trkpt><trkpt lat="42.08567603052653" lon="13.548218544842655"><ele>835.0</ele><time>2026-04-18T13:53:53Z</time></trkpt><trkpt lat="42.085770642344926" lon="13.548218297081576"><ele>835.0</ele><time>2026-04-18T13:53:54Z</time></trkpt><trkpt lat="42.085857678179856" lon="13.548192867596809"><ele>834.8</ele><time>2026-04-18T13:53:55Z</time></trkpt><trkpt lat="42.08594149229808" lon="13.548154561651359"><ele>834.6</ele><time>2026-04-18T13:53:56Z</time></trkpt><trkpt lat="42.086020198602135" lon="13.548085154814515"><ele>834.4000000000001</ele><time>2026-04-18T13:53:57Z</time></trkpt><trkpt lat="42.086093244545225" lon="13.547994928930143"><ele>834.2</ele><time>2026-04-18T13:53:58Z</time></trkpt><trkpt lat="42.08617375251812" lon="13.54788920913844"><ele>834.0</ele><time>2026-04-18T13:53:59Z</time></trkpt><trkpt lat="42.08617090431315" lon="13.547716036634638"><ele>834.0</ele><time>2026-04-18T13:54:00Z</time></trkpt><trkpt lat="42.0862432351096" lon="13.547629493873664"><ele>834.0</ele><time>2026-04-18T13:54:01Z</time></trkpt><trkpt lat="42.086299190268" lon="13.547506360333292"><ele>834.0</ele><time>2026-04-18T13:54:02Z</time></trkpt><trkpt lat="42.086381150843096" lon="13.54737216344574"><ele>834.0</ele><time>2026-04-18T13:54:03Z</time></trkpt><trkpt lat="42.08644620278456" lon="13.547237139261542"><ele>834.0</ele><time>2026-04-18T13:54:04Z</time></trkpt><trkpt lat="42.086498021892666" lon="13.547111491707483"><ele>834.0</ele><time>2026-04-18T13:54:05Z</time></trkpt><trkpt lat="42.08654253447148" lon="13.546985369921227"><ele>834.0</ele><time>2026-04-18T13:54:06Z</time></trkpt><trkpt lat="42.08658296651986" lon="13.546863434986872"><ele>834.0</ele><time>2026-04-18T13:54:07Z</time></trkpt><trkpt lat="42.086608319534164" lon="13.546747068682931"><ele>834.0</ele><time>2026-04-18T13:54:08Z</time></trkpt><trkpt lat="42.08664888417725" lon="13.546660592929785"><ele>833.75</ele><time>2026-04-18T13:54:09Z</time></trkpt><trkpt lat="42.086686035925275" lon="13.546581393124827"><ele>833.5</ele><time>2026-04-18T13:54:10Z</time></trkpt><trkpt lat="42.0867632586009" lon="13.546462008369515"><ele>833.25</ele><time>2026-04-18T13:54:12Z</time></trkpt><trkpt lat="42.086796283007004" lon="13.54637938266407"><ele>833.0</ele><time>2026-04-18T13:54:14Z</time></trkpt><trkpt lat="42.086908670732335" lon="13.546136115794017"><ele>832.0000000000001</ele><time>2026-04-18T13:55:52.999Z</time></trkpt><trkpt lat="42.086975270086086" lon="13.546065088386657"><ele>831.0</ele><time>2026-04-18T13:55:53.999Z</time></trkpt><trkpt lat="42.087045692504425" lon="13.545991568646023"><ele>830.0</ele><time>2026-04-18T13:55:54.999Z</time></trkpt><trkpt lat="42.08710854335952" lon="13.545872185788756"><ele>829.0</ele><time>2026-04-18T13:55:56.999Z</time></trkpt><trkpt lat="42.08715752228045" lon="13.545811256847117"><ele>828.0000000000001</ele><time>2026-04-18T13:55:58Z</time></trkpt><trkpt lat="42.0871868435983" lon="13.545694098491744"><ele>827.0</ele><time>2026-04-18T13:55:59Z</time></trkpt><trkpt lat="42.08718879901222" lon="13.545559869655596"><ele>827.0</ele><time>2026-04-18T13:56:00Z</time></trkpt><trkpt lat="42.087199543310746" lon="13.545419285335427"><ele>827.0</ele><time>2026-04-18T13:56:01Z</time></trkpt><trkpt lat="42.08722785176804" lon="13.545258040113609"><ele>827.0</ele><time>2026-04-18T13:56:02Z</time></trkpt><trkpt lat="42.08726760483359" lon="13.545050829505573"><ele>827.0</ele><time>2026-04-18T13:56:03Z</time></trkpt><trkpt lat="42.08726691819767" lon="13.54486162298975"><ele>825.8</ele><time>2026-04-18T13:56:04Z</time></trkpt><trkpt lat="42.087289430647076" lon="13.544712991367396"><ele>824.6</ele><time>2026-04-18T13:56:05Z</time></trkpt><trkpt lat="42.08732010703507" lon="13.544587817988743"><ele>823.4</ele><time>2026-04-18T13:56:06Z</time></trkpt><trkpt lat="42.087381404454504" lon="13.54449806188683"><ele>822.1999999999999</ele><time>2026-04-18T13:56:07Z</time></trkpt><trkpt lat="42.08743043682355" lon="13.544413836138155"><ele>821.0</ele><time>2026-04-18T13:56:08Z</time></trkpt><trkpt lat="42.087516679335415" lon="13.544318881415682"><ele>825.6666666666667</ele><time>2026-04-18T13:56:09Z</time></trkpt><trkpt lat="42.087621488864954" lon="13.544223839118025"><ele>830.3333333333333</ele><time>2026-04-18T13:56:10Z</time></trkpt><trkpt lat="42.08773802156197" lon="13.544085219560504"><ele>835.0</ele><time>2026-04-18T13:56:11Z</time></trkpt><trkpt lat="42.08788344229432" lon="13.543947906404139"><ele>835.0</ele><time>2026-04-18T13:56:12Z</time></trkpt><trkpt lat="42.08802048040161" lon="13.543822437720499"><ele>835.0</ele><time>2026-04-18T13:56:13Z</time></trkpt><trkpt lat="42.088144375936515" lon="13.543700008780023"><ele>835.0</ele><time>2026-04-18T13:56:14Z</time></trkpt><trkpt lat="42.088295958317154" lon="13.543645773907306"><ele>836.5</ele><time>2026-04-18T13:56:15Z</time></trkpt><trkpt lat="42.088421363441554" lon="13.543577734959296"><ele>838.0</ele><time>2026-04-18T13:56:16Z</time></trkpt><trkpt lat="42.08855798142566" lon="13.543485993392768"><ele>839.5</ele><time>2026-04-18T13:56:17Z</time></trkpt><trkpt lat="42.08866554876455" lon="13.543371421182782"><ele>841.0</ele><time>2026-04-18T13:56:18Z</time></trkpt><trkpt lat="42.088769790570225" lon="13.54318536498812"><ele>841.0</ele><time>2026-04-18T13:56:19Z</time></trkpt><trkpt lat="42.08886503817824" lon="13.542979807092806"><ele>841.0</ele><time>2026-04-18T13:56:20Z</time></trkpt><trkpt lat="42.08897640404317" lon="13.542817677080098"><ele>841.0</ele><time>2026-04-18T13:56:21Z</time></trkpt><trkpt lat="42.089090375539136" lon="13.542659195870364"><ele>846.0</ele><time>2026-04-18T13:56:22Z</time></trkpt><trkpt lat="42.08927483728304" lon="13.542479458432535"><ele>851.0</ele><time>2026-04-18T13:56:23Z</time></trkpt><trkpt lat="42.08950267472263" lon="13.5422709522354"><ele>856.0</ele><time>2026-04-18T13:56:24Z</time></trkpt><trkpt lat="42.08972059326709" lon="13.542019467808407"><ele>861.0</ele><time>2026-04-18T13:56:25Z</time></trkpt><trkpt lat="42.089940752963784" lon="13.541735535890506"><ele>861.0</ele><time>2026-04-18T13:56:26Z</time></trkpt><trkpt lat="42.09012136785628" lon="13.541486300599022"><ele>861.0</ele><time>2026-04-18T13:56:27Z</time></trkpt><trkpt lat="42.09028220190638" lon="13.541257390235085"><ele>855.0</ele><time>2026-04-18T13:56:28Z</time></trkpt><trkpt lat="42.090444795118" lon="13.541040678582497"><ele>849.0</ele><time>2026-04-18T13:56:29Z</time></trkpt><trkpt lat="42.09056892799316" lon="13.540845105113778"><ele>843.0</ele><time>2026-04-18T13:56:30Z</time></trkpt><trkpt lat="42.09064993035039" lon="13.540677941373177"><ele>843.0</ele><time>2026-04-18T13:56:31Z</time></trkpt><trkpt lat="42.09070493001532" lon="13.540451379996075"><ele>843.0</ele><time>2026-04-18T13:56:32Z</time></trkpt><trkpt lat="42.09076292549261" lon="13.540197461912532"><ele>843.0</ele><time>2026-04-18T13:56:33Z</time></trkpt><trkpt lat="42.09086787437447" lon="13.539948107139455"><ele>846.3333333333333</ele><time>2026-04-18T13:56:34Z</time></trkpt><trkpt lat="42.09103075656242" lon="13.539737363771804"><ele>849.6666666666666</ele><time>2026-04-18T13:56:35Z</time></trkpt><trkpt lat="42.09120197901308" lon="13.53954453133388"><ele>853.0</ele><time>2026-04-18T13:56:36Z</time></trkpt><trkpt lat="42.09132551439068" lon="13.53932716273991"><ele>853.0</ele><time>2026-04-18T13:56:37Z</time></trkpt><trkpt lat="42.09141781676453" lon="13.539059677551348"><ele>853.0</ele><time>2026-04-18T13:56:38Z</time></trkpt><trkpt lat="42.09154028463818" lon="13.538775782931712"><ele>861.0</ele><time>2026-04-18T13:56:39Z</time></trkpt><trkpt lat="42.09168999357398" lon="13.538519832793096"><ele>869.0</ele><time>2026-04-18T13:56:40Z</time></trkpt><trkpt lat="42.09184088960344" lon="13.538297409949811"><ele>869.0</ele><time>2026-04-18T13:56:41Z</time></trkpt><trkpt lat="42.09204442868285" lon="13.538072675535057"><ele>869.0</ele><time>2026-04-18T13:56:42Z</time></trkpt><trkpt lat="42.092284418721704" lon="13.537833761813923"><ele>873.0</ele><time>2026-04-18T13:56:43Z</time></trkpt><trkpt lat="42.09251611177461" lon="13.537603750115112"><ele>877.0</ele><time>2026-04-18T13:56:43.999Z</time></trkpt><trkpt lat="42.092707848767" lon="13.537399640599423"><ele>877.0</ele><time>2026-04-18T13:56:44.999Z</time></trkpt><trkpt lat="42.09288081242501" lon="13.537219928842008"><ele>877.0</ele><time>2026-04-18T13:56:45.999Z</time></trkpt><trkpt lat="42.09305748330024" lon="13.537064018062784"><ele>877.0</ele><time>2026-04-18T13:56:46.999Z</time></trkpt><trkpt lat="42.09323462680896" lon="13.536978110007793"><ele>877.6666666666666</ele><time>2026-04-18T13:56:47.999Z</time></trkpt><trkpt lat="42.09341962488477" lon="13.53689871622162"><ele>878.3333333333333</ele><time>2026-04-18T13:56:48.999Z</time></trkpt><trkpt lat="42.09361805491286" lon="13.536848181357948"><ele>879.0</ele><time>2026-04-18T13:56:49.999Z</time></trkpt><trkpt lat="42.09380059307654" lon="13.536812305007539"><ele>879.0</ele><time>2026-04-18T13:56:50.999Z</time></trkpt><trkpt lat="42.09396122213558" lon="13.536766405465414"><ele>879.0</ele><time>2026-04-18T13:56:51.999Z</time></trkpt><trkpt lat="42.094103550643354" lon="13.536688349955428"><ele>879.0</ele><time>2026-04-18T13:56:52.999Z</time></trkpt><trkpt lat="42.094247640326486" lon="13.536525740081524"><ele>879.6666666666667</ele><time>2026-04-18T13:56:53.999Z</time></trkpt><trkpt lat="42.094386653720555" lon="13.536308013036658"><ele>880.3333333333334</ele><time>2026-04-18T13:56:54.999Z</time></trkpt><trkpt lat="42.09453595409045" lon="13.536089516541853"><ele>881.0</ele><time>2026-04-18T13:56:55.999Z</time></trkpt><trkpt lat="42.09468925826247" lon="13.535903507586173"><ele>881.0</ele><time>2026-04-18T13:56:56.999Z</time></trkpt><trkpt lat="42.094881654226455" lon="13.535741966061611"><ele>881.0</ele><time>2026-04-18T13:56:57.999Z</time></trkpt><trkpt lat="42.09510243744229" lon="13.53559703318583"><ele>883.0</ele><time>2026-04-18T13:56:58.999Z</time></trkpt><trkpt lat="42.09533263874528" lon="13.53541055801485"><ele>885.0</ele><time>2026-04-18T13:56:59.999Z</time></trkpt><trkpt lat="42.095577519827344" lon="13.535190655105144"><ele>896.5</ele><time>2026-04-18T13:57:00.999Z</time></trkpt><trkpt lat="42.09582914696575" lon="13.534931913015395"><ele>908.0</ele><time>2026-04-18T13:57:01.999Z</time></trkpt><trkpt lat="42.09608941218833" lon="13.534634813325871"><ele>912.5</ele><time>2026-04-18T13:57:02.999Z</time></trkpt><trkpt lat="42.0963934561502" lon="13.534328799793247"><ele>917.0</ele><time>2026-04-18T13:57:03.999Z</time></trkpt><trkpt lat="42.096692037427815" lon="13.534025981990805"><ele>917.0</ele><time>2026-04-18T13:57:04.999Z</time></trkpt><trkpt lat="42.09697539049059" lon="13.533739631000618"><ele>917.0</ele><time>2026-04-18T13:57:05.999Z</time></trkpt><trkpt lat="42.0972212024774" lon="13.53348978633347"><ele>921.5</ele><time>2026-04-18T13:57:06.999Z</time></trkpt><trkpt lat="42.09743906695557" lon="13.533271184214403"><ele>926.0</ele><time>2026-04-18T13:57:07.999Z</time></trkpt><trkpt lat="42.097638582030946" lon="13.53307131834228"><ele>915.5</ele><time>2026-04-18T13:57:08.999Z</time></trkpt><trkpt lat="42.0978246203161" lon="13.53288408841254"><ele>905.0</ele><time>2026-04-18T13:57:09.999Z</time></trkpt><trkpt lat="42.09802574382479" lon="13.532676597688251"><ele>905.0</ele><time>2026-04-18T13:57:10.999Z</time></trkpt><trkpt lat="42.09823216600681" lon="13.532401740157951"><ele>905.0</ele><time>2026-04-18T13:57:11.999Z</time></trkpt><trkpt lat="42.09840611257304" lon="13.532087695645444"><ele>915.5</ele><time>2026-04-18T13:57:12.999Z</time></trkpt><trkpt lat="42.09861167008365" lon="13.531777320036548"><ele>926.0</ele><time>2026-04-18T13:57:13.999Z</time></trkpt><trkpt lat="42.09875409400123" lon="13.531489255779007"><ele>926.0</ele><time>2026-04-18T13:57:14.999Z</time></trkpt><trkpt lat="42.09890214678279" lon="13.531233198130803"><ele>926.0</ele><time>2026-04-18T13:57:15.999Z</time></trkpt><trkpt lat="42.099032427279255" lon="13.531013166957898"><ele>929.0</ele><time>2026-04-18T13:57:16.999Z</time></trkpt><trkpt lat="42.09914463902817" lon="13.530812910205652"><ele>932.0</ele><time>2026-04-18T13:57:17.999Z</time></trkpt><trkpt lat="42.099238980387085" lon="13.530624099894927"><ele>935.0</ele><time>2026-04-18T13:57:18.999Z</time></trkpt><trkpt lat="42.099314307484086" lon="13.530412785286684"><ele>935.6666666666667</ele><time>2026-04-18T13:57:19.999Z</time></trkpt><trkpt lat="42.09935143120859" lon="13.530164011842482"><ele>936.3333333333333</ele><time>2026-04-18T13:57:20.999Z</time></trkpt><trkpt lat="42.099353969851684" lon="13.529899538421523"><ele>937.0</ele><time>2026-04-18T13:57:21.999Z</time></trkpt><trkpt lat="42.099304594340104" lon="13.529638724747036"><ele>939.3333333333333</ele><time>2026-04-18T13:57:22.999Z</time></trkpt><trkpt lat="42.09922458263332" lon="13.52939686976187"><ele>941.6666666666667</ele><time>2026-04-18T13:57:23.999Z</time></trkpt><trkpt lat="42.099115048320556" lon="13.529184708745348"><ele>944.0</ele><time>2026-04-18T13:57:24.999Z</time></trkpt><trkpt lat="42.09900874430346" lon="13.529015070037907"><ele>939.0</ele><time>2026-04-18T13:57:25.999Z</time></trkpt><trkpt lat="42.098937013451206" lon="13.528840697289242"><ele>934.0</ele><time>2026-04-18T13:57:26.999Z</time></trkpt><trkpt lat="42.09889848154921" lon="13.528651723866922"><ele>929.0</ele><time>2026-04-18T13:57:27.999Z</time></trkpt><trkpt lat="42.09890295062368" lon="13.528466539298519"><ele>924.0</ele><time>2026-04-18T13:57:28.999Z</time></trkpt><trkpt lat="42.09896592518052" lon="13.528283468951994"><ele>929.3333333333333</ele><time>2026-04-18T13:57:29.999Z</time></trkpt><trkpt lat="42.099117878654354" lon="13.5281118549359"><ele>934.6666666666666</ele><time>2026-04-18T13:57:30.999Z</time></trkpt><trkpt lat="42.09927381278513" lon="13.527930494388523"><ele>940.0</ele><time>2026-04-18T13:57:31.999Z</time></trkpt><trkpt lat="42.09946437666003" lon="13.527750936046333"><ele>940.0</ele><time>2026-04-18T13:57:32.999Z</time></trkpt><trkpt lat="42.099622500487314" lon="13.527557661922682"><ele>940.0</ele><time>2026-04-18T13:57:33.999Z</time></trkpt><trkpt lat="42.09973428672065" lon="13.527350069504639"><ele>940.0</ele><time>2026-04-18T13:57:34.999Z</time></trkpt><trkpt lat="42.09981533255188" lon="13.52715357925627"><ele>938.6666666666666</ele><time>2026-04-18T13:57:35.999Z</time></trkpt><trkpt lat="42.09985370743614" lon="13.526962119943002"><ele>937.3333333333333</ele><time>2026-04-18T13:57:36.999Z</time></trkpt><trkpt lat="42.09985283124685" lon="13.526729178746526"><ele>936.0</ele><time>2026-04-18T13:57:37.999Z</time></trkpt><trkpt lat="42.09981216491424" lon="13.526460490791779"><ele>936.6666666666667</ele><time>2026-04-18T13:57:38.999Z</time></trkpt><trkpt lat="42.09977636289505" lon="13.526178217928523"><ele>937.3333333333334</ele><time>2026-04-18T13:57:39.999Z</time></trkpt><trkpt lat="42.09977545347857" lon="13.52594289023704"><ele>938.0</ele><time>2026-04-18T13:57:40.999Z</time></trkpt><trkpt lat="42.099827102762575" lon="13.525707112351249"><ele>938.0</ele><time>2026-04-18T13:57:41.999Z</time></trkpt><trkpt lat="42.09989780890056" lon="13.525507136967205"><ele>938.0</ele><time>2026-04-18T13:57:42.999Z</time></trkpt><trkpt lat="42.09998330482654" lon="13.525269668121439"><ele>938.0</ele><time>2026-04-18T13:57:43.999Z</time></trkpt><trkpt lat="42.10003402920001" lon="13.525053318118923"><ele>945.3333333333334</ele><time>2026-04-18T13:57:44.999Z</time></trkpt><trkpt lat="42.100113959189926" lon="13.52486297550613"><ele>952.6666666666667</ele><time>2026-04-18T13:57:45.999Z</time></trkpt><trkpt lat="42.100225231964245" lon="13.524733369461778"><ele>960.0</ele><time>2026-04-18T13:57:46.999Z</time></trkpt><trkpt lat="42.1003775726737" lon="13.52467017385881"><ele>960.0</ele><time>2026-04-18T13:57:47.999Z</time></trkpt><trkpt lat="42.10056039199404" lon="13.524613983432511"><ele>960.0</ele><time>2026-04-18T13:57:48.999Z</time></trkpt><trkpt lat="42.10075096661632" lon="13.52458728960464"><ele>960.0</ele><time>2026-04-18T13:57:49.999Z</time></trkpt><trkpt lat="42.10097095497877" lon="13.524563391729735"><ele>956.6666666666667</ele><time>2026-04-18T13:57:50.999Z</time></trkpt><trkpt lat="42.10121141484349" lon="13.524524770627742"><ele>953.3333333333334</ele><time>2026-04-18T13:57:51.999Z</time></trkpt><trkpt lat="42.10139530350969" lon="13.524415502047624"><ele>950.0</ele><time>2026-04-18T13:57:52.999Z</time></trkpt><trkpt lat="42.10155335546356" lon="13.524296897418933"><ele>954.6666666666667</ele><time>2026-04-18T13:57:53.999Z</time></trkpt><trkpt lat="42.101720650638214" lon="13.524232583385968"><ele>959.3333333333333</ele><time>2026-04-18T13:57:54.999Z</time></trkpt><trkpt lat="42.10190848483046" lon="13.524213637516844"><ele>964.0</ele><time>2026-04-18T13:57:55.999Z</time></trkpt><trkpt lat="42.10211258229673" lon="13.52420943626241"><ele>964.0</ele><time>2026-04-18T13:57:56.999Z</time></trkpt><trkpt lat="42.102299547823044" lon="13.524219765216209"><ele>964.0</ele><time>2026-04-18T13:57:57.999Z</time></trkpt><trkpt lat="42.10247270794882" lon="13.524200613747611"><ele>964.0</ele><time>2026-04-18T13:57:58.999Z</time></trkpt><trkpt lat="42.10265127658207" lon="13.524220703102298"><ele>967.0</ele><time>2026-04-18T13:57:59.999Z</time></trkpt><trkpt lat="42.10283774644733" lon="13.524335927810519"><ele>970.0</ele><time>2026-04-18T13:58:00.999Z</time></trkpt><trkpt lat="42.10305656661772" lon="13.524504533982556"><ele>975.0</ele><time>2026-04-18T13:58:01.999Z</time></trkpt><trkpt lat="42.10329046190111" lon="13.524646663645365"><ele>980.0</ele><time>2026-04-18T13:58:02.999Z</time></trkpt><trkpt lat="42.10344871714838" lon="13.524778006269734"><ele>985.0</ele><time>2026-04-18T13:58:04Z</time></trkpt><trkpt lat="42.10360686899941" lon="13.524924190341396"><ele>985.0</ele><time>2026-04-18T13:58:05Z</time></trkpt><trkpt lat="42.103808263502806" lon="13.525101878804719"><ele>985.0</ele><time>2026-04-18T13:58:06Z</time></trkpt><trkpt lat="42.104032229812205" lon="13.52525215644216"><ele>984.0</ele><time>2026-04-18T13:58:07Z</time></trkpt><trkpt lat="42.104223142040325" lon="13.525364552878273"><ele>983.0</ele><time>2026-04-18T13:58:08Z</time></trkpt><trkpt lat="42.10440450404213" lon="13.52542320922044"><ele>982.0</ele><time>2026-04-18T13:58:09Z</time></trkpt><trkpt lat="42.10454693192623" lon="13.525442842119524"><ele>982.3333333333333</ele><time>2026-04-18T13:58:10Z</time></trkpt><trkpt lat="42.10473270732129" lon="13.525412779453712"><ele>982.6666666666667</ele><time>2026-04-18T13:58:11Z</time></trkpt><trkpt lat="42.10492688076768" lon="13.525366557489003"><ele>983.0</ele><time>2026-04-18T13:58:12Z</time></trkpt><trkpt lat="42.105076952280776" lon="13.525389931577397"><ele>989.6666666666667</ele><time>2026-04-18T13:58:13Z</time></trkpt><trkpt lat="42.10524642476904" lon="13.525480719650101"><ele>996.3333333333333</ele><time>2026-04-18T13:58:14Z</time></trkpt><trkpt lat="42.105414364501684" lon="13.525546908024747"><ele>1003.0</ele><time>2026-04-18T13:58:15Z</time></trkpt><trkpt lat="42.10554425833907" lon="13.525619430324605"><ele>1003.0</ele><time>2026-04-18T13:58:16Z</time></trkpt><trkpt lat="42.105663585805566" lon="13.525633524294173"><ele>1003.0</ele><time>2026-04-18T13:58:17Z</time></trkpt><trkpt lat="42.10574189016082" lon="13.525659001222062"><ele>1003.0</ele><time>2026-04-18T13:58:18Z</time></trkpt><trkpt lat="42.10580669248293" lon="13.525665613314558"><ele>1003.0</ele><time>2026-04-18T13:58:19Z</time></trkpt><trkpt lat="42.105927403598194" lon="13.52566124103274"><ele>1003.0</ele><time>2026-04-18T13:58:21Z</time></trkpt><trkpt lat="42.10597627893805" lon="13.525593683350412"><ele>1001.0</ele><time>2026-04-18T13:58:22Z</time></trkpt><trkpt lat="42.106071816401105" lon="13.525370699565586"><ele>999.0</ele><time>2026-04-18T13:58:23Z</time></trkpt><trkpt lat="42.10579416871552" lon="13.524683861975504"><ele>996.25</ele><time>2026-04-18T13:58:24Z</time></trkpt><trkpt lat="42.105837867525764" lon="13.524561662293966"><ele>993.5</ele><time>2026-04-18T13:58:25Z</time></trkpt><trkpt lat="42.10589521933061" lon="13.524466197222075"><ele>990.75</ele><time>2026-04-18T13:58:26Z</time></trkpt><trkpt lat="42.1060317373028" lon="13.524402071316944"><ele>988.0</ele><time>2026-04-18T13:58:27Z</time></trkpt><trkpt lat="42.1062171137621" lon="13.524280463679755"><ele>988.0</ele><time>2026-04-18T13:58:28Z</time></trkpt><trkpt lat="42.10632955321333" lon="13.524056921382769"><ele>988.0</ele><time>2026-04-18T13:58:29Z</time></trkpt><trkpt lat="42.10649141834854" lon="13.523758301997454"><ele>993.3333333333333</ele><time>2026-04-18T13:58:30Z</time></trkpt><trkpt lat="42.10663139287176" lon="13.523543222207703"><ele>998.6666666666667</ele><time>2026-04-18T13:58:31Z</time></trkpt><trkpt lat="42.106787875077835" lon="13.523354015612439"><ele>1004.0</ele><time>2026-04-18T13:58:32Z</time></trkpt><trkpt lat="42.106984235291094" lon="13.523177138981053"><ele>1004.0</ele><time>2026-04-18T13:58:33Z</time></trkpt><trkpt lat="42.107199471913006" lon="13.523006721096483"><ele>1004.0</ele><time>2026-04-18T13:58:34Z</time></trkpt><trkpt lat="42.10745807245232" lon="13.522799423680796"><ele>1008.5</ele><time>2026-04-18T13:58:35Z</time></trkpt><trkpt lat="42.10771587638011" lon="13.522593611264615"><ele>1013.0</ele><time>2026-04-18T13:58:36Z</time></trkpt><trkpt lat="42.10794722181797" lon="13.522404814529898"><ele>1013.0</ele><time>2026-04-18T13:58:37Z</time></trkpt><trkpt lat="42.10816167639292" lon="13.52223590030389"><ele>1013.0</ele><time>2026-04-18T13:58:38Z</time></trkpt><trkpt lat="42.10835358356298" lon="13.522067179831117"><ele>1013.6666666666667</ele><time>2026-04-18T13:58:39Z</time></trkpt><trkpt lat="42.10855318698922" lon="13.521932551726684"><ele>1014.3333333333333</ele><time>2026-04-18T13:58:40Z</time></trkpt><trkpt lat="42.10867335960245" lon="13.521800841165382"><ele>1015.0</ele><time>2026-04-18T13:58:41Z</time></trkpt><trkpt lat="42.108830249530975" lon="13.521692792350295"><ele>1015.0</ele><time>2026-04-18T13:58:42Z</time></trkpt><trkpt lat="42.10898498533499" lon="13.521626600422604"><ele>1015.0</ele><time>2026-04-18T13:58:43Z</time></trkpt><trkpt lat="42.109157819103665" lon="13.521572422321984"><ele>1015.0</ele><time>2026-04-18T13:58:44Z</time></trkpt><trkpt lat="42.10936766168371" lon="13.521529598699503"><ele>1020.0</ele><time>2026-04-18T13:58:45Z</time></trkpt><trkpt lat="42.109607758215425" lon="13.521486628928914"><ele>1025.0</ele><time>2026-04-18T13:58:46Z</time></trkpt><trkpt lat="42.109830936771814" lon="13.521427094794298"><ele>1024.0</ele><time>2026-04-18T13:58:47Z</time></trkpt><trkpt lat="42.110033890459576" lon="13.521397657736712"><ele>1023.0</ele><time>2026-04-18T13:58:47.999Z</time></trkpt><trkpt lat="42.11023504303936" lon="13.521321990893775"><ele>1022.0</ele><time>2026-04-18T13:58:48.999Z</time></trkpt><trkpt lat="42.11045567020429" lon="13.52115998940909"><ele>1022.0</ele><time>2026-04-18T13:58:49.999Z</time></trkpt><trkpt lat="42.110674169201246" lon="13.520976415715184"><ele>1022.0</ele><time>2026-04-18T13:58:50.999Z</time></trkpt><trkpt lat="42.11086038607596" lon="13.52082951948256"><ele>1025.3333333333335</ele><time>2026-04-18T13:58:51.999Z</time></trkpt><trkpt lat="42.11102008622257" lon="13.520704017646718"><ele>1028.6666666666667</ele><time>2026-04-18T13:58:52.999Z</time></trkpt><trkpt lat="42.111163938398214" lon="13.520591280593491"><ele>1032.0</ele><time>2026-04-18T13:58:53.999Z</time></trkpt><trkpt lat="42.11129802258881" lon="13.520494851712954"><ele>1032.0</ele><time>2026-04-18T13:58:54.999Z</time></trkpt><trkpt lat="42.11144544307078" lon="13.52046838496608"><ele>1032.0</ele><time>2026-04-18T13:58:55.999Z</time></trkpt><trkpt lat="42.11161473228502" lon="13.520460864134225"><ele>1032.0</ele><time>2026-04-18T13:58:56.999Z</time></trkpt><trkpt lat="42.11179424118088" lon="13.52046671292352"><ele>1038.5</ele><time>2026-04-18T13:58:57.999Z</time></trkpt><trkpt lat="42.11203404706701" lon="13.520480137599979"><ele>1045.0</ele><time>2026-04-18T13:58:58.999Z</time></trkpt><trkpt lat="42.11228321083619" lon="13.52049376737304"><ele>1047.0</ele><time>2026-04-18T13:58:59.999Z</time></trkpt><trkpt lat="42.11250095561398" lon="13.520474929943555"><ele>1049.0</ele><time>2026-04-18T13:59:00.999Z</time></trkpt><trkpt lat="42.112714549979565" lon="13.5204631654706"><ele>1051.0</ele><time>2026-04-18T13:59:01.999Z</time></trkpt><trkpt lat="42.11293670272676" lon="13.520393322973362"><ele>1048.5</ele><time>2026-04-18T13:59:02.999Z</time></trkpt><trkpt lat="42.113175999461674" lon="13.520254826826793"><ele>1046.0</ele><time>2026-04-18T13:59:03.999Z</time></trkpt><trkpt lat="42.1134218448355" lon="13.520042946318611"><ele>1046.0</ele><time>2026-04-18T13:59:04.999Z</time></trkpt><trkpt lat="42.11367164401409" lon="13.519830908195006"><ele>1046.0</ele><time>2026-04-18T13:59:05.999Z</time></trkpt><trkpt lat="42.11387928918245" lon="13.519666149351416"><ele>1047.0</ele><time>2026-04-18T13:59:06.999Z</time></trkpt><trkpt lat="42.11407385275624" lon="13.519483707591496"><ele>1048.0</ele><time>2026-04-18T13:59:07.999Z</time></trkpt><trkpt lat="42.11428651930322" lon="13.51930381895338"><ele>1048.0</ele><time>2026-04-18T13:59:08.999Z</time></trkpt><trkpt lat="42.11455430292597" lon="13.519164652008904"><ele>1048.0</ele><time>2026-04-18T13:59:09.999Z</time></trkpt><trkpt lat="42.114821231835435" lon="13.519000707007164"><ele>1046.5</ele><time>2026-04-18T13:59:10.999Z</time></trkpt><trkpt lat="42.11506364340736" lon="13.518849391680051"><ele>1045.0</ele><time>2026-04-18T13:59:11.999Z</time></trkpt><trkpt lat="42.115282735447096" lon="13.518718329016608"><ele>1045.0</ele><time>2026-04-18T13:59:12.999Z</time></trkpt><trkpt lat="42.115482675543866" lon="13.518596349305096"><ele>1045.0</ele><time>2026-04-18T13:59:13.999Z</time></trkpt><trkpt lat="42.11567294292992" lon="13.518482910057534"><ele>1045.0</ele><time>2026-04-18T13:59:14.999Z</time></trkpt><trkpt lat="42.11587026642999" lon="13.518380852584276"><ele>1053.0</ele><time>2026-04-18T13:59:15.999Z</time></trkpt><trkpt lat="42.11607914550913" lon="13.51828751589793"><ele>1061.0</ele><time>2026-04-18T13:59:16.999Z</time></trkpt><trkpt lat="42.11632035560236" lon="13.518203832101158"><ele>1064.5</ele><time>2026-04-18T13:59:17.999Z</time></trkpt><trkpt lat="42.116581530356044" lon="13.518152783577088"><ele>1068.0</ele><time>2026-04-18T13:59:18.999Z</time></trkpt><trkpt lat="42.11681130607305" lon="13.51810629477691"><ele>1068.0</ele><time>2026-04-18T13:59:19.999Z</time></trkpt><trkpt lat="42.11701655137518" lon="13.518051277933385"><ele>1068.0</ele><time>2026-04-18T13:59:20.999Z</time></trkpt><trkpt lat="42.1172229861272" lon="13.517987969218414"><ele>1068.0</ele><time>2026-04-18T13:59:21.999Z</time></trkpt><trkpt lat="42.11744483156759" lon="13.517886045741799"><ele>1064.3333333333333</ele><time>2026-04-18T13:59:22.999Z</time></trkpt><trkpt lat="42.117658707591396" lon="13.517791322395876"><ele>1060.6666666666665</ele><time>2026-04-18T13:59:23.999Z</time></trkpt><trkpt lat="42.11786277921385" lon="13.517734008788707"><ele>1057.0</ele><time>2026-04-18T13:59:24.999Z</time></trkpt><trkpt lat="42.11805596367178" lon="13.517703443941718"><ele>1057.0</ele><time>2026-04-18T13:59:25.999Z</time></trkpt><trkpt lat="42.11823092534466" lon="13.517662951717966"><ele>1057.0</ele><time>2026-04-18T13:59:26.999Z</time></trkpt><trkpt lat="42.118391219044454" lon="13.517622949793866"><ele>1057.0</ele><time>2026-04-18T13:59:27.999Z</time></trkpt><trkpt lat="42.11853349570315" lon="13.51758694331994"><ele>1060.5</ele><time>2026-04-18T13:59:28.999Z</time></trkpt><trkpt lat="42.11866464425058" lon="13.517560257812143"><ele>1064.0</ele><time>2026-04-18T13:59:29.999Z</time></trkpt><trkpt lat="42.11877937670483" lon="13.517538019870235"><ele>1067.5</ele><time>2026-04-18T13:59:30.999Z</time></trkpt><trkpt lat="42.118902472390516" lon="13.51756077677007"><ele>1071.0</ele><time>2026-04-18T13:59:31.999Z</time></trkpt><trkpt lat="42.11902475736497" lon="13.517606039670262"><ele>1073.0</ele><time>2026-04-18T13:59:32.999Z</time></trkpt><trkpt lat="42.11912584610323" lon="13.517750516274617"><ele>1075.0</ele><time>2026-04-18T13:59:33.999Z</time></trkpt><trkpt lat="42.11919978113086" lon="13.51792465044084"><ele>1077.0</ele><time>2026-04-18T13:59:34.999Z</time></trkpt><trkpt lat="42.119275858200304" lon="13.518062624675295"><ele>1079.0</ele><time>2026-04-18T13:59:35.999Z</time></trkpt><trkpt lat="42.11935369552808" lon="13.51818645959661"><ele>1083.2</ele><time>2026-04-18T13:59:36.999Z</time></trkpt><trkpt lat="42.11941413125921" lon="13.518293256132436"><ele>1087.4</ele><time>2026-04-18T13:59:37.999Z</time></trkpt><trkpt lat="42.11947829727795" lon="13.518362082615331"><ele>1091.6</ele><time>2026-04-18T13:59:38.999Z</time></trkpt><trkpt lat="42.11951528664871" lon="13.518444648696605"><ele>1095.8</ele><time>2026-04-18T13:59:39.999Z</time></trkpt><trkpt lat="42.11958627637691" lon="13.518424741337471"><ele>1100.0</ele><time>2026-04-18T13:59:40.999Z</time></trkpt><trkpt lat="42.11966833854294" lon="13.518201744305028"><ele>1100.0</ele><time>2026-04-18T13:59:41.999Z</time></trkpt><trkpt lat="42.119695746787045" lon="13.518091160662877"><ele>1100.0</ele><time>2026-04-18T13:59:42.999Z</time></trkpt><trkpt lat="42.11972077747436" lon="13.518002743181608"><ele>1100.0</ele><time>2026-04-18T13:59:43.999Z</time></trkpt><trkpt lat="42.11952772547741" lon="13.517646027190565"><ele>1093.0</ele><time>2026-04-18T13:59:44.999Z</time></trkpt><trkpt lat="42.119458010106726" lon="13.517424982175244"><ele>1086.0</ele><time>2026-04-18T13:59:45.999Z</time></trkpt><trkpt lat="42.11942828911228" lon="13.517174937954966"><ele>1079.0</ele><time>2026-04-18T13:59:46.999Z</time></trkpt><trkpt lat="42.1194045311887" lon="13.516978504669334"><ele>1076.5</ele><time>2026-04-18T13:59:47.999Z</time></trkpt><trkpt lat="42.11941003526903" lon="13.516784340250037"><ele>1074.0</ele><time>2026-04-18T13:59:48.999Z</time></trkpt><trkpt lat="42.11942494599936" lon="13.516645859942575"><ele>1071.5</ele><time>2026-04-18T13:59:49.999Z</time></trkpt><trkpt lat="42.119485819147336" lon="13.516522993880876"><ele>1069.0</ele><time>2026-04-18T13:59:50.999Z</time></trkpt><trkpt lat="42.1196146907424" lon="13.516391778851327"><ele>1069.0</ele><time>2026-04-18T13:59:51.999Z</time></trkpt><trkpt lat="42.119767820060225" lon="13.516260944988167"><ele>1069.0</ele><time>2026-04-18T13:59:52.999Z</time></trkpt><trkpt lat="42.11990788206728" lon="13.516135933442381"><ele>1069.0</ele><time>2026-04-18T13:59:53.999Z</time></trkpt><trkpt lat="42.12004661341047" lon="13.516017007945088"><ele>1073.3333333333333</ele><time>2026-04-18T13:59:54.999Z</time></trkpt><trkpt lat="42.1201795209964" lon="13.515886575765597"><ele>1077.6666666666667</ele><time>2026-04-18T13:59:55.999Z</time></trkpt><trkpt lat="42.120317428643524" lon="13.515766389824877"><ele>1082.0</ele><time>2026-04-18T13:59:56.999Z</time></trkpt><trkpt lat="42.12048346067981" lon="13.51567322021139"><ele>1082.0</ele><time>2026-04-18T13:59:57.999Z</time></trkpt><trkpt lat="42.120645446907815" lon="13.515571073942256"><ele>1082.0</ele><time>2026-04-18T13:59:58.999Z</time></trkpt><trkpt lat="42.12081865523861" lon="13.515447978419335"><ele>1082.0</ele><time>2026-04-18T13:59:59.999Z</time></trkpt><trkpt lat="42.120985416232365" lon="13.515335823783877"><ele>1082.75</ele><time>2026-04-18T14:00:00.999Z</time></trkpt><trkpt lat="42.121105442084556" lon="13.515243785511396"><ele>1083.5</ele><time>2026-04-18T14:00:01.999Z</time></trkpt><trkpt lat="42.121226374639754" lon="13.515147416402298"><ele>1084.25</ele><time>2026-04-18T14:00:02.999Z</time></trkpt><trkpt lat="42.12134047406528" lon="13.515039099727913"><ele>1085.0</ele><time>2026-04-18T14:00:03.999Z</time></trkpt><trkpt lat="42.12146567833078" lon="13.514930970685311"><ele>1091.0</ele><time>2026-04-18T14:00:04.999Z</time></trkpt><trkpt lat="42.12160563518042" lon="13.51481379567722"><ele>1097.0</ele><time>2026-04-18T14:00:05.999Z</time></trkpt><trkpt lat="42.121755179747346" lon="13.514692788708372"><ele>1103.0</ele><time>2026-04-18T14:00:06.999Z</time></trkpt><trkpt lat="42.12192475977399" lon="13.51464760922396"><ele>1103.0</ele><time>2026-04-18T14:00:07.999Z</time></trkpt><trkpt lat="42.12208916272571" lon="13.514597342907416"><ele>1103.0</ele><time>2026-04-18T14:00:08.999Z</time></trkpt><trkpt lat="42.122245092806445" lon="13.514545233115285"><ele>1103.0</ele><time>2026-04-18T14:00:10Z</time></trkpt><trkpt lat="42.1223991861361" lon="13.51452437765006"><ele>1101.25</ele><time>2026-04-18T14:00:11Z</time></trkpt><trkpt lat="42.12252739597731" lon="13.514509846844488"><ele>1099.5</ele><time>2026-04-18T14:00:12Z</time></trkpt><trkpt lat="42.12266591702006" lon="13.514483067635403"><ele>1097.75</ele><time>2026-04-18T14:00:13Z</time></trkpt><trkpt lat="42.122816195570124" lon="13.514369356866668"><ele>1096.0</ele><time>2026-04-18T14:00:14Z</time></trkpt><trkpt lat="42.12296639371504" lon="13.514125425528265"><ele>1096.0</ele><time>2026-04-18T14:00:15Z</time></trkpt><trkpt lat="42.123098970694656" lon="13.513935447842998"><ele>1096.0</ele><time>2026-04-18T14:00:16Z</time></trkpt><trkpt lat="42.123217704371626" lon="13.513784466281903"><ele>1096.0</ele><time>2026-04-18T14:00:17Z</time></trkpt><trkpt lat="42.12329559379273" lon="13.513614668816956"><ele>1098.5</ele><time>2026-04-18T14:00:18Z</time></trkpt><trkpt lat="42.12333815552749" lon="13.513452455046234"><ele>1101.0</ele><time>2026-04-18T14:00:19Z</time></trkpt><trkpt lat="42.123419735888014" lon="13.513326508436771"><ele>1103.5</ele><time>2026-04-18T14:00:20Z</time></trkpt><trkpt lat="42.123514807882714" lon="13.513293359317952"><ele>1106.0</ele><time>2026-04-18T14:00:21Z</time></trkpt><trkpt lat="42.12361648539237" lon="13.513309901915052"><ele>1106.0</ele><time>2026-04-18T14:00:22Z</time></trkpt><trkpt lat="42.12371138108746" lon="13.513407586546945"><ele>1106.0</ele><time>2026-04-18T14:00:23Z</time></trkpt><trkpt lat="42.12385382863205" lon="13.513480609363375"><ele>1106.0</ele><time>2026-04-18T14:00:24Z</time></trkpt><trkpt lat="42.1240192202821" lon="13.51348164023299"><ele>1106.0</ele><time>2026-04-18T14:00:25Z</time></trkpt><trkpt lat="42.12420432906473" lon="13.513461236915557"><ele>1109.0</ele><time>2026-04-18T14:00:26Z</time></trkpt><trkpt lat="42.12443421897744" lon="13.513413263994224"><ele>1112.0</ele><time>2026-04-18T14:00:27Z</time></trkpt><trkpt lat="42.124613869964364" lon="13.513402254615347"><ele>1115.0</ele><time>2026-04-18T14:00:28Z</time></trkpt><trkpt lat="42.12478950659198" lon="13.513337370541139"><ele>1122.5</ele><time>2026-04-18T14:00:29Z</time></trkpt><trkpt lat="42.125037246632225" lon="13.513230356825343"><ele>1130.0</ele><time>2026-04-18T14:00:30Z</time></trkpt><trkpt lat="42.12531080096528" lon="13.513039917414643"><ele>1131.5</ele><time>2026-04-18T14:00:31Z</time></trkpt><trkpt lat="42.125555423914605" lon="13.512825455491118"><ele>1133.0</ele><time>2026-04-18T14:00:32Z</time></trkpt><trkpt lat="42.12582481242493" lon="13.512589290017457"><ele>1133.0</ele><time>2026-04-18T14:00:33Z</time></trkpt><trkpt lat="42.12606403426545" lon="13.512381235945279"><ele>1133.0</ele><time>2026-04-18T14:00:34Z</time></trkpt><trkpt lat="42.126267441797694" lon="13.512182041061012"><ele>1135.5</ele><time>2026-04-18T14:00:35Z</time></trkpt><trkpt lat="42.12647934812011" lon="13.512019400181858"><ele>1138.0</ele><time>2026-04-18T14:00:36Z</time></trkpt><trkpt lat="42.126648679086315" lon="13.511851018184474"><ele>1140.0</ele><time>2026-04-18T14:00:37Z</time></trkpt><trkpt lat="42.12685805607246" lon="13.511713294840758"><ele>1142.0</ele><time>2026-04-18T14:00:38Z</time></trkpt><trkpt lat="42.12699316807546" lon="13.511606734422399"><ele>1144.0</ele><time>2026-04-18T14:00:39Z</time></trkpt><trkpt lat="42.12716722986441" lon="13.511510918288288"><ele>1144.0</ele><time>2026-04-18T14:00:40Z</time></trkpt><trkpt lat="42.12729552216384" lon="13.511437015894197"><ele>1144.0</ele><time>2026-04-18T14:00:41Z</time></trkpt><trkpt lat="42.127422172526586" lon="13.511530668429982"><ele>1144.0</ele><time>2026-04-18T14:00:43Z</time></trkpt><trkpt lat="42.12706372791827" lon="13.511635273643687"><ele>1144.0</ele><time>2026-04-18T14:00:45Z</time></trkpt><trkpt lat="42.127139335007406" lon="13.511552569482978"><ele>1144.0</ele><time>2026-04-18T14:00:47Z</time></trkpt><trkpt lat="42.12707444447156" lon="13.511680563931984"><ele>1144.0</ele><time>2026-04-18T14:00:48Z</time></trkpt><trkpt lat="42.12709329610883" lon="13.511766772688908"><ele>1144.0</ele><time>2026-04-18T14:00:49Z</time></trkpt><trkpt lat="42.12695964868647" lon="13.511809466311224"><ele>1144.0</ele><time>2026-04-18T14:00:50Z</time></trkpt><trkpt lat="42.12673265805277" lon="13.511890688941534"><ele>1138.5</ele><time>2026-04-18T14:00:50.999Z</time></trkpt><trkpt lat="42.1264927457693" lon="13.512123420440819"><ele>1133.0</ele><time>2026-04-18T14:00:51.999Z</time></trkpt><trkpt lat="42.126277116264745" lon="13.51249915457464"><ele>1133.0</ele><time>2026-04-18T14:00:52.999Z</time></trkpt><trkpt lat="42.12616170651252" lon="13.512777556769601"><ele>1133.0</ele><time>2026-04-18T14:00:53.999Z</time></trkpt><trkpt lat="42.12596540413396" lon="13.513033288383186"><ele>1131.5</ele><time>2026-04-18T14:00:54.999Z</time></trkpt><trkpt lat="42.1257667020393" lon="13.513254577513575"><ele>1130.0</ele><time>2026-04-18T14:00:55.999Z</time></trkpt><trkpt lat="42.125593313327045" lon="13.513455251598682"><ele>1130.0</ele><time>2026-04-18T14:00:56.999Z</time></trkpt><trkpt lat="42.125474712471664" lon="13.513675910915866"><ele>1130.0</ele><time>2026-04-18T14:00:57.999Z</time></trkpt><trkpt lat="42.12536469958139" lon="13.513868056730805"><ele>1130.0</ele><time>2026-04-18T14:00:58.999Z</time></trkpt><trkpt lat="42.125255844829745" lon="13.514038591708086"><ele>1133.4</ele><time>2026-04-18T14:00:59.999Z</time></trkpt><trkpt lat="42.12519491447333" lon="13.514172146913435"><ele>1136.8</ele><time>2026-04-18T14:01:00.999Z</time></trkpt><trkpt lat="42.125084702673725" lon="13.514182251528329"><ele>1140.2</ele><time>2026-04-18T14:01:01.999Z</time></trkpt><trkpt lat="42.12498594618689" lon="13.514153670117135"><ele>1143.6</ele><time>2026-04-18T14:01:02.999Z</time></trkpt><trkpt lat="42.124880204837964" lon="13.514166838612462"><ele>1147.0</ele><time>2026-04-18T14:01:03.999Z</time></trkpt><trkpt lat="42.12475138895085" lon="13.514219396186263"><ele>1147.0</ele><time>2026-04-18T14:01:04.999Z</time></trkpt><trkpt lat="42.12462329223101" lon="13.514285799556992"><ele>1147.0</ele><time>2026-04-18T14:01:05.999Z</time></trkpt><trkpt lat="42.124511103838856" lon="13.51439902135138"><ele>1147.0</ele><time>2026-04-18T14:01:06.999Z</time></trkpt><trkpt lat="42.12442448264613" lon="13.514505244407394"><ele>1147.0</ele><time>2026-04-18T14:01:07.999Z</time></trkpt><trkpt lat="42.124412437791825" lon="13.514604516747948"><ele>1154.0</ele><time>2026-04-18T14:01:08.999Z</time></trkpt><trkpt lat="42.124430814016655" lon="13.514740290750135"><ele>1161.0</ele><time>2026-04-18T14:01:09.999Z</time></trkpt><trkpt lat="42.12449403532977" lon="13.514830918451885"><ele>1168.0</ele><time>2026-04-18T14:01:10.999Z</time></trkpt><trkpt lat="42.124593182820725" lon="13.5148970273417"><ele>1175.0</ele><time>2026-04-18T14:01:11.999Z</time></trkpt><trkpt lat="42.12480983576812" lon="13.514807230820523"><ele>1170.75</ele><time>2026-04-18T14:01:13.999Z</time></trkpt><trkpt lat="42.12489286381204" lon="13.514558966758745"><ele>1166.5</ele><time>2026-04-18T14:01:14.999Z</time></trkpt><trkpt lat="42.12498189357158" lon="13.514533651988497"><ele>1162.25</ele><time>2026-04-18T14:01:15.999Z</time></trkpt><trkpt lat="42.12507588290044" lon="13.514454071180138"><ele>1158.0</ele><time>2026-04-18T14:01:16.999Z</time></trkpt><trkpt lat="42.125158880759216" lon="13.514515304556692"><ele>1158.0</ele><time>2026-04-18T14:01:17.999Z</time></trkpt><trkpt lat="42.125245403846954" lon="13.514563067865767"><ele>1158.0</ele><time>2026-04-18T14:01:18.999Z</time></trkpt><trkpt lat="42.12540168402185" lon="13.514552224323504"><ele>1158.0</ele><time>2026-04-18T14:01:19.999Z</time></trkpt><trkpt lat="42.12556041837563" lon="13.514422695377954"><ele>1158.0</ele><time>2026-04-18T14:01:20.999Z</time></trkpt><trkpt lat="42.125697436162454" lon="13.51425470154187"><ele>1164.6666666666667</ele><time>2026-04-18T14:01:21.999Z</time></trkpt><trkpt lat="42.12581444076328" lon="13.514095397808225"><ele>1171.3333333333335</ele><time>2026-04-18T14:01:22.999Z</time></trkpt><trkpt lat="42.125918492895565" lon="13.513979640178594"><ele>1178.0</ele><time>2026-04-18T14:01:23.999Z</time></trkpt><trkpt lat="42.1260536806423" lon="13.51386118166055"><ele>1178.0</ele><time>2026-04-18T14:01:24.999Z</time></trkpt><trkpt lat="42.12623241928705" lon="13.513797632093835"><ele>1178.0</ele><time>2026-04-18T14:01:25.999Z</time></trkpt><trkpt lat="42.126437134430184" lon="13.513717366683673"><ele>1178.0</ele><time>2026-04-18T14:01:26.999Z</time></trkpt><trkpt lat="42.126662570269175" lon="13.513577333433998"><ele>1177.0</ele><time>2026-04-18T14:01:27.999Z</time></trkpt><trkpt lat="42.12687961955573" lon="13.513408573090775"><ele>1176.0</ele><time>2026-04-18T14:01:28.999Z</time></trkpt><trkpt lat="42.127114187619064" lon="13.51323964993683"><ele>1176.0</ele><time>2026-04-18T14:01:29.999Z</time></trkpt><trkpt lat="42.12734095233721" lon="13.513098348753706"><ele>1176.0</ele><time>2026-04-18T14:01:30.999Z</time></trkpt><trkpt lat="42.12754891977919" lon="13.512997893729834"><ele>1173.6666666666667</ele><time>2026-04-18T14:01:31.999Z</time></trkpt><trkpt lat="42.127775743697995" lon="13.512896119614812"><ele>1171.3333333333335</ele><time>2026-04-18T14:01:32.999Z</time></trkpt><trkpt lat="42.127973102811936" lon="13.51281852727107"><ele>1169.0</ele><time>2026-04-18T14:01:33.999Z</time></trkpt><trkpt lat="42.1281667096657" lon="13.512784472031466"><ele>1172.3333333333335</ele><time>2026-04-18T14:01:34.999Z</time></trkpt><trkpt lat="42.12835036890127" lon="13.512786986645095"><ele>1175.6666666666667</ele><time>2026-04-18T14:01:35.999Z</time></trkpt><trkpt lat="42.12855933231668" lon="13.512807504828366"><ele>1179.0</ele><time>2026-04-18T14:01:36.999Z</time></trkpt><trkpt lat="42.12884851382503" lon="13.512813216597294"><ele>1182.0</ele><time>2026-04-18T14:01:37.999Z</time></trkpt><trkpt lat="42.12911400791301" lon="13.512791898004375"><ele>1185.0</ele><time>2026-04-18T14:01:38.999Z</time></trkpt><trkpt lat="42.12946453043125" lon="13.512731123770287"><ele>1185.0</ele><time>2026-04-18T14:01:39.999Z</time></trkpt><trkpt lat="42.12980260848234" lon="13.512669261667126"><ele>1185.0</ele><time>2026-04-18T14:01:40.999Z</time></trkpt><trkpt lat="42.13013524948453" lon="13.512605977319003"><ele>1192.0</ele><time>2026-04-18T14:01:41.999Z</time></trkpt><trkpt lat="42.130427679933746" lon="13.512549834684918"><ele>1199.0</ele><time>2026-04-18T14:01:42.999Z</time></trkpt><trkpt lat="42.13069160856746" lon="13.512497119414299"><ele>1204.5</ele><time>2026-04-18T14:01:43.999Z</time></trkpt><trkpt lat="42.13093644404595" lon="13.512449255524722"><ele>1210.0</ele><time>2026-04-18T14:01:44.999Z</time></trkpt><trkpt lat="42.1311654380063" lon="13.512403402786543"><ele>1210.0</ele><time>2026-04-18T14:01:45.999Z</time></trkpt><trkpt lat="42.13138132322914" lon="13.512330636225121"><ele>1210.0</ele><time>2026-04-18T14:01:46.999Z</time></trkpt><trkpt lat="42.13156645263" lon="13.512291882306432"><ele>1210.0</ele><time>2026-04-18T14:01:47.999Z</time></trkpt><trkpt lat="42.131749627935825" lon="13.512255477108097"><ele>1212.75</ele><time>2026-04-18T14:01:48.999Z</time></trkpt><trkpt lat="42.13188609556795" lon="13.512198433661817"><ele>1215.5</ele><time>2026-04-18T14:01:49.999Z</time></trkpt><trkpt lat="42.13200223682437" lon="13.512140605996898"><ele>1218.25</ele><time>2026-04-18T14:01:50.999Z</time></trkpt><trkpt lat="42.132106986830436" lon="13.512123693433127"><ele>1221.0</ele><time>2026-04-18T14:01:52.999Z</time></trkpt><trkpt lat="42.1322271705077" lon="13.51212756981205"><ele>1221.0</ele><time>2026-04-18T14:01:54.999Z</time></trkpt><trkpt lat="42.132076774819346" lon="13.512344083900665"><ele>1221.0</ele><time>2026-04-18T14:01:55.999Z</time></trkpt><trkpt lat="42.13202458479218" lon="13.512293416806035"><ele>1221.0</ele><time>2026-04-18T14:01:59.999Z</time></trkpt><trkpt lat="42.13197238557309" lon="13.512207183458948"><ele>1221.0</ele><time>2026-04-18T14:02:00.999Z</time></trkpt><trkpt lat="42.12969675256647" lon="13.513393872597796"><ele>1237.0</ele><time>2026-04-18T14:02:06.999Z</time></trkpt><trkpt lat="42.12846193335641" lon="13.514171493303566"><ele>1256.0</ele><time>2026-04-18T14:02:19Z</time></trkpt><trkpt lat="42.129277509424995" lon="13.51395496344412"><ele>1256.0</ele><time>2026-04-18T14:02:24Z</time></trkpt><trkpt lat="42.1295024674974" lon="13.513872244601728"><ele>1256.0</ele><time>2026-04-18T14:02:25Z</time></trkpt><trkpt lat="42.12988939177924" lon="13.513740800396404"><ele>1242.0</ele><time>2026-04-18T14:02:27Z</time></trkpt><trkpt lat="42.13017494331037" lon="13.513661033253204"><ele>1228.0</ele><time>2026-04-18T14:02:28Z</time></trkpt><trkpt lat="42.13049126981075" lon="13.513604969653995"><ele>1238.5</ele><time>2026-04-18T14:02:29Z</time></trkpt><trkpt lat="42.130786403590164" lon="13.513550624363953"><ele>1249.0</ele><time>2026-04-18T14:02:30Z</time></trkpt><trkpt lat="42.131117851883054" lon="13.513520805670623"><ele>1249.0</ele><time>2026-04-18T14:02:31Z</time></trkpt><trkpt lat="42.131397546299816" lon="13.513474263381083"><ele>1249.0</ele><time>2026-04-18T14:02:32Z</time></trkpt><trkpt lat="42.13168101012389" lon="13.513407382258011"><ele>1254.0</ele><time>2026-04-18T14:02:33Z</time></trkpt><trkpt lat="42.13195114825346" lon="13.513317404981061"><ele>1259.0</ele><time>2026-04-18T14:02:34Z</time></trkpt><trkpt lat="42.132189793004144" lon="13.513227666797444"><ele>1267.5</ele><time>2026-04-18T14:02:35Z</time></trkpt><trkpt lat="42.13240383724049" lon="13.513160430932544"><ele>1276.0</ele><time>2026-04-18T14:02:36Z</time></trkpt><trkpt lat="42.1326294388046" lon="13.513088442656972"><ele>1276.0</ele><time>2026-04-18T14:02:37Z</time></trkpt><trkpt lat="42.13281642071467" lon="13.51302693910959"><ele>1276.0</ele><time>2026-04-18T14:02:38Z</time></trkpt><trkpt lat="42.132996048328025" lon="13.512901598841374"><ele>1276.0</ele><time>2026-04-18T14:02:39Z</time></trkpt><trkpt lat="42.133183284787606" lon="13.512705241183783"><ele>1272.5</ele><time>2026-04-18T14:02:40Z</time></trkpt><trkpt lat="42.133391862960906" lon="13.512490010679604"><ele>1269.0</ele><time>2026-04-18T14:02:41Z</time></trkpt><trkpt lat="42.133631558418436" lon="13.512293864311454"><ele>1269.0</ele><time>2026-04-18T14:02:42Z</time></trkpt><trkpt lat="42.13386010089382" lon="13.51210372063316"><ele>1269.0</ele><time>2026-04-18T14:02:43Z</time></trkpt><trkpt lat="42.134118816328346" lon="13.511875304108441"><ele>1270.0</ele><time>2026-04-18T14:02:44Z</time></trkpt><trkpt lat="42.134386386928824" lon="13.511586823055028"><ele>1271.0</ele><time>2026-04-18T14:02:45Z</time></trkpt><trkpt lat="42.13465551519628" lon="13.511323491959057"><ele>1274.5</ele><time>2026-04-18T14:02:46Z</time></trkpt><trkpt lat="42.13488668747984" lon="13.511106240205752"><ele>1278.0</ele><time>2026-04-18T14:02:47Z</time></trkpt><trkpt lat="42.1350982482834" lon="13.510906262138066"><ele>1278.0</ele><time>2026-04-18T14:02:48Z</time></trkpt><trkpt lat="42.13529417185423" lon="13.510722170710222"><ele>1278.0</ele><time>2026-04-18T14:02:49Z</time></trkpt><trkpt lat="42.135468864255714" lon="13.510555691392069"><ele>1278.5</ele><time>2026-04-18T14:02:50Z</time></trkpt><trkpt lat="42.135677347899126" lon="13.510388618506234"><ele>1279.0</ele><time>2026-04-18T14:02:51Z</time></trkpt><trkpt lat="42.13591817396309" lon="13.510244740030489"><ele>1279.0</ele><time>2026-04-18T14:02:52Z</time></trkpt><trkpt lat="42.13617562938172" lon="13.510094257359528"><ele>1279.0</ele><time>2026-04-18T14:02:53Z</time></trkpt><trkpt lat="42.13643042015958" lon="13.509949205114003"><ele>1289.5</ele><time>2026-04-18T14:02:53.999Z</time></trkpt><trkpt lat="42.13666603529988" lon="13.509807306368604"><ele>1300.0</ele><time>2026-04-18T14:02:54.999Z</time></trkpt><trkpt lat="42.1368631426046" lon="13.509673595081322"><ele>1296.3333333333333</ele><time>2026-04-18T14:02:55.999Z</time></trkpt><trkpt lat="42.137038629706346" lon="13.509541472690872"><ele>1292.6666666666667</ele><time>2026-04-18T14:02:56.999Z</time></trkpt><trkpt lat="42.1372150356413" lon="13.50944697060125"><ele>1289.0</ele><time>2026-04-18T14:02:57.999Z</time></trkpt><trkpt lat="42.13742152722233" lon="13.509350415810816"><ele>1289.0</ele><time>2026-04-18T14:02:58.999Z</time></trkpt><trkpt lat="42.13762206550661" lon="13.50927441655769"><ele>1289.0</ele><time>2026-04-18T14:02:59.999Z</time></trkpt><trkpt lat="42.13779955180119" lon="13.50922899240339"><ele>1289.0</ele><time>2026-04-18T14:03:00.999Z</time></trkpt><trkpt lat="42.13794531804403" lon="13.509196712542469"><ele>1289.0</ele><time>2026-04-18T14:03:01.999Z</time></trkpt><trkpt lat="42.13809251849606" lon="13.509170807998832"><ele>1289.0</ele><time>2026-04-18T14:03:02.999Z</time></trkpt><trkpt lat="42.13822983243217" lon="13.509155372194195"><ele>1289.0</ele><time>2026-04-18T14:03:03.999Z</time></trkpt><trkpt lat="42.13838381428642" lon="13.509107568003726"><ele>1289.0</ele><time>2026-04-18T14:03:04.999Z</time></trkpt><trkpt lat="42.138527955038576" lon="13.508974946448895"><ele>1288.6666666666667</ele><time>2026-04-18T14:03:05.999Z</time></trkpt><trkpt lat="42.13865358659514" lon="13.508755853368081"><ele>1288.3333333333333</ele><time>2026-04-18T14:03:06.999Z</time></trkpt><trkpt lat="42.138772913005994" lon="13.508504066684981"><ele>1288.0</ele><time>2026-04-18T14:03:07.999Z</time></trkpt><trkpt lat="42.13887546407286" lon="13.508273079587132"><ele>1288.0</ele><time>2026-04-18T14:03:08.999Z</time></trkpt><trkpt lat="42.13897461447403" lon="13.508089612002374"><ele>1288.0</ele><time>2026-04-18T14:03:09.999Z</time></trkpt><trkpt lat="42.13904192176501" lon="13.507905787056256"><ele>1288.0</ele><time>2026-04-18T14:03:10.999Z</time></trkpt><trkpt lat="42.13908066395256" lon="13.507735641825994"><ele>1290.8000000000002</ele><time>2026-04-18T14:03:11.999Z</time></trkpt><trkpt lat="42.139119287045716" lon="13.50759640870871"><ele>1293.6</ele><time>2026-04-18T14:03:12.999Z</time></trkpt><trkpt lat="42.13915692645419" lon="13.507511794386645"><ele>1296.4</ele><time>2026-04-18T14:03:13.999Z</time></trkpt><trkpt lat="42.13920913571539" lon="13.507451424895104"><ele>1299.1999999999998</ele><time>2026-04-18T14:03:14.999Z</time></trkpt><trkpt lat="42.139344848510646" lon="13.507469373833379"><ele>1302.0</ele><time>2026-04-18T14:03:16.999Z</time></trkpt><trkpt lat="42.13939134131205" lon="13.507542047490489"><ele>1302.0</ele><time>2026-04-18T14:03:17.999Z</time></trkpt><trkpt lat="42.139400639802844" lon="13.507651994750415"><ele>1302.0</ele><time>2026-04-18T14:03:18.999Z</time></trkpt><trkpt lat="42.13934644169762" lon="13.507814265408207"><ele>1302.0</ele><time>2026-04-18T14:03:19.999Z</time></trkpt><trkpt lat="42.13923270557681" lon="13.507936943349986"><ele>1302.0</ele><time>2026-04-18T14:03:20.999Z</time></trkpt><trkpt lat="42.13914325325786" lon="13.50806007168986"><ele>1306.6666666666667</ele><time>2026-04-18T14:03:21.999Z</time></trkpt><trkpt lat="42.13906792333766" lon="13.508222083496747"><ele>1311.3333333333335</ele><time>2026-04-18T14:03:22.999Z</time></trkpt><trkpt lat="42.13883250917362" lon="13.508238624765646"><ele>1316.0</ele><time>2026-04-18T14:03:23.999Z</time></trkpt><trkpt lat="42.13875012219582" lon="13.508391648111246"><ele>1312.5</ele><time>2026-04-18T14:03:24.999Z</time></trkpt><trkpt lat="42.13866674977249" lon="13.50853944903757"><ele>1309.0</ele><time>2026-04-18T14:03:25.999Z</time></trkpt><trkpt lat="42.1385874536597" lon="13.50867921363781"><ele>1305.5</ele><time>2026-04-18T14:03:26.999Z</time></trkpt><trkpt lat="42.138517927219155" lon="13.508801758363964"><ele>1302.0</ele><time>2026-04-18T14:03:27.999Z</time></trkpt><trkpt lat="42.13845312662328" lon="13.508906585905793"><ele>1302.0</ele><time>2026-04-18T14:03:28.999Z</time></trkpt><trkpt lat="42.138400930444945" lon="13.508979603151111"><ele>1302.0</ele><time>2026-04-18T14:03:29.999Z</time></trkpt><trkpt lat="42.1383469394253" lon="13.5090409561349"><ele>1302.0</ele><time>2026-04-18T14:03:30.999Z</time></trkpt><trkpt lat="42.13820681333419" lon="13.509129564518439"><ele>1302.0</ele><time>2026-04-18T14:03:32.999Z</time></trkpt><trkpt lat="42.13801616599645" lon="13.509158334797858"><ele>1297.6666666666667</ele><time>2026-04-18T14:03:34.999Z</time></trkpt><trkpt lat="42.13786793850006" lon="13.509183258010609"><ele>1293.3333333333335</ele><time>2026-04-18T14:03:35.999Z</time></trkpt><trkpt lat="42.13767112139318" lon="13.509230500087277"><ele>1289.0</ele><time>2026-04-18T14:03:36.999Z</time></trkpt><trkpt lat="42.137481572093584" lon="13.509293689350708"><ele>1292.6666666666667</ele><time>2026-04-18T14:03:37.999Z</time></trkpt><trkpt lat="42.137283038872496" lon="13.509368659234346"><ele>1296.3333333333333</ele><time>2026-04-18T14:03:38.999Z</time></trkpt><trkpt lat="42.13706710833996" lon="13.509488154631832"><ele>1300.0</ele><time>2026-04-18T14:03:39.999Z</time></trkpt><trkpt lat="42.1369098266964" lon="13.509590107829553"><ele>1300.0</ele><time>2026-04-18T14:03:40.999Z</time></trkpt><trkpt lat="42.13673311744744" lon="13.509701040778282"><ele>1300.0</ele><time>2026-04-18T14:03:41.999Z</time></trkpt><trkpt lat="42.136526124674205" lon="13.509830984965037"><ele>1300.0</ele><time>2026-04-18T14:03:42.999Z</time></trkpt><trkpt lat="42.13635036405177" lon="13.50993700735201"><ele>1293.0</ele><time>2026-04-18T14:03:43.999Z</time></trkpt><trkpt lat="42.13618127423626" lon="13.510028082682576"><ele>1286.0</ele><time>2026-04-18T14:03:44.999Z</time></trkpt><trkpt lat="42.1359934827717" lon="13.510127895717426"><ele>1279.0</ele><time>2026-04-18T14:03:45.999Z</time></trkpt><trkpt lat="42.135772931753124" lon="13.510294625578847"><ele>1278.5</ele><time>2026-04-18T14:03:46.999Z</time></trkpt><trkpt lat="42.13548692365685" lon="13.510559269041279"><ele>1278.0</ele><time>2026-04-18T14:03:47.999Z</time></trkpt><trkpt lat="42.135292866313655" lon="13.510805299301156"><ele>1278.0</ele><time>2026-04-18T14:03:48.999Z</time></trkpt><trkpt lat="42.1350971346185" lon="13.51105750321806"><ele>1278.0</ele><time>2026-04-18T14:03:49.999Z</time></trkpt><trkpt lat="42.13492608174464" lon="13.511282889240242"><ele>1275.6666666666667</ele><time>2026-04-18T14:03:50.999Z</time></trkpt><trkpt lat="42.134774948503875" lon="13.511479319063051"><ele>1273.3333333333335</ele><time>2026-04-18T14:03:51.999Z</time></trkpt><trkpt lat="42.134645599139574" lon="13.511655481438986"><ele>1271.0</ele><time>2026-04-18T14:03:52.999Z</time></trkpt><trkpt lat="42.134526386324794" lon="13.51182658860226"><ele>1271.0</ele><time>2026-04-18T14:03:53.999Z</time></trkpt><trkpt lat="42.13441197230513" lon="13.51201092647931"><ele>1271.0</ele><time>2026-04-18T14:03:54.999Z</time></trkpt><trkpt lat="42.13433767893345" lon="13.512182772079903"><ele>1271.0</ele><time>2026-04-18T14:03:55.999Z</time></trkpt><trkpt lat="42.13428412694785" lon="13.512357220557213"><ele>1345.0</ele><time>2026-04-18T14:03:56.999Z</time></trkpt><trkpt lat="42.134474865898895" lon="13.512922887066898"><ele>1345.0</ele><time>2026-04-18T14:03:57.999Z</time></trkpt><trkpt lat="42.13440916362012" lon="13.51303315503828"><ele>1345.0</ele><time>2026-04-18T14:03:58.999Z</time></trkpt><trkpt lat="42.13428767292621" lon="13.513123553136287"><ele>1345.0</ele><time>2026-04-18T14:03:59.999Z</time></trkpt><trkpt lat="42.13414069044009" lon="13.513194861006166"><ele>1345.0</ele><time>2026-04-18T14:04:00.999Z</time></trkpt><trkpt lat="42.133995972363834" lon="13.513292006992446"><ele>1342.75</ele><time>2026-04-18T14:04:01.999Z</time></trkpt><trkpt lat="42.13387930706159" lon="13.513395762196398"><ele>1340.5</ele><time>2026-04-18T14:04:02.999Z</time></trkpt><trkpt lat="42.1337788218322" lon="13.513507344870419"><ele>1338.25</ele><time>2026-04-18T14:04:03.999Z</time></trkpt><trkpt lat="42.13369144554433" lon="13.513653000486963"><ele>1336.0</ele><time>2026-04-18T14:04:04.999Z</time></trkpt><trkpt lat="42.133633827961134" lon="13.513806327860163"><ele>1336.0</ele><time>2026-04-18T14:04:05.999Z</time></trkpt><trkpt lat="42.13360603795423" lon="13.513944698366096"><ele>1336.0</ele><time>2026-04-18T14:04:06.999Z</time></trkpt><trkpt lat="42.1336052515576" lon="13.514108041332719"><ele>1336.0</ele><time>2026-04-18T14:04:07.999Z</time></trkpt><trkpt lat="42.133630396382166" lon="13.51432107210161"><ele>1336.0</ele><time>2026-04-18T14:04:08.999Z</time></trkpt><trkpt lat="42.1336659396409" lon="13.514518943743946"><ele>1340.75</ele><time>2026-04-18T14:04:09.999Z</time></trkpt><trkpt lat="42.13370337643345" lon="13.51467825864405"><ele>1345.5</ele><time>2026-04-18T14:04:10.999Z</time></trkpt><trkpt lat="42.133769317033" lon="13.5148205161768"><ele>1350.25</ele><time>2026-04-18T14:04:11.999Z</time></trkpt><trkpt lat="42.13386256084708" lon="13.514918112582393"><ele>1355.0</ele><time>2026-04-18T14:04:12.999Z</time></trkpt><trkpt lat="42.13397485245658" lon="13.514980140499294"><ele>1354.4</ele><time>2026-04-18T14:04:13.999Z</time></trkpt><trkpt lat="42.1340958553407" lon="13.515001815515802"><ele>1353.8</ele><time>2026-04-18T14:04:14.999Z</time></trkpt><trkpt lat="42.134225835776824" lon="13.514976511438547"><ele>1353.1999999999998</ele><time>2026-04-18T14:04:15.999Z</time></trkpt><trkpt lat="42.13431889539071" lon="13.51494090028604"><ele>1352.6</ele><time>2026-04-18T14:04:16.999Z</time></trkpt><trkpt lat="42.134384233696274" lon="13.514955331877772"><ele>1352.0</ele><time>2026-04-18T14:04:17.999Z</time></trkpt><trkpt lat="42.134457484701386" lon="13.515062309586389"><ele>1352.0</ele><time>2026-04-18T14:04:19.998Z</time></trkpt><trkpt lat="42.13434884036586" lon="13.515186111070447"><ele>1352.0</ele><time>2026-04-18T14:04:22Z</time></trkpt><trkpt lat="42.134260669783245" lon="13.515325878847987"><ele>1352.0</ele><time>2026-04-18T14:04:23Z</time></trkpt><trkpt lat="42.134147293734266" lon="13.515506453789044"><ele>1355.25</ele><time>2026-04-18T14:04:24Z</time></trkpt><trkpt lat="42.13404150252856" lon="13.515660023995776"><ele>1358.5</ele><time>2026-04-18T14:04:25Z</time></trkpt><trkpt lat="42.13394142948803" lon="13.515768734085881"><ele>1361.75</ele><time>2026-04-18T14:04:26Z</time></trkpt><trkpt lat="42.133862643608076" lon="13.515856708441309"><ele>1365.0</ele><time>2026-04-18T14:04:27Z</time></trkpt><trkpt lat="42.13379353740514" lon="13.515938732970943"><ele>1365.0</ele><time>2026-04-18T14:04:28Z</time></trkpt><trkpt lat="42.13373759857462" lon="13.516034802347656"><ele>1365.0</ele><time>2026-04-18T14:04:29Z</time></trkpt><trkpt lat="42.13373568627409" lon="13.516137391426957"><ele>1365.0</ele><time>2026-04-18T14:04:30Z</time></trkpt><trkpt lat="42.133775951765976" lon="13.516227678236113"><ele>1365.0</ele><time>2026-04-18T14:04:31Z</time></trkpt><trkpt lat="42.1338332001784" lon="13.516309918170247"><ele>1365.0</ele><time>2026-04-18T14:04:32Z</time></trkpt><trkpt lat="42.13390116854966" lon="13.516362386489101"><ele>1365.0</ele><time>2026-04-18T14:04:33Z</time></trkpt><trkpt lat="42.13399005491752" lon="13.516400535449398"><ele>1365.75</ele><time>2026-04-18T14:04:34Z</time></trkpt><trkpt lat="42.13407508316532" lon="13.516352926892045"><ele>1366.5</ele><time>2026-04-18T14:04:35Z</time></trkpt><trkpt lat="42.13416261841983" lon="13.516250615137027"><ele>1367.25</ele><time>2026-04-18T14:04:36Z</time></trkpt><trkpt lat="42.13425619881154" lon="13.516108849559762"><ele>1368.0</ele><time>2026-04-18T14:04:37Z</time></trkpt><trkpt lat="42.134362892502125" lon="13.515908851482497"><ele>1365.5</ele><time>2026-04-18T14:04:38Z</time></trkpt><trkpt lat="42.13447521860643" lon="13.51574110084838"><ele>1363.0</ele><time>2026-04-18T14:04:39Z</time></trkpt><trkpt lat="42.13456861601561" lon="13.515603841415226"><ele>1360.5</ele><time>2026-04-18T14:04:40Z</time></trkpt><trkpt lat="42.13465363499692" lon="13.515477991899987"><ele>1358.0</ele><time>2026-04-18T14:04:41Z</time></trkpt><trkpt lat="42.13473586015582" lon="13.515381968728505"><ele>1356.8000000000002</ele><time>2026-04-18T14:04:42Z</time></trkpt><trkpt lat="42.13481771549451" lon="13.515287911165398"><ele>1355.6</ele><time>2026-04-18T14:04:43Z</time></trkpt><trkpt lat="42.13492709138997" lon="13.515221427664914"><ele>1354.4</ele><time>2026-04-18T14:04:44Z</time></trkpt><trkpt lat="42.135011806673056" lon="13.515163656921839"><ele>1353.1999999999998</ele><time>2026-04-18T14:04:45Z</time></trkpt><trkpt lat="42.135118542139715" lon="13.515133698827336"><ele>1352.0</ele><time>2026-04-18T14:04:46Z</time></trkpt><trkpt lat="42.13523707268672" lon="13.515117021691188"><ele>1355.25</ele><time>2026-04-18T14:04:47Z</time></trkpt><trkpt lat="42.13535049724791" lon="13.515146640383408"><ele>1358.5</ele><time>2026-04-18T14:04:48Z</time></trkpt><trkpt lat="42.13547306025939" lon="13.515132151331906"><ele>1361.75</ele><time>2026-04-18T14:04:49Z</time></trkpt><trkpt lat="42.13561588103226" lon="13.515158640062184"><ele>1365.0</ele><time>2026-04-18T14:04:50Z</time></trkpt><trkpt lat="42.135746595793954" lon="13.51514527150547"><ele>1366.6666666666667</ele><time>2026-04-18T14:04:51Z</time></trkpt><trkpt lat="42.13586273557638" lon="13.515120359356226"><ele>1368.3333333333333</ele><time>2026-04-18T14:04:52Z</time></trkpt><trkpt lat="42.13596233606328" lon="13.515083857929604"><ele>1370.0</ele><time>2026-04-18T14:04:53Z</time></trkpt><trkpt lat="42.13604192710504" lon="13.515054559006066"><ele>1371.6666666666665</ele><time>2026-04-18T14:04:54Z</time></trkpt><trkpt lat="42.13609629330136" lon="13.514998092537502"><ele>1373.3333333333333</ele><time>2026-04-18T14:04:55Z</time></trkpt><trkpt lat="42.13616422314627" lon="13.514955608425517"><ele>1375.0</ele><time>2026-04-18T14:04:56Z</time></trkpt><trkpt lat="42.13624771025366" lon="13.514937651339705"><ele>1375.0</ele><time>2026-04-18T14:04:56.999Z</time></trkpt><trkpt lat="42.13633234447726" lon="13.514940355144333"><ele>1375.0</ele><time>2026-04-18T14:04:57.999Z</time></trkpt><trkpt lat="42.136410297744995" lon="13.514956665470514"><ele>1375.0</ele><time>2026-04-18T14:04:58.999Z</time></trkpt><trkpt lat="42.136474694100926" lon="13.514969531217409"><ele>1375.0</ele><time>2026-04-18T14:04:59.999Z</time></trkpt><trkpt lat="42.13650169208399" lon="13.515072840029358"><ele>1375.0</ele><time>2026-04-18T14:05:00.999Z</time></trkpt><trkpt lat="42.136565064669995" lon="13.515125827578796"><ele>1375.0</ele><time>2026-04-18T14:05:01.999Z</time></trkpt><trkpt lat="42.13664299812318" lon="13.51516750928205"><ele>1375.2</ele><time>2026-04-18T14:05:02.999Z</time></trkpt><trkpt lat="42.13671644406575" lon="13.51524285982137"><ele>1375.4</ele><time>2026-04-18T14:05:03.999Z</time></trkpt><trkpt lat="42.13679869581542" lon="13.51530361678104"><ele>1375.6</ele><time>2026-04-18T14:05:04.999Z</time></trkpt><trkpt lat="42.136882714395796" lon="13.515356274603853"><ele>1375.8</ele><time>2026-04-18T14:05:05.999Z</time></trkpt><trkpt lat="42.136960253675966" lon="13.515466608421034"><ele>1376.0</ele><time>2026-04-18T14:05:06.999Z</time></trkpt><trkpt lat="42.136951871326254" lon="13.515743811555334"><ele>1375.25</ele><time>2026-04-18T14:05:07.999Z</time></trkpt><trkpt lat="42.137046665965826" lon="13.515830260631956"><ele>1374.5</ele><time>2026-04-18T14:05:08.999Z</time></trkpt><trkpt lat="42.137146163853764" lon="13.515920998095774"><ele>1373.75</ele><time>2026-04-18T14:05:09.999Z</time></trkpt><trkpt lat="42.13724573543476" lon="13.516011802746297"><ele>1373.0</ele><time>2026-04-18T14:05:10.999Z</time></trkpt><trkpt lat="42.137360594049305" lon="13.516116548451677"><ele>1371.5</ele><time>2026-04-18T14:05:11.999Z</time></trkpt><trkpt lat="42.13756509428517" lon="13.516043391333849"><ele>1370.0</ele><time>2026-04-18T14:05:12.999Z</time></trkpt><trkpt lat="42.137665511438016" lon="13.516138068017419"><ele>1368.5</ele><time>2026-04-18T14:05:13.999Z</time></trkpt><trkpt lat="42.1377565990507" lon="13.516222922574347"><ele>1367.0</ele><time>2026-04-18T14:05:14.999Z</time></trkpt><trkpt lat="42.13783117225531" lon="13.516291530800045"><ele>1365.75</ele><time>2026-04-18T14:05:15.999Z</time></trkpt><trkpt lat="42.137906283299166" lon="13.516360344630789"><ele>1364.5</ele><time>2026-04-18T14:05:16.999Z</time></trkpt><trkpt lat="42.13799644137252" lon="13.51643285536242"><ele>1363.25</ele><time>2026-04-18T14:05:17.999Z</time></trkpt><trkpt lat="42.13810028516851" lon="13.51652120767301"><ele>1362.0</ele><time>2026-04-18T14:05:18.999Z</time></trkpt><trkpt lat="42.138224950349915" lon="13.516638507808246"><ele>1361.3333333333333</ele><time>2026-04-18T14:05:19.999Z</time></trkpt><trkpt lat="42.138372513845255" lon="13.516778792755076"><ele>1360.6666666666665</ele><time>2026-04-18T14:05:20.999Z</time></trkpt><trkpt lat="42.13852204493578" lon="13.516923499595254"><ele>1360.0</ele><time>2026-04-18T14:05:21.999Z</time></trkpt><trkpt lat="42.138659433940504" lon="13.517055736158978"><ele>1358.6666666666665</ele><time>2026-04-18T14:05:22.999Z</time></trkpt><trkpt lat="42.13878948217344" lon="13.517179160313326"><ele>1357.3333333333333</ele><time>2026-04-18T14:05:23.999Z</time></trkpt><trkpt lat="42.138922234158166" lon="13.517301831710633"><ele>1356.0</ele><time>2026-04-18T14:05:24.999Z</time></trkpt><trkpt lat="42.139059164980424" lon="13.517429381094864"><ele>1356.0</ele><time>2026-04-18T14:05:25.999Z</time></trkpt><trkpt lat="42.13921522544005" lon="13.517567906830095"><ele>1356.0</ele><time>2026-04-18T14:05:26.999Z</time></trkpt><trkpt lat="42.13937348112778" lon="13.517712063998731"><ele>1356.0</ele><time>2026-04-18T14:05:27.999Z</time></trkpt><trkpt lat="42.13951533200886" lon="13.517844046947559"><ele>1355.3333333333333</ele><time>2026-04-18T14:05:28.999Z</time></trkpt><trkpt lat="42.13965009364607" lon="13.517958414296364"><ele>1354.6666666666665</ele><time>2026-04-18T14:05:29.999Z</time></trkpt><trkpt lat="42.1397877100619" lon="13.518039297009606"><ele>1354.0</ele><time>2026-04-18T14:05:30.999Z</time></trkpt><trkpt lat="42.13994275181653" lon="13.518086537885923"><ele>1353.0</ele><time>2026-04-18T14:05:31.999Z</time></trkpt><trkpt lat="42.14013896073321" lon="13.518116991967313"><ele>1352.0</ele><time>2026-04-18T14:05:32.999Z</time></trkpt><trkpt lat="42.14033788249837" lon="13.518139269170984"><ele>1351.0</ele><time>2026-04-18T14:05:33.999Z</time></trkpt><trkpt lat="42.14050483589085" lon="13.518163483650495"><ele>1351.0</ele><time>2026-04-18T14:05:34.999Z</time></trkpt><trkpt lat="42.14064379316771" lon="13.51818220407987"><ele>1351.0</ele><time>2026-04-18T14:05:35.999Z</time></trkpt><trkpt lat="42.14076415139812" lon="13.518194840802979"><ele>1351.0</ele><time>2026-04-18T14:05:36.999Z</time></trkpt><trkpt lat="42.14087311076008" lon="13.518206935086642"><ele>1351.0</ele><time>2026-04-18T14:05:37.999Z</time></trkpt><trkpt lat="42.140965472032676" lon="13.51822816449442"><ele>1350.4285714285713</ele><time>2026-04-18T14:05:38.999Z</time></trkpt><trkpt lat="42.14104903575294" lon="13.518264284295794"><ele>1349.857142857143</ele><time>2026-04-18T14:05:39.999Z</time></trkpt><trkpt lat="42.141120715388716" lon="13.518315991612377"><ele>1349.2857142857142</ele><time>2026-04-18T14:05:40.999Z</time></trkpt><trkpt lat="42.14118674770338" lon="13.518365087379657"><ele>1348.7142857142858</ele><time>2026-04-18T14:05:41.999Z</time></trkpt><trkpt lat="42.14125166080058" lon="13.518386046254461"><ele>1348.142857142857</ele><time>2026-04-18T14:05:42.999Z</time></trkpt><trkpt lat="42.14131255185376" lon="13.518350271390148"><ele>1347.5714285714284</ele><time>2026-04-18T14:05:43.999Z</time></trkpt><trkpt lat="42.14135596093217" lon="13.518277312353897"><ele>1347.0</ele><time>2026-04-18T14:05:44.999Z</time></trkpt><trkpt lat="42.141370682824046" lon="13.518181228921666"><ele>1347.0</ele><time>2026-04-18T14:05:45.999Z</time></trkpt><trkpt lat="42.14135227088993" lon="13.518078038263308"><ele>1347.0</ele><time>2026-04-18T14:05:46.999Z</time></trkpt><trkpt lat="42.14130345009619" lon="13.517973300503396"><ele>1347.0</ele><time>2026-04-18T14:05:47.999Z</time></trkpt><trkpt lat="42.14123654812334" lon="13.517874950236333"><ele>1347.0</ele><time>2026-04-18T14:05:48.999Z</time></trkpt><trkpt lat="42.14121483832945" lon="13.517716546398052"><ele>1347.0</ele><time>2026-04-18T14:05:49.999Z</time></trkpt><trkpt lat="42.141244937603524" lon="13.51756097078438"><ele>1349.0</ele><time>2026-04-18T14:05:50.999Z</time></trkpt><trkpt lat="42.141283845563265" lon="13.517362772655499"><ele>1351.0</ele><time>2026-04-18T14:05:51.999Z</time></trkpt><trkpt lat="42.14133809932062" lon="13.517125502593128"><ele>1353.0</ele><time>2026-04-18T14:05:52.999Z</time></trkpt><trkpt lat="42.14139795337882" lon="13.51686712164255"><ele>1353.0</ele><time>2026-04-18T14:05:53.999Z</time></trkpt><trkpt lat="42.14145581080066" lon="13.516621374140707"><ele>1353.0</ele><time>2026-04-18T14:05:54.999Z</time></trkpt><trkpt lat="42.14151628926655" lon="13.516366084478408"><ele>1353.0</ele><time>2026-04-18T14:05:55.999Z</time></trkpt><trkpt lat="42.14158212820187" lon="13.516107136944182"><ele>1353.0</ele><time>2026-04-18T14:05:56.999Z</time></trkpt><trkpt lat="42.14164495255028" lon="13.51585444887977"><ele>1353.0</ele><time>2026-04-18T14:05:57.999Z</time></trkpt><trkpt lat="42.141699696822606" lon="13.515624560610544"><ele>1353.0</ele><time>2026-04-18T14:05:58.999Z</time></trkpt><trkpt lat="42.14174365762129" lon="13.515423970984662"><ele>1353.0</ele><time>2026-04-18T14:05:59.999Z</time></trkpt><trkpt lat="42.14178652206875" lon="13.515244393281906"><ele>1353.0</ele><time>2026-04-18T14:06:00.999Z</time></trkpt><trkpt lat="42.141818281823305" lon="13.5150777962099"><ele>1353.0</ele><time>2026-04-18T14:06:01.999Z</time></trkpt><trkpt lat="42.1418082999628" lon="13.514924387174485"><ele>1353.0</ele><time>2026-04-18T14:06:02.999Z</time></trkpt><trkpt lat="42.141759726902805" lon="13.514797226533977"><ele>1353.0</ele><time>2026-04-18T14:06:03.999Z</time></trkpt><trkpt lat="42.14167145241963" lon="13.514698760541693"><ele>1353.0</ele><time>2026-04-18T14:06:04.999Z</time></trkpt><trkpt lat="42.14153568575028" lon="13.514580979340025"><ele>1353.0</ele><time>2026-04-18T14:06:05.999Z</time></trkpt><trkpt lat="42.14136127365037" lon="13.514431828671261"><ele>1355.3333333333333</ele><time>2026-04-18T14:06:06.999Z</time></trkpt><trkpt lat="42.14119209803503" lon="13.51426519939496"><ele>1357.6666666666665</ele><time>2026-04-18T14:06:07.999Z</time></trkpt><trkpt lat="42.1410384729727" lon="13.51410194395048"><ele>1360.0</ele><time>2026-04-18T14:06:08.999Z</time></trkpt><trkpt lat="42.140915190159824" lon="13.51393870273717"><ele>1360.0</ele><time>2026-04-18T14:06:09.999Z</time></trkpt><trkpt lat="42.14079066375232" lon="13.513816849709412"><ele>1360.0</ele><time>2026-04-18T14:06:10.999Z</time></trkpt><trkpt lat="42.14067614632425" lon="13.513691544229555"><ele>1360.0</ele><time>2026-04-18T14:06:11.999Z</time></trkpt><trkpt lat="42.14058180431061" lon="13.513582858699136"><ele>1360.0</ele><time>2026-04-18T14:06:12.999Z</time></trkpt><trkpt lat="42.14050091185645" lon="13.51349342803215"><ele>1360.8333333333333</ele><time>2026-04-18T14:06:13.999Z</time></trkpt><trkpt lat="42.140440357043566" lon="13.513417323832195"><ele>1361.6666666666665</ele><time>2026-04-18T14:06:14.999Z</time></trkpt><trkpt lat="42.14040494006327" lon="13.51334217777053"><ele>1362.5</ele><time>2026-04-18T14:06:15.999Z</time></trkpt><trkpt lat="42.14038880552075" lon="13.513220699856992"><ele>1363.3333333333333</ele><time>2026-04-18T14:06:17.999Z</time></trkpt><trkpt lat="42.140467687753976" lon="13.513163305167817"><ele>1364.1666666666667</ele><time>2026-04-18T14:06:18.999Z</time></trkpt><trkpt lat="42.14053425011112" lon="13.513121226425412"><ele>1365.0</ele><time>2026-04-18T14:06:19.999Z</time></trkpt><trkpt lat="42.140613088290074" lon="13.513098336743226"><ele>1362.75</ele><time>2026-04-18T14:06:20.999Z</time></trkpt><trkpt lat="42.140585515834736" lon="13.512867209542442"><ele>1360.5</ele><time>2026-04-18T14:06:22.998Z</time></trkpt><trkpt lat="42.140570986373696" lon="13.51272676132369"><ele>1358.25</ele><time>2026-04-18T14:06:23.998Z</time></trkpt><trkpt lat="42.14053898312567" lon="13.512563337857534"><ele>1356.0</ele><time>2026-04-18T14:06:24.998Z</time></trkpt><trkpt lat="42.14052592842234" lon="13.512351779486483"><ele>1356.0</ele><time>2026-04-18T14:06:25.998Z</time></trkpt><trkpt lat="42.140519353988566" lon="13.512103831961984"><ele>1356.0</ele><time>2026-04-18T14:06:26.998Z</time></trkpt><trkpt lat="42.14051860403845" lon="13.511853287443941"><ele>1356.0</ele><time>2026-04-18T14:06:28Z</time></trkpt><trkpt lat="42.140517915999325" lon="13.511625259312144"><ele>1351.3333333333333</ele><time>2026-04-18T14:06:29Z</time></trkpt><trkpt lat="42.14051646423746" lon="13.511406520027293"><ele>1346.6666666666665</ele><time>2026-04-18T14:06:30Z</time></trkpt><trkpt lat="42.140511707453015" lon="13.51119634589296"><ele>1342.0</ele><time>2026-04-18T14:06:31Z</time></trkpt><trkpt lat="42.14050780216399" lon="13.510991087937963"><ele>1341.0</ele><time>2026-04-18T14:06:32Z</time></trkpt><trkpt lat="42.14050766450381" lon="13.51080817447175"><ele>1340.0</ele><time>2026-04-18T14:06:33Z</time></trkpt><trkpt lat="42.14050911222134" lon="13.510647805240916"><ele>1339.0</ele><time>2026-04-18T14:06:34Z</time></trkpt><trkpt lat="42.14052803729381" lon="13.510506874838432"><ele>1338.0</ele><time>2026-04-18T14:06:35Z</time></trkpt><trkpt lat="42.14057087648173" lon="13.510388613007196"><ele>1337.4</ele><time>2026-04-18T14:06:36Z</time></trkpt><trkpt lat="42.140656907010694" lon="13.51031881005891"><ele>1336.8000000000002</ele><time>2026-04-18T14:06:37Z</time></trkpt><trkpt lat="42.14074488881942" lon="13.510230370882397"><ele>1336.2</ele><time>2026-04-18T14:06:38Z</time></trkpt><trkpt lat="42.140851743444365" lon="13.510150836655482"><ele>1335.6</ele><time>2026-04-18T14:06:39Z</time></trkpt><trkpt lat="42.140945724187695" lon="13.510056129434147"><ele>1335.0</ele><time>2026-04-18T14:06:40Z</time></trkpt><trkpt lat="42.14100918705088" lon="13.509937592369539"><ele>1338.0</ele><time>2026-04-18T14:06:41Z</time></trkpt><trkpt lat="42.14104366944108" lon="13.509794967649631"><ele>1341.0</ele><time>2026-04-18T14:06:42Z</time></trkpt><trkpt lat="42.14105305043129" lon="13.50964472553797"><ele>1344.0</ele><time>2026-04-18T14:06:43Z</time></trkpt><trkpt lat="42.14103647264599" lon="13.509502224683194"><ele>1347.0</ele><time>2026-04-18T14:06:44Z</time></trkpt><trkpt lat="42.140988232778675" lon="13.509365103138911"><ele>1350.0</ele><time>2026-04-18T14:06:45Z</time></trkpt><trkpt lat="42.140922609467694" lon="13.509232470527218"><ele>1350.25</ele><time>2026-04-18T14:06:46Z</time></trkpt><trkpt lat="42.14084602071077" lon="13.509110896276384"><ele>1350.5</ele><time>2026-04-18T14:06:47Z</time></trkpt><trkpt lat="42.14073670488986" lon="13.509030485321862"><ele>1350.75</ele><time>2026-04-18T14:06:48Z</time></trkpt><trkpt lat="42.14062802917738" lon="13.508973568199377"><ele>1351.0</ele><time>2026-04-18T14:06:49Z</time></trkpt><trkpt lat="42.14050946661706" lon="13.508948064758416"><ele>1349.0</ele><time>2026-04-18T14:06:50Z</time></trkpt><trkpt lat="42.14039103082697" lon="13.5089622488069"><ele>1347.0</ele><time>2026-04-18T14:06:51Z</time></trkpt><trkpt lat="42.14027399710619" lon="13.509023013187175"><ele>1345.0</ele><time>2026-04-18T14:06:52Z</time></trkpt><trkpt lat="42.14016156481211" lon="13.509114346649614"><ele>1343.0</ele><time>2026-04-18T14:06:53Z</time></trkpt><trkpt lat="42.14005645956339" lon="13.509234788079095"><ele>1343.0</ele><time>2026-04-18T14:06:54Z</time></trkpt><trkpt lat="42.13997529506185" lon="13.509394568296557"><ele>1343.0</ele><time>2026-04-18T14:06:55Z</time></trkpt><trkpt lat="42.13992289892091" lon="13.50958520067671"><ele>1343.0</ele><time>2026-04-18T14:06:56Z</time></trkpt><trkpt lat="42.13989669831436" lon="13.509795320091488"><ele>1338.0</ele><time>2026-04-18T14:06:57Z</time></trkpt><trkpt lat="42.13987420567428" lon="13.510003969296799"><ele>1333.0</ele><time>2026-04-18T14:06:58Z</time></trkpt><trkpt lat="42.13986158052114" lon="13.510221273220218"><ele>1328.0</ele><time>2026-04-18T14:06:59Z</time></trkpt><trkpt lat="42.139833141941644" lon="13.510436300093627"><ele>1327.5</ele><time>2026-04-18T14:07:00Z</time></trkpt><trkpt lat="42.13979152197997" lon="13.5106427464712"><ele>1327.0</ele><time>2026-04-18T14:07:00.999Z</time></trkpt><trkpt lat="42.13974905053415" lon="13.51082685348182"><ele>1326.5</ele><time>2026-04-18T14:07:01.999Z</time></trkpt><trkpt lat="42.1397056738991" lon="13.510989087392213"><ele>1326.0</ele><time>2026-04-18T14:07:02.999Z</time></trkpt><trkpt lat="42.13965588335647" lon="13.511131335711124"><ele>1326.0</ele><time>2026-04-18T14:07:03.999Z</time></trkpt><trkpt lat="42.13956964539695" lon="13.511221038660647"><ele>1326.0</ele><time>2026-04-18T14:07:04.999Z</time></trkpt><trkpt lat="42.13949669265039" lon="13.511297681567417"><ele>1326.0</ele><time>2026-04-18T14:07:05.999Z</time></trkpt><trkpt lat="42.13940042069799" lon="13.511327645358579"><ele>1326.0</ele><time>2026-04-18T14:07:06.999Z</time></trkpt><trkpt lat="42.13930692257393" lon="13.511311895702732"><ele>1326.0</ele><time>2026-04-18T14:07:07.999Z</time></trkpt><trkpt lat="42.13919903743231" lon="13.511271314138614"><ele>1326.0</ele><time>2026-04-18T14:07:08.999Z</time></trkpt><trkpt lat="42.13909020840557" lon="13.51121876387624"><ele>1326.0</ele><time>2026-04-18T14:07:09.999Z</time></trkpt><trkpt lat="42.13898926987649" lon="13.511153542111801"><ele>1326.0</ele><time>2026-04-18T14:07:10.999Z</time></trkpt><trkpt lat="42.13891160598225" lon="13.511053852336664"><ele>1326.0</ele><time>2026-04-18T14:07:11.999Z</time></trkpt><trkpt lat="42.13886590625401" lon="13.510943369805409"><ele>1326.0</ele><time>2026-04-18T14:07:12.999Z</time></trkpt><trkpt lat="42.138833231077996" lon="13.510793869279928"><ele>1325.25</ele><time>2026-04-18T14:07:13.999Z</time></trkpt><trkpt lat="42.1388126177031" lon="13.510601669911782"><ele>1324.5</ele><time>2026-04-18T14:07:14.999Z</time></trkpt><trkpt lat="42.1388099551697" lon="13.51037544689787"><ele>1323.75</ele><time>2026-04-18T14:07:15.999Z</time></trkpt><trkpt lat="42.1387818722114" lon="13.510199993695052"><ele>1323.0</ele><time>2026-04-18T14:07:16.999Z</time></trkpt><trkpt lat="42.13876129176357" lon="13.510026966521554"><ele>1323.0</ele><time>2026-04-18T14:07:17.999Z</time></trkpt><trkpt lat="42.13874168663563" lon="13.509847648708407"><ele>1323.0</ele><time>2026-04-18T14:07:18.999Z</time></trkpt><trkpt lat="42.13872356755906" lon="13.5096819239547"><ele>1323.0</ele><time>2026-04-18T14:07:19.999Z</time></trkpt><trkpt lat="42.13871407687545" lon="13.509533526055277"><ele>1323.0</ele><time>2026-04-18T14:07:20.999Z</time></trkpt><trkpt lat="42.13868313480431" lon="13.509390907834254"><ele>1317.75</ele><time>2026-04-18T14:07:21.999Z</time></trkpt><trkpt lat="42.13870875756579" lon="13.509229749349421"><ele>1312.5</ele><time>2026-04-18T14:07:23.999Z</time></trkpt><trkpt lat="42.1386964601109" lon="13.509138142568801"><ele>1307.25</ele><time>2026-04-18T14:07:24.999Z</time></trkpt><trkpt lat="42.13877858858873" lon="13.5089755229467"><ele>1302.0</ele><time>2026-04-18T14:07:25.999Z</time></trkpt><trkpt lat="42.138868069823275" lon="13.508769273723665"><ele>1297.3333333333333</ele><time>2026-04-18T14:07:26.999Z</time></trkpt><trkpt lat="42.13894814080087" lon="13.50855680431218"><ele>1292.6666666666665</ele><time>2026-04-18T14:07:27.999Z</time></trkpt><trkpt lat="42.13901047907929" lon="13.508378096312109"><ele>1288.0</ele><time>2026-04-18T14:07:28.999Z</time></trkpt><trkpt lat="42.139077447079586" lon="13.508219136599232"><ele>1290.8000000000002</ele><time>2026-04-18T14:07:29.999Z</time></trkpt><trkpt lat="42.1391361474309" lon="13.508088711245033"><ele>1293.6</ele><time>2026-04-18T14:07:30.999Z</time></trkpt><trkpt lat="42.13920737774995" lon="13.507939055900188"><ele>1296.4</ele><time>2026-04-18T14:07:31.999Z</time></trkpt><trkpt lat="42.13927193450111" lon="13.507857730894056"><ele>1299.1999999999998</ele><time>2026-04-18T14:07:32.999Z</time></trkpt><trkpt lat="42.13934044886463" lon="13.507758487201253"><ele>1302.0</ele><time>2026-04-18T14:07:33.999Z</time></trkpt><trkpt lat="42.13938051487723" lon="13.50764973160333"><ele>1302.0</ele><time>2026-04-18T14:07:34.999Z</time></trkpt><trkpt lat="42.13937311749152" lon="13.507525850228383"><ele>1302.0</ele><time>2026-04-18T14:07:35.999Z</time></trkpt><trkpt lat="42.13932869291785" lon="13.507441027486777"><ele>1302.0</ele><time>2026-04-18T14:07:36.999Z</time></trkpt><trkpt lat="42.13919160038709" lon="13.50740835660493"><ele>1302.0</ele><time>2026-04-18T14:07:38.999Z</time></trkpt><trkpt lat="42.139097214959" lon="13.507496071163638"><ele>1302.0</ele><time>2026-04-18T14:07:39.999Z</time></trkpt><trkpt lat="42.13903367306642" lon="13.507670703076446"><ele>1297.3333333333333</ele><time>2026-04-18T14:07:40.999Z</time></trkpt><trkpt lat="42.1389801191534" lon="13.50783782999575"><ele>1292.6666666666665</ele><time>2026-04-18T14:07:41.999Z</time></trkpt><trkpt lat="42.13891952534641" lon="13.50803069867709"><ele>1288.0</ele><time>2026-04-18T14:07:42.999Z</time></trkpt><trkpt lat="42.13883872837267" lon="13.508227503493611"><ele>1288.0</ele><time>2026-04-18T14:07:43.999Z</time></trkpt><trkpt lat="42.138755668596666" lon="13.508381632930128"><ele>1288.0</ele><time>2026-04-18T14:07:44.999Z</time></trkpt><trkpt lat="42.138661631966976" lon="13.508548468393428"><ele>1288.0</ele><time>2026-04-18T14:07:45.999Z</time></trkpt><trkpt lat="42.138560169886695" lon="13.508727302240924"><ele>1288.3333333333333</ele><time>2026-04-18T14:07:46.999Z</time></trkpt><trkpt lat="42.13844320825294" lon="13.508917924603367"><ele>1288.6666666666667</ele><time>2026-04-18T14:07:47.999Z</time></trkpt><trkpt lat="42.138312962357475" lon="13.509065515281524"><ele>1289.0</ele><time>2026-04-18T14:07:48.999Z</time></trkpt><trkpt lat="42.13816793538145" lon="13.509141361141369"><ele>1289.0</ele><time>2026-04-18T14:07:49.999Z</time></trkpt><trkpt lat="42.138011707565546" lon="13.509159041674119"><ele>1289.0</ele><time>2026-04-18T14:07:50.999Z</time></trkpt><trkpt lat="42.13784063802895" lon="13.509188226842774"><ele>1289.0</ele><time>2026-04-18T14:07:51.999Z</time></trkpt><trkpt lat="42.137610976773246" lon="13.509261723699806"><ele>1282.0</ele><time>2026-04-18T14:07:52.999Z</time></trkpt><trkpt lat="42.13737104593686" lon="13.509339532517748"><ele>1275.0</ele><time>2026-04-18T14:07:53.999Z</time></trkpt><trkpt lat="42.137165814719275" lon="13.509444427942178"><ele>1275.0</ele><time>2026-04-18T14:07:54.999Z</time></trkpt><trkpt lat="42.13698457170053" lon="13.509556433071046"><ele>1275.0</ele><time>2026-04-18T14:07:55.999Z</time></trkpt><trkpt lat="42.13680818917514" lon="13.509663212265853"><ele>1275.0</ele><time>2026-04-18T14:07:56.999Z</time></trkpt><trkpt lat="42.13663905972914" lon="13.509771024973706"><ele>1276.3333333333333</ele><time>2026-04-18T14:07:57.999Z</time></trkpt><trkpt lat="42.13647585479982" lon="13.50986530598854"><ele>1277.6666666666665</ele><time>2026-04-18T14:07:58.999Z</time></trkpt><trkpt lat="42.13632333310189" lon="13.509951666154489"><ele>1279.0</ele><time>2026-04-18T14:07:59.999Z</time></trkpt><trkpt lat="42.136172933804964" lon="13.510035803157558"><ele>1279.0</ele><time>2026-04-18T14:08:00.999Z</time></trkpt><trkpt lat="42.136025665329804" lon="13.5101118979864"><ele>1279.0</ele><time>2026-04-18T14:08:01.999Z</time></trkpt><trkpt lat="42.135874025682185" lon="13.510192794109201"><ele>1279.0</ele><time>2026-04-18T14:08:02.999Z</time></trkpt><trkpt lat="42.13571681633463" lon="13.51028395949025"><ele>1278.6666666666665</ele><time>2026-04-18T14:08:03.999Z</time></trkpt><trkpt lat="42.135552804321904" lon="13.510407605746268"><ele>1278.3333333333333</ele><time>2026-04-18T14:08:04.999Z</time></trkpt><trkpt lat="42.135354868825196" lon="13.510563183688728"><ele>1278.0</ele><time>2026-04-18T14:08:05.999Z</time></trkpt><trkpt lat="42.13515562673657" lon="13.510745082938744"><ele>1278.0</ele><time>2026-04-18T14:08:06.999Z</time></trkpt><trkpt lat="42.134961017992055" lon="13.510945920769004"><ele>1278.0</ele><time>2026-04-18T14:08:07.999Z</time></trkpt><trkpt lat="42.13476182789545" lon="13.511113919141607"><ele>1275.6666666666667</ele><time>2026-04-18T14:08:08.999Z</time></trkpt><trkpt lat="42.134582450920384" lon="13.511277938584389"><ele>1273.3333333333335</ele><time>2026-04-18T14:08:09.999Z</time></trkpt><trkpt lat="42.134408729764054" lon="13.511433435988664"><ele>1271.0</ele><time>2026-04-18T14:08:10.999Z</time></trkpt><trkpt lat="42.13424257193044" lon="13.511582691314544"><ele>1271.0</ele><time>2026-04-18T14:08:11.999Z</time></trkpt><trkpt lat="42.13408839096029" lon="13.511731405085294"><ele>1271.0</ele><time>2026-04-18T14:08:12.999Z</time></trkpt><trkpt lat="42.13394424552242" lon="13.511879236378862"><ele>1271.0</ele><time>2026-04-18T14:08:13.999Z</time></trkpt><trkpt lat="42.133796120046306" lon="13.512006488719134"><ele>1270.3333333333335</ele><time>2026-04-18T14:08:14.999Z</time></trkpt><trkpt lat="42.13364408866461" lon="13.512108540708317"><ele>1269.6666666666667</ele><time>2026-04-18T14:08:15.999Z</time></trkpt><trkpt lat="42.133495245517416" lon="13.512208206215533"><ele>1269.0</ele><time>2026-04-18T14:08:16.999Z</time></trkpt><trkpt lat="42.13336879123212" lon="13.51233720968401"><ele>1269.0</ele><time>2026-04-18T14:08:17.999Z</time></trkpt><trkpt lat="42.133245136754766" lon="13.51247752042605"><ele>1269.0</ele><time>2026-04-18T14:08:18.999Z</time></trkpt><trkpt lat="42.133127520962496" lon="13.512609776095998"><ele>1269.0</ele><time>2026-04-18T14:08:19.999Z</time></trkpt><trkpt lat="42.1330168746217" lon="13.512718566388209"><ele>1270.75</ele><time>2026-04-18T14:08:20.999Z</time></trkpt><trkpt lat="42.13291403385137" lon="13.512817445865542"><ele>1272.5</ele><time>2026-04-18T14:08:21.999Z</time></trkpt><trkpt lat="42.13278807532765" lon="13.512895760157884"><ele>1274.25</ele><time>2026-04-18T14:08:22.999Z</time></trkpt><trkpt lat="42.13261098376825" lon="13.512948196181602"><ele>1276.0</ele><time>2026-04-18T14:08:23.999Z</time></trkpt><trkpt lat="42.13241325262436" lon="13.513016418907277"><ele>1267.5</ele><time>2026-04-18T14:08:24.999Z</time></trkpt><trkpt lat="42.1321925417768" lon="13.513102510584789"><ele>1259.0</ele><time>2026-04-18T14:08:25.999Z</time></trkpt><trkpt lat="42.13194905452975" lon="13.513191468517721"><ele>1259.0</ele><time>2026-04-18T14:08:26.999Z</time></trkpt><trkpt lat="42.13168591214706" lon="13.513283453843634"><ele>1259.0</ele><time>2026-04-18T14:08:27.998Z</time></trkpt><trkpt lat="42.131423247823" lon="13.513349884554215"><ele>1254.0</ele><time>2026-04-18T14:08:28.998Z</time></trkpt><trkpt lat="42.1311785413596" lon="13.513391098825393"><ele>1249.0</ele><time>2026-04-18T14:08:29.998Z</time></trkpt><trkpt lat="42.13094272658489" lon="13.51343312301728"><ele>1242.0</ele><time>2026-04-18T14:08:30.998Z</time></trkpt><trkpt lat="42.13071917783799" lon="13.513478429409592"><ele>1235.0</ele><time>2026-04-18T14:08:31.998Z</time></trkpt><trkpt lat="42.13050569238126" lon="13.513517036337834"><ele>1228.0</ele><time>2026-04-18T14:08:33Z</time></trkpt><trkpt lat="42.130306349501005" lon="13.513559460886354"><ele>1228.0</ele><time>2026-04-18T14:08:34Z</time></trkpt><trkpt lat="42.130120784370476" lon="13.513604398345667"><ele>1228.0</ele><time>2026-04-18T14:08:35Z</time></trkpt><trkpt lat="42.129939944072525" lon="13.513640521253043"><ele>1228.0</ele><time>2026-04-18T14:08:36Z</time></trkpt><trkpt lat="42.12976985102992" lon="13.513682055080736"><ele>1226.0</ele><time>2026-04-18T14:08:37Z</time></trkpt><trkpt lat="42.12961081510755" lon="13.513731305328786"><ele>1224.0</ele><time>2026-04-18T14:08:38Z</time></trkpt><trkpt lat="42.129457305508794" lon="13.513778848064145"><ele>1222.0</ele><time>2026-04-18T14:08:39Z</time></trkpt><trkpt lat="42.129309434531145" lon="13.513820132164025"><ele>1225.75</ele><time>2026-04-18T14:08:40Z</time></trkpt><trkpt lat="42.12916799708247" lon="13.513861879477744"><ele>1229.5</ele><time>2026-04-18T14:08:41Z</time></trkpt><trkpt lat="42.129034367629" lon="13.51390181501988"><ele>1233.25</ele><time>2026-04-18T14:08:42Z</time></trkpt><trkpt lat="42.128910413519925" lon="13.513945384782684"><ele>1237.0</ele><time>2026-04-18T14:08:43Z</time></trkpt><trkpt lat="42.12880506318396" lon="13.513999421647993"><ele>1237.0</ele><time>2026-04-18T14:08:44Z</time></trkpt><trkpt lat="42.12870287157387" lon="13.514028764287719"><ele>1237.0</ele><time>2026-04-18T14:08:45Z</time></trkpt><trkpt lat="42.12861992899063" lon="13.51406630243265"><ele>1237.0</ele><time>2026-04-18T14:08:46Z</time></trkpt><trkpt lat="42.12854548404724" lon="13.514084945517146"><ele>1237.0</ele><time>2026-04-18T14:08:47Z</time></trkpt><trkpt lat="42.128480730829985" lon="13.514066985937475"><ele>1237.0</ele><time>2026-04-18T14:08:48Z</time></trkpt><trkpt lat="42.1284264469265" lon="13.514007585652752"><ele>1237.0</ele><time>2026-04-18T14:08:49Z</time></trkpt><trkpt lat="42.128421366049466" lon="13.513899006570803"><ele>1237.0</ele><time>2026-04-18T14:08:50Z</time></trkpt><trkpt lat="42.12847179840666" lon="13.513799665255666"><ele>1237.0</ele><time>2026-04-18T14:08:51Z</time></trkpt><trkpt lat="42.128553967885935" lon="13.513759251256273"><ele>1237.0</ele><time>2026-04-18T14:08:52Z</time></trkpt><trkpt lat="42.12866078374892" lon="13.513759119642758"><ele>1237.0</ele><time>2026-04-18T14:08:53Z</time></trkpt><trkpt lat="42.12879398322154" lon="13.513778340446555"><ele>1237.0</ele><time>2026-04-18T14:08:54Z</time></trkpt><trkpt lat="42.128964137128136" lon="13.513743326918958"><ele>1229.5</ele><time>2026-04-18T14:08:55Z</time></trkpt><trkpt lat="42.12916819277558" lon="13.513670913121192"><ele>1222.0</ele><time>2026-04-18T14:08:56Z</time></trkpt><trkpt lat="42.12943728778723" lon="13.513551625729674"><ele>1222.0</ele><time>2026-04-18T14:08:58Z</time></trkpt><trkpt lat="42.129734049866876" lon="13.513407258297619"><ele>1222.0</ele><time>2026-04-18T14:08:59Z</time></trkpt><trkpt lat="42.1299986769714" lon="13.513279446560961"><ele>1225.0</ele><time>2026-04-18T14:09:00Z</time></trkpt><trkpt lat="42.130249654841485" lon="13.513157048708132"><ele>1228.0</ele><time>2026-04-18T14:09:01Z</time></trkpt><trkpt lat="42.13048765153965" lon="13.513039179330473"><ele>1228.0</ele><time>2026-04-18T14:09:02Z</time></trkpt><trkpt lat="42.13068489655894" lon="13.512941245886305"><ele>1228.0</ele><time>2026-04-18T14:09:03Z</time></trkpt><trkpt lat="42.130872169494346" lon="13.512848330254602"><ele>1228.0</ele><time>2026-04-18T14:09:04Z</time></trkpt><trkpt lat="42.13104775483429" lon="13.512761684059857"><ele>1222.0</ele><time>2026-04-18T14:09:05Z</time></trkpt><trkpt lat="42.131215037531966" lon="13.512680490912771"><ele>1216.0</ele><time>2026-04-18T14:09:05.999Z</time></trkpt><trkpt lat="42.131366624947965" lon="13.512609354939034"><ele>1210.0</ele><time>2026-04-18T14:09:06.999Z</time></trkpt><trkpt lat="42.13152396074407" lon="13.512530332998109"><ele>1212.75</ele><time>2026-04-18T14:09:07.999Z</time></trkpt><trkpt lat="42.13167000987145" lon="13.512517742886399"><ele>1215.5</ele><time>2026-04-18T14:09:08.999Z</time></trkpt><trkpt lat="42.13180332182662" lon="13.51249891087517"><ele>1218.25</ele><time>2026-04-18T14:09:09.999Z</time></trkpt><trkpt lat="42.13192072244391" lon="13.512489829302112"><ele>1221.0</ele><time>2026-04-18T14:09:10.999Z</time></trkpt><trkpt lat="42.132011568074304" lon="13.512469541699494"><ele>1221.0</ele><time>2026-04-18T14:09:11.999Z</time></trkpt><trkpt lat="42.13210393847122" lon="13.512451434378399"><ele>1221.0</ele><time>2026-04-18T14:09:12.999Z</time></trkpt><trkpt lat="42.13216532033159" lon="13.512357063987537"><ele>1221.0</ele><time>2026-04-18T14:09:13.999Z</time></trkpt><trkpt lat="42.13217147819514" lon="13.512258089075841"><ele>1221.0</ele><time>2026-04-18T14:09:14.999Z</time></trkpt><trkpt lat="42.13213110782139" lon="13.512162963996488"><ele>1221.0</ele><time>2026-04-18T14:09:15.999Z</time></trkpt><trkpt lat="42.13206836424096" lon="13.512083286500717"><ele>1221.0</ele><time>2026-04-18T14:09:16.999Z</time></trkpt><trkpt lat="42.131961603732975" lon="13.512081522543177"><ele>1221.0</ele><time>2026-04-18T14:09:17.999Z</time></trkpt><trkpt lat="42.131836304684526" lon="13.512105360264352"><ele>1221.0</ele><time>2026-04-18T14:09:18.999Z</time></trkpt><trkpt lat="42.1315643532463" lon="13.512237303515434"><ele>1221.0</ele><time>2026-04-18T14:09:19.999Z</time></trkpt><trkpt lat="42.13135715856483" lon="13.512322396178307"><ele>1215.5</ele><time>2026-04-18T14:09:20.999Z</time></trkpt><trkpt lat="42.13111686206564" lon="13.512372792310702"><ele>1210.0</ele><time>2026-04-18T14:09:21.999Z</time></trkpt><trkpt lat="42.130848496863955" lon="13.51241795354765"><ele>1204.5</ele><time>2026-04-18T14:09:22.999Z</time></trkpt><trkpt lat="42.130565945918924" lon="13.512463176896128"><ele>1199.0</ele><time>2026-04-18T14:09:23.999Z</time></trkpt><trkpt lat="42.13032335095529" lon="13.512513427845517"><ele>1199.0</ele><time>2026-04-18T14:09:24.999Z</time></trkpt><trkpt lat="42.13009420322977" lon="13.512554985013573"><ele>1199.0</ele><time>2026-04-18T14:09:25.999Z</time></trkpt><trkpt lat="42.129882162130514" lon="13.512601679852496"><ele>1199.0</ele><time>2026-04-18T14:09:26.999Z</time></trkpt><trkpt lat="42.12968082357799" lon="13.512647602476951"><ele>1194.3333333333335</ele><time>2026-04-18T14:09:27.999Z</time></trkpt><trkpt lat="42.129485618966676" lon="13.512680596646671"><ele>1189.6666666666667</ele><time>2026-04-18T14:09:28.999Z</time></trkpt><trkpt lat="42.12930632808083" lon="13.512713565756243"><ele>1185.0</ele><time>2026-04-18T14:09:29.999Z</time></trkpt><trkpt lat="42.12913832671556" lon="13.512749447837054"><ele>1183.0</ele><time>2026-04-18T14:09:30.999Z</time></trkpt><trkpt lat="42.12896159889189" lon="13.512765807715768"><ele>1181.0</ele><time>2026-04-18T14:09:31.999Z</time></trkpt><trkpt lat="42.128759946079064" lon="13.512773141767433"><ele>1179.0</ele><time>2026-04-18T14:09:32.999Z</time></trkpt><trkpt lat="42.12856086627638" lon="13.51276283772556"><ele>1179.0</ele><time>2026-04-18T14:09:33.999Z</time></trkpt><trkpt lat="42.1283779923721" lon="13.512745555228372"><ele>1179.0</ele><time>2026-04-18T14:09:34.999Z</time></trkpt><trkpt lat="42.128202195357446" lon="13.51273098735923"><ele>1179.0</ele><time>2026-04-18T14:09:35.999Z</time></trkpt><trkpt lat="42.12803162499262" lon="13.512748557524379"><ele>1178.0</ele><time>2026-04-18T14:09:36.999Z</time></trkpt><trkpt lat="42.127838514718114" lon="13.512830494768835"><ele>1177.0</ele><time>2026-04-18T14:09:37.999Z</time></trkpt><trkpt lat="42.12760640870837" lon="13.512925090818415"><ele>1176.0</ele><time>2026-04-18T14:09:38.999Z</time></trkpt><trkpt lat="42.1273636097317" lon="13.513037711896056"><ele>1176.0</ele><time>2026-04-18T14:09:39.999Z</time></trkpt><trkpt lat="42.127140948707634" lon="13.5131824125559"><ele>1176.0</ele><time>2026-04-18T14:09:40.999Z</time></trkpt><trkpt lat="42.12693705353986" lon="13.513321822272355"><ele>1176.0</ele><time>2026-04-18T14:09:41.999Z</time></trkpt><trkpt lat="42.126757534437" lon="13.513465916525336"><ele>1176.0</ele><time>2026-04-18T14:09:42.999Z</time></trkpt><trkpt lat="42.12659915267466" lon="13.513592122846681"><ele>1176.0</ele><time>2026-04-18T14:09:43.999Z</time></trkpt><trkpt lat="42.12643698775323" lon="13.513693268744008"><ele>1176.6666666666667</ele><time>2026-04-18T14:09:44.999Z</time></trkpt><trkpt lat="42.126254967841966" lon="13.513742170053352"><ele>1177.3333333333335</ele><time>2026-04-18T14:09:45.999Z</time></trkpt><trkpt lat="42.12607791358051" lon="13.513791260668057"><ele>1178.0</ele><time>2026-04-18T14:09:46.999Z</time></trkpt><trkpt lat="42.1259255347408" lon="13.513860975901833"><ele>1178.0</ele><time>2026-04-18T14:09:47.999Z</time></trkpt><trkpt lat="42.12579687477637" lon="13.513983318188725"><ele>1178.0</ele><time>2026-04-18T14:09:48.999Z</time></trkpt><trkpt lat="42.12568864565461" lon="13.514136100154081"><ele>1178.0</ele><time>2026-04-18T14:09:49.999Z</time></trkpt><trkpt lat="42.1255903939509" lon="13.514293110383207"><ele>1173.0</ele><time>2026-04-18T14:09:50.999Z</time></trkpt><trkpt lat="42.125507497495434" lon="13.514419787701362"><ele>1168.0</ele><time>2026-04-18T14:09:51.999Z</time></trkpt><trkpt lat="42.12541383338809" lon="13.514505542741261"><ele>1163.0</ele><time>2026-04-18T14:09:52.999Z</time></trkpt><trkpt lat="42.125312545476795" lon="13.514548314060235"><ele>1158.0</ele><time>2026-04-18T14:09:53.999Z</time></trkpt><trkpt lat="42.12519640621646" lon="13.514522478667836"><ele>1158.0</ele><time>2026-04-18T14:09:54.999Z</time></trkpt><trkpt lat="42.12508017343088" lon="13.514448056903749"><ele>1158.0</ele><time>2026-04-18T14:09:55.999Z</time></trkpt><trkpt lat="42.12497415497902" lon="13.514378455192118"><ele>1158.0</ele><time>2026-04-18T14:09:56.999Z</time></trkpt><trkpt lat="42.12488495505529" lon="13.514395231444043"><ele>1158.0</ele><time>2026-04-18T14:09:57.999Z</time></trkpt><trkpt lat="42.12479777286311" lon="13.514481297007856"><ele>1158.0</ele><time>2026-04-18T14:09:58.999Z</time></trkpt><trkpt lat="42.124744824956565" lon="13.514606638110264"><ele>1156.1666666666667</ele><time>2026-04-18T14:09:59.999Z</time></trkpt><trkpt lat="42.12470801845205" lon="13.514719786350183"><ele>1154.3333333333333</ele><time>2026-04-18T14:10:00.999Z</time></trkpt><trkpt lat="42.12465960323747" lon="13.51478027999822"><ele>1152.5</ele><time>2026-04-18T14:10:01.999Z</time></trkpt><trkpt lat="42.12458040193268" lon="13.51477431468791"><ele>1150.6666666666665</ele><time>2026-04-18T14:10:02.999Z</time></trkpt><trkpt lat="42.124506135118736" lon="13.514691624882584"><ele>1148.8333333333333</ele><time>2026-04-18T14:10:03.999Z</time></trkpt><trkpt lat="42.12450629748533" lon="13.51457026356812"><ele>1147.0</ele><time>2026-04-18T14:10:04.999Z</time></trkpt><trkpt lat="42.1245361299151" lon="13.514462485942557"><ele>1147.0</ele><time>2026-04-18T14:10:05.999Z</time></trkpt><trkpt lat="42.1246411961811" lon="13.51439851119544"><ele>1147.0</ele><time>2026-04-18T14:10:06.999Z</time></trkpt><trkpt lat="42.12473275281409" lon="13.514298213275778"><ele>1147.0</ele><time>2026-04-18T14:10:07.999Z</time></trkpt><trkpt lat="42.124831430801066" lon="13.514215437210568"><ele>1147.0</ele><time>2026-04-18T14:10:08.999Z</time></trkpt><trkpt lat="42.124915284760995" lon="13.51418887687018"><ele>1147.0</ele><time>2026-04-18T14:10:09.999Z</time></trkpt><trkpt lat="42.125263675239125" lon="13.514117003795278"><ele>1150.6666666666665</ele><time>2026-04-18T14:10:12.999Z</time></trkpt><trkpt lat="42.12532711500358" lon="13.513884882087085"><ele>1154.3333333333333</ele><time>2026-04-18T14:10:13.999Z</time></trkpt><trkpt lat="42.125418294862754" lon="13.513681031492117"><ele>1158.0</ele><time>2026-04-18T14:10:14.999Z</time></trkpt><trkpt lat="42.12553814256214" lon="13.513478489457757"><ele>1156.0</ele><time>2026-04-18T14:10:15.999Z</time></trkpt><trkpt lat="42.12568046571813" lon="13.513315879216577"><ele>1154.0</ele><time>2026-04-18T14:10:16.999Z</time></trkpt><trkpt lat="42.12589236801486" lon="13.513171836536168"><ele>1152.0</ele><time>2026-04-18T14:10:17.999Z</time></trkpt><trkpt lat="42.12603709384894" lon="13.513008553014682"><ele>1145.6666666666667</ele><time>2026-04-18T14:10:18.999Z</time></trkpt><trkpt lat="42.12615979847957" lon="13.512831819834616"><ele>1139.3333333333335</ele><time>2026-04-18T14:10:19.999Z</time></trkpt><trkpt lat="42.12626344801164" lon="13.512654573851023"><ele>1133.0</ele><time>2026-04-18T14:10:20.999Z</time></trkpt><trkpt lat="42.12633859006407" lon="13.51246524813483"><ele>1133.0</ele><time>2026-04-18T14:10:21.999Z</time></trkpt><trkpt lat="42.12641206834271" lon="13.512279016370647"><ele>1133.0</ele><time>2026-04-18T14:10:22.999Z</time></trkpt><trkpt lat="42.12652358020845" lon="13.512115839822593"><ele>1133.0</ele><time>2026-04-18T14:10:23.999Z</time></trkpt><trkpt lat="42.126639584252324" lon="13.511994509427087"><ele>1135.75</ele><time>2026-04-18T14:10:24.999Z</time></trkpt><trkpt lat="42.12675653932645" lon="13.511903574386947"><ele>1138.5</ele><time>2026-04-18T14:10:25.999Z</time></trkpt><trkpt lat="42.12688598412715" lon="13.511871519259993"><ele>1141.25</ele><time>2026-04-18T14:10:26.999Z</time></trkpt><trkpt lat="42.126994986353495" lon="13.511820124354962"><ele>1144.0</ele><time>2026-04-18T14:10:27.999Z</time></trkpt><trkpt lat="42.127070937996116" lon="13.511770960489166"><ele>1144.0</ele><time>2026-04-18T14:10:28.999Z</time></trkpt><trkpt lat="42.12713030123149" lon="13.511681973259352"><ele>1144.0</ele><time>2026-04-18T14:10:29.999Z</time></trkpt><trkpt lat="42.12710003219597" lon="13.511560711894465"><ele>1144.0</ele><time>2026-04-18T14:10:30.999Z</time></trkpt><trkpt lat="42.12700890028861" lon="13.51146089788093"><ele>1144.0</ele><time>2026-04-18T14:10:31.999Z</time></trkpt><trkpt lat="42.126911439299626" lon="13.511460306120366"><ele>1144.0</ele><time>2026-04-18T14:10:32.998Z</time></trkpt><trkpt lat="42.126806666298826" lon="13.511528436586113"><ele>1144.0</ele><time>2026-04-18T14:10:33.998Z</time></trkpt><trkpt lat="42.12667494725573" lon="13.511672764412625"><ele>1144.0</ele><time>2026-04-18T14:10:34.998Z</time></trkpt><trkpt lat="42.126508712734214" lon="13.511793691289643"><ele>1144.0</ele><time>2026-04-18T14:10:35.998Z</time></trkpt><trkpt lat="42.12635247621481" lon="13.51192157564458"><ele>1142.0</ele><time>2026-04-18T14:10:36.998Z</time></trkpt><trkpt lat="42.12620522182616" lon="13.512071808796657"><ele>1140.0</ele><time>2026-04-18T14:10:37.998Z</time></trkpt><trkpt lat="42.12603398822794" lon="13.51224541207459"><ele>1138.0</ele><time>2026-04-18T14:10:39Z</time></trkpt><trkpt lat="42.125872273241505" lon="13.512377179206734"><ele>1131.6666666666665</ele><time>2026-04-18T14:10:40Z</time></trkpt><trkpt lat="42.12572247572273" lon="13.512507330180147"><ele>1125.3333333333333</ele><time>2026-04-18T14:10:41Z</time></trkpt><trkpt lat="42.125580294492046" lon="13.51263869293381"><ele>1119.0</ele><time>2026-04-18T14:10:42Z</time></trkpt><trkpt lat="42.125445452468945" lon="13.512771556510584"><ele>1119.0</ele><time>2026-04-18T14:10:43Z</time></trkpt><trkpt lat="42.125311197898604" lon="13.512892863320069"><ele>1119.0</ele><time>2026-04-18T14:10:44Z</time></trkpt><trkpt lat="42.12518030763386" lon="13.513006544800346"><ele>1119.0</ele><time>2026-04-18T14:10:45Z</time></trkpt><trkpt lat="42.12505443781955" lon="13.513119477279142"><ele>1117.6666666666667</ele><time>2026-04-18T14:10:46Z</time></trkpt><trkpt lat="42.12492710829104" lon="13.513221462402944"><ele>1116.3333333333335</ele><time>2026-04-18T14:10:47Z</time></trkpt><trkpt lat="42.12478854739647" lon="13.513301461866162"><ele>1115.0</ele><time>2026-04-18T14:10:48Z</time></trkpt><trkpt lat="42.12463650020274" lon="13.513359004934866"><ele>1115.0</ele><time>2026-04-18T14:10:49Z</time></trkpt><trkpt lat="42.12446476021659" lon="13.513392356898546"><ele>1115.0</ele><time>2026-04-18T14:10:50Z</time></trkpt><trkpt lat="42.1242946718823" lon="13.513408545369106"><ele>1115.0</ele><time>2026-04-18T14:10:51Z</time></trkpt><trkpt lat="42.12415019458598" lon="13.513419775102996"><ele>1112.75</ele><time>2026-04-18T14:10:52Z</time></trkpt><trkpt lat="42.12402402482182" lon="13.513431431686449"><ele>1110.5</ele><time>2026-04-18T14:10:53Z</time></trkpt><trkpt lat="42.12389888386009" lon="13.513444077814249"><ele>1108.25</ele><time>2026-04-18T14:10:54Z</time></trkpt><trkpt lat="42.123777475712124" lon="13.513416572141834"><ele>1106.0</ele><time>2026-04-18T14:10:55Z</time></trkpt><trkpt lat="42.12366396765156" lon="13.513351547371398"><ele>1106.0</ele><time>2026-04-18T14:10:56Z</time></trkpt><trkpt lat="42.123567190330334" lon="13.513276444142463"><ele>1106.0</ele><time>2026-04-18T14:10:57Z</time></trkpt><trkpt lat="42.12346319044315" lon="13.513249178305179"><ele>1106.0</ele><time>2026-04-18T14:10:58Z</time></trkpt><trkpt lat="42.12335957872092" lon="13.513294405846876"><ele>1106.0</ele><time>2026-04-18T14:10:59Z</time></trkpt><trkpt lat="42.123278370676566" lon="13.513395012837675"><ele>1106.0</ele><time>2026-04-18T14:11:00Z</time></trkpt><trkpt lat="42.12322221156386" lon="13.513539871164085"><ele>1102.6666666666667</ele><time>2026-04-18T14:11:01Z</time></trkpt><trkpt lat="42.12316860873575" lon="13.51371466063356"><ele>1099.3333333333333</ele><time>2026-04-18T14:11:02Z</time></trkpt><trkpt lat="42.12309754515629" lon="13.513889628780827"><ele>1096.0</ele><time>2026-04-18T14:11:03Z</time></trkpt><trkpt lat="42.122973550779015" lon="13.51404808241124"><ele>1096.0</ele><time>2026-04-18T14:11:04Z</time></trkpt><trkpt lat="42.122848244182016" lon="13.51417761631493"><ele>1096.0</ele><time>2026-04-18T14:11:05Z</time></trkpt><trkpt lat="42.12274452333307" lon="13.514294556291063"><ele>1096.0</ele><time>2026-04-18T14:11:06Z</time></trkpt><trkpt lat="42.12265628488544" lon="13.514404026075422"><ele>1096.0</ele><time>2026-04-18T14:11:07Z</time></trkpt><trkpt lat="42.12257151039355" lon="13.514499685718365"><ele>1096.0</ele><time>2026-04-18T14:11:08Z</time></trkpt><trkpt lat="42.12247663057056" lon="13.514564276522702"><ele>1096.0</ele><time>2026-04-18T14:11:09Z</time></trkpt><trkpt lat="42.12235120541583" lon="13.514560295746758"><ele>1096.0</ele><time>2026-04-18T14:11:09.999Z</time></trkpt><trkpt lat="42.122204124277395" lon="13.514572247854616"><ele>1096.0</ele><time>2026-04-18T14:11:10.999Z</time></trkpt><trkpt lat="42.12204818256008" lon="13.514592652479132"><ele>1097.75</ele><time>2026-04-18T14:11:11.999Z</time></trkpt><trkpt lat="42.12189553457814" lon="13.514639840597296"><ele>1099.5</ele><time>2026-04-18T14:11:12.999Z</time></trkpt><trkpt lat="42.121766417197364" lon="13.514700563723084"><ele>1101.25</ele><time>2026-04-18T14:11:13.999Z</time></trkpt><trkpt lat="42.12164640470461" lon="13.514756164976287"><ele>1103.0</ele><time>2026-04-18T14:11:14.999Z</time></trkpt><trkpt lat="42.121534600064344" lon="13.51482278558456"><ele>1098.5</ele><time>2026-04-18T14:11:15.999Z</time></trkpt><trkpt lat="42.12142971041656" lon="13.514893665212433"><ele>1094.0</ele><time>2026-04-18T14:11:16.999Z</time></trkpt><trkpt lat="42.121329729625536" lon="13.514959336575986"><ele>1089.5</ele><time>2026-04-18T14:11:17.999Z</time></trkpt><trkpt lat="42.12123114832456" lon="13.515038105641022"><ele>1085.0</ele><time>2026-04-18T14:11:18.999Z</time></trkpt><trkpt lat="42.12111550971923" lon="13.515151286043539"><ele>1085.0</ele><time>2026-04-18T14:11:19.999Z</time></trkpt><trkpt lat="42.12099111438195" lon="13.515282298665976"><ele>1085.0</ele><time>2026-04-18T14:11:20.999Z</time></trkpt><trkpt lat="42.12083167864311" lon="13.515410257148403"><ele>1085.0</ele><time>2026-04-18T14:11:21.999Z</time></trkpt><trkpt lat="42.12066933449703" lon="13.515520168502494"><ele>1084.0</ele><time>2026-04-18T14:11:22.999Z</time></trkpt><trkpt lat="42.12051260749377" lon="13.515628834488659"><ele>1083.0</ele><time>2026-04-18T14:11:23.999Z</time></trkpt><trkpt lat="42.12036769352257" lon="13.51573251016854"><ele>1082.0</ele><time>2026-04-18T14:11:24.999Z</time></trkpt><trkpt lat="42.12022845000602" lon="13.515856258763284"><ele>1082.0</ele><time>2026-04-18T14:11:25.999Z</time></trkpt><trkpt lat="42.1200843588183" lon="13.516011055214287"><ele>1082.0</ele><time>2026-04-18T14:11:26.999Z</time></trkpt><trkpt lat="42.11996001234443" lon="13.516167716394932"><ele>1082.0</ele><time>2026-04-18T14:11:27.999Z</time></trkpt><trkpt lat="42.11984507496465" lon="13.51631246576793"><ele>1078.75</ele><time>2026-04-18T14:11:28.999Z</time></trkpt><trkpt lat="42.11973841850424" lon="13.516443538004534"><ele>1075.5</ele><time>2026-04-18T14:11:29.999Z</time></trkpt><trkpt lat="42.11964205562563" lon="13.516552534569657"><ele>1072.25</ele><time>2026-04-18T14:11:30.999Z</time></trkpt><trkpt lat="42.119555142681655" lon="13.516652274404628"><ele>1069.0</ele><time>2026-04-18T14:11:31.999Z</time></trkpt><trkpt lat="42.11947841272053" lon="13.516744281809366"><ele>1069.0</ele><time>2026-04-18T14:11:32.999Z</time></trkpt><trkpt lat="42.11940981804908" lon="13.516838080959147"><ele>1069.0</ele><time>2026-04-18T14:11:33.999Z</time></trkpt><trkpt lat="42.11938349808011" lon="13.516958801363142"><ele>1069.0</ele><time>2026-04-18T14:11:34.999Z</time></trkpt><trkpt lat="42.11939490490017" lon="13.517132787008627"><ele>1069.0</ele><time>2026-04-18T14:11:35.999Z</time></trkpt><trkpt lat="42.119428406906785" lon="13.517358668298899"><ele>1071.5</ele><time>2026-04-18T14:11:36.999Z</time></trkpt><trkpt lat="42.11944801863788" lon="13.517569067971658"><ele>1074.0</ele><time>2026-04-18T14:11:37.999Z</time></trkpt><trkpt lat="42.119468185202365" lon="13.517736087751922"><ele>1076.5</ele><time>2026-04-18T14:11:38.999Z</time></trkpt><trkpt lat="42.11951046650764" lon="13.517875036482842"><ele>1079.0</ele><time>2026-04-18T14:11:39.999Z</time></trkpt><trkpt lat="42.11955553820722" lon="13.517987439012732"><ele>1082.5</ele><time>2026-04-18T14:11:40.999Z</time></trkpt><trkpt lat="42.119568915302466" lon="13.518090705250808"><ele>1086.0</ele><time>2026-04-18T14:11:41.999Z</time></trkpt><trkpt lat="42.119596197671896" lon="13.51816837655547"><ele>1089.5</ele><time>2026-04-18T14:11:42.999Z</time></trkpt><trkpt lat="42.119563808401864" lon="13.518243157625582"><ele>1093.0</ele><time>2026-04-18T14:11:43.999Z</time></trkpt><trkpt lat="42.11949318509665" lon="13.51827170609936"><ele>1096.5</ele><time>2026-04-18T14:11:44.999Z</time></trkpt><trkpt lat="42.119411666504156" lon="13.518264854333278"><ele>1100.0</ele><time>2026-04-18T14:11:45.999Z</time></trkpt><trkpt lat="42.11933204589504" lon="13.518175306078213"><ele>1100.0</ele><time>2026-04-18T14:11:46.999Z</time></trkpt><trkpt lat="42.11924763981511" lon="13.518066606729748"><ele>1100.0</ele><time>2026-04-18T14:11:47.999Z</time></trkpt><trkpt lat="42.11917072131367" lon="13.51791990412553"><ele>1100.0</ele><time>2026-04-18T14:11:48.999Z</time></trkpt><trkpt lat="42.11908801738804" lon="13.517773742700166"><ele>1100.0</ele><time>2026-04-18T14:11:49.999Z</time></trkpt><trkpt lat="42.11899995535257" lon="13.517661834120078"><ele>1092.75</ele><time>2026-04-18T14:11:50.999Z</time></trkpt><trkpt lat="42.11889488075746" lon="13.517558425519137"><ele>1085.5</ele><time>2026-04-18T14:11:51.999Z</time></trkpt><trkpt lat="42.118764121958485" lon="13.51749894762672"><ele>1078.25</ele><time>2026-04-18T14:11:52.999Z</time></trkpt><trkpt lat="42.118588483242384" lon="13.517510496198607"><ele>1071.0</ele><time>2026-04-18T14:11:53.999Z</time></trkpt><trkpt lat="42.11836422399707" lon="13.517588698228733"><ele>1064.0</ele><time>2026-04-18T14:11:54.999Z</time></trkpt><trkpt lat="42.118107085865134" lon="13.517645834346554"><ele>1057.0</ele><time>2026-04-18T14:11:55.999Z</time></trkpt><trkpt lat="42.117864002736795" lon="13.517705994202228"><ele>1057.0</ele><time>2026-04-18T14:11:56.999Z</time></trkpt><trkpt lat="42.117648518336715" lon="13.517773650082361"><ele>1057.0</ele><time>2026-04-18T14:11:57.999Z</time></trkpt><trkpt lat="42.11740780981326" lon="13.517851585553283"><ele>1062.5</ele><time>2026-04-18T14:11:58.999Z</time></trkpt><trkpt lat="42.11716238301665" lon="13.517971128079626"><ele>1068.0</ele><time>2026-04-18T14:11:59.999Z</time></trkpt><trkpt lat="42.116939980787066" lon="13.518071622652096"><ele>1068.0</ele><time>2026-04-18T14:12:00.999Z</time></trkpt><trkpt lat="42.116722043274066" lon="13.518125240218076"><ele>1068.0</ele><time>2026-04-18T14:12:01.999Z</time></trkpt><trkpt lat="42.11649277281334" lon="13.518175171490713"><ele>1065.6666666666667</ele><time>2026-04-18T14:12:02.999Z</time></trkpt><trkpt lat="42.116277311182614" lon="13.518236090758135"><ele>1063.3333333333335</ele><time>2026-04-18T14:12:03.999Z</time></trkpt><trkpt lat="42.116078035406154" lon="13.51829650332808"><ele>1061.0</ele><time>2026-04-18T14:12:04.999Z</time></trkpt><trkpt lat="42.11588341479764" lon="13.518347107378444"><ele>1055.6666666666667</ele><time>2026-04-18T14:12:05.999Z</time></trkpt><trkpt lat="42.11569598492759" lon="13.518416313143915"><ele>1050.3333333333333</ele><time>2026-04-18T14:12:06.999Z</time></trkpt><trkpt lat="42.11548635439031" lon="13.518521398202358"><ele>1045.0</ele><time>2026-04-18T14:12:07.999Z</time></trkpt><trkpt lat="42.115274946636056" lon="13.518652428689906"><ele>1046.0</ele><time>2026-04-18T14:12:08.999Z</time></trkpt><trkpt lat="42.11508417150873" lon="13.518779151884116"><ele>1047.0</ele><time>2026-04-18T14:12:09.999Z</time></trkpt><trkpt lat="42.114920439779624" lon="13.518888146015719"><ele>1048.0</ele><time>2026-04-18T14:12:10.999Z</time></trkpt><trkpt lat="42.11477545822692" lon="13.518981916310182"><ele>1048.0</ele><time>2026-04-18T14:12:11.999Z</time></trkpt><trkpt lat="42.11463381961955" lon="13.519066554259759"><ele>1048.0</ele><time>2026-04-18T14:12:12.999Z</time></trkpt><trkpt lat="42.11449444709872" lon="13.519146931781407"><ele>1048.0</ele><time>2026-04-18T14:12:13.999Z</time></trkpt><trkpt lat="42.11436654176268" lon="13.519225989218281"><ele>1048.0</ele><time>2026-04-18T14:12:14.999Z</time></trkpt><trkpt lat="42.114222218838414" lon="13.519318915578562"><ele>1047.3333333333333</ele><time>2026-04-18T14:12:15.999Z</time></trkpt><trkpt lat="42.11403616450041" lon="13.519426248016032"><ele>1046.6666666666667</ele><time>2026-04-18T14:12:16.999Z</time></trkpt><trkpt lat="42.11387212596963" lon="13.519537297688606"><ele>1046.0</ele><time>2026-04-18T14:12:17.999Z</time></trkpt><trkpt lat="42.11374021939264" lon="13.519666822613937"><ele>1046.0</ele><time>2026-04-18T14:12:18.999Z</time></trkpt><trkpt lat="42.11360851069958" lon="13.519773666945182"><ele>1046.0</ele><time>2026-04-18T14:12:19.999Z</time></trkpt><trkpt lat="42.113484377961115" lon="13.519881609024273"><ele>1046.0</ele><time>2026-04-18T14:12:20.999Z</time></trkpt><trkpt lat="42.11336552494287" lon="13.519983814791196"><ele>1046.0</ele><time>2026-04-18T14:12:21.999Z</time></trkpt><trkpt lat="42.11324995388542" lon="13.520077204466697"><ele>1043.25</ele><time>2026-04-18T14:12:22.999Z</time></trkpt><trkpt lat="42.11313410971514" lon="13.520169767235922"><ele>1040.5</ele><time>2026-04-18T14:12:23.999Z</time></trkpt><trkpt lat="42.11301772938578" lon="13.520252366228686"><ele>1037.75</ele><time>2026-04-18T14:12:24.999Z</time></trkpt><trkpt lat="42.11289905571761" lon="13.520327564190868"><ele>1035.0</ele><time>2026-04-18T14:12:25.999Z</time></trkpt><trkpt lat="42.11277352943298" lon="13.520391929311716"><ele>1038.3333333333333</ele><time>2026-04-18T14:12:26.999Z</time></trkpt><trkpt lat="42.112638555863704" lon="13.520436490532997"><ele>1041.6666666666665</ele><time>2026-04-18T14:12:27.999Z</time></trkpt><trkpt lat="42.112448530024785" lon="13.520447144281015"><ele>1045.0</ele><time>2026-04-18T14:12:28.999Z</time></trkpt><trkpt lat="42.1122774642389" lon="13.520448841803848"><ele>1045.0</ele><time>2026-04-18T14:12:29.999Z</time></trkpt><trkpt lat="42.11212409755576" lon="13.520452698642778"><ele>1045.0</ele><time>2026-04-18T14:12:30.999Z</time></trkpt><trkpt lat="42.11198960209038" lon="13.520435055575279"><ele>1045.0</ele><time>2026-04-18T14:12:31.999Z</time></trkpt><trkpt lat="42.11185742646922" lon="13.520428357652518"><ele>1045.0</ele><time>2026-04-18T14:12:32.999Z</time></trkpt><trkpt lat="42.11173852669004" lon="13.520419908407812"><ele>1045.0</ele><time>2026-04-18T14:12:33.999Z</time></trkpt><trkpt lat="42.111622263342454" lon="13.520418516052208"><ele>1045.0</ele><time>2026-04-18T14:12:34.999Z</time></trkpt><trkpt lat="42.11150839366798" lon="13.520420384425874"><ele>1045.0</ele><time>2026-04-18T14:12:35.999Z</time></trkpt><trkpt lat="42.11139269414868" lon="13.52042640866301"><ele>1045.0</ele><time>2026-04-18T14:12:36.998Z</time></trkpt><trkpt lat="42.11127519115417" lon="13.520457049493643"><ele>1040.6666666666665</ele><time>2026-04-18T14:12:37.998Z</time></trkpt><trkpt lat="42.11113646610761" lon="13.520533011862643"><ele>1036.3333333333333</ele><time>2026-04-18T14:12:38.998Z</time></trkpt><trkpt lat="42.11096062438795" lon="13.520678788576133"><ele>1032.0</ele><time>2026-04-18T14:12:39.998Z</time></trkpt><trkpt lat="42.11076497207441" lon="13.520834029280165"><ele>1027.0</ele><time>2026-04-18T14:12:40.998Z</time></trkpt><trkpt lat="42.1105351637557" lon="13.52098244190683"><ele>1022.0</ele><time>2026-04-18T14:12:41.998Z</time></trkpt><trkpt lat="42.11034401631238" lon="13.52112642996155"><ele>1023.0</ele><time>2026-04-18T14:12:42.998Z</time></trkpt><trkpt lat="42.11017504508037" lon="13.521265283820409"><ele>1024.0</ele><time>2026-04-18T14:12:44Z</time></trkpt><trkpt lat="42.10998084702224" lon="13.521370487221049"><ele>1025.0</ele><time>2026-04-18T14:12:45Z</time></trkpt><trkpt lat="42.10975224569511" lon="13.521433026173353"><ele>1025.0</ele><time>2026-04-18T14:12:46Z</time></trkpt><trkpt lat="42.10952272237791" lon="13.521458211255107"><ele>1025.0</ele><time>2026-04-18T14:12:47Z</time></trkpt><trkpt lat="42.10931477999258" lon="13.521484608473736"><ele>1025.0</ele><time>2026-04-18T14:12:48Z</time></trkpt><trkpt lat="42.10912215743328" lon="13.52152023634853"><ele>1021.6666666666667</ele><time>2026-04-18T14:12:49Z</time></trkpt><trkpt lat="42.108941929713964" lon="13.521578211853086"><ele>1018.3333333333333</ele><time>2026-04-18T14:12:50Z</time></trkpt><trkpt lat="42.108783143953254" lon="13.521667397973125"><ele>1015.0</ele><time>2026-04-18T14:12:51Z</time></trkpt><trkpt lat="42.10865292694162" lon="13.521782078200342"><ele>1015.0</ele><time>2026-04-18T14:12:52Z</time></trkpt><trkpt lat="42.108535814101884" lon="13.521887203927662"><ele>1015.0</ele><time>2026-04-18T14:12:53Z</time></trkpt><trkpt lat="42.1084300332977" lon="13.521972632896828"><ele>1015.0</ele><time>2026-04-18T14:12:54Z</time></trkpt><trkpt lat="42.10832796243342" lon="13.522049980357842"><ele>1015.0</ele><time>2026-04-18T14:12:55Z</time></trkpt><trkpt lat="42.10823058221443" lon="13.522121003201974"><ele>1014.6666666666666</ele><time>2026-04-18T14:12:56Z</time></trkpt><trkpt lat="42.10814511086331" lon="13.522187020902477"><ele>1014.3333333333333</ele><time>2026-04-18T14:12:57Z</time></trkpt><trkpt lat="42.10807207404225" lon="13.522246921265744"><ele>1014.0</ele><time>2026-04-18T14:12:58Z</time></trkpt><trkpt lat="42.108016063844296" lon="13.522293852057597"><ele>1013.6666666666667</ele><time>2026-04-18T14:12:59Z</time></trkpt><trkpt lat="42.10793730907718" lon="13.522329222854317"><ele>1013.3333333333334</ele><time>2026-04-18T14:13:01Z</time></trkpt><trkpt lat="42.10790089926114" lon="13.522211934747993"><ele>1013.0</ele><time>2026-04-18T14:13:03Z</time></trkpt><trkpt lat="42.107998588517766" lon="13.52200521352673"><ele>1009.6666666666667</ele><time>2026-04-18T14:13:05Z</time></trkpt><trkpt lat="42.1080684026419" lon="13.521842336705316"><ele>1006.3333333333333</ele><time>2026-04-18T14:13:06Z</time></trkpt><trkpt lat="42.108132388223545" lon="13.52164351740688"><ele>1003.0</ele><time>2026-04-18T14:13:07Z</time></trkpt><trkpt lat="42.108215709790315" lon="13.52139121129832"><ele>1004.0</ele><time>2026-04-18T14:13:08Z</time></trkpt><trkpt lat="42.108303895001235" lon="13.52114915314546"><ele>1005.0</ele><time>2026-04-18T14:13:09Z</time></trkpt><trkpt lat="42.10838019842856" lon="13.520929134734974"><ele>1006.0</ele><time>2026-04-18T14:13:10Z</time></trkpt><trkpt lat="42.1084485327173" lon="13.52072072130274"><ele>1006.0</ele><time>2026-04-18T14:13:11Z</time></trkpt><trkpt lat="42.10850326732088" lon="13.520525117540496"><ele>1006.0</ele><time>2026-04-18T14:13:11.999Z</time></trkpt><trkpt lat="42.10857827033398" lon="13.520344885784858"><ele>1006.0</ele><time>2026-04-18T14:13:12.999Z</time></trkpt><trkpt lat="42.10862518023674" lon="13.52015509946375"><ele>1004.0</ele><time>2026-04-18T14:13:13.999Z</time></trkpt><trkpt lat="42.108684765377426" lon="13.519981677064724"><ele>1002.0</ele><time>2026-04-18T14:13:14.999Z</time></trkpt><trkpt lat="42.10874141388822" lon="13.5198161198507"><ele>1000.0</ele><time>2026-04-18T14:13:15.999Z</time></trkpt><trkpt lat="42.10880198281356" lon="13.519663958740287"><ele>998.0</ele><time>2026-04-18T14:13:16.999Z</time></trkpt><trkpt lat="42.108867130232895" lon="13.519514402473169"><ele>998.5</ele><time>2026-04-18T14:13:17.999Z</time></trkpt><trkpt lat="42.10894942706592" lon="13.519362223551102"><ele>999.0</ele><time>2026-04-18T14:13:18.999Z</time></trkpt><trkpt lat="42.10905802968166" lon="13.519229877062314"><ele>999.5</ele><time>2026-04-18T14:13:19.999Z</time></trkpt><trkpt lat="42.109145715738876" lon="13.519088440557496"><ele>1000.0</ele><time>2026-04-18T14:13:20.999Z</time></trkpt><trkpt lat="42.109231249318114" lon="13.518960732220158"><ele>1000.0</ele><time>2026-04-18T14:13:21.999Z</time></trkpt><trkpt lat="42.10928721098765" lon="13.518809742508216"><ele>1000.0</ele><time>2026-04-18T14:13:22.999Z</time></trkpt><trkpt lat="42.10930256619339" lon="13.518640508558532"><ele>1000.0</ele><time>2026-04-18T14:13:23.999Z</time></trkpt><trkpt lat="42.10927594896248" lon="13.518456946672698"><ele>1000.0</ele><time>2026-04-18T14:13:24.999Z</time></trkpt><trkpt lat="42.10920407777131" lon="13.518251887248388"><ele>998.6666666666666</ele><time>2026-04-18T14:13:25.999Z</time></trkpt><trkpt lat="42.10909757923605" lon="13.5180468930224"><ele>997.3333333333333</ele><time>2026-04-18T14:13:26.999Z</time></trkpt><trkpt lat="42.10900064189611" lon="13.517855027064341"><ele>996.0</ele><time>2026-04-18T14:13:27.999Z</time></trkpt><trkpt lat="42.108930383917794" lon="13.51768900290265"><ele>996.0</ele><time>2026-04-18T14:13:28.999Z</time></trkpt><trkpt lat="42.10887223564591" lon="13.517540185136863"><ele>996.0</ele><time>2026-04-18T14:13:29.999Z</time></trkpt><trkpt lat="42.108809538906236" lon="13.517406038436867"><ele>996.0</ele><time>2026-04-18T14:13:30.999Z</time></trkpt><trkpt lat="42.108731163239696" lon="13.517293000342601"><ele>996.0</ele><time>2026-04-18T14:13:31.999Z</time></trkpt><trkpt lat="42.10863701155492" lon="13.517215192438185"><ele>996.0</ele><time>2026-04-18T14:13:32.999Z</time></trkpt><trkpt lat="42.10852232073549" lon="13.517208728722608"><ele>996.0</ele><time>2026-04-18T14:13:33.999Z</time></trkpt><trkpt lat="42.10840318152531" lon="13.51726650236153"><ele>996.0</ele><time>2026-04-18T14:13:34.999Z</time></trkpt><trkpt lat="42.10829090825989" lon="13.517363306615009"><ele>996.0</ele><time>2026-04-18T14:13:35.999Z</time></trkpt><trkpt lat="42.10819351100366" lon="13.51744897159753"><ele>997.0</ele><time>2026-04-18T14:13:36.999Z</time></trkpt><trkpt lat="42.10810807934886" lon="13.517519183508876"><ele>997.9999999999999</ele><time>2026-04-18T14:13:37.999Z</time></trkpt><trkpt lat="42.10802422039503" lon="13.517588755486413"><ele>998.9999999999999</ele><time>2026-04-18T14:13:38.999Z</time></trkpt><trkpt lat="42.10794075396865" lon="13.517659818787726"><ele>1000.0</ele><time>2026-04-18T14:13:39.999Z</time></trkpt><trkpt lat="42.107852296716516" lon="13.517735460158493"><ele>1001.0</ele><time>2026-04-18T14:13:40.999Z</time></trkpt><trkpt lat="42.10775923335238" lon="13.517820598189388"><ele>1000.25</ele><time>2026-04-18T14:13:41.999Z</time></trkpt><trkpt lat="42.1076668511154" lon="13.517932660796596"><ele>999.5</ele><time>2026-04-18T14:13:42.999Z</time></trkpt><trkpt lat="42.107591926792885" lon="13.518085061811542"><ele>998.75</ele><time>2026-04-18T14:13:43.999Z</time></trkpt><trkpt lat="42.10754811458287" lon="13.518279772136767"><ele>998.0</ele><time>2026-04-18T14:13:44.999Z</time></trkpt><trkpt lat="42.10753309133373" lon="13.518494825502177"><ele>998.0</ele><time>2026-04-18T14:13:45.999Z</time></trkpt><trkpt lat="42.10750974447648" lon="13.518693637971818"><ele>998.0</ele><time>2026-04-18T14:13:46.999Z</time></trkpt><trkpt lat="42.10743863311438" lon="13.518835519684405"><ele>998.0</ele><time>2026-04-18T14:13:47.999Z</time></trkpt><trkpt lat="42.10736968338501" lon="13.518993757554133"><ele>998.0</ele><time>2026-04-18T14:13:48.999Z</time></trkpt><trkpt lat="42.10728501521068" lon="13.519187311379653"><ele>1000.3333333333334</ele><time>2026-04-18T14:13:49.999Z</time></trkpt><trkpt lat="42.10719146674482" lon="13.51939719989013"><ele>1002.6666666666667</ele><time>2026-04-18T14:13:50.999Z</time></trkpt><trkpt lat="42.10711070481513" lon="13.519580291489014"><ele>1005.0</ele><time>2026-04-18T14:13:51.999Z</time></trkpt><trkpt lat="42.107045585099286" lon="13.519755639603193"><ele>1005.0</ele><time>2026-04-18T14:13:52.999Z</time></trkpt><trkpt lat="42.10698442686758" lon="13.519887522948721"><ele>1005.0</ele><time>2026-04-18T14:13:53.999Z</time></trkpt><trkpt lat="42.10692632187108" lon="13.520004055406712"><ele>1005.0</ele><time>2026-04-18T14:13:54.999Z</time></trkpt><trkpt lat="42.10684482135083" lon="13.52008748354664"><ele>1005.0</ele><time>2026-04-18T14:13:55.999Z</time></trkpt><trkpt lat="42.10674708379571" lon="13.520171705579227"><ele>1005.0</ele><time>2026-04-18T14:13:56.999Z</time></trkpt><trkpt lat="42.10662755767488" lon="13.520210534804178"><ele>1004.5</ele><time>2026-04-18T14:13:57.999Z</time></trkpt><trkpt lat="42.106509122850156" lon="13.520242336421575"><ele>1004.0</ele><time>2026-04-18T14:13:58.999Z</time></trkpt><trkpt lat="42.10640468417621" lon="13.520295693881828"><ele>1003.5</ele><time>2026-04-18T14:13:59.999Z</time></trkpt><trkpt lat="42.10628737896465" lon="13.520354975743139"><ele>1003.0</ele><time>2026-04-18T14:14:00.999Z</time></trkpt><trkpt lat="42.106188125376484" lon="13.52045778565845"><ele>1003.0</ele><time>2026-04-18T14:14:01.999Z</time></trkpt><trkpt lat="42.10610969800401" lon="13.520566618425669"><ele>1003.0</ele><time>2026-04-18T14:14:02.999Z</time></trkpt><trkpt lat="42.106036711493836" lon="13.520669357442165"><ele>1003.0</ele><time>2026-04-18T14:14:03.999Z</time></trkpt><trkpt lat="42.105959836645084" lon="13.520757060258731"><ele>1003.0</ele><time>2026-04-18T14:14:04.999Z</time></trkpt><trkpt lat="42.10587794018383" lon="13.520843270172406"><ele>1003.0</ele><time>2026-04-18T14:14:05.999Z</time></trkpt><trkpt lat="42.10578267461312" lon="13.520924068591427"><ele>1003.4</ele><time>2026-04-18T14:14:06.999Z</time></trkpt><trkpt lat="42.1056855120585" lon="13.520987900592464"><ele>1003.8</ele><time>2026-04-18T14:14:07.999Z</time></trkpt><trkpt lat="42.10558929236044" lon="13.521035451497644"><ele>1004.2</ele><time>2026-04-18T14:14:08.999Z</time></trkpt><trkpt lat="42.10549696884767" lon="13.52105718865065"><ele>1004.6</ele><time>2026-04-18T14:14:09.999Z</time></trkpt><trkpt lat="42.10540778543857" lon="13.521028663300884"><ele>1005.0</ele><time>2026-04-18T14:14:10.999Z</time></trkpt><trkpt lat="42.105330343009314" lon="13.520935572167902"><ele>1005.0</ele><time>2026-04-18T14:14:11.999Z</time></trkpt><trkpt lat="42.105236217144544" lon="13.520819443627943"><ele>1005.0</ele><time>2026-04-18T14:14:12.999Z</time></trkpt><trkpt lat="42.10511506225776" lon="13.52066430818041"><ele>1005.0</ele><time>2026-04-18T14:14:13.999Z</time></trkpt><trkpt lat="42.104967616293315" lon="13.520480945355777"><ele>1002.6666666666667</ele><time>2026-04-18T14:14:14.999Z</time></trkpt><trkpt lat="42.10481006630189" lon="13.520285017213581"><ele>1000.3333333333334</ele><time>2026-04-18T14:14:15.999Z</time></trkpt><trkpt lat="42.104669282813205" lon="13.520128521976538"><ele>998.0</ele><time>2026-04-18T14:14:16.999Z</time></trkpt><trkpt lat="42.10456504769104" lon="13.519948106386572"><ele>998.0</ele><time>2026-04-18T14:14:17.999Z</time></trkpt><trkpt lat="42.10448763956987" lon="13.519745638571427"><ele>998.0</ele><time>2026-04-18T14:14:18.999Z</time></trkpt><trkpt lat="42.10443835236995" lon="13.519522330786488"><ele>998.0</ele><time>2026-04-18T14:14:19.999Z</time></trkpt><trkpt lat="42.10439477408437" lon="13.51930264826642"><ele>999.0</ele><time>2026-04-18T14:14:20.999Z</time></trkpt><trkpt lat="42.10431746272527" lon="13.519112735475312"><ele>1000.0</ele><time>2026-04-18T14:14:21.999Z</time></trkpt><trkpt lat="42.10420387144364" lon="13.51893545427494"><ele>1001.0</ele><time>2026-04-18T14:14:22.999Z</time></trkpt><trkpt lat="42.10406431613235" lon="13.518777394246136"><ele>999.0</ele><time>2026-04-18T14:14:23.999Z</time></trkpt><trkpt lat="42.1038812893864" lon="13.518644322243043"><ele>997.0</ele><time>2026-04-18T14:14:24.999Z</time></trkpt><trkpt lat="42.10366578226651" lon="13.51853175954854"><ele>995.0</ele><time>2026-04-18T14:14:25.999Z</time></trkpt><trkpt lat="42.10347870416784" lon="13.51843822061639"><ele>995.0</ele><time>2026-04-18T14:14:26.999Z</time></trkpt><trkpt lat="42.10332017797614" lon="13.518352511187206"><ele>995.0</ele><time>2026-04-18T14:14:27.999Z</time></trkpt><trkpt lat="42.10316390968545" lon="13.518288840286024"><ele>995.0</ele><time>2026-04-18T14:14:28.999Z</time></trkpt><trkpt lat="42.10300293573445" lon="13.518282672579696"><ele>993.25</ele><time>2026-04-18T14:14:29.999Z</time></trkpt><trkpt lat="42.102853938964785" lon="13.518331690429283"><ele>991.5</ele><time>2026-04-18T14:14:30.999Z</time></trkpt><trkpt lat="42.10271436361287" lon="13.51837636190006"><ele>989.75</ele><time>2026-04-18T14:14:31.999Z</time></trkpt><trkpt lat="42.10259128249818" lon="13.51837770594887"><ele>988.0</ele><time>2026-04-18T14:14:32.999Z</time></trkpt><trkpt lat="42.10247502763324" lon="13.518336645510125"><ele>982.25</ele><time>2026-04-18T14:14:33.999Z</time></trkpt><trkpt lat="42.10236931875309" lon="13.518251949853093"><ele>976.5</ele><time>2026-04-18T14:14:34.999Z</time></trkpt><trkpt lat="42.10229720097196" lon="13.518110091318775"><ele>970.75</ele><time>2026-04-18T14:14:35.999Z</time></trkpt><trkpt lat="42.102260273572" lon="13.517914425354636"><ele>965.0</ele><time>2026-04-18T14:14:36.999Z</time></trkpt><trkpt lat="42.10227114840842" lon="13.517684454709793"><ele>965.0</ele><time>2026-04-18T14:14:37.998Z</time></trkpt><trkpt lat="42.10230427738022" lon="13.517429326705434"><ele>965.0</ele><time>2026-04-18T14:14:38.998Z</time></trkpt><trkpt lat="42.102324028907226" lon="13.517153871795287"><ele>965.0</ele><time>2026-04-18T14:14:39.998Z</time></trkpt><trkpt lat="42.102285475066154" lon="13.516876112099348"><ele>965.0</ele><time>2026-04-18T14:14:40.998Z</time></trkpt><trkpt lat="42.10221860286937" lon="13.516572100176889"><ele>965.0</ele><time>2026-04-18T14:14:41.998Z</time></trkpt><trkpt lat="42.10215692666797" lon="13.516298673549692"><ele>965.0</ele><time>2026-04-18T14:14:42.998Z</time></trkpt><trkpt lat="42.102128253174634" lon="13.516036285506047"><ele>965.0</ele><time>2026-04-18T14:14:43.998Z</time></trkpt><trkpt lat="42.10211460968886" lon="13.515638559638406"><ele>965.0</ele><time>2026-04-18T14:14:44.998Z</time></trkpt><trkpt lat="42.10210724103128" lon="13.515268121960057"><ele>963.5</ele><time>2026-04-18T14:14:45.998Z</time></trkpt><trkpt lat="42.102100617243686" lon="13.51492812552761"><ele>962.0</ele><time>2026-04-18T14:14:46.998Z</time></trkpt><trkpt lat="42.102083946356146" lon="13.51460050621758"><ele>960.0</ele><time>2026-04-18T14:14:47.998Z</time></trkpt><trkpt lat="42.10208940780429" lon="13.51429375832818"><ele>958.0</ele><time>2026-04-18T14:14:48.998Z</time></trkpt><trkpt lat="42.10210152978935" lon="13.513970007764822"><ele>957.0</ele><time>2026-04-18T14:14:50Z</time></trkpt><trkpt lat="42.102134886070544" lon="13.513648383268054"><ele>956.0</ele><time>2026-04-18T14:14:51Z</time></trkpt><trkpt lat="42.10217062698794" lon="13.513310981229136"><ele>956.0</ele><time>2026-04-18T14:14:52Z</time></trkpt><trkpt lat="42.10220628760679" lon="13.513007640592598"><ele>956.0</ele><time>2026-04-18T14:14:53Z</time></trkpt><trkpt lat="42.10221800410546" lon="13.512732279555845"><ele>956.0</ele><time>2026-04-18T14:14:54Z</time></trkpt><trkpt lat="42.10223814870998" lon="13.512486865976694"><ele>956.0</ele><time>2026-04-18T14:14:55Z</time></trkpt><trkpt lat="42.10223798558945" lon="13.51226342681415"><ele>956.0</ele><time>2026-04-18T14:14:56Z</time></trkpt><trkpt lat="42.10220764180922" lon="13.512046704636246"><ele>956.0</ele><time>2026-04-18T14:14:57Z</time></trkpt><trkpt lat="42.1021647457021" lon="13.511838283432878"><ele>957.6666666666667</ele><time>2026-04-18T14:14:58Z</time></trkpt><trkpt lat="42.10209911474481" lon="13.511646338050921"><ele>959.3333333333333</ele><time>2026-04-18T14:14:59Z</time></trkpt><trkpt lat="42.102009212086706" lon="13.511454351197326"><ele>961.0</ele><time>2026-04-18T14:15:00Z</time></trkpt><trkpt lat="42.101873699355096" lon="13.511248915733153"><ele>963.0</ele><time>2026-04-18T14:15:01Z</time></trkpt><trkpt lat="42.10170594642157" lon="13.51104449318899"><ele>965.0</ele><time>2026-04-18T14:15:02Z</time></trkpt><trkpt lat="42.1015732186236" lon="13.510862028971516"><ele>967.0</ele><time>2026-04-18T14:15:03Z</time></trkpt><trkpt lat="42.10146317408418" lon="13.510698411396588"><ele>964.5</ele><time>2026-04-18T14:15:04Z</time></trkpt><trkpt lat="42.101355040728" lon="13.510544222784349"><ele>962.0</ele><time>2026-04-18T14:15:05Z</time></trkpt><trkpt lat="42.1012546703228" lon="13.510396990323303"><ele>959.5</ele><time>2026-04-18T14:15:06Z</time></trkpt><trkpt lat="42.101160263566584" lon="13.510257103978928"><ele>957.0</ele><time>2026-04-18T14:15:07Z</time></trkpt><trkpt lat="42.1010762636316" lon="13.510120424846967"><ele>957.0</ele><time>2026-04-18T14:15:08Z</time></trkpt><trkpt lat="42.10099136851249" lon="13.510006562263564"><ele>957.0</ele><time>2026-04-18T14:15:09Z</time></trkpt><trkpt lat="42.10091640370946" lon="13.509898825708328"><ele>957.0</ele><time>2026-04-18T14:15:10Z</time></trkpt><trkpt lat="42.10084341865564" lon="13.509809447050927"><ele>957.0</ele><time>2026-04-18T14:15:11Z</time></trkpt><trkpt lat="42.100799350851304" lon="13.509731260250536"><ele>957.0</ele><time>2026-04-18T14:15:12Z</time></trkpt><trkpt lat="42.10084123606338" lon="13.509529155955878"><ele>956.6666666666667</ele><time>2026-04-18T14:15:14Z</time></trkpt><trkpt lat="42.10091619599823" lon="13.509381963025032"><ele>956.3333333333334</ele><time>2026-04-18T14:15:15Z</time></trkpt><trkpt lat="42.101032939518916" lon="13.509197723932289"><ele>956.0</ele><time>2026-04-18T14:15:16Z</time></trkpt><trkpt lat="42.10118605733463" lon="13.50898361708208"><ele>956.0</ele><time>2026-04-18T14:15:17Z</time></trkpt><trkpt lat="42.101366455297715" lon="13.508750293027248"><ele>956.0</ele><time>2026-04-18T14:15:17.999Z</time></trkpt><trkpt lat="42.10158756252374" lon="13.5085058932018"><ele>954.5</ele><time>2026-04-18T14:15:18.999Z</time></trkpt><trkpt lat="42.10178380818823" lon="13.508266361319595"><ele>953.0</ele><time>2026-04-18T14:15:19.999Z</time></trkpt><trkpt lat="42.10194842261271" lon="13.508051452742505"><ele>950.0</ele><time>2026-04-18T14:15:20.999Z</time></trkpt><trkpt lat="42.10211413581979" lon="13.507825741291084"><ele>947.0</ele><time>2026-04-18T14:15:21.999Z</time></trkpt><trkpt lat="42.10228799279697" lon="13.507555271882476"><ele>953.0</ele><time>2026-04-18T14:15:22.999Z</time></trkpt><trkpt lat="42.102422664029625" lon="13.507276106036645"><ele>959.0</ele><time>2026-04-18T14:15:23.999Z</time></trkpt><trkpt lat="42.102527130637675" lon="13.507016749882732"><ele>959.0</ele><time>2026-04-18T14:15:24.999Z</time></trkpt><trkpt lat="42.10263261759355" lon="13.50672425267449"><ele>959.0</ele><time>2026-04-18T14:15:25.999Z</time></trkpt><trkpt lat="42.10274697587918" lon="13.506382661693145"><ele>955.0</ele><time>2026-04-18T14:15:26.999Z</time></trkpt><trkpt lat="42.102841689842876" lon="13.506050099122842"><ele>951.0</ele><time>2026-04-18T14:15:27.999Z</time></trkpt><trkpt lat="42.102918773122774" lon="13.505762941656943"><ele>951.0</ele><time>2026-04-18T14:15:28.999Z</time></trkpt><trkpt lat="42.10298510507396" lon="13.505519020911823"><ele>951.0</ele><time>2026-04-18T14:15:29.999Z</time></trkpt><trkpt lat="42.10305159181173" lon="13.505301327621018"><ele>951.0</ele><time>2026-04-18T14:15:30.999Z</time></trkpt><trkpt lat="42.10312499061822" lon="13.505111257522673"><ele>949.3333333333333</ele><time>2026-04-18T14:15:31.999Z</time></trkpt><trkpt lat="42.10324042416699" lon="13.5049570535229"><ele>947.6666666666666</ele><time>2026-04-18T14:15:32.999Z</time></trkpt><trkpt lat="42.10340873146227" lon="13.504847566464207"><ele>946.0</ele><time>2026-04-18T14:15:33.999Z</time></trkpt><trkpt lat="42.10360559288286" lon="13.504714071699647"><ele>951.0</ele><time>2026-04-18T14:15:34.999Z</time></trkpt><trkpt lat="42.10381991190571" lon="13.504601129540546"><ele>956.0</ele><time>2026-04-18T14:15:35.999Z</time></trkpt><trkpt lat="42.10403784120833" lon="13.50443469126787"><ele>963.5</ele><time>2026-04-18T14:15:36.999Z</time></trkpt><trkpt lat="42.10422521512118" lon="13.504225536528589"><ele>971.0</ele><time>2026-04-18T14:15:37.999Z</time></trkpt><trkpt lat="42.10439135275208" lon="13.503980071542477"><ele>969.5</ele><time>2026-04-18T14:15:38.999Z</time></trkpt><trkpt lat="42.10454513073393" lon="13.503684074195885"><ele>968.0</ele><time>2026-04-18T14:15:39.999Z</time></trkpt><trkpt lat="42.10467602481638" lon="13.503378330784505"><ele>968.0</ele><time>2026-04-18T14:15:40.999Z</time></trkpt><trkpt lat="42.10479115450721" lon="13.503096599453315"><ele>968.0</ele><time>2026-04-18T14:15:41.999Z</time></trkpt><trkpt lat="42.10490065337001" lon="13.502802127168152"><ele>978.0</ele><time>2026-04-18T14:15:42.999Z</time></trkpt><trkpt lat="42.10500376721984" lon="13.502457634486383"><ele>988.0</ele><time>2026-04-18T14:15:43.999Z</time></trkpt><trkpt lat="42.10510343885344" lon="13.502085703855945"><ele>986.5</ele><time>2026-04-18T14:15:44.999Z</time></trkpt><trkpt lat="42.105188410006164" lon="13.501747258257122"><ele>985.0</ele><time>2026-04-18T14:15:45.999Z</time></trkpt><trkpt lat="42.10526358198111" lon="13.501450086436664"><ele>984.6666666666666</ele><time>2026-04-18T14:15:46.999Z</time></trkpt><trkpt lat="42.10532674440382" lon="13.501178214725563"><ele>984.3333333333333</ele><time>2026-04-18T14:15:47.999Z</time></trkpt><trkpt lat="42.10537781613211" lon="13.500926123632947"><ele>984.0</ele><time>2026-04-18T14:15:48.999Z</time></trkpt><trkpt lat="42.10541284758558" lon="13.500694651757406"><ele>984.0</ele><time>2026-04-18T14:15:49.999Z</time></trkpt><trkpt lat="42.10543184265753" lon="13.500472759166197"><ele>984.0</ele><time>2026-04-18T14:15:50.999Z</time></trkpt><trkpt lat="42.105444054636486" lon="13.500267325769112"><ele>984.0</ele><time>2026-04-18T14:15:51.999Z</time></trkpt><trkpt lat="42.10545202423668" lon="13.500076158838365"><ele>986.6666666666667</ele><time>2026-04-18T14:15:52.999Z</time></trkpt><trkpt lat="42.10543014939343" lon="13.499876012258778"><ele>989.3333333333334</ele><time>2026-04-18T14:15:53.999Z</time></trkpt><trkpt lat="42.105349836280936" lon="13.499665953253068"><ele>992.0</ele><time>2026-04-18T14:15:54.999Z</time></trkpt><trkpt lat="42.1052164266143" lon="13.499462789387396"><ele>992.0</ele><time>2026-04-18T14:15:55.999Z</time></trkpt><trkpt lat="42.1050329345855" lon="13.4992676768392"><ele>992.0</ele><time>2026-04-18T14:15:56.999Z</time></trkpt><trkpt lat="42.10484884991246" lon="13.499079162630181"><ele>992.0</ele><time>2026-04-18T14:15:57.999Z</time></trkpt><trkpt lat="42.104708724044784" lon="13.498902083149652"><ele>992.0</ele><time>2026-04-18T14:15:58.999Z</time></trkpt><trkpt lat="42.104611081833504" lon="13.498731198321746"><ele>992.0</ele><time>2026-04-18T14:15:59.999Z</time></trkpt><trkpt lat="42.104545307840695" lon="13.49854063093949"><ele>992.5</ele><time>2026-04-18T14:16:00.999Z</time></trkpt><trkpt lat="42.10452275321546" lon="13.498337657019269"><ele>993.0</ele><time>2026-04-18T14:16:01.999Z</time></trkpt><trkpt lat="42.10453331095877" lon="13.498144191118085"><ele>993.5</ele><time>2026-04-18T14:16:02.999Z</time></trkpt><trkpt lat="42.10457894776848" lon="13.497964181382581"><ele>994.0</ele><time>2026-04-18T14:16:03.999Z</time></trkpt><trkpt lat="42.104667484259046" lon="13.497827956166725"><ele>994.0</ele><time>2026-04-18T14:16:04.999Z</time></trkpt><trkpt lat="42.10480719279799" lon="13.497652145064528"><ele>994.0</ele><time>2026-04-18T14:16:05.999Z</time></trkpt><trkpt lat="42.10498654458624" lon="13.49749118945676"><ele>994.0</ele><time>2026-04-18T14:16:06.999Z</time></trkpt><trkpt lat="42.10518807100789" lon="13.497309852381207"><ele>997.5</ele><time>2026-04-18T14:16:07.999Z</time></trkpt><trkpt lat="42.105426655997576" lon="13.497122532789092"><ele>1001.0</ele><time>2026-04-18T14:16:08.999Z</time></trkpt><trkpt lat="42.105659636135584" lon="13.496931144766151"><ele>1005.5</ele><time>2026-04-18T14:16:09.999Z</time></trkpt><trkpt lat="42.10586305089838" lon="13.49675993961391"><ele>1010.0</ele><time>2026-04-18T14:16:10.999Z</time></trkpt><trkpt lat="42.10605271079012" lon="13.496609554243609"><ele>1010.0</ele><time>2026-04-18T14:16:11.999Z</time></trkpt><trkpt lat="42.106233529414155" lon="13.496467105374439"><ele>1010.0</ele><time>2026-04-18T14:16:12.999Z</time></trkpt><trkpt lat="42.10638633447512" lon="13.496310836853073"><ele>1010.0</ele><time>2026-04-18T14:16:13.999Z</time></trkpt><trkpt lat="42.10651750143108" lon="13.496124186037603"><ele>1012.6666666666667</ele><time>2026-04-18T14:16:14.999Z</time></trkpt><trkpt lat="42.10662309857966" lon="13.495895046233409"><ele>1015.3333333333333</ele><time>2026-04-18T14:16:15.999Z</time></trkpt><trkpt lat="42.10669942992313" lon="13.495607796133804"><ele>1018.0</ele><time>2026-04-18T14:16:16.999Z</time></trkpt><trkpt lat="42.10675589672999" lon="13.49526989264029"><ele>1018.0</ele><time>2026-04-18T14:16:17.999Z</time></trkpt><trkpt lat="42.106804129396956" lon="13.494951146583267"><ele>1018.0</ele><time>2026-04-18T14:16:18.999Z</time></trkpt><trkpt lat="42.10684866378046" lon="13.494685774614133"><ele>1018.0</ele><time>2026-04-18T14:16:19.999Z</time></trkpt><trkpt lat="42.106899156968154" lon="13.494459285689045"><ele>1017.3333333333333</ele><time>2026-04-18T14:16:20.999Z</time></trkpt><trkpt lat="42.1069823167547" lon="13.49425599455885"><ele>1016.6666666666667</ele><time>2026-04-18T14:16:21.999Z</time></trkpt><trkpt lat="42.10710625995816" lon="13.494049259268422"><ele>1016.0</ele><time>2026-04-18T14:16:22.999Z</time></trkpt><trkpt lat="42.107278626676575" lon="13.493830277719127"><ele>1020.6666666666667</ele><time>2026-04-18T14:16:23.999Z</time></trkpt><trkpt lat="42.10742892621199" lon="13.493644871557107"><ele>1025.3333333333333</ele><time>2026-04-18T14:16:24.999Z</time></trkpt><trkpt lat="42.10754392396106" lon="13.49348621604054"><ele>1030.0</ele><time>2026-04-18T14:16:25.999Z</time></trkpt><trkpt lat="42.10763387441436" lon="13.493337835619304"><ele>1030.0</ele><time>2026-04-18T14:16:26.999Z</time></trkpt><trkpt lat="42.107701686498665" lon="13.493177235617901"><ele>1030.0</ele><time>2026-04-18T14:16:27.999Z</time></trkpt><trkpt lat="42.10771678761085" lon="13.492978332388265"><ele>1030.0</ele><time>2026-04-18T14:16:28.999Z</time></trkpt><trkpt lat="42.107682071582104" lon="13.492731668253551"><ele>1032.0</ele><time>2026-04-18T14:16:29.999Z</time></trkpt><trkpt lat="42.10761283216037" lon="13.492453141355512"><ele>1034.0</ele><time>2026-04-18T14:16:30.999Z</time></trkpt><trkpt lat="42.10756585190602" lon="13.49217028065006"><ele>1036.0</ele><time>2026-04-18T14:16:31.999Z</time></trkpt><trkpt lat="42.10751421096556" lon="13.491931648457973"><ele>1039.3333333333333</ele><time>2026-04-18T14:16:32.999Z</time></trkpt><trkpt lat="42.10744786736418" lon="13.491743474918106"><ele>1042.6666666666667</ele><time>2026-04-18T14:16:33.999Z</time></trkpt><trkpt lat="42.10734701791471" lon="13.491577101584916"><ele>1046.0</ele><time>2026-04-18T14:16:34.999Z</time></trkpt><trkpt lat="42.10723279610026" lon="13.491404674372667"><ele>1041.75</ele><time>2026-04-18T14:16:35.999Z</time></trkpt><trkpt lat="42.10714337706252" lon="13.491216308906258"><ele>1037.5</ele><time>2026-04-18T14:16:36.999Z</time></trkpt><trkpt lat="42.10712294600448" lon="13.4910644403107"><ele>1033.25</ele><time>2026-04-18T14:16:37.999Z</time></trkpt><trkpt lat="42.107107185793474" lon="13.490889803214953"><ele>1029.0</ele><time>2026-04-18T14:16:38.999Z</time></trkpt><trkpt lat="42.10712118232062" lon="13.490683838964227"><ele>1029.0</ele><time>2026-04-18T14:16:39.999Z</time></trkpt><trkpt lat="42.10714211886512" lon="13.490453988217292"><ele>1029.0</ele><time>2026-04-18T14:16:40.999Z</time></trkpt><trkpt lat="42.10718995406237" lon="13.490174232526828"><ele>1029.0</ele><time>2026-04-18T14:16:41.999Z</time></trkpt><trkpt lat="42.1072584550726" lon="13.489874640809235"><ele>1032.3333333333333</ele><time>2026-04-18T14:16:42.999Z</time></trkpt><trkpt lat="42.10731930318257" lon="13.489589565806977"><ele>1035.6666666666665</ele><time>2026-04-18T14:16:43.999Z</time></trkpt><trkpt lat="42.10737008878214" lon="13.489342074873177"><ele>1039.0</ele><time>2026-04-18T14:16:44.998Z</time></trkpt><trkpt lat="42.10740675508277" lon="13.489129952925548"><ele>1041.6666666666665</ele><time>2026-04-18T14:16:45.998Z</time></trkpt><trkpt lat="42.107461415293635" lon="13.488934698431875"><ele>1044.3333333333333</ele><time>2026-04-18T14:16:46.998Z</time></trkpt><trkpt lat="42.107557674555004" lon="13.4887708966466"><ele>1047.0</ele><time>2026-04-18T14:16:47.998Z</time></trkpt><trkpt lat="42.10768558671645" lon="13.488637616221869"><ele>1047.0</ele><time>2026-04-18T14:16:48.998Z</time></trkpt><trkpt lat="42.1078557888728" lon="13.488528813818245"><ele>1047.0</ele><time>2026-04-18T14:16:49.998Z</time></trkpt><trkpt lat="42.10807063654686" lon="13.48845195545412"><ele>1047.0</ele><time>2026-04-18T14:16:50.998Z</time></trkpt><trkpt lat="42.10829436708219" lon="13.488356149172013"><ele>1050.3333333333333</ele><time>2026-04-18T14:16:51.998Z</time></trkpt><trkpt lat="42.10850046134381" lon="13.488256597346664"><ele>1053.6666666666665</ele><time>2026-04-18T14:16:52.998Z</time></trkpt><trkpt lat="42.10867951055914" lon="13.488095657048266"><ele>1057.0</ele><time>2026-04-18T14:16:53.998Z</time></trkpt><trkpt lat="42.10885399918857" lon="13.487872890059348"><ele>1057.0</ele><time>2026-04-18T14:16:54.998Z</time></trkpt><trkpt lat="42.109028489741675" lon="13.487591490981764"><ele>1057.0</ele><time>2026-04-18T14:16:56Z</time></trkpt><trkpt lat="42.109189528069756" lon="13.487267030911788"><ele>1063.0</ele><time>2026-04-18T14:16:57Z</time></trkpt><trkpt lat="42.109317585411866" lon="13.486975108509297"><ele>1069.0</ele><time>2026-04-18T14:16:58Z</time></trkpt><trkpt lat="42.10943513810049" lon="13.48673036889466"><ele>1069.0</ele><time>2026-04-18T14:16:59Z</time></trkpt><trkpt lat="42.109539295971864" lon="13.486510169773362"><ele>1069.0</ele><time>2026-04-18T14:17:00Z</time></trkpt><trkpt lat="42.109645688737864" lon="13.486288753679455"><ele>1069.0</ele><time>2026-04-18T14:17:01Z</time></trkpt><trkpt lat="42.10976170587652" lon="13.486056580258838"><ele>1067.3333333333333</ele><time>2026-04-18T14:17:02Z</time></trkpt><trkpt lat="42.10987167482249" lon="13.485838587506816"><ele>1065.6666666666667</ele><time>2026-04-18T14:17:03Z</time></trkpt><trkpt lat="42.10996754670904" lon="13.485636709942659"><ele>1064.0</ele><time>2026-04-18T14:17:04Z</time></trkpt><trkpt lat="42.11005235629309" lon="13.485408888138112"><ele>1070.3333333333335</ele><time>2026-04-18T14:17:05Z</time></trkpt><trkpt lat="42.11007978012988" lon="13.485140529163703"><ele>1076.6666666666667</ele><time>2026-04-18T14:17:06Z</time></trkpt><trkpt lat="42.11005567202731" lon="13.484852163312818"><ele>1083.0</ele><time>2026-04-18T14:17:07Z</time></trkpt><trkpt lat="42.110013887798026" lon="13.484591646911884"><ele>1085.0</ele><time>2026-04-18T14:17:08Z</time></trkpt><trkpt lat="42.10998720017239" lon="13.484369963731922"><ele>1087.0</ele><time>2026-04-18T14:17:09Z</time></trkpt><trkpt lat="42.109973365415" lon="13.48416684116986"><ele>1089.0</ele><time>2026-04-18T14:17:10Z</time></trkpt><trkpt lat="42.109965020911076" lon="13.483969878687196"><ele>1089.0</ele><time>2026-04-18T14:17:11Z</time></trkpt><trkpt lat="42.109980806788116" lon="13.483769378527668"><ele>1089.0</ele><time>2026-04-18T14:17:12Z</time></trkpt><trkpt lat="42.11002077392823" lon="13.483547979650746"><ele>1089.0</ele><time>2026-04-18T14:17:13Z</time></trkpt><trkpt lat="42.110094881867525" lon="13.483329073651836"><ele>1088.6666666666667</ele><time>2026-04-18T14:17:14Z</time></trkpt><trkpt lat="42.11017341036846" lon="13.483130313098833"><ele>1088.3333333333335</ele><time>2026-04-18T14:17:15Z</time></trkpt><trkpt lat="42.110261846859245" lon="13.482972075680607"><ele>1088.0</ele><time>2026-04-18T14:17:16Z</time></trkpt><trkpt lat="42.1103706960194" lon="13.482817064602878"><ele>1085.6666666666667</ele><time>2026-04-18T14:17:17Z</time></trkpt><trkpt lat="42.11049374539698" lon="13.482672151864644"><ele>1083.3333333333333</ele><time>2026-04-18T14:17:18Z</time></trkpt><trkpt lat="42.11061670436695" lon="13.482530856856428"><ele>1081.0</ele><time>2026-04-18T14:17:19Z</time></trkpt><trkpt lat="42.110748099983574" lon="13.482373695031022"><ele>1086.0</ele><time>2026-04-18T14:17:20Z</time></trkpt><trkpt lat="42.11086151552143" lon="13.482221306256008"><ele>1091.0</ele><time>2026-04-18T14:17:21Z</time></trkpt><trkpt lat="42.11094684105611" lon="13.482041989982129"><ele>1096.0</ele><time>2026-04-18T14:17:22Z</time></trkpt><trkpt lat="42.11105156923424" lon="13.481861054417461"><ele>1096.0</ele><time>2026-04-18T14:17:22.999Z</time></trkpt><trkpt lat="42.111136707855806" lon="13.48161916300269"><ele>1096.0</ele><time>2026-04-18T14:17:23.999Z</time></trkpt><trkpt lat="42.11117632438792" lon="13.48137513178671"><ele>1096.0</ele><time>2026-04-18T14:17:24.999Z</time></trkpt><trkpt lat="42.11121346381019" lon="13.48115444582878"><ele>1096.3333333333333</ele><time>2026-04-18T14:17:25.999Z</time></trkpt><trkpt lat="42.11124810053786" lon="13.480950338797353"><ele>1096.6666666666667</ele><time>2026-04-18T14:17:26.999Z</time></trkpt><trkpt lat="42.11128419662317" lon="13.480738439553186"><ele>1097.0</ele><time>2026-04-18T14:17:27.999Z</time></trkpt><trkpt lat="42.11131583049149" lon="13.480528692086574"><ele>1097.6666666666667</ele><time>2026-04-18T14:17:28.999Z</time></trkpt><trkpt lat="42.11134532347265" lon="13.480324196135221"><ele>1098.3333333333333</ele><time>2026-04-18T14:17:29.999Z</time></trkpt><trkpt lat="42.11136199394238" lon="13.480119279465718"><ele>1099.0</ele><time>2026-04-18T14:17:30.999Z</time></trkpt><trkpt lat="42.111347097157946" lon="13.479885985185888"><ele>1099.0</ele><time>2026-04-18T14:17:31.999Z</time></trkpt><trkpt lat="42.111294305509595" lon="13.47960272014726"><ele>1099.0</ele><time>2026-04-18T14:17:32.999Z</time></trkpt><trkpt lat="42.11123061541702" lon="13.479323470563015"><ele>1099.0</ele><time>2026-04-18T14:17:33.999Z</time></trkpt><trkpt lat="42.111170226315366" lon="13.479090493678576"><ele>1102.0</ele><time>2026-04-18T14:17:34.999Z</time></trkpt><trkpt lat="42.11112013322681" lon="13.478884555820715"><ele>1105.0</ele><time>2026-04-18T14:17:35.999Z</time></trkpt><trkpt lat="42.11106640273315" lon="13.478687650721085"><ele>1108.0</ele><time>2026-04-18T14:17:36.999Z</time></trkpt><trkpt lat="42.11101938317451" lon="13.478488812352088"><ele>1108.5</ele><time>2026-04-18T14:17:37.999Z</time></trkpt><trkpt lat="42.11098705281849" lon="13.47829313317301"><ele>1109.0</ele><time>2026-04-18T14:17:38.999Z</time></trkpt><trkpt lat="42.110976984640686" lon="13.4780916868382"><ele>1109.5</ele><time>2026-04-18T14:17:39.999Z</time></trkpt><trkpt lat="42.11098098423777" lon="13.477897698694088"><ele>1110.0</ele><time>2026-04-18T14:17:40.999Z</time></trkpt><trkpt lat="42.11097150986981" lon="13.477714296818695"><ele>1110.0</ele><time>2026-04-18T14:17:41.999Z</time></trkpt><trkpt lat="42.11095298767041" lon="13.477534780522245"><ele>1110.0</ele><time>2026-04-18T14:17:42.999Z</time></trkpt><trkpt lat="42.11092081178532" lon="13.477345005610067"><ele>1110.0</ele><time>2026-04-18T14:17:43.999Z</time></trkpt><trkpt lat="42.11085899830476" lon="13.477143859467155"><ele>1110.0</ele><time>2026-04-18T14:17:44.999Z</time></trkpt><trkpt lat="42.11077277193058" lon="13.476939639384424"><ele>1105.6666666666667</ele><time>2026-04-18T14:17:45.999Z</time></trkpt><trkpt lat="42.11065932220343" lon="13.476747959009739"><ele>1101.3333333333335</ele><time>2026-04-18T14:17:46.999Z</time></trkpt><trkpt lat="42.11054507944041" lon="13.476579973112463"><ele>1097.0</ele><time>2026-04-18T14:17:47.999Z</time></trkpt><trkpt lat="42.11044050765396" lon="13.476415812556587"><ele>1098.6666666666667</ele><time>2026-04-18T14:17:48.999Z</time></trkpt><trkpt lat="42.1103514050638" lon="13.476245162940385"><ele>1100.3333333333333</ele><time>2026-04-18T14:17:49.999Z</time></trkpt><trkpt lat="42.110283234195464" lon="13.476061223794195"><ele>1102.0</ele><time>2026-04-18T14:17:50.999Z</time></trkpt><trkpt lat="42.110234984392875" lon="13.475858288349736"><ele>1102.0</ele><time>2026-04-18T14:17:51.999Z</time></trkpt><trkpt lat="42.11019495143552" lon="13.475637374487706"><ele>1102.0</ele><time>2026-04-18T14:17:52.999Z</time></trkpt><trkpt lat="42.11016029285014" lon="13.475407261505495"><ele>1102.0</ele><time>2026-04-18T14:17:53.999Z</time></trkpt><trkpt lat="42.110132824671645" lon="13.475191460080747"><ele>1101.6666666666665</ele><time>2026-04-18T14:17:54.999Z</time></trkpt><trkpt lat="42.11009969589606" lon="13.474976728567075"><ele>1101.3333333333333</ele><time>2026-04-18T14:17:55.999Z</time></trkpt><trkpt lat="42.11003625121163" lon="13.474759749860421"><ele>1101.0</ele><time>2026-04-18T14:17:56.999Z</time></trkpt><trkpt lat="42.10994323151128" lon="13.474520743877575"><ele>1098.6666666666667</ele><time>2026-04-18T14:17:57.999Z</time></trkpt><trkpt lat="42.10983066466218" lon="13.4742816917446"><ele>1096.3333333333335</ele><time>2026-04-18T14:17:58.999Z</time></trkpt><trkpt lat="42.109710851254334" lon="13.474009347092581"><ele>1094.0</ele><time>2026-04-18T14:17:59.999Z</time></trkpt><trkpt lat="42.10957831994246" lon="13.473698132703998"><ele>1094.0</ele><time>2026-04-18T14:18:00.999Z</time></trkpt><trkpt lat="42.109424909307315" lon="13.473360379339486"><ele>1094.0</ele><time>2026-04-18T14:18:01.999Z</time></trkpt><trkpt lat="42.10929341016079" lon="13.473030617392524"><ele>1095.5</ele><time>2026-04-18T14:18:02.999Z</time></trkpt><trkpt lat="42.10917188582873" lon="13.472687128652064"><ele>1097.0</ele><time>2026-04-18T14:18:03.999Z</time></trkpt><trkpt lat="42.109079852826525" lon="13.472338084552014"><ele>1093.5</ele><time>2026-04-18T14:18:04.999Z</time></trkpt><trkpt lat="42.109010001941" lon="13.472020980765125"><ele>1090.0</ele><time>2026-04-18T14:18:05.999Z</time></trkpt><trkpt lat="42.10893867387161" lon="13.471726779168133"><ele>1090.0</ele><time>2026-04-18T14:18:06.999Z</time></trkpt><trkpt lat="42.10887205826963" lon="13.471452642778946"><ele>1090.0</ele><time>2026-04-18T14:18:07.999Z</time></trkpt><trkpt lat="42.108829453919306" lon="13.471189555372677"><ele>1090.0</ele><time>2026-04-18T14:18:08.999Z</time></trkpt><trkpt lat="42.1088151931845" lon="13.470893811730258"><ele>1090.5</ele><time>2026-04-18T14:18:09.999Z</time></trkpt><trkpt lat="42.10883120281918" lon="13.470570732432252"><ele>1091.0</ele><time>2026-04-18T14:18:10.999Z</time></trkpt><trkpt lat="42.10884418922541" lon="13.470261950049599"><ele>1089.6666666666667</ele><time>2026-04-18T14:18:11.999Z</time></trkpt><trkpt lat="42.108833333451145" lon="13.469984550865489"><ele>1088.3333333333333</ele><time>2026-04-18T14:18:12.999Z</time></trkpt><trkpt lat="42.108779640991614" lon="13.469685578965965"><ele>1087.0</ele><time>2026-04-18T14:18:13.999Z</time></trkpt><trkpt lat="42.108679450624486" lon="13.469335769964951"><ele>1086.5</ele><time>2026-04-18T14:18:14.999Z</time></trkpt><trkpt lat="42.108533725675095" lon="13.468954422612594"><ele>1086.0</ele><time>2026-04-18T14:18:15.999Z</time></trkpt><trkpt lat="42.108374622910766" lon="13.468565601576492"><ele>1087.0</ele><time>2026-04-18T14:18:16.999Z</time></trkpt><trkpt lat="42.108221314789816" lon="13.468159769813488"><ele>1088.0</ele><time>2026-04-18T14:18:17.999Z</time></trkpt><trkpt lat="42.10806604388812" lon="13.467732227089058"><ele>1088.0</ele><time>2026-04-18T14:18:18.999Z</time></trkpt><trkpt lat="42.10792229492125" lon="13.467339636981405"><ele>1088.0</ele><time>2026-04-18T14:18:19.999Z</time></trkpt><trkpt lat="42.10779860741754" lon="13.466996164162431"><ele>1090.5</ele><time>2026-04-18T14:18:20.999Z</time></trkpt><trkpt lat="42.10768844989175" lon="13.466686865950608"><ele>1093.0</ele><time>2026-04-18T14:18:21.999Z</time></trkpt><trkpt lat="42.10759562450675" lon="13.466418245650104"><ele>1095.3333333333333</ele><time>2026-04-18T14:18:22.999Z</time></trkpt><trkpt lat="42.10751288406833" lon="13.4661743354784"><ele>1097.6666666666667</ele><time>2026-04-18T14:18:23.999Z</time></trkpt><trkpt lat="42.10743816471342" lon="13.465943483089776"><ele>1100.0</ele><time>2026-04-18T14:18:24.999Z</time></trkpt><trkpt lat="42.10739052010766" lon="13.46572696527182"><ele>1100.6666666666667</ele><time>2026-04-18T14:18:25.999Z</time></trkpt><trkpt lat="42.10736727634919" lon="13.46546920002653"><ele>1101.3333333333333</ele><time>2026-04-18T14:18:26.999Z</time></trkpt><trkpt lat="42.107396136835625" lon="13.4652020071888"><ele>1102.0</ele><time>2026-04-18T14:18:27.999Z</time></trkpt><trkpt lat="42.107431463252404" lon="13.464959228089898"><ele>1102.6666666666665</ele><time>2026-04-18T14:18:28.999Z</time></trkpt><trkpt lat="42.10753264434604" lon="13.464715947104258"><ele>1103.3333333333333</ele><time>2026-04-18T14:18:29.999Z</time></trkpt><trkpt lat="42.10766641781282" lon="13.464455386477006"><ele>1104.0</ele><time>2026-04-18T14:18:30.999Z</time></trkpt><trkpt lat="42.1078154756274" lon="13.464152578996423"><ele>1101.5</ele><time>2026-04-18T14:18:31.999Z</time></trkpt><trkpt lat="42.10799635698728" lon="13.463838345528888"><ele>1099.0</ele><time>2026-04-18T14:18:32.999Z</time></trkpt><trkpt lat="42.108149821351695" lon="13.463548784978583"><ele>1101.6666666666665</ele><time>2026-04-18T14:18:33.999Z</time></trkpt><trkpt lat="42.10829301663789" lon="13.463295864275972"><ele>1104.3333333333333</ele><time>2026-04-18T14:18:34.999Z</time></trkpt><trkpt lat="42.1084100860863" lon="13.463061955267639"><ele>1107.0</ele><time>2026-04-18T14:18:35.999Z</time></trkpt><trkpt lat="42.108510693431185" lon="13.46282052267543"><ele>1108.3333333333333</ele><time>2026-04-18T14:18:36.999Z</time></trkpt><trkpt lat="42.108604344218044" lon="13.462534166627302"><ele>1109.6666666666665</ele><time>2026-04-18T14:18:37.999Z</time></trkpt><trkpt lat="42.10866531595478" lon="13.462260466539322"><ele>1111.0</ele><time>2026-04-18T14:18:38.999Z</time></trkpt><trkpt lat="42.10872408451965" lon="13.46201670760455"><ele>1111.3333333333333</ele><time>2026-04-18T14:18:39.999Z</time></trkpt><trkpt lat="42.10878042420295" lon="13.46176488415618"><ele>1111.6666666666667</ele><time>2026-04-18T14:18:40.999Z</time></trkpt><trkpt lat="42.108842972191475" lon="13.461521050875577"><ele>1112.0</ele><time>2026-04-18T14:18:41.999Z</time></trkpt><trkpt lat="42.10889854104329" lon="13.461294921147072"><ele>1111.3333333333335</ele><time>2026-04-18T14:18:42.999Z</time></trkpt><trkpt lat="42.10896056041319" lon="13.461072924718367"><ele>1110.6666666666667</ele><time>2026-04-18T14:18:43.999Z</time></trkpt><trkpt lat="42.10906724434883" lon="13.460839034011153"><ele>1110.0</ele><time>2026-04-18T14:18:44.999Z</time></trkpt><trkpt lat="42.10923811827894" lon="13.460588360337484"><ele>1105.0</ele><time>2026-04-18T14:18:45.999Z</time></trkpt><trkpt lat="42.10942902341085" lon="13.460351556061681"><ele>1100.0</ele><time>2026-04-18T14:18:46.999Z</time></trkpt><trkpt lat="42.1095982989563" lon="13.460153044089555"><ele>1100.0</ele><time>2026-04-18T14:18:47.999Z</time></trkpt><trkpt lat="42.10976562163775" lon="13.45993638240718"><ele>1100.0</ele><time>2026-04-18T14:18:48.998Z</time></trkpt><trkpt lat="42.109917625890006" lon="13.459747719504213"><ele>1100.0</ele><time>2026-04-18T14:18:49.998Z</time></trkpt><trkpt lat="42.11005796931413" lon="13.459572039244456"><ele>1098.3333333333335</ele><time>2026-04-18T14:18:50.998Z</time></trkpt><trkpt lat="42.11018122673137" lon="13.459402866836827"><ele>1096.6666666666667</ele><time>2026-04-18T14:18:51.998Z</time></trkpt><trkpt lat="42.11027638784674" lon="13.459224853857453"><ele>1095.0</ele><time>2026-04-18T14:18:52.998Z</time></trkpt><trkpt lat="42.11033678987157" lon="13.459025566369524"><ele>1095.0</ele><time>2026-04-18T14:18:53.998Z</time></trkpt><trkpt lat="42.11035611599332" lon="13.45879078353646"><ele>1095.0</ele><time>2026-04-18T14:18:54.998Z</time></trkpt><trkpt lat="42.110340293231864" lon="13.458495756567345"><ele>1095.0</ele><time>2026-04-18T14:18:55.998Z</time></trkpt><trkpt lat="42.110314162543034" lon="13.458189987899079"><ele>1092.3333333333333</ele><time>2026-04-18T14:18:56.998Z</time></trkpt><trkpt lat="42.110292861950576" lon="13.457911404261871"><ele>1089.6666666666665</ele><time>2026-04-18T14:18:57.998Z</time></trkpt><trkpt lat="42.110281773397126" lon="13.45764763366724"><ele>1087.0</ele><time>2026-04-18T14:18:58.998Z</time></trkpt><trkpt lat="42.11029318894941" lon="13.457382635348887"><ele>1085.3333333333333</ele><time>2026-04-18T14:18:59.998Z</time></trkpt><trkpt lat="42.11033356591015" lon="13.45710293739613"><ele>1083.6666666666667</ele><time>2026-04-18T14:19:00.998Z</time></trkpt><trkpt lat="42.11041679830763" lon="13.456823920790839"><ele>1082.0</ele><time>2026-04-18T14:19:02Z</time></trkpt><trkpt lat="42.110537331084934" lon="13.456508569198164"><ele>1083.5</ele><time>2026-04-18T14:19:03Z</time></trkpt><trkpt lat="42.11065379988957" lon="13.456205663765699"><ele>1085.0</ele><time>2026-04-18T14:19:04Z</time></trkpt><trkpt lat="42.1107489960899" lon="13.45593640387137"><ele>1085.0</ele><time>2026-04-18T14:19:05Z</time></trkpt><trkpt lat="42.110883466797944" lon="13.4556795708058"><ele>1085.0</ele><time>2026-04-18T14:19:06Z</time></trkpt><trkpt lat="42.1109873009177" lon="13.455431427301967"><ele>1085.0</ele><time>2026-04-18T14:19:07Z</time></trkpt><trkpt lat="42.111071226801414" lon="13.455166371176016"><ele>1080.5</ele><time>2026-04-18T14:19:08Z</time></trkpt><trkpt lat="42.111126007205215" lon="13.454864107046937"><ele>1076.0</ele><time>2026-04-18T14:19:09Z</time></trkpt><trkpt lat="42.11114388234701" lon="13.45454474390442"><ele>1075.6666666666667</ele><time>2026-04-18T14:19:10Z</time></trkpt><trkpt lat="42.11116776092655" lon="13.454260126413176"><ele>1075.3333333333333</ele><time>2026-04-18T14:19:11Z</time></trkpt><trkpt lat="42.1112146096212" lon="13.453985079275936"><ele>1075.0</ele><time>2026-04-18T14:19:12Z</time></trkpt><trkpt lat="42.11129243816341" lon="13.453672039915888"><ele>1071.0</ele><time>2026-04-18T14:19:13Z</time></trkpt><trkpt lat="42.11141726373642" lon="13.453329897378104"><ele>1067.0</ele><time>2026-04-18T14:19:14Z</time></trkpt><trkpt lat="42.11155993838437" lon="13.452976376312458"><ele>1067.0</ele><time>2026-04-18T14:19:15Z</time></trkpt><trkpt lat="42.11172610565347" lon="13.45261553638572"><ele>1067.0</ele><time>2026-04-18T14:19:16Z</time></trkpt><trkpt lat="42.11187064800996" lon="13.452287035828771"><ele>1063.0</ele><time>2026-04-18T14:19:17Z</time></trkpt><trkpt lat="42.11199990012942" lon="13.451981677876228"><ele>1059.0</ele><time>2026-04-18T14:19:18Z</time></trkpt><trkpt lat="42.11212402837472" lon="13.45169108840717"><ele>1059.0</ele><time>2026-04-18T14:19:19Z</time></trkpt><trkpt lat="42.11224018669239" lon="13.451408581558821"><ele>1059.0</ele><time>2026-04-18T14:19:20Z</time></trkpt><trkpt lat="42.112355456444014" lon="13.451099089522764"><ele>1060.0</ele><time>2026-04-18T14:19:21Z</time></trkpt><trkpt lat="42.11246800734647" lon="13.450729987511576"><ele>1061.0</ele><time>2026-04-18T14:19:22Z</time></trkpt><trkpt lat="42.11256193911309" lon="13.450354960693092"><ele>1057.0</ele><time>2026-04-18T14:19:23Z</time></trkpt><trkpt lat="42.11264259180511" lon="13.4500174889943"><ele>1053.0</ele><time>2026-04-18T14:19:24Z</time></trkpt><trkpt lat="42.11272306371431" lon="13.449705137617805"><ele>1051.3333333333333</ele><time>2026-04-18T14:19:25Z</time></trkpt><trkpt lat="42.11279986927534" lon="13.44941208756385"><ele>1049.6666666666665</ele><time>2026-04-18T14:19:26Z</time></trkpt><trkpt lat="42.11287028701308" lon="13.449143037105861"><ele>1048.0</ele><time>2026-04-18T14:19:26.999Z</time></trkpt><trkpt lat="42.112937676136426" lon="13.448889254401822"><ele>1046.0</ele><time>2026-04-18T14:19:27.999Z</time></trkpt><trkpt lat="42.113000603270955" lon="13.448652227089223"><ele>1044.0</ele><time>2026-04-18T14:19:28.999Z</time></trkpt><trkpt lat="42.11306015143759" lon="13.448436481659758"><ele>1042.0</ele><time>2026-04-18T14:19:29.999Z</time></trkpt><trkpt lat="42.1131125804489" lon="13.448234763374083"><ele>1042.0</ele><time>2026-04-18T14:19:30.999Z</time></trkpt><trkpt lat="42.113159890276215" lon="13.448050762114894"><ele>1042.0</ele><time>2026-04-18T14:19:31.999Z</time></trkpt><trkpt lat="42.11320054023417" lon="13.447882000663748"><ele>1042.0</ele><time>2026-04-18T14:19:32.999Z</time></trkpt><trkpt lat="42.11323018622048" lon="13.447726675409458"><ele>1042.0</ele><time>2026-04-18T14:19:33.999Z</time></trkpt><trkpt lat="42.11323778229664" lon="13.44757721890797"><ele>1040.8</ele><time>2026-04-18T14:19:34.999Z</time></trkpt><trkpt lat="42.11322385692308" lon="13.447438391265235"><ele>1039.6</ele><time>2026-04-18T14:19:35.999Z</time></trkpt><trkpt lat="42.113195752405396" lon="13.447324464268503"><ele>1038.3999999999999</ele><time>2026-04-18T14:19:36.999Z</time></trkpt><trkpt lat="42.1131469029453" lon="13.447235631410067"><ele>1037.2</ele><time>2026-04-18T14:19:37.999Z</time></trkpt><trkpt lat="42.113079064080395" lon="13.447166848516062"><ele>1036.0</ele><time>2026-04-18T14:19:38.999Z</time></trkpt><trkpt lat="42.112989082554634" lon="13.447159866423979"><ele>1036.0</ele><time>2026-04-18T14:19:39.999Z</time></trkpt><trkpt lat="42.112908772711556" lon="13.447212610998122"><ele>1036.0</ele><time>2026-04-18T14:19:40.999Z</time></trkpt><trkpt lat="42.11285802529145" lon="13.447318363327343"><ele>1036.0</ele><time>2026-04-18T14:19:41.999Z</time></trkpt><trkpt lat="42.11283249002995" lon="13.447462929132593"><ele>1036.0</ele><time>2026-04-18T14:19:42.999Z</time></trkpt><trkpt lat="42.11282358116663" lon="13.44760954218117"><ele>1036.0</ele><time>2026-04-18T14:19:43.999Z</time></trkpt><trkpt lat="42.11280797438268" lon="13.447730964011644"><ele>1036.0</ele><time>2026-04-18T14:19:44.999Z</time></trkpt><trkpt lat="42.112766282942275" lon="13.447812133601767"><ele>1036.0</ele><time>2026-04-18T14:19:45.999Z</time></trkpt><trkpt lat="42.112702338990495" lon="13.447835453856"><ele>1036.0</ele><time>2026-04-18T14:19:46.999Z</time></trkpt><trkpt lat="42.11262229803832" lon="13.447791789086185"><ele>1036.0</ele><time>2026-04-18T14:19:47.999Z</time></trkpt><trkpt lat="42.112568962994594" lon="13.447705661921072"><ele>1036.0</ele><time>2026-04-18T14:19:48.999Z</time></trkpt><trkpt lat="42.112555411450685" lon="13.44756297449126"><ele>1036.0</ele><time>2026-04-18T14:19:49.999Z</time></trkpt><trkpt lat="42.11255701535426" lon="13.44738628312681"><ele>1036.0</ele><time>2026-04-18T14:19:50.999Z</time></trkpt><trkpt lat="42.11254625053247" lon="13.447217956822477"><ele>1036.0</ele><time>2026-04-18T14:19:51.999Z</time></trkpt><trkpt lat="42.11252526618558" lon="13.447067766704453"><ele>1036.0</ele><time>2026-04-18T14:19:52.999Z</time></trkpt><trkpt lat="42.112496222814954" lon="13.44692195372993"><ele>1036.0</ele><time>2026-04-18T14:19:53.999Z</time></trkpt><trkpt lat="42.112460920730115" lon="13.446795701813288"><ele>1035.7142857142858</ele><time>2026-04-18T14:19:54.999Z</time></trkpt><trkpt lat="42.11242666621126" lon="13.446688978426717"><ele>1035.4285714285716</ele><time>2026-04-18T14:19:55.999Z</time></trkpt><trkpt lat="42.11239681095913" lon="13.446601818847958"><ele>1035.142857142857</ele><time>2026-04-18T14:19:56.999Z</time></trkpt><trkpt lat="42.11237413266913" lon="13.446514381696046"><ele>1034.857142857143</ele><time>2026-04-18T14:19:57.999Z</time></trkpt><trkpt lat="42.112357404336606" lon="13.446415788089102"><ele>1034.5714285714287</ele><time>2026-04-18T14:19:58.999Z</time></trkpt><trkpt lat="42.11235783743998" lon="13.446316821425238"><ele>1034.2857142857142</ele><time>2026-04-18T14:19:59.999Z</time></trkpt><trkpt lat="42.11235888339126" lon="13.446221914169035"><ele>1034.0</ele><time>2026-04-18T14:20:00.999Z</time></trkpt><trkpt lat="42.112383623823845" lon="13.44613931832192"><ele>1033.3333333333335</ele><time>2026-04-18T14:20:01.999Z</time></trkpt><trkpt lat="42.11241598297732" lon="13.446050194631212"><ele>1032.6666666666667</ele><time>2026-04-18T14:20:02.999Z</time></trkpt><trkpt lat="42.11246521689951" lon="13.445959412633664"><ele>1032.0</ele><time>2026-04-18T14:20:03.999Z</time></trkpt><trkpt lat="42.112492318433965" lon="13.445873898722164"><ele>1031.3333333333333</ele><time>2026-04-18T14:20:04.999Z</time></trkpt><trkpt lat="42.11252219379023" lon="13.44578717189959"><ele>1030.6666666666665</ele><time>2026-04-18T14:20:05.999Z</time></trkpt><trkpt lat="42.11256232080808" lon="13.44571692386347"><ele>1030.0</ele><time>2026-04-18T14:20:06.999Z</time></trkpt><trkpt lat="42.11261411602111" lon="13.445600606841055"><ele>1030.0</ele><time>2026-04-18T14:20:08.999Z</time></trkpt><trkpt lat="42.11261928892245" lon="13.445504293611569"><ele>1030.0</ele><time>2026-04-18T14:20:09.999Z</time></trkpt><trkpt lat="42.11257787662447" lon="13.445326932330815"><ele>1030.0</ele><time>2026-04-18T14:20:11.999Z</time></trkpt><trkpt lat="42.11253690315559" lon="13.445196394932264"><ele>1030.0</ele><time>2026-04-18T14:20:13.999Z</time></trkpt><trkpt lat="42.112504034690616" lon="13.445041304519279"><ele>1030.0</ele><time>2026-04-18T14:20:15.999Z</time></trkpt><trkpt lat="42.11249136095514" lon="13.444941170498405"><ele>1028.8</ele><time>2026-04-18T14:20:16.999Z</time></trkpt><trkpt lat="42.11248530686059" lon="13.444767164109457"><ele>1027.6</ele><time>2026-04-18T14:20:18.999Z</time></trkpt><trkpt lat="42.11250060194946" lon="13.444675751109171"><ele>1026.4</ele><time>2026-04-18T14:20:19.999Z</time></trkpt><trkpt lat="42.11246601734824" lon="13.444518997630134"><ele>1025.2</ele><time>2026-04-18T14:20:21.999Z</time></trkpt><trkpt lat="42.112449821586786" lon="13.44442375120294"><ele>1024.0</ele><time>2026-04-18T14:20:22.999Z</time></trkpt><trkpt lat="42.112368793055616" lon="13.444344644295363"><ele>1021.6</ele><time>2026-04-18T14:20:23.999Z</time></trkpt><trkpt lat="42.112304290555095" lon="13.444238782454581"><ele>1019.2</ele><time>2026-04-18T14:20:24.999Z</time></trkpt><trkpt lat="42.112235687136675" lon="13.444135958440528"><ele>1016.8000000000001</ele><time>2026-04-18T14:20:25.999Z</time></trkpt><trkpt lat="42.11217208885422" lon="13.444041141071459"><ele>1014.4000000000001</ele><time>2026-04-18T14:20:26.999Z</time></trkpt><trkpt lat="42.11211169964134" lon="13.443950741278734"><ele>1012.0</ele><time>2026-04-18T14:20:27.999Z</time></trkpt><trkpt lat="42.112057880552435" lon="13.443861704007048"><ele>1011.9999999999999</ele><time>2026-04-18T14:20:28.999Z</time></trkpt><trkpt lat="42.112006157236905" lon="13.44377640611058"><ele>1012.0</ele><time>2026-04-18T14:20:29.999Z</time></trkpt><trkpt lat="42.111957976753665" lon="13.443701822227"><ele>1012.0</ele><time>2026-04-18T14:20:30.999Z</time></trkpt><trkpt lat="42.11191348593829" lon="13.443629016802205"><ele>1012.0</ele><time>2026-04-18T14:20:31.999Z</time></trkpt><trkpt lat="42.1118533064809" lon="13.44353750937094"><ele>1011.9999999999999</ele><time>2026-04-18T14:20:32.999Z</time></trkpt><trkpt lat="42.11177311710738" lon="13.443414588082664"><ele>1012.0</ele><time>2026-04-18T14:20:33.999Z</time></trkpt><trkpt lat="42.111681229034005" lon="13.443277147351104"><ele>1012.0</ele><time>2026-04-18T14:20:34.999Z</time></trkpt><trkpt lat="42.11157770940326" lon="13.443132478764506"><ele>1012.0</ele><time>2026-04-18T14:20:35.999Z</time></trkpt><trkpt lat="42.11146996306949" lon="13.442991306680772"><ele>1012.0</ele><time>2026-04-18T14:20:36.999Z</time></trkpt><trkpt lat="42.11135190312452" lon="13.442843588577494"><ele>1011.0</ele><time>2026-04-18T14:20:37.999Z</time></trkpt><trkpt lat="42.11123262563667" lon="13.442693577273152"><ele>1010.0</ele><time>2026-04-18T14:20:38.999Z</time></trkpt><trkpt lat="42.1111261292368" lon="13.442556705887334"><ele>1009.0</ele><time>2026-04-18T14:20:39.999Z</time></trkpt><trkpt lat="42.11102304059547" lon="13.442423419878587"><ele>1009.0</ele><time>2026-04-18T14:20:40.999Z</time></trkpt><trkpt lat="42.110920991896826" lon="13.44228671935512"><ele>1009.0</ele><time>2026-04-18T14:20:41.999Z</time></trkpt><trkpt lat="42.11080808305821" lon="13.44213891792726"><ele>1009.0</ele><time>2026-04-18T14:20:42.999Z</time></trkpt><trkpt lat="42.110688003017" lon="13.44199767626542"><ele>1008.3333333333333</ele><time>2026-04-18T14:20:43.999Z</time></trkpt><trkpt lat="42.11056741684185" lon="13.441837980775396"><ele>1007.6666666666667</ele><time>2026-04-18T14:20:44.999Z</time></trkpt><trkpt lat="42.110455539516835" lon="13.441695922631354"><ele>1007.0</ele><time>2026-04-18T14:20:45.999Z</time></trkpt><trkpt lat="42.11035028759235" lon="13.441558951073219"><ele>1007.0</ele><time>2026-04-18T14:20:46.999Z</time></trkpt><trkpt lat="42.11025554443498" lon="13.441427568654438"><ele>1007.0</ele><time>2026-04-18T14:20:47.999Z</time></trkpt><trkpt lat="42.11017195785195" lon="13.44131963216445"><ele>1007.0</ele><time>2026-04-18T14:20:48.999Z</time></trkpt><trkpt lat="42.11009898561029" lon="13.44122556615567"><ele>1007.0</ele><time>2026-04-18T14:20:49.999Z</time></trkpt><trkpt lat="42.11004748128026" lon="13.44115716754401"><ele>1007.0</ele><time>2026-04-18T14:20:50.999Z</time></trkpt><trkpt lat="42.109995805589904" lon="13.441087277037095"><ele>1007.4000000000001</ele><time>2026-04-18T14:20:51.999Z</time></trkpt><trkpt lat="42.10994663117977" lon="13.441024656705732"><ele>1007.8000000000001</ele><time>2026-04-18T14:20:52.998Z</time></trkpt><trkpt lat="42.10987630572872" lon="13.440935334237468"><ele>1008.2</ele><time>2026-04-18T14:20:53.998Z</time></trkpt><trkpt lat="42.10978406663466" lon="13.4408211503517"><ele>1008.6</ele><time>2026-04-18T14:20:54.998Z</time></trkpt><trkpt lat="42.10967857770198" lon="13.440688813603767"><ele>1009.0</ele><time>2026-04-18T14:20:55.998Z</time></trkpt><trkpt lat="42.10955143260736" lon="13.44057074106152"><ele>1008.75</ele><time>2026-04-18T14:20:56.998Z</time></trkpt><trkpt lat="42.109418018061106" lon="13.44046545654442"><ele>1008.5</ele><time>2026-04-18T14:20:57.998Z</time></trkpt><trkpt lat="42.10928555724508" lon="13.440409614781938"><ele>1008.25</ele><time>2026-04-18T14:20:58.998Z</time></trkpt><trkpt lat="42.109175408895" lon="13.440367625885369"><ele>1008.0</ele><time>2026-04-18T14:20:59.998Z</time></trkpt><trkpt lat="42.1090887704825" lon="13.440329569339294"><ele>1007.2</ele><time>2026-04-18T14:21:00.998Z</time></trkpt><trkpt lat="42.10901548770672" lon="13.440297679562045"><ele>1006.4</ele><time>2026-04-18T14:21:01.998Z</time></trkpt><trkpt lat="42.108938388031746" lon="13.440272482501104"><ele>1005.6000000000001</ele><time>2026-04-18T14:21:02.998Z</time></trkpt><trkpt lat="42.108854427090286" lon="13.440245480303993"><ele>1004.8000000000001</ele><time>2026-04-18T14:21:03.998Z</time></trkpt><trkpt lat="42.108744779184995" lon="13.440208179751039"><ele>1004.0</ele><time>2026-04-18T14:21:04.998Z</time></trkpt><trkpt lat="42.1086086874239" lon="13.440174893032232"><ele>1004.0</ele><time>2026-04-18T14:21:05.998Z</time></trkpt><trkpt lat="42.10845459357334" lon="13.44013915185299"><ele>1004.0</ele><time>2026-04-18T14:21:06.998Z</time></trkpt><trkpt lat="42.108310892556794" lon="13.440103052176102"><ele>1004.0</ele><time>2026-04-18T14:21:08Z</time></trkpt><trkpt lat="42.10817745547991" lon="13.440063967551747"><ele>1004.0</ele><time>2026-04-18T14:21:09Z</time></trkpt><trkpt lat="42.10805335321752" lon="13.440028943258028"><ele>1003.1666666666667</ele><time>2026-04-18T14:21:10Z</time></trkpt><trkpt lat="42.10794281936088" lon="13.439993312713401"><ele>1002.3333333333334</ele><time>2026-04-18T14:21:11Z</time></trkpt><trkpt lat="42.10785407674375" lon="13.439964578511129"><ele>1001.5</ele><time>2026-04-18T14:21:12Z</time></trkpt><trkpt lat="42.107780523238674" lon="13.439937339095444"><ele>1000.6666666666667</ele><time>2026-04-18T14:21:13Z</time></trkpt><trkpt lat="42.10770622968255" lon="13.439909590237514"><ele>999.8333333333334</ele><time>2026-04-18T14:21:14Z</time></trkpt><trkpt lat="42.10762880757522" lon="13.43988472851219"><ele>999.0</ele><time>2026-04-18T14:21:15Z</time></trkpt><trkpt lat="42.10753246031775" lon="13.439855454479764"><ele>999.0</ele><time>2026-04-18T14:21:16Z</time></trkpt><trkpt lat="42.10741396458137" lon="13.439824643706173"><ele>999.0</ele><time>2026-04-18T14:21:17Z</time></trkpt><trkpt lat="42.10726781994455" lon="13.439797398336532"><ele>999.0</ele><time>2026-04-18T14:21:18Z</time></trkpt><trkpt lat="42.10710359385804" lon="13.439752054767007"><ele>999.0</ele><time>2026-04-18T14:21:19Z</time></trkpt><trkpt lat="42.106912137640634" lon="13.439695137480454"><ele>997.5</ele><time>2026-04-18T14:21:20Z</time></trkpt><trkpt lat="42.10668163997883" lon="13.439627459690472"><ele>996.0</ele><time>2026-04-18T14:21:21Z</time></trkpt><trkpt lat="42.106431604532126" lon="13.439540934692191"><ele>994.0</ele><time>2026-04-18T14:21:22Z</time></trkpt><trkpt lat="42.10616315953058" lon="13.439438104671725"><ele>992.0</ele><time>2026-04-18T14:21:23Z</time></trkpt><trkpt lat="42.10589519814605" lon="13.43932419539493"><ele>989.0</ele><time>2026-04-18T14:21:24Z</time></trkpt><trkpt lat="42.10565645996663" lon="13.439217514710977"><ele>986.0</ele><time>2026-04-18T14:21:25Z</time></trkpt><trkpt lat="42.10543715915466" lon="13.439113833322523"><ele>986.0</ele><time>2026-04-18T14:21:26Z</time></trkpt><trkpt lat="42.10522959751129" lon="13.43901777328141"><ele>986.0</ele><time>2026-04-18T14:21:27Z</time></trkpt><trkpt lat="42.10503226149229" lon="13.43892636574106"><ele>986.0</ele><time>2026-04-18T14:21:28Z</time></trkpt><trkpt lat="42.104834638807276" lon="13.438831945995991"><ele>987.0</ele><time>2026-04-18T14:21:29Z</time></trkpt><trkpt lat="42.10460331745657" lon="13.43872145936408"><ele>988.0</ele><time>2026-04-18T14:21:30Z</time></trkpt><trkpt lat="42.104350191487576" lon="13.438571939621351"><ele>988.0</ele><time>2026-04-18T14:21:30.999Z</time></trkpt><trkpt lat="42.104090509020345" lon="13.438391058792416"><ele>988.0</ele><time>2026-04-18T14:21:31.999Z</time></trkpt><trkpt lat="42.10383464150716" lon="13.438202673929505"><ele>987.5</ele><time>2026-04-18T14:21:32.999Z</time></trkpt><trkpt lat="42.103596937895134" lon="13.438031577289586"><ele>987.0</ele><time>2026-04-18T14:21:33.999Z</time></trkpt><trkpt lat="42.103349856803945" lon="13.437853361423938"><ele>985.5</ele><time>2026-04-18T14:21:34.999Z</time></trkpt><trkpt lat="42.10308109021789" lon="13.437639951167265"><ele>984.0</ele><time>2026-04-18T14:21:35.999Z</time></trkpt><trkpt lat="42.1028063186322" lon="13.437377798532724"><ele>985.0</ele><time>2026-04-18T14:21:36.999Z</time></trkpt><trkpt lat="42.10252220480788" lon="13.437083796876774"><ele>986.0</ele><time>2026-04-18T14:21:37.999Z</time></trkpt><trkpt lat="42.10223274635182" lon="13.43678427468622"><ele>985.0</ele><time>2026-04-18T14:21:38.999Z</time></trkpt><trkpt lat="42.10193182467959" lon="13.436479267039985"><ele>984.0</ele><time>2026-04-18T14:21:39.999Z</time></trkpt><trkpt lat="42.10161472028188" lon="13.436162492266384"><ele>981.5</ele><time>2026-04-18T14:21:40.999Z</time></trkpt><trkpt lat="42.10129185513178" lon="13.435839050864983"><ele>979.0</ele><time>2026-04-18T14:21:41.999Z</time></trkpt><trkpt lat="42.10097173222074" lon="13.43551672523734"><ele>977.5</ele><time>2026-04-18T14:21:42.999Z</time></trkpt><trkpt lat="42.100641366042396" lon="13.435189462559398"><ele>976.0</ele><time>2026-04-18T14:21:43.999Z</time></trkpt><trkpt lat="42.100315930929426" lon="13.434865835764812"><ele>976.5</ele><time>2026-04-18T14:21:44.999Z</time></trkpt><trkpt lat="42.10002197237855" lon="13.434572425899745"><ele>977.0</ele><time>2026-04-18T14:21:45.999Z</time></trkpt><trkpt lat="42.099749693426865" lon="13.434298224602866"><ele>976.0</ele><time>2026-04-18T14:21:46.999Z</time></trkpt><trkpt lat="42.09948840571661" lon="13.434032284803884"><ele>975.0</ele><time>2026-04-18T14:21:47.999Z</time></trkpt><trkpt lat="42.09920476024681" lon="13.433742853309786"><ele>973.5</ele><time>2026-04-18T14:21:48.999Z</time></trkpt><trkpt lat="42.09891982601437" lon="13.433459891991795"><ele>972.0</ele><time>2026-04-18T14:21:49.999Z</time></trkpt><trkpt lat="42.09865958729029" lon="13.433198934488235"><ele>970.5</ele><time>2026-04-18T14:21:50.999Z</time></trkpt><trkpt lat="42.09841355172475" lon="13.432945203944236"><ele>969.0</ele><time>2026-04-18T14:21:51.999Z</time></trkpt><trkpt lat="42.0981566975025" lon="13.43268506380404"><ele>969.0</ele><time>2026-04-18T14:21:52.999Z</time></trkpt><trkpt lat="42.09789198444476" lon="13.432421715011692"><ele>969.0</ele><time>2026-04-18T14:21:53.999Z</time></trkpt><trkpt lat="42.09762826989583" lon="13.43214032165341"><ele>966.0</ele><time>2026-04-18T14:21:54.999Z</time></trkpt><trkpt lat="42.09736419400822" lon="13.43183414335913"><ele>963.0</ele><time>2026-04-18T14:21:55.999Z</time></trkpt><trkpt lat="42.09709863836864" lon="13.431497759097228"><ele>963.0</ele><time>2026-04-18T14:21:56.999Z</time></trkpt><trkpt lat="42.09683659505212" lon="13.431141976390084"><ele>963.0</ele><time>2026-04-18T14:21:57.999Z</time></trkpt><trkpt lat="42.096591076532285" lon="13.430798729013826"><ele>961.5</ele><time>2026-04-18T14:21:58.999Z</time></trkpt><trkpt lat="42.09636529270729" lon="13.43048946406689"><ele>960.0</ele><time>2026-04-18T14:21:59.999Z</time></trkpt><trkpt lat="42.0961370663827" lon="13.430177300675822"><ele>959.0</ele><time>2026-04-18T14:22:00.999Z</time></trkpt><trkpt lat="42.095895187868834" lon="13.429849558335752"><ele>958.0</ele><time>2026-04-18T14:22:01.999Z</time></trkpt><trkpt lat="42.09565697891102" lon="13.429523131988669"><ele>956.0</ele><time>2026-04-18T14:22:02.999Z</time></trkpt><trkpt lat="42.09543645472768" lon="13.42921431666833"><ele>954.0</ele><time>2026-04-18T14:22:03.999Z</time></trkpt><trkpt lat="42.09523194994924" lon="13.428932365942252"><ele>952.5</ele><time>2026-04-18T14:22:04.999Z</time></trkpt><trkpt lat="42.09504134233109" lon="13.428667590975445"><ele>951.0</ele><time>2026-04-18T14:22:05.999Z</time></trkpt><trkpt lat="42.09485895441322" lon="13.428415067927082"><ele>951.0</ele><time>2026-04-18T14:22:06.999Z</time></trkpt><trkpt lat="42.09468522361502" lon="13.4281724767292"><ele>951.0</ele><time>2026-04-18T14:22:07.999Z</time></trkpt><trkpt lat="42.09452134028545" lon="13.427946569457351"><ele>950.6666666666667</ele><time>2026-04-18T14:22:08.999Z</time></trkpt><trkpt lat="42.09436191314377" lon="13.427726927302386"><ele>950.3333333333334</ele><time>2026-04-18T14:22:09.999Z</time></trkpt><trkpt lat="42.094213417241946" lon="13.42752587659842"><ele>950.0</ele><time>2026-04-18T14:22:10.999Z</time></trkpt><trkpt lat="42.0940707374581" lon="13.427328351221199"><ele>948.6666666666667</ele><time>2026-04-18T14:22:11.999Z</time></trkpt><trkpt lat="42.09393574277694" lon="13.427140690535916"><ele>947.3333333333333</ele><time>2026-04-18T14:22:12.999Z</time></trkpt><trkpt lat="42.09380661334281" lon="13.426960926284492"><ele>946.0</ele><time>2026-04-18T14:22:13.999Z</time></trkpt><trkpt lat="42.09368228876018" lon="13.426792343942484"><ele>946.0</ele><time>2026-04-18T14:22:14.999Z</time></trkpt><trkpt lat="42.09356555717606" lon="13.426628836711755"><ele>946.0</ele><time>2026-04-18T14:22:15.999Z</time></trkpt><trkpt lat="42.093451302061126" lon="13.426472164129098"><ele>946.0</ele><time>2026-04-18T14:22:16.999Z</time></trkpt><trkpt lat="42.093339983676586" lon="13.426319322279769"><ele>944.0</ele><time>2026-04-18T14:22:17.999Z</time></trkpt><trkpt lat="42.093232581407776" lon="13.426171945343405"><ele>942.0</ele><time>2026-04-18T14:22:18.999Z</time></trkpt><trkpt lat="42.09313129239413" lon="13.426029026590415"><ele>940.0</ele><time>2026-04-18T14:22:19.999Z</time></trkpt><trkpt lat="42.09303443569182" lon="13.425894859728173"><ele>938.0</ele><time>2026-04-18T14:22:20.999Z</time></trkpt><trkpt lat="42.09294170729424" lon="13.4257649142846"><ele>938.0</ele><time>2026-04-18T14:22:21.999Z</time></trkpt><trkpt lat="42.09285528086111" lon="13.425644140391691"><ele>938.0</ele><time>2026-04-18T14:22:22.999Z</time></trkpt><trkpt lat="42.09277028420063" lon="13.425525531823459"><ele>938.0</ele><time>2026-04-18T14:22:23.999Z</time></trkpt><trkpt lat="42.092688462861474" lon="13.425411758102891"><ele>938.0</ele><time>2026-04-18T14:22:24.999Z</time></trkpt><trkpt lat="42.09260881857335" lon="13.4253004885975"><ele>937.5999999999999</ele><time>2026-04-18T14:22:25.999Z</time></trkpt><trkpt lat="42.092532825910894" lon="13.425194758075287"><ele>937.1999999999999</ele><time>2026-04-18T14:22:26.999Z</time></trkpt><trkpt lat="42.09245848421979" lon="13.425092468429284"><ele>936.8</ele><time>2026-04-18T14:22:27.999Z</time></trkpt><trkpt lat="42.09239125689038" lon="13.424999906865871"><ele>936.4</ele><time>2026-04-18T14:22:28.999Z</time></trkpt><trkpt lat="42.092332484522785" lon="13.42492488792168"><ele>936.0</ele><time>2026-04-18T14:22:29.999Z</time></trkpt><trkpt lat="42.092283433049126" lon="13.424860358562878"><ele>935.4</ele><time>2026-04-18T14:22:30.999Z</time></trkpt><trkpt lat="42.09222260408629" lon="13.424783506870599"><ele>934.8</ele><time>2026-04-18T14:22:32.999Z</time></trkpt><trkpt lat="42.092140889114695" lon="13.42476246751298"><ele>934.1999999999999</ele><time>2026-04-18T14:22:39.999Z</time></trkpt><trkpt lat="42.09202240851171" lon="13.424906304174838"><ele>933.5999999999999</ele><time>2026-04-18T14:22:41.999Z</time></trkpt><trkpt lat="42.091966573992444" lon="13.425007986082248"><ele>933.0</ele><time>2026-04-18T14:22:42.999Z</time></trkpt><trkpt lat="42.091905805800444" lon="13.425105852775618"><ele>933.0</ele><time>2026-04-18T14:22:43.999Z</time></trkpt><trkpt lat="42.091827159096596" lon="13.425211205039895"><ele>933.0</ele><time>2026-04-18T14:22:44.999Z</time></trkpt><trkpt lat="42.09172450677186" lon="13.425320563588476"><ele>933.0</ele><time>2026-04-18T14:22:45.999Z</time></trkpt><trkpt lat="42.09160020076443" lon="13.425440305479423"><ele>933.0</ele><time>2026-04-18T14:22:46.999Z</time></trkpt><trkpt lat="42.091474200985246" lon="13.425556079670114"><ele>932.25</ele><time>2026-04-18T14:22:47.999Z</time></trkpt><trkpt lat="42.09134940082318" lon="13.425661998307643"><ele>931.5</ele><time>2026-04-18T14:22:48.999Z</time></trkpt><trkpt lat="42.09121250270641" lon="13.425762995636248"><ele>930.75</ele><time>2026-04-18T14:22:49.999Z</time></trkpt><trkpt lat="42.091082334934356" lon="13.425849892701322"><ele>930.0</ele><time>2026-04-18T14:22:50.999Z</time></trkpt><trkpt lat="42.09095813775402" lon="13.425924117797909"><ele>930.0</ele><time>2026-04-18T14:22:51.999Z</time></trkpt><trkpt lat="42.090840167069956" lon="13.42598767256103"><ele>930.0</ele><time>2026-04-18T14:22:52.999Z</time></trkpt><trkpt lat="42.09072933929461" lon="13.426036373414115"><ele>930.0</ele><time>2026-04-18T14:22:53.999Z</time></trkpt><trkpt lat="42.09062132888507" lon="13.426075794925133"><ele>930.0</ele><time>2026-04-18T14:22:54.999Z</time></trkpt><trkpt lat="42.090517221095276" lon="13.426101694635186"><ele>928.8</ele><time>2026-04-18T14:22:55.999Z</time></trkpt><trkpt lat="42.09041759309448" lon="13.42611075964027"><ele>927.6</ele><time>2026-04-18T14:22:56.998Z</time></trkpt><trkpt lat="42.090317610313186" lon="13.426119260226937"><ele>926.4000000000001</ele><time>2026-04-18T14:22:57.998Z</time></trkpt><trkpt lat="42.09020557239637" lon="13.426147200567229"><ele>925.2</ele><time>2026-04-18T14:22:58.998Z</time></trkpt><trkpt lat="42.090078160792125" lon="13.426179418919112"><ele>924.0</ele><time>2026-04-18T14:22:59.998Z</time></trkpt><trkpt lat="42.0899394298913" lon="13.426214507605073"><ele>923.3333333333333</ele><time>2026-04-18T14:23:00.998Z</time></trkpt><trkpt lat="42.08978914003354" lon="13.426255241922254"><ele>922.6666666666666</ele><time>2026-04-18T14:23:01.998Z</time></trkpt><trkpt lat="42.08962525146448" lon="13.426300595897558"><ele>922.0</ele><time>2026-04-18T14:23:02.998Z</time></trkpt><trkpt lat="42.089448614591255" lon="13.426359104925584"><ele>922.0</ele><time>2026-04-18T14:23:03.998Z</time></trkpt><trkpt lat="42.08927113923318" lon="13.426427510806022"><ele>922.0</ele><time>2026-04-18T14:23:04.998Z</time></trkpt><trkpt lat="42.08908440556358" lon="13.426507273581667"><ele>922.0</ele><time>2026-04-18T14:23:05.998Z</time></trkpt><trkpt lat="42.08889372242817" lon="13.426596504684118"><ele>919.6666666666666</ele><time>2026-04-18T14:23:06.998Z</time></trkpt><trkpt lat="42.08872386930618" lon="13.426676747832778"><ele>917.3333333333333</ele><time>2026-04-18T14:23:07.998Z</time></trkpt><trkpt lat="42.0885684119374" lon="13.426755396818049"><ele>915.0</ele><time>2026-04-18T14:23:08.998Z</time></trkpt><trkpt lat="42.0884167255912" lon="13.426831952573242"><ele>915.0</ele><time>2026-04-18T14:23:09.998Z</time></trkpt><trkpt lat="42.08826875299939" lon="13.426908247417394"><ele>915.0</ele><time>2026-04-18T14:23:10.998Z</time></trkpt><trkpt lat="42.088115030847185" lon="13.426992167632529"><ele>915.0</ele><time>2026-04-18T14:23:11.998Z</time></trkpt><trkpt lat="42.08793921658452" lon="13.42709548659844"><ele>914.0</ele><time>2026-04-18T14:23:12.998Z</time></trkpt><trkpt lat="42.087747513067214" lon="13.427208385136385"><ele>913.0</ele><time>2026-04-18T14:23:14Z</time></trkpt><trkpt lat="42.087564897102055" lon="13.427313859049816"><ele>912.0</ele><time>2026-04-18T14:23:15Z</time></trkpt><trkpt lat="42.08739842618538" lon="13.42741253069795"><ele>910.3333333333333</ele><time>2026-04-18T14:23:16Z</time></trkpt><trkpt lat="42.08724091960566" lon="13.42750317321423"><ele>908.6666666666666</ele><time>2026-04-18T14:23:17Z</time></trkpt><trkpt lat="42.0870884075687" lon="13.4275931034082"><ele>907.0</ele><time>2026-04-18T14:23:18Z</time></trkpt><trkpt lat="42.08692502618477" lon="13.427688744942145"><ele>907.0</ele><time>2026-04-18T14:23:19Z</time></trkpt><trkpt lat="42.08673525939448" lon="13.427799460992109"><ele>907.0</ele><time>2026-04-18T14:23:20Z</time></trkpt><trkpt lat="42.086515408681926" lon="13.427930475565573"><ele>907.0</ele><time>2026-04-18T14:23:21Z</time></trkpt><trkpt lat="42.086276619481325" lon="13.428072965662057"><ele>904.5</ele><time>2026-04-18T14:23:22Z</time></trkpt><trkpt lat="42.08604171241556" lon="13.42821440586168"><ele>902.0</ele><time>2026-04-18T14:23:23Z</time></trkpt><trkpt lat="42.085821348984894" lon="13.42834826127067"><ele>897.5</ele><time>2026-04-18T14:23:24Z</time></trkpt><trkpt lat="42.08559823641487" lon="13.428469025705848"><ele>893.0</ele><time>2026-04-18T14:23:25Z</time></trkpt><trkpt lat="42.08535511851518" lon="13.42859378816049"><ele>893.0</ele><time>2026-04-18T14:23:26Z</time></trkpt><trkpt lat="42.08509848408667" lon="13.428716736525807"><ele>893.0</ele><time>2026-04-18T14:23:27Z</time></trkpt><trkpt lat="42.0848345524453" lon="13.428823229283836"><ele>889.5</ele><time>2026-04-18T14:23:28Z</time></trkpt><trkpt lat="42.084538411178215" lon="13.428911025478397"><ele>886.0</ele><time>2026-04-18T14:23:29Z</time></trkpt><trkpt lat="42.084213710196735" lon="13.428973411043488"><ele>884.5</ele><time>2026-04-18T14:23:30Z</time></trkpt><trkpt lat="42.08390400007536" lon="13.42903169128897"><ele>883.0</ele><time>2026-04-18T14:23:31Z</time></trkpt><trkpt lat="42.083587637841404" lon="13.429089475650919"><ele>881.0</ele><time>2026-04-18T14:23:32Z</time></trkpt><trkpt lat="42.08324579392675" lon="13.429153276631668"><ele>879.0</ele><time>2026-04-18T14:23:33Z</time></trkpt><trkpt lat="42.08289259302686" lon="13.429211521540742"><ele>879.0</ele><time>2026-04-18T14:23:33.999Z</time></trkpt><trkpt lat="42.08257566847271" lon="13.429243552058747"><ele>879.0</ele><time>2026-04-18T14:23:34.999Z</time></trkpt><trkpt lat="42.08228180108038" lon="13.429262796561932"><ele>879.0</ele><time>2026-04-18T14:23:35.999Z</time></trkpt><trkpt lat="42.0820015438682" lon="13.429270882348677"><ele>879.0</ele><time>2026-04-18T14:23:36.999Z</time></trkpt><trkpt lat="42.08174389498674" lon="13.429273981496767"><ele>881.0</ele><time>2026-04-18T14:23:37.999Z</time></trkpt><trkpt lat="42.0814997741842" lon="13.429281077912943"><ele>883.0</ele><time>2026-04-18T14:23:38.999Z</time></trkpt><trkpt lat="42.081270753103624" lon="13.429291614196897"><ele>883.0</ele><time>2026-04-18T14:23:39.999Z</time></trkpt><trkpt lat="42.08105539399152" lon="13.42929807248594"><ele>883.0</ele><time>2026-04-18T14:23:40.999Z</time></trkpt><trkpt lat="42.08085143687696" lon="13.42930343324341"><ele>883.0</ele><time>2026-04-18T14:23:41.999Z</time></trkpt><trkpt lat="42.080657281529376" lon="13.429308233680297"><ele>882.0</ele><time>2026-04-18T14:23:42.999Z</time></trkpt><trkpt lat="42.08047087644113" lon="13.429312984318456"><ele>881.0</ele><time>2026-04-18T14:23:43.999Z</time></trkpt><trkpt lat="42.08028896051739" lon="13.429325316547612"><ele>880.0</ele><time>2026-04-18T14:23:44.999Z</time></trkpt><trkpt lat="42.080093282825366" lon="13.429325115229732"><ele>878.6666666666666</ele><time>2026-04-18T14:23:45.999Z</time></trkpt><trkpt lat="42.07989397452387" lon="13.429342254212967"><ele>877.3333333333333</ele><time>2026-04-18T14:23:46.999Z</time></trkpt><trkpt lat="42.0796817005523" lon="13.429376775714003"><ele>876.0</ele><time>2026-04-18T14:23:47.999Z</time></trkpt><trkpt lat="42.07945003730146" lon="13.429419194337026"><ele>876.0</ele><time>2026-04-18T14:23:48.999Z</time></trkpt><trkpt lat="42.07920878724883" lon="13.429476276679019"><ele>876.0</ele><time>2026-04-18T14:23:49.999Z</time></trkpt><trkpt lat="42.07895963697933" lon="13.429544559206285"><ele>874.0</ele><time>2026-04-18T14:23:50.999Z</time></trkpt><trkpt lat="42.07870116576087" lon="13.429625883930846"><ele>872.0</ele><time>2026-04-18T14:23:51.999Z</time></trkpt><trkpt lat="42.078435455164374" lon="13.429720715197398"><ele>869.5</ele><time>2026-04-18T14:23:52.999Z</time></trkpt><trkpt lat="42.07819542952366" lon="13.429810206169414"><ele>867.0</ele><time>2026-04-18T14:23:53.999Z</time></trkpt><trkpt lat="42.07797595420959" lon="13.429892849817547"><ele>867.0</ele><time>2026-04-18T14:23:54.999Z</time></trkpt><trkpt lat="42.07776899510896" lon="13.42997396968847"><ele>867.0</ele><time>2026-04-18T14:23:55.999Z</time></trkpt><trkpt lat="42.077570739354414" lon="13.430052448223607"><ele>867.0</ele><time>2026-04-18T14:23:56.999Z</time></trkpt><trkpt lat="42.07734886393334" lon="13.430140971127651"><ele>864.5</ele><time>2026-04-18T14:23:57.999Z</time></trkpt><trkpt lat="42.077122585487274" lon="13.430229208605587"><ele>862.0</ele><time>2026-04-18T14:23:58.999Z</time></trkpt><trkpt lat="42.07690060627754" lon="13.430315230399136"><ele>862.0</ele><time>2026-04-18T14:23:59.999Z</time></trkpt><trkpt lat="42.0766892883201" lon="13.430397768615443"><ele>862.0</ele><time>2026-04-18T14:24:00.999Z</time></trkpt><trkpt lat="42.07648479064618" lon="13.430477945441764"><ele>862.0</ele><time>2026-04-18T14:24:01.999Z</time></trkpt><trkpt lat="42.07628800274813" lon="13.430557935238015"><ele>861.3333333333333</ele><time>2026-04-18T14:24:02.999Z</time></trkpt><trkpt lat="42.07609881993798" lon="13.430633292656527"><ele>860.6666666666667</ele><time>2026-04-18T14:24:03.999Z</time></trkpt><trkpt lat="42.075915832524366" lon="13.430706026906133"><ele>860.0</ele><time>2026-04-18T14:24:04.999Z</time></trkpt><trkpt lat="42.07573548549875" lon="13.430779391756491"><ele>858.0</ele><time>2026-04-18T14:24:05.999Z</time></trkpt><trkpt lat="42.07554939750536" lon="13.430853643683047"><ele>856.0</ele><time>2026-04-18T14:24:06.999Z</time></trkpt><trkpt lat="42.075357948398356" lon="13.430929820904908"><ele>854.0</ele><time>2026-04-18T14:24:07.999Z</time></trkpt><trkpt lat="42.07516762665232" lon="13.431008604269334"><ele>854.0</ele><time>2026-04-18T14:24:08.999Z</time></trkpt><trkpt lat="42.07498838129063" lon="13.431093858768882"><ele>854.0</ele><time>2026-04-18T14:24:09.999Z</time></trkpt><trkpt lat="42.07481852772177" lon="13.43119101678984"><ele>854.0</ele><time>2026-04-18T14:24:10.999Z</time></trkpt><trkpt lat="42.074655740029115" lon="13.43129372153366"><ele>852.3333333333334</ele><time>2026-04-18T14:24:11.999Z</time></trkpt><trkpt lat="42.07449296803414" lon="13.431418810935877"><ele>850.6666666666667</ele><time>2026-04-18T14:24:12.999Z</time></trkpt><trkpt lat="42.074304590855355" lon="13.431570383960759"><ele>849.0</ele><time>2026-04-18T14:24:13.999Z</time></trkpt><trkpt lat="42.07410161143616" lon="13.431745755063112"><ele>846.5</ele><time>2026-04-18T14:24:14.999Z</time></trkpt><trkpt lat="42.07389036830093" lon="13.431947940844488"><ele>844.0</ele><time>2026-04-18T14:24:15.999Z</time></trkpt><trkpt lat="42.07366547098497" lon="13.432161864291096"><ele>844.0</ele><time>2026-04-18T14:24:16.999Z</time></trkpt><trkpt lat="42.07343475522817" lon="13.432398483066923"><ele>844.0</ele><time>2026-04-18T14:24:17.999Z</time></trkpt><trkpt lat="42.07318988173021" lon="13.432624161707327"><ele>840.5</ele><time>2026-04-18T14:24:18.999Z</time></trkpt><trkpt lat="42.072931426997485" lon="13.432867725776227"><ele>837.0</ele><time>2026-04-18T14:24:19.999Z</time></trkpt><trkpt lat="42.07266160999385" lon="13.433121646153268"><ele>835.0</ele><time>2026-04-18T14:24:20.999Z</time></trkpt><trkpt lat="42.07241148825483" lon="13.433361573343282"><ele>833.0</ele><time>2026-04-18T14:24:21.999Z</time></trkpt><trkpt lat="42.07217792014831" lon="13.433584365705654"><ele>833.0</ele><time>2026-04-18T14:24:22.999Z</time></trkpt><trkpt lat="42.07195176448555" lon="13.433800282798112"><ele>833.0</ele><time>2026-04-18T14:24:23.999Z</time></trkpt><trkpt lat="42.07172153057136" lon="13.434020488589063"><ele>831.5</ele><time>2026-04-18T14:24:24.999Z</time></trkpt><trkpt lat="42.07148824450062" lon="13.434236631441717"><ele>830.0</ele><time>2026-04-18T14:24:25.999Z</time></trkpt><trkpt lat="42.07123696758098" lon="13.43444043041326"><ele>830.0</ele><time>2026-04-18T14:24:26.999Z</time></trkpt><trkpt lat="42.070969263699496" lon="13.434614576976461"><ele>830.0</ele><time>2026-04-18T14:24:27.999Z</time></trkpt><trkpt lat="42.070674862116775" lon="13.434741533909369"><ele>826.5</ele><time>2026-04-18T14:24:28.999Z</time></trkpt><trkpt lat="42.07035798144737" lon="13.434839910839374"><ele>823.0</ele><time>2026-04-18T14:24:29.999Z</time></trkpt><trkpt lat="42.070050608207325" lon="13.434896941380133"><ele>820.0</ele><time>2026-04-18T14:24:30.999Z</time></trkpt><trkpt lat="42.0697676615512" lon="13.434935631332932"><ele>817.0</ele><time>2026-04-18T14:24:31.999Z</time></trkpt><trkpt lat="42.06950118961927" lon="13.434966330570605"><ele>817.0</ele><time>2026-04-18T14:24:32.999Z</time></trkpt><trkpt lat="42.06924864217846" lon="13.434998211286057"><ele>817.0</ele><time>2026-04-18T14:24:33.999Z</time></trkpt><trkpt lat="42.06900577598405" lon="13.435034561457691"><ele>815.5</ele><time>2026-04-18T14:24:34.999Z</time></trkpt><trkpt lat="42.06875043033349" lon="13.435073012714664"><ele>814.0</ele><time>2026-04-18T14:24:35.999Z</time></trkpt><trkpt lat="42.06850199787491" lon="13.435110099314638"><ele>814.0</ele><time>2026-04-18T14:24:36.999Z</time></trkpt><trkpt lat="42.068286473468824" lon="13.435141665488878"><ele>814.0</ele><time>2026-04-18T14:24:37.999Z</time></trkpt><trkpt lat="42.06808518198079" lon="13.435170299425529"><ele>814.0</ele><time>2026-04-18T14:24:38.999Z</time></trkpt><trkpt lat="42.06789579327549" lon="13.43520146194246"><ele>813.3333333333333</ele><time>2026-04-18T14:24:39.999Z</time></trkpt><trkpt lat="42.067713111939646" lon="13.435233552218232"><ele>812.6666666666667</ele><time>2026-04-18T14:24:40.999Z</time></trkpt><trkpt lat="42.067535912328474" lon="13.435260086474093"><ele>812.0</ele><time>2026-04-18T14:24:41.999Z</time></trkpt><trkpt lat="42.06736444725332" lon="13.435288828695333"><ele>812.0</ele><time>2026-04-18T14:24:42.999Z</time></trkpt><trkpt lat="42.06717482859912" lon="13.435302790245128"><ele>812.0</ele><time>2026-04-18T14:24:43.999Z</time></trkpt><trkpt lat="42.066951620649746" lon="13.435331730450281"><ele>812.0</ele><time>2026-04-18T14:24:44.999Z</time></trkpt><trkpt lat="42.06671012275519" lon="13.435369824973204"><ele>809.5</ele><time>2026-04-18T14:24:45.999Z</time></trkpt><trkpt lat="42.06645396031323" lon="13.435377371014242"><ele>807.0</ele><time>2026-04-18T14:24:46.999Z</time></trkpt><trkpt lat="42.06616959390617" lon="13.435376897958596"><ele>807.0</ele><time>2026-04-18T14:24:47.999Z</time></trkpt><trkpt lat="42.06586880454515" lon="13.435360127834493"><ele>807.0</ele><time>2026-04-18T14:24:48.999Z</time></trkpt><trkpt lat="42.065554428506665" lon="13.435327724376045"><ele>805.0</ele><time>2026-04-18T14:24:49.999Z</time></trkpt><trkpt lat="42.065232820716425" lon="13.435294072630922"><ele>803.0</ele><time>2026-04-18T14:24:50.999Z</time></trkpt><trkpt lat="42.06489715039522" lon="13.435255256770144"><ele>802.5</ele><time>2026-04-18T14:24:51.999Z</time></trkpt><trkpt lat="42.06454494391062" lon="13.435211552170637"><ele>802.0</ele><time>2026-04-18T14:24:52.999Z</time></trkpt><trkpt lat="42.06421939583395" lon="13.435166357170274"><ele>801.0</ele><time>2026-04-18T14:24:53.999Z</time></trkpt><trkpt lat="42.063919500391464" lon="13.43512674569471"><ele>800.0</ele><time>2026-04-18T14:24:54.999Z</time></trkpt><trkpt lat="42.06361753479927" lon="13.435092445583962"><ele>800.0</ele><time>2026-04-18T14:24:55.999Z</time></trkpt><trkpt lat="42.0633309022178" lon="13.435056921361367"><ele>800.0</ele><time>2026-04-18T14:24:56.999Z</time></trkpt><trkpt lat="42.06306437407813" lon="13.435021733950597"><ele>797.0</ele><time>2026-04-18T14:24:57.999Z</time></trkpt><trkpt lat="42.062816280303394" lon="13.434986430562631"><ele>794.0</ele><time>2026-04-18T14:24:58.999Z</time></trkpt><trkpt lat="42.06256376789839" lon="13.434953186973486"><ele>792.0</ele><time>2026-04-18T14:24:59.998Z</time></trkpt><trkpt lat="42.06230455766123" lon="13.434920907714972"><ele>790.0</ele><time>2026-04-18T14:25:00.998Z</time></trkpt><trkpt lat="42.06204089751476" lon="13.434885054088607"><ele>790.0</ele><time>2026-04-18T14:25:01.998Z</time></trkpt><trkpt lat="42.0617926944599" lon="13.434852623388823"><ele>790.0</ele><time>2026-04-18T14:25:02.998Z</time></trkpt><trkpt lat="42.061560921465166" lon="13.434818506131846"><ele>788.0</ele><time>2026-04-18T14:25:03.998Z</time></trkpt><trkpt lat="42.06132752206384" lon="13.434789620082675"><ele>786.0</ele><time>2026-04-18T14:25:04.998Z</time></trkpt><trkpt lat="42.06107142815909" lon="13.434760959427122"><ele>786.0</ele><time>2026-04-18T14:25:05.998Z</time></trkpt><trkpt lat="42.06080497697689" lon="13.434730209299808"><ele>786.0</ele><time>2026-04-18T14:25:06.998Z</time></trkpt><trkpt lat="42.06053578696448" lon="13.434694260473542"><ele>786.0</ele><time>2026-04-18T14:25:07.998Z</time></trkpt><trkpt lat="42.06027842544003" lon="13.434659894082575"><ele>786.0</ele><time>2026-04-18T14:25:08.998Z</time></trkpt><trkpt lat="42.06004342520081" lon="13.434625223989116"><ele>784.3333333333333</ele><time>2026-04-18T14:25:09.998Z</time></trkpt><trkpt lat="42.059820285948675" lon="13.43459474784964"><ele>782.6666666666666</ele><time>2026-04-18T14:25:10.998Z</time></trkpt><trkpt lat="42.05961359963764" lon="13.434567252021212"><ele>781.0</ele><time>2026-04-18T14:25:11.998Z</time></trkpt><trkpt lat="42.059415398526035" lon="13.434541272663909"><ele>781.0</ele><time>2026-04-18T14:25:12.998Z</time></trkpt><trkpt lat="42.05922399035272" lon="13.434516733354403"><ele>781.0</ele><time>2026-04-18T14:25:13.998Z</time></trkpt><trkpt lat="42.05904788013208" lon="13.434491415726887"><ele>781.0</ele><time>2026-04-18T14:25:14.998Z</time></trkpt><trkpt lat="42.058866871738736" lon="13.434468097435884"><ele>779.3333333333333</ele><time>2026-04-18T14:25:15.998Z</time></trkpt><trkpt lat="42.058680404672415" lon="13.434446268314364"><ele>777.6666666666667</ele><time>2026-04-18T14:25:16.998Z</time></trkpt><trkpt lat="42.058503993288895" lon="13.434426049941898"><ele>776.0</ele><time>2026-04-18T14:25:17.998Z</time></trkpt><trkpt lat="42.058339498974476" lon="13.43440354255058"><ele>774.5</ele><time>2026-04-18T14:25:19Z</time></trkpt><trkpt lat="42.058185314604565" lon="13.434382405238813"><ele>773.0</ele><time>2026-04-18T14:25:20Z</time></trkpt><trkpt lat="42.05804635660631" lon="13.434363350454815"><ele>771.5</ele><time>2026-04-18T14:25:21Z</time></trkpt><trkpt lat="42.057919241534655" lon="13.434346173548697"><ele>770.0</ele><time>2026-04-18T14:25:22Z</time></trkpt><trkpt lat="42.05780251856942" lon="13.434329807460376"><ele>770.0</ele><time>2026-04-18T14:25:23Z</time></trkpt><trkpt lat="42.057697307905336" lon="13.434316280746106"><ele>770.0</ele><time>2026-04-18T14:25:24Z</time></trkpt><trkpt lat="42.05759593630841" lon="13.434300081764965"><ele>770.0</ele><time>2026-04-18T14:25:25Z</time></trkpt><trkpt lat="42.057504716942255" lon="13.43428168530508"><ele>770.0</ele><time>2026-04-18T14:25:26Z</time></trkpt><trkpt lat="42.057425165779954" lon="13.434246497267717"><ele>770.0</ele><time>2026-04-18T14:25:27Z</time></trkpt><trkpt lat="42.05735869703356" lon="13.434182926172507"><ele>769.3333333333334</ele><time>2026-04-18T14:25:28Z</time></trkpt><trkpt lat="42.057308397961414" lon="13.434108026210314"><ele>768.6666666666667</ele><time>2026-04-18T14:25:29Z</time></trkpt><trkpt lat="42.05725085483849" lon="13.4340402123113"><ele>768.0</ele><time>2026-04-18T14:25:30Z</time></trkpt><trkpt lat="42.057170875324125" lon="13.434019008535534"><ele>767.3333333333334</ele><time>2026-04-18T14:25:31Z</time></trkpt><trkpt lat="42.0570996485556" lon="13.434042280381062"><ele>766.6666666666667</ele><time>2026-04-18T14:25:32Z</time></trkpt><trkpt lat="42.057026249230134" lon="13.43409980554706"><ele>766.0</ele><time>2026-04-18T14:25:33Z</time></trkpt><trkpt lat="42.05694536548314" lon="13.434150860708918"><ele>766.0</ele><time>2026-04-18T14:25:34Z</time></trkpt><trkpt lat="42.05684962569861" lon="13.434157125554531"><ele>766.0</ele><time>2026-04-18T14:25:35Z</time></trkpt><trkpt lat="42.056716778326496" lon="13.434118798074213"><ele>766.0</ele><time>2026-04-18T14:25:36Z</time></trkpt><trkpt lat="42.056526441147696" lon="13.434058061237469"><ele>766.0</ele><time>2026-04-18T14:25:36.999Z</time></trkpt><trkpt lat="42.05629322018072" lon="13.433991119152052"><ele>766.0</ele><time>2026-04-18T14:25:37.999Z</time></trkpt><trkpt lat="42.05602039013133" lon="13.433911111266859"><ele>766.0</ele><time>2026-04-18T14:25:38.999Z</time></trkpt><trkpt lat="42.0557343728461" lon="13.43383329927256"><ele>763.5</ele><time>2026-04-18T14:25:39.999Z</time></trkpt><trkpt lat="42.05547721348766" lon="13.4337483732911"><ele>761.0</ele><time>2026-04-18T14:25:40.999Z</time></trkpt><trkpt lat="42.05525065030355" lon="13.433663786964964"><ele>761.0</ele><time>2026-04-18T14:25:41.999Z</time></trkpt><trkpt lat="42.05505231132923" lon="13.43358749968097"><ele>761.0</ele><time>2026-04-18T14:25:42.999Z</time></trkpt><trkpt lat="42.05486591606796" lon="13.433526935411113"><ele>761.0</ele><time>2026-04-18T14:25:43.999Z</time></trkpt><trkpt lat="42.054668986520575" lon="13.433488889116093"><ele>759.6666666666666</ele><time>2026-04-18T14:25:44.999Z</time></trkpt><trkpt lat="42.054482983869036" lon="13.43346903627216"><ele>758.3333333333334</ele><time>2026-04-18T14:25:45.999Z</time></trkpt><trkpt lat="42.054297027537054" lon="13.433462454968694"><ele>757.0</ele><time>2026-04-18T14:25:46.999Z</time></trkpt><trkpt lat="42.05412902540647" lon="13.433470111730687"><ele>756.0</ele><time>2026-04-18T14:25:47.999Z</time></trkpt><trkpt lat="42.05397588386787" lon="13.433486061348095"><ele>755.0</ele><time>2026-04-18T14:25:48.999Z</time></trkpt><trkpt lat="42.05382234364694" lon="13.43350408321016"><ele>754.0</ele><time>2026-04-18T14:25:49.999Z</time></trkpt><trkpt lat="42.05365745685913" lon="13.4335287680162"><ele>754.0</ele><time>2026-04-18T14:25:50.999Z</time></trkpt><trkpt lat="42.05349104609982" lon="13.433556992373324"><ele>754.0</ele><time>2026-04-18T14:25:51.999Z</time></trkpt><trkpt lat="42.053335967164315" lon="13.433579994433137"><ele>754.0</ele><time>2026-04-18T14:25:52.999Z</time></trkpt><trkpt lat="42.05319656851668" lon="13.433600024467559"><ele>752.75</ele><time>2026-04-18T14:25:53.999Z</time></trkpt><trkpt lat="42.053063597083394" lon="13.433619606828557"><ele>751.5</ele><time>2026-04-18T14:25:54.999Z</time></trkpt><trkpt lat="42.052935566196325" lon="13.433646684524021"><ele>750.25</ele><time>2026-04-18T14:25:55.999Z</time></trkpt><trkpt lat="42.052798957654296" lon="13.433679171426117"><ele>749.0</ele><time>2026-04-18T14:25:56.999Z</time></trkpt><trkpt lat="42.05264925386664" lon="13.433707314139609"><ele>749.0</ele><time>2026-04-18T14:25:57.999Z</time></trkpt><trkpt lat="42.05249265683908" lon="13.433740440285531"><ele>749.0</ele><time>2026-04-18T14:25:58.999Z</time></trkpt><trkpt lat="42.052323921755935" lon="13.433779209980107"><ele>749.0</ele><time>2026-04-18T14:25:59.999Z</time></trkpt><trkpt lat="42.05215353858894" lon="13.433821572298049"><ele>748.6666666666666</ele><time>2026-04-18T14:26:00.999Z</time></trkpt><trkpt lat="42.051989711327934" lon="13.433873904407584"><ele>748.3333333333334</ele><time>2026-04-18T14:26:01.999Z</time></trkpt><trkpt lat="42.05182185561707" lon="13.43392506070054"><ele>748.0</ele><time>2026-04-18T14:26:02.999Z</time></trkpt><trkpt lat="42.05165370980479" lon="13.433963528087448"><ele>746.6666666666667</ele><time>2026-04-18T14:26:03.999Z</time></trkpt><trkpt lat="42.05149038882326" lon="13.434009431143469"><ele>745.3333333333334</ele><time>2026-04-18T14:26:04.999Z</time></trkpt><trkpt lat="42.05133090932997" lon="13.434059247112925"><ele>744.0</ele><time>2026-04-18T14:26:05.999Z</time></trkpt><trkpt lat="42.051179726855594" lon="13.43410461488585"><ele>744.0</ele><time>2026-04-18T14:26:06.999Z</time></trkpt><trkpt lat="42.051035665719304" lon="13.434145643791215"><ele>744.0</ele><time>2026-04-18T14:26:07.999Z</time></trkpt><trkpt lat="42.05089585872185" lon="13.434182270890323"><ele>744.0</ele><time>2026-04-18T14:26:08.999Z</time></trkpt><trkpt lat="42.05076298418773" lon="13.434207980495835"><ele>744.0</ele><time>2026-04-18T14:26:09.999Z</time></trkpt><trkpt lat="42.0506482378021" lon="13.434207290517021"><ele>743.8000000000001</ele><time>2026-04-18T14:26:10.999Z</time></trkpt><trkpt lat="42.050545704606016" lon="13.43418171918887"><ele>743.6</ele><time>2026-04-18T14:26:11.999Z</time></trkpt><trkpt lat="42.050433445650725" lon="13.4341579128121"><ele>743.4</ele><time>2026-04-18T14:26:12.999Z</time></trkpt><trkpt lat="42.05035817744632" lon="13.434073724695251"><ele>743.2</ele><time>2026-04-18T14:26:13.999Z</time></trkpt><trkpt lat="42.05028626762911" lon="13.433989076202433"><ele>743.0</ele><time>2026-04-18T14:26:14.999Z</time></trkpt><trkpt lat="42.05021321713592" lon="13.433860417950934"><ele>742.0</ele><time>2026-04-18T14:26:15.999Z</time></trkpt><trkpt lat="42.05014519316082" lon="13.4336594894619"><ele>741.0</ele><time>2026-04-18T14:26:16.999Z</time></trkpt><trkpt lat="42.05006478007585" lon="13.433404342625277"><ele>740.0</ele><time>2026-04-18T14:26:17.999Z</time></trkpt><trkpt lat="42.04996262850075" lon="13.433091285337927"><ele>739.0</ele><time>2026-04-18T14:26:18.999Z</time></trkpt><trkpt lat="42.04985129852788" lon="13.432750512031157"><ele>738.0</ele><time>2026-04-18T14:26:19.999Z</time></trkpt><trkpt lat="42.04972599068199" lon="13.432384870850548"><ele>737.5</ele><time>2026-04-18T14:26:20.999Z</time></trkpt><trkpt lat="42.04967790591813" lon="13.43208223001054"><ele>737.0</ele><time>2026-04-18T14:26:22.999Z</time></trkpt><trkpt lat="42.04951597580451" lon="13.431666132591214"><ele>737.0</ele><time>2026-04-18T14:26:23.999Z</time></trkpt><trkpt lat="42.049408470018946" lon="13.431342073604643"><ele>737.0</ele><time>2026-04-18T14:26:24.999Z</time></trkpt><trkpt lat="42.04929746783624" lon="13.43101625534939"><ele>738.0</ele><time>2026-04-18T14:26:25.999Z</time></trkpt><trkpt lat="42.0491725009929" lon="13.430686013673121"><ele>739.0</ele><time>2026-04-18T14:26:26.999Z</time></trkpt><trkpt lat="42.04905265532155" lon="13.430362269171457"><ele>736.3333333333334</ele><time>2026-04-18T14:26:27.999Z</time></trkpt><trkpt lat="42.04897599985619" lon="13.430140692991483"><ele>733.6666666666666</ele><time>2026-04-18T14:26:28.999Z</time></trkpt><trkpt lat="42.0489059807667" lon="13.42992703197315"><ele>731.0</ele><time>2026-04-18T14:26:29.999Z</time></trkpt><trkpt lat="42.048846957893446" lon="13.429742608138756"><ele>730.5</ele><time>2026-04-18T14:26:30.999Z</time></trkpt><trkpt lat="42.048787643972304" lon="13.429573161458423"><ele>730.0</ele><time>2026-04-18T14:26:31.999Z</time></trkpt><trkpt lat="42.04873455212398" lon="13.429415382458329"><ele>729.5</ele><time>2026-04-18T14:26:32.999Z</time></trkpt><trkpt lat="42.048678960257185" lon="13.42926425908187"><ele>729.0</ele><time>2026-04-18T14:26:33.999Z</time></trkpt><trkpt lat="42.048629273111914" lon="13.429130469641953"><ele>729.0</ele><time>2026-04-18T14:26:34.999Z</time></trkpt><trkpt lat="42.048584353033576" lon="13.42900870907566"><ele>729.0</ele><time>2026-04-18T14:26:35.999Z</time></trkpt><trkpt lat="42.04854739246732" lon="13.428897411373292"><ele>729.0</ele><time>2026-04-18T14:26:36.999Z</time></trkpt><trkpt lat="42.04851277928229" lon="13.428796043584471"><ele>729.0</ele><time>2026-04-18T14:26:37.999Z</time></trkpt><trkpt lat="42.04848293760846" lon="13.428704562502238"><ele>729.0</ele><time>2026-04-18T14:26:38.999Z</time></trkpt><trkpt lat="42.0484510100896" lon="13.428616892146513"><ele>729.0</ele><time>2026-04-18T14:26:39.999Z</time></trkpt><trkpt lat="42.048399193009416" lon="13.428535835411713"><ele>729.0</ele><time>2026-04-18T14:26:40.999Z</time></trkpt><trkpt lat="42.04831457127733" lon="13.428479682923426"><ele>729.0</ele><time>2026-04-18T14:26:41.999Z</time></trkpt><trkpt lat="42.048210414999865" lon="13.428496518027146"><ele>729.0</ele><time>2026-04-18T14:26:42.999Z</time></trkpt><trkpt lat="42.04810913150289" lon="13.428475807685555"><ele>729.0</ele><time>2026-04-18T14:26:43.999Z</time></trkpt><trkpt lat="42.048021510452266" lon="13.428458863485615"><ele>729.0</ele><time>2026-04-18T14:26:44.999Z</time></trkpt><trkpt lat="42.047933872761625" lon="13.428457055239278"><ele>728.4285714285714</ele><time>2026-04-18T14:26:45.999Z</time></trkpt><trkpt lat="42.04785329626187" lon="13.428438317761039"><ele>727.8571428571428</ele><time>2026-04-18T14:26:46.999Z</time></trkpt><trkpt lat="42.047775753577675" lon="13.428427543615072"><ele>727.2857142857142</ele><time>2026-04-18T14:26:47.999Z</time></trkpt><trkpt lat="42.047706969778794" lon="13.42840898269596"><ele>726.7142857142858</ele><time>2026-04-18T14:26:48.999Z</time></trkpt><trkpt lat="42.04763869422101" lon="13.428403771131034"><ele>726.1428571428571</ele><time>2026-04-18T14:26:49.999Z</time></trkpt><trkpt lat="42.0475741105658" lon="13.428427527895524"><ele>725.5714285714286</ele><time>2026-04-18T14:26:50.999Z</time></trkpt><trkpt lat="42.047492202072284" lon="13.428425344045197"><ele>725.0</ele><time>2026-04-18T14:26:52.999Z</time></trkpt><trkpt lat="42.047456256689244" lon="13.428664108624561"><ele>724.0</ele><time>2026-04-18T14:26:53.999Z</time></trkpt><trkpt lat="42.04742531798608" lon="13.428757139771117"><ele>723.0</ele><time>2026-04-18T14:26:54.999Z</time></trkpt><trkpt lat="42.04720940366795" lon="13.428745758337868"><ele>722.0</ele><time>2026-04-18T14:26:56.999Z</time></trkpt><trkpt lat="42.047060897437305" lon="13.428722981651973"><ele>721.0</ele><time>2026-04-18T14:26:57.999Z</time></trkpt><trkpt lat="42.04690290096034" lon="13.428673736729403"><ele>721.0</ele><time>2026-04-18T14:26:58.999Z</time></trkpt><trkpt lat="42.04676758213024" lon="13.428644901549745"><ele>721.0</ele><time>2026-04-18T14:26:59.999Z</time></trkpt><trkpt lat="42.046644679826" lon="13.428609473126931"><ele>721.0</ele><time>2026-04-18T14:27:00.998Z</time></trkpt><trkpt lat="42.046526458136796" lon="13.428572828719508"><ele>721.0</ele><time>2026-04-18T14:27:01.998Z</time></trkpt><trkpt lat="42.04642300264078" lon="13.428527079268832"><ele>720.8333333333334</ele><time>2026-04-18T14:27:02.998Z</time></trkpt><trkpt lat="42.04635171187839" lon="13.428442460732839"><ele>720.6666666666667</ele><time>2026-04-18T14:27:03.998Z</time></trkpt><trkpt lat="42.046282886467935" lon="13.428371275130091"><ele>720.5</ele><time>2026-04-18T14:27:04.998Z</time></trkpt><trkpt lat="42.04621210126874" lon="13.428325123496325"><ele>720.3333333333334</ele><time>2026-04-18T14:27:05.998Z</time></trkpt><trkpt lat="42.04613151787387" lon="13.428309572875833"><ele>720.1666666666666</ele><time>2026-04-18T14:27:06.998Z</time></trkpt><trkpt lat="42.0460406935554" lon="13.428330704424601"><ele>720.0</ele><time>2026-04-18T14:27:07.998Z</time></trkpt><trkpt lat="42.04593642931741" lon="13.428377286337248"><ele>720.0</ele><time>2026-04-18T14:27:08.998Z</time></trkpt><trkpt lat="42.04581315480487" lon="13.428435581140821"><ele>720.0</ele><time>2026-04-18T14:27:09.998Z</time></trkpt><trkpt lat="42.045673224758545" lon="13.428499042904354"><ele>720.0</ele><time>2026-04-18T14:27:10.998Z</time></trkpt><trkpt lat="42.04553049588" lon="13.428557870529593"><ele>720.0</ele><time>2026-04-18T14:27:11.998Z</time></trkpt><trkpt lat="42.045396186410194" lon="13.428605271742164"><ele>719.5</ele><time>2026-04-18T14:27:12.998Z</time></trkpt><trkpt lat="42.0452668978508" lon="13.428650338041116"><ele>719.0</ele><time>2026-04-18T14:27:13.998Z</time></trkpt><trkpt lat="42.04514372645848" lon="13.428694558849227"><ele>718.5</ele><time>2026-04-18T14:27:14.998Z</time></trkpt><trkpt lat="42.04502365186234" lon="13.428736068615825"><ele>718.0</ele><time>2026-04-18T14:27:15.998Z</time></trkpt><trkpt lat="42.044903242828646" lon="13.428779519512013"><ele>718.25</ele><time>2026-04-18T14:27:16.998Z</time></trkpt><trkpt lat="42.04478427614928" lon="13.428822467379856"><ele>718.5</ele><time>2026-04-18T14:27:17.998Z</time></trkpt><trkpt lat="42.0446657719561" lon="13.42886534848558"><ele>718.75</ele><time>2026-04-18T14:27:18.998Z</time></trkpt><trkpt lat="42.044548447397744" lon="13.428906648647471"><ele>719.0</ele><time>2026-04-18T14:27:19.998Z</time></trkpt><trkpt lat="42.04443233600268" lon="13.428945686288609"><ele>719.0</ele><time>2026-04-18T14:27:20.998Z</time></trkpt><trkpt lat="42.04432248601032" lon="13.428984798613982"><ele>719.0</ele><time>2026-04-18T14:27:21.998Z</time></trkpt><trkpt lat="42.044216425861336" lon="13.429023650182016"><ele>719.0</ele><time>2026-04-18T14:27:22.998Z</time></trkpt><trkpt lat="42.04411279661523" lon="13.42906105565662"><ele>719.0</ele><time>2026-04-18T14:27:23.998Z</time></trkpt><trkpt lat="42.04401018191603" lon="13.429098570485719"><ele>719.0</ele><time>2026-04-18T14:27:24.999Z</time></trkpt><trkpt lat="42.0439120173356" lon="13.429131889833155"><ele>718.6666666666666</ele><time>2026-04-18T14:27:26Z</time></trkpt><trkpt lat="42.04382431887854" lon="13.42916132120688"><ele>718.3333333333333</ele><time>2026-04-18T14:27:26.999Z</time></trkpt><trkpt lat="42.04374218051326" lon="13.429184844853173"><ele>718.0</ele><time>2026-04-18T14:27:27.999Z</time></trkpt><trkpt lat="42.043668947062464" lon="13.429209977677635"><ele>717.6666666666666</ele><time>2026-04-18T14:27:29Z</time></trkpt><trkpt lat="42.04359994962647" lon="13.42915920413209"><ele>717.3333333333334</ele><time>2026-04-18T14:27:29.999Z</time></trkpt><trkpt lat="42.04354620667746" lon="13.429102467311742"><ele>717.0</ele><time>2026-04-18T14:27:30.999Z</time></trkpt><trkpt lat="42.043525835837514" lon="13.428947075113225"><ele>717.0</ele><time>2026-04-18T14:27:32.999Z</time></trkpt><trkpt lat="42.043558828535375" lon="13.42883023288844"><ele>717.0</ele><time>2026-04-18T14:27:33.999Z</time></trkpt><trkpt lat="42.043605489426064" lon="13.42869149794476"><ele>717.0</ele><time>2026-04-18T14:27:35Z</time></trkpt><trkpt lat="42.04364210655167" lon="13.428518190284972"><ele>717.0</ele><time>2026-04-18T14:27:35.999Z</time></trkpt><trkpt lat="42.043686204013284" lon="13.428324972920537"><ele>717.25</ele><time>2026-04-18T14:27:36.999Z</time></trkpt><trkpt lat="42.043710530144786" lon="13.428139672090165"><ele>717.5</ele><time>2026-04-18T14:27:38Z</time></trkpt><trkpt lat="42.04369355287267" lon="13.427975768128448"><ele>717.75</ele><time>2026-04-18T14:27:38.999Z</time></trkpt><trkpt lat="42.04366193351943" lon="13.427834700405482"><ele>718.0</ele><time>2026-04-18T14:27:39.999Z</time></trkpt><trkpt lat="42.04360818255174" lon="13.42771941778373"><ele>717.5999999999999</ele><time>2026-04-18T14:27:40.999Z</time></trkpt><trkpt lat="42.04358527209502" lon="13.427571142500437"><ele>717.1999999999999</ele><time>2026-04-18T14:27:41.999Z</time></trkpt><trkpt lat="42.043554144629994" lon="13.427425506405438"><ele>716.8</ele><time>2026-04-18T14:27:42.999Z</time></trkpt><trkpt lat="42.04352309449894" lon="13.42728844584616"><ele>716.4</ele><time>2026-04-18T14:27:43.999Z</time></trkpt><trkpt lat="42.043491915103985" lon="13.42714027650206"><ele>716.0</ele><time>2026-04-18T14:27:44.999Z</time></trkpt><trkpt lat="42.0434618109547" lon="13.427011860379451"><ele>715.8</ele><time>2026-04-18T14:27:45.999Z</time></trkpt><trkpt lat="42.04343827669186" lon="13.426893414395423"><ele>715.5999999999999</ele><time>2026-04-18T14:27:46.999Z</time></trkpt><trkpt lat="42.04341183106589" lon="13.426781751891474"><ele>715.4</ele><time>2026-04-18T14:27:47.999Z</time></trkpt><trkpt lat="42.043385193695016" lon="13.426671268030132"><ele>715.2</ele><time>2026-04-18T14:27:48.999Z</time></trkpt><trkpt lat="42.0433556120401" lon="13.426537023669354"><ele>715.0</ele><time>2026-04-18T14:27:49.999Z</time></trkpt><trkpt lat="42.04331918631218" lon="13.426379877107783"><ele>714.0</ele><time>2026-04-18T14:27:50.999Z</time></trkpt><trkpt lat="42.04328570000299" lon="13.42621126059063"><ele>713.0</ele><time>2026-04-18T14:27:51.999Z</time></trkpt><trkpt lat="42.04325728810966" lon="13.426055342568462"><ele>712.0</ele><time>2026-04-18T14:27:52.999Z</time></trkpt><trkpt lat="42.043224339792424" lon="13.425913514040694"><ele>711.0</ele><time>2026-04-18T14:27:53.999Z</time></trkpt><trkpt lat="42.04319077897735" lon="13.425781243055111"><ele>711.0</ele><time>2026-04-18T14:27:54.999Z</time></trkpt><trkpt lat="42.04315770655991" lon="13.425655772318533"><ele>711.0</ele><time>2026-04-18T14:27:55.999Z</time></trkpt><trkpt lat="42.043127093037" lon="13.425532863188979"><ele>711.0</ele><time>2026-04-18T14:27:56.999Z</time></trkpt><trkpt lat="42.04310175897837" lon="13.425416255620501"><ele>711.0</ele><time>2026-04-18T14:27:57.999Z</time></trkpt><trkpt lat="42.0430807742036" lon="13.425313210776581"><ele>711.0</ele><time>2026-04-18T14:27:58.999Z</time></trkpt><trkpt lat="42.04305967712398" lon="13.425218843707253"><ele>711.0</ele><time>2026-04-18T14:27:59.999Z</time></trkpt><trkpt lat="42.04304172862769" lon="13.425129279737957"><ele>711.0</ele><time>2026-04-18T14:28:00.999Z</time></trkpt><trkpt lat="42.043028039457944" lon="13.425044841947964"><ele>711.0</ele><time>2026-04-18T14:28:01.999Z</time></trkpt><trkpt lat="42.043038411207974" lon="13.424888043679184"><ele>711.0</ele><time>2026-04-18T14:28:03.999Z</time></trkpt><trkpt lat="42.04308264137039" lon="13.424743595641312"><ele>711.0</ele><time>2026-04-18T14:28:05.999Z</time></trkpt><trkpt lat="42.04306977320916" lon="13.424584352092777"><ele>711.0</ele><time>2026-04-18T14:28:07.999Z</time></trkpt><trkpt lat="42.042990654246566" lon="13.424511035864088"><ele>711.0</ele><time>2026-04-18T14:28:08.999Z</time></trkpt><trkpt lat="42.042932007004424" lon="13.42444159257951"><ele>711.0</ele><time>2026-04-18T14:28:09.999Z</time></trkpt><trkpt lat="42.04287554992146" lon="13.424368514446583"><ele>711.0</ele><time>2026-04-18T14:28:10.999Z</time></trkpt><trkpt lat="42.042834068356846" lon="13.424257608814187"><ele>711.0</ele><time>2026-04-18T14:28:11.999Z</time></trkpt><trkpt lat="42.04280851851994" lon="13.424131663728112"><ele>711.0</ele><time>2026-04-18T14:28:12.999Z</time></trkpt><trkpt lat="42.0427858202456" lon="13.424006466810466"><ele>711.0</ele><time>2026-04-18T14:28:13.999Z</time></trkpt><trkpt lat="42.0427572396112" lon="13.423872843977133"><ele>711.25</ele><time>2026-04-18T14:28:14.999Z</time></trkpt><trkpt lat="42.04272302850762" lon="13.423725729376944"><ele>711.5</ele><time>2026-04-18T14:28:15.999Z</time></trkpt><trkpt lat="42.04267946225021" lon="13.423551261755446"><ele>711.75</ele><time>2026-04-18T14:28:16.999Z</time></trkpt><trkpt lat="42.0426286243246" lon="13.423337929518889"><ele>712.0</ele><time>2026-04-18T14:28:17.999Z</time></trkpt><trkpt lat="42.04257861114544" lon="13.423124208196933"><ele>711.75</ele><time>2026-04-18T14:28:18.999Z</time></trkpt><trkpt lat="42.042536862587546" lon="13.422936383232233"><ele>711.5</ele><time>2026-04-18T14:28:20Z</time></trkpt><trkpt lat="42.04249779988734" lon="13.422767934795392"><ele>711.25</ele><time>2026-04-18T14:28:21Z</time></trkpt><trkpt lat="42.04246103435748" lon="13.422611239236728"><ele>711.0</ele><time>2026-04-18T14:28:22Z</time></trkpt><trkpt lat="42.042427817431786" lon="13.422462322870885"><ele>710.5</ele><time>2026-04-18T14:28:23Z</time></trkpt><trkpt lat="42.042395364940184" lon="13.422305810045117"><ele>710.0</ele><time>2026-04-18T14:28:24Z</time></trkpt><trkpt lat="42.04235860166544" lon="13.422135734376047"><ele>709.5</ele><time>2026-04-18T14:28:25Z</time></trkpt><trkpt lat="42.04232026221125" lon="13.42197478349035"><ele>709.0</ele><time>2026-04-18T14:28:26Z</time></trkpt><trkpt lat="42.042283768508256" lon="13.421825236839117"><ele>709.0</ele><time>2026-04-18T14:28:27Z</time></trkpt><trkpt lat="42.04224990044104" lon="13.421684895227083"><ele>709.0</ele><time>2026-04-18T14:28:28Z</time></trkpt><trkpt lat="42.042219502084464" lon="13.421549811844956"><ele>709.0</ele><time>2026-04-18T14:28:29Z</time></trkpt><trkpt lat="42.042189394879934" lon="13.421427814723103"><ele>709.0</ele><time>2026-04-18T14:28:30Z</time></trkpt><trkpt lat="42.042156616841346" lon="13.421303951714812"><ele>709.0</ele><time>2026-04-18T14:28:31Z</time></trkpt><trkpt lat="42.04212285411304" lon="13.421175355729426"><ele>708.6666666666667</ele><time>2026-04-18T14:28:32Z</time></trkpt><trkpt lat="42.04208795463525" lon="13.421057429171581"><ele>708.3333333333334</ele><time>2026-04-18T14:28:33Z</time></trkpt><trkpt lat="42.042064249155665" lon="13.420943745738864"><ele>708.0</ele><time>2026-04-18T14:28:34Z</time></trkpt><trkpt lat="42.04204112405245" lon="13.420842337534564"><ele>707.6666666666666</ele><time>2026-04-18T14:28:35Z</time></trkpt><trkpt lat="42.04202050338351" lon="13.420750195614856"><ele>707.3333333333333</ele><time>2026-04-18T14:28:36Z</time></trkpt><trkpt lat="42.041998019672064" lon="13.420659683633744"><ele>707.0</ele><time>2026-04-18T14:28:37Z</time></trkpt><trkpt lat="42.04197070453076" lon="13.420527363056124"><ele>707.0</ele><time>2026-04-18T14:28:39Z</time></trkpt><trkpt lat="42.04189507506317" lon="13.42045180247278"><ele>707.0</ele><time>2026-04-18T14:28:43Z</time></trkpt><trkpt lat="42.04182203603885" lon="13.420464720499677"><ele>707.0</ele><time>2026-04-18T14:28:44Z</time></trkpt><trkpt lat="42.041734831843364" lon="13.4205025608223"><ele>707.0</ele><time>2026-04-18T14:28:45Z</time></trkpt><trkpt lat="42.04163467203791" lon="13.42055125897765"><ele>707.0</ele><time>2026-04-18T14:28:46Z</time></trkpt><trkpt lat="42.0415494696157" lon="13.420588104849818"><ele>707.0</ele><time>2026-04-18T14:28:47Z</time></trkpt><trkpt lat="42.041470373277775" lon="13.420620347455646"><ele>707.0</ele><time>2026-04-18T14:28:48Z</time></trkpt><trkpt lat="42.04137985412573" lon="13.420646163721539"><ele>707.0</ele><time>2026-04-18T14:28:49Z</time></trkpt><trkpt lat="42.04126861291747" lon="13.420667957948854"><ele>707.0</ele><time>2026-04-18T14:28:50Z</time></trkpt><trkpt lat="42.0411528561698" lon="13.420696757510543"><ele>707.0</ele><time>2026-04-18T14:28:51Z</time></trkpt><trkpt lat="42.04104751582854" lon="13.420722895336857"><ele>707.0</ele><time>2026-04-18T14:28:52Z</time></trkpt><trkpt lat="42.0409520299667" lon="13.420738846495993"><ele>707.0</ele><time>2026-04-18T14:28:53Z</time></trkpt><trkpt lat="42.04086074793194" lon="13.42074717874118"><ele>707.0</ele><time>2026-04-18T14:28:54Z</time></trkpt><trkpt lat="42.04076003410291" lon="13.420758205688806"><ele>707.0</ele><time>2026-04-18T14:28:55Z</time></trkpt><trkpt lat="42.04065761305202" lon="13.420769264826886"><ele>707.0</ele><time>2026-04-18T14:28:56Z</time></trkpt><trkpt lat="42.040549613539746" lon="13.420784206904173"><ele>706.4000000000001</ele><time>2026-04-18T14:28:57Z</time></trkpt><trkpt lat="42.04043664410348" lon="13.420809967534193"><ele>705.8000000000001</ele><time>2026-04-18T14:28:58Z</time></trkpt><trkpt lat="42.04032904036659" lon="13.420834216306925"><ele>705.2</ele><time>2026-04-18T14:28:59Z</time></trkpt><trkpt lat="42.04022468713499" lon="13.420868827269214"><ele>704.6</ele><time>2026-04-18T14:29:00Z</time></trkpt><trkpt lat="42.04012645607154" lon="13.420928170646365"><ele>704.0</ele><time>2026-04-18T14:29:01Z</time></trkpt><trkpt lat="42.04002330347026" lon="13.421014148263989"><ele>704.0</ele><time>2026-04-18T14:29:02Z</time></trkpt><trkpt lat="42.03991188298505" lon="13.421076852878493"><ele>704.0</ele><time>2026-04-18T14:29:03Z</time></trkpt><trkpt lat="42.03981677711314" lon="13.421145322936647"><ele>704.0</ele><time>2026-04-18T14:29:04Z</time></trkpt><trkpt lat="42.03973405979991" lon="13.421218190635967"><ele>704.0</ele><time>2026-04-18T14:29:04.999Z</time></trkpt><trkpt lat="42.039654811785944" lon="13.421274360219025"><ele>704.0</ele><time>2026-04-18T14:29:05.999Z</time></trkpt><trkpt lat="42.03957857976069" lon="13.421330531295451"><ele>704.0</ele><time>2026-04-18T14:29:06.999Z</time></trkpt><trkpt lat="42.03951434896391" lon="13.421386338896173"><ele>704.0</ele><time>2026-04-18T14:29:07.999Z</time></trkpt><trkpt lat="42.03945006030977" lon="13.421436308411428"><ele>704.0</ele><time>2026-04-18T14:29:08.999Z</time></trkpt><trkpt lat="42.03938883574932" lon="13.42147839617871"><ele>704.0</ele><time>2026-04-18T14:29:09.999Z</time></trkpt><trkpt lat="42.0393175692931" lon="13.421530857682978"><ele>704.0</ele><time>2026-04-18T14:29:11.999Z</time></trkpt><trkpt lat="42.03927650816447" lon="13.421647381415157"><ele>704.0</ele><time>2026-04-18T14:29:19.999Z</time></trkpt><trkpt lat="42.039320674451176" lon="13.421760437849949"><ele>704.0</ele><time>2026-04-18T14:29:20.999Z</time></trkpt><trkpt lat="42.039383682461775" lon="13.421892391959236"><ele>704.0</ele><time>2026-04-18T14:29:21.999Z</time></trkpt><trkpt lat="42.0394278346958" lon="13.42201741110153"><ele>704.0</ele><time>2026-04-18T14:29:22.999Z</time></trkpt><trkpt lat="42.03946294645329" lon="13.422142297556203"><ele>704.0</ele><time>2026-04-18T14:29:23.999Z</time></trkpt><trkpt lat="42.03949459290641" lon="13.422245875971965"><ele>704.0</ele><time>2026-04-18T14:29:24.999Z</time></trkpt><trkpt lat="42.03952454730092" lon="13.422342214462246"><ele>703.8000000000001</ele><time>2026-04-18T14:29:25.999Z</time></trkpt><trkpt lat="42.03954983965553" lon="13.422429618019967"><ele>703.6</ele><time>2026-04-18T14:29:26.999Z</time></trkpt><trkpt lat="42.03958320516434" lon="13.422565302641074"><ele>703.4</ele><time>2026-04-18T14:29:28.999Z</time></trkpt><trkpt lat="42.03952901401887" lon="13.42264582077306"><ele>703.2</ele><time>2026-04-18T14:29:32Z</time></trkpt><trkpt lat="42.039408141374075" lon="13.422704123238555"><ele>703.0</ele><time>2026-04-18T14:30:42Z</time></trkpt><trkpt lat="42.038810397935364" lon="13.422623556209041"><ele>703.0</ele><time>2026-04-18T14:30:53Z</time></trkpt><trkpt lat="42.03853480603746" lon="13.422718215802455"><ele>703.0</ele><time>2026-04-18T14:30:54Z</time></trkpt><trkpt lat="42.03846340575564" lon="13.422659737870305"><ele>703.0</ele><time>2026-04-18T14:30:56Z</time></trkpt><trkpt lat="42.03862398757304" lon="13.42266555404765"><ele>703.0</ele><time>2026-04-18T14:30:58Z</time></trkpt><trkpt lat="42.03863871668611" lon="13.422558565437805"><ele>703.0</ele><time>2026-04-18T14:31:06.999Z</time></trkpt><trkpt lat="42.038963201404464" lon="13.422617431298972"><ele>703.0</ele><time>2026-04-18T14:31:13.999Z</time></trkpt><trkpt lat="42.0390599639976" lon="13.42261976781563"><ele>703.75</ele><time>2026-04-18T14:31:14.999Z</time></trkpt><trkpt lat="42.039306612877674" lon="13.422628238738126"><ele>704.5</ele><time>2026-04-18T14:31:16.999Z</time></trkpt><trkpt lat="42.039369657110825" lon="13.42263421558774"><ele>705.25</ele><time>2026-04-18T14:31:17.999Z</time></trkpt><trkpt lat="42.03945172707785" lon="13.422640079369684"><ele>706.0</ele><time>2026-04-18T14:31:19.999Z</time></trkpt><trkpt lat="42.03954227289588" lon="13.42262928550384"><ele>706.0</ele><time>2026-04-18T14:31:56Z</time></trkpt><trkpt lat="42.03958051941664" lon="13.422486806360338"><ele>706.0</ele><time>2026-04-18T14:32:03Z</time></trkpt><trkpt lat="42.0395705678552" lon="13.422396930145378"><ele>706.0</ele><time>2026-04-18T14:32:04Z</time></trkpt><trkpt lat="42.03953558649485" lon="13.422250741912684"><ele>706.0</ele><time>2026-04-18T14:32:06Z</time></trkpt><trkpt lat="42.03950763533857" lon="13.422096607417922"><ele>706.0</ele><time>2026-04-18T14:32:08Z</time></trkpt><trkpt lat="42.03949356533278" lon="13.422013970847393"><ele>705.5999999999999</ele><time>2026-04-18T14:32:09Z</time></trkpt><trkpt lat="42.0394793077652" lon="13.421929732172588"><ele>705.2</ele><time>2026-04-18T14:32:10Z</time></trkpt><trkpt lat="42.039442724229076" lon="13.42185697317532"><ele>704.8</ele><time>2026-04-18T14:32:11Z</time></trkpt><trkpt lat="42.03940473432087" lon="13.421720117929647"><ele>704.4000000000001</ele><time>2026-04-18T14:32:13Z</time></trkpt><trkpt lat="42.03938632530846" lon="13.421625052892939"><ele>704.0</ele><time>2026-04-18T14:32:16Z</time></trkpt><trkpt lat="42.039217577022036" lon="13.421597138765014"><ele>703.75</ele><time>2026-04-18T14:32:28Z</time></trkpt><trkpt lat="42.03910859523253" lon="13.421667953147438"><ele>703.5</ele><time>2026-04-18T14:32:29Z</time></trkpt><trkpt lat="42.039004405348834" lon="13.421737551574788"><ele>703.25</ele><time>2026-04-18T14:32:30Z</time></trkpt><trkpt lat="42.03888889248388" lon="13.421817039602042"><ele>703.0</ele><time>2026-04-18T14:32:31Z</time></trkpt><trkpt lat="42.03876637580768" lon="13.421899797113582"><ele>703.0</ele><time>2026-04-18T14:32:32Z</time></trkpt><trkpt lat="42.03866138595827" lon="13.421968844487443"><ele>703.0</ele><time>2026-04-18T14:32:33Z</time></trkpt><trkpt lat="42.038563889317814" lon="13.42203652201961"><ele>703.0</ele><time>2026-04-18T14:32:34Z</time></trkpt><trkpt lat="42.0384427630873" lon="13.422106185837722"><ele>703.0</ele><time>2026-04-18T14:32:35Z</time></trkpt><trkpt lat="42.038296590843494" lon="13.422172619626139"><ele>703.6666666666667</ele><time>2026-04-18T14:32:36Z</time></trkpt><trkpt lat="42.03811955436073" lon="13.42228404125038"><ele>704.3333333333334</ele><time>2026-04-18T14:32:37Z</time></trkpt><trkpt lat="42.037930300862286" lon="13.422402677668597"><ele>705.0</ele><time>2026-04-18T14:32:38Z</time></trkpt><trkpt lat="42.03772986415064" lon="13.422530621585787"><ele>705.0</ele><time>2026-04-18T14:32:39Z</time></trkpt><trkpt lat="42.037534494459955" lon="13.42264076475719"><ele>705.0</ele><time>2026-04-18T14:32:40Z</time></trkpt><trkpt lat="42.037352635555095" lon="13.422764594664724"><ele>705.0</ele><time>2026-04-18T14:32:41Z</time></trkpt><trkpt lat="42.03715105892023" lon="13.422891518142391"><ele>705.25</ele><time>2026-04-18T14:32:42Z</time></trkpt><trkpt lat="42.03700915719286" lon="13.42297394517402"><ele>705.5</ele><time>2026-04-18T14:32:43Z</time></trkpt><trkpt lat="42.036879584259026" lon="13.423040958104476"><ele>705.75</ele><time>2026-04-18T14:32:44Z</time></trkpt><trkpt lat="42.036760767252716" lon="13.423095082294136"><ele>706.0</ele><time>2026-04-18T14:32:45Z</time></trkpt><trkpt lat="42.03665013343067" lon="13.423150221587784"><ele>705.0</ele><time>2026-04-18T14:32:46Z</time></trkpt><trkpt lat="42.03654974812031" lon="13.423214859717776"><ele>704.0</ele><time>2026-04-18T14:32:47Z</time></trkpt><trkpt lat="42.03645965607167" lon="13.423281923013343"><ele>703.0</ele><time>2026-04-18T14:32:48Z</time></trkpt><trkpt lat="42.036380348453406" lon="13.42333221648193"><ele>702.0</ele><time>2026-04-18T14:32:49Z</time></trkpt><trkpt lat="42.0363053537639" lon="13.423380748108512"><ele>701.0</ele><time>2026-04-18T14:32:50Z</time></trkpt><trkpt lat="42.03624873966667" lon="13.423420574659962"><ele>700.0</ele><time>2026-04-18T14:32:51Z</time></trkpt><trkpt lat="42.03617997840562" lon="13.423478596978121"><ele>700.0</ele><time>2026-04-18T14:32:53Z</time></trkpt><trkpt lat="42.03624613135224" lon="13.423697084484619"><ele>700.0</ele><time>2026-04-18T14:32:55Z</time></trkpt><trkpt lat="42.036293985211685" lon="13.42382188870657"><ele>700.0</ele><time>2026-04-18T14:32:56Z</time></trkpt><trkpt lat="42.036342675036934" lon="13.423934206447473"><ele>700.0</ele><time>2026-04-18T14:32:57Z</time></trkpt><trkpt lat="42.03637997271828" lon="13.424032771491337"><ele>700.0</ele><time>2026-04-18T14:32:58Z</time></trkpt><trkpt lat="42.036417385315545" lon="13.424133254716898"><ele>700.0</ele><time>2026-04-18T14:32:59Z</time></trkpt><trkpt lat="42.03645040971874" lon="13.424217452721686"><ele>700.0</ele><time>2026-04-18T14:33:00Z</time></trkpt><trkpt lat="42.03648430377872" lon="13.424321330616523"><ele>700.0</ele><time>2026-04-18T14:33:01Z</time></trkpt><trkpt lat="42.03651717273435" lon="13.424430785779718"><ele>700.0</ele><time>2026-04-18T14:33:02Z</time></trkpt><trkpt lat="42.036552114831075" lon="13.424577494577614"><ele>700.0</ele><time>2026-04-18T14:33:03Z</time></trkpt><trkpt lat="42.036599035972486" lon="13.424704389141029"><ele>700.0</ele><time>2026-04-18T14:33:04Z</time></trkpt><trkpt lat="42.03661844976682" lon="13.424814987295708"><ele>700.0</ele><time>2026-04-18T14:33:05Z</time></trkpt><trkpt lat="42.03663945142746" lon="13.424895500103956"><ele>700.0</ele><time>2026-04-18T14:33:06Z</time></trkpt><trkpt lat="42.036666178139754" lon="13.425002459954408"><ele>700.0</ele><time>2026-04-18T14:33:07Z</time></trkpt><trkpt lat="42.03669046813871" lon="13.425098324485157"><ele>700.0</ele><time>2026-04-18T14:33:08Z</time></trkpt><trkpt lat="42.03674252076566" lon="13.425237964682806"><ele>700.0</ele><time>2026-04-18T14:33:10Z</time></trkpt><trkpt lat="42.03677330775169" lon="13.425348815504432"><ele>700.0</ele><time>2026-04-18T14:33:12Z</time></trkpt><trkpt lat="42.03679724174153" lon="13.425495519280025"><ele>700.0</ele><time>2026-04-18T14:33:13.999Z</time></trkpt><trkpt lat="42.03681230506968" lon="13.425604306081018"><ele>700.0</ele><time>2026-04-18T14:33:14.999Z</time></trkpt><trkpt lat="42.0367939073959" lon="13.425696428336922"><ele>700.0</ele><time>2026-04-18T14:33:15.999Z</time></trkpt><trkpt lat="42.036795825533716" lon="13.425869668102889"><ele>700.0</ele><time>2026-04-18T14:33:17.999Z</time></trkpt><trkpt lat="42.036806655738935" lon="13.4259713219383"><ele>700.0</ele><time>2026-04-18T14:33:18.999Z</time></trkpt><trkpt lat="42.0368078398041" lon="13.42607255441483"><ele>700.0</ele><time>2026-04-18T14:33:19.999Z</time></trkpt><trkpt lat="42.03680542702317" lon="13.426161151325216"><ele>700.0</ele><time>2026-04-18T14:33:20.999Z</time></trkpt><trkpt lat="42.03680321867493" lon="13.426248340807907"><ele>700.0</ele><time>2026-04-18T14:33:21.999Z</time></trkpt><trkpt lat="42.03679197724648" lon="13.426332035005535"><ele>700.0</ele><time>2026-04-18T14:33:24.999Z</time></trkpt><trkpt lat="42.03681124242418" lon="13.426425138156487"><ele>700.0</ele><time>2026-04-18T14:33:34.999Z</time></trkpt><trkpt lat="42.03698276572771" lon="13.426436577915222"><ele>700.2</ele><time>2026-04-18T14:33:35.999Z</time></trkpt><trkpt lat="42.03720198645664" lon="13.426416913291774"><ele>700.4</ele><time>2026-04-18T14:33:41.999Z</time></trkpt><trkpt lat="42.03727064984701" lon="13.426401347908364"><ele>700.5999999999999</ele><time>2026-04-18T14:33:44Z</time></trkpt><trkpt lat="42.03733339082593" lon="13.426413173463907"><ele>700.8</ele><time>2026-04-18T14:33:45Z</time></trkpt><trkpt lat="42.03741355924978" lon="13.42643100191116"><ele>701.0</ele><time>2026-04-18T14:33:47Z</time></trkpt><trkpt lat="42.03754450881993" lon="13.426433386165783"><ele>701.1666666666666</ele><time>2026-04-18T14:33:49Z</time></trkpt><trkpt lat="42.0376509340529" lon="13.426417667786431"><ele>701.3333333333333</ele><time>2026-04-18T14:33:50Z</time></trkpt><trkpt lat="42.03772371170436" lon="13.426378038161634"><ele>701.5</ele><time>2026-04-18T14:33:51Z</time></trkpt><trkpt lat="42.03779400364804" lon="13.426374292780858"><ele>701.6666666666666</ele><time>2026-04-18T14:33:52Z</time></trkpt><trkpt lat="42.03787055360884" lon="13.42637021395137"><ele>701.8333333333334</ele><time>2026-04-18T14:33:53Z</time></trkpt><trkpt lat="42.037939938579235" lon="13.42636651689732"><ele>702.0</ele><time>2026-04-18T14:33:54Z</time></trkpt><trkpt lat="42.038017750382195" lon="13.42636237083344"><ele>702.0</ele><time>2026-04-18T14:33:55Z</time></trkpt><trkpt lat="42.03810769013192" lon="13.426357731032407"><ele>702.0</ele><time>2026-04-18T14:33:56Z</time></trkpt><trkpt lat="42.03818525221368" lon="13.4263652840111"><ele>702.0</ele><time>2026-04-18T14:33:57Z</time></trkpt><trkpt lat="42.03825054858477" lon="13.42636741106986"><ele>702.0</ele><time>2026-04-18T14:33:58Z</time></trkpt><trkpt lat="42.038335218546116" lon="13.426346138331215"><ele>702.0</ele><time>2026-04-18T14:34:00Z</time></trkpt><trkpt lat="42.03842228652635" lon="13.426341702165763"><ele>702.0</ele><time>2026-04-18T14:34:02Z</time></trkpt><trkpt lat="42.038497263950234" lon="13.426337882021603"><ele>702.5</ele><time>2026-04-18T14:34:05Z</time></trkpt><trkpt lat="42.038561738328376" lon="13.426334597017327"><ele>703.0</ele><time>2026-04-18T14:34:09Z</time></trkpt><trkpt lat="42.0385755126487" lon="13.426492956237345"><ele>703.5</ele><time>2026-04-18T14:34:10Z</time></trkpt><trkpt lat="42.0386042464039" lon="13.42659656222218"><ele>704.0</ele><time>2026-04-18T14:34:12Z</time></trkpt><trkpt lat="42.038639468289745" lon="13.426717826960015"><ele>704.5</ele><time>2026-04-18T14:34:14Z</time></trkpt><trkpt lat="42.03867395792683" lon="13.426825072083165"><ele>705.0</ele><time>2026-04-18T14:34:16Z</time></trkpt><trkpt lat="42.03872200909404" lon="13.426951367156162"><ele>705.0</ele><time>2026-04-18T14:34:18Z</time></trkpt><trkpt lat="42.03876364263454" lon="13.427093913289376"><ele>705.0</ele><time>2026-04-18T14:34:20Z</time></trkpt><trkpt lat="42.03881738178465" lon="13.427227087559297"><ele>705.0</ele><time>2026-04-18T14:34:22Z</time></trkpt><trkpt lat="42.03886098555435" lon="13.427356442435615"><ele>705.0</ele><time>2026-04-18T14:34:24Z</time></trkpt><trkpt lat="42.03889499626332" lon="13.427461053280581"><ele>705.0</ele><time>2026-04-18T14:34:26Z</time></trkpt><trkpt lat="42.03891816725783" lon="13.427551967576003"><ele>705.2</ele><time>2026-04-18T14:34:29Z</time></trkpt><trkpt lat="42.03898359165541" lon="13.427676371417562"><ele>705.4</ele><time>2026-04-18T14:34:32Z</time></trkpt><trkpt lat="42.03904175948117" lon="13.427741991330088"><ele>705.5999999999999</ele><time>2026-04-18T14:34:33Z</time></trkpt><trkpt lat="42.03911045662993" lon="13.42782666866043"><ele>705.8</ele><time>2026-04-18T14:34:34Z</time></trkpt><trkpt lat="42.03917617465084" lon="13.427904938770205"><ele>706.0</ele><time>2026-04-18T14:34:35Z</time></trkpt><trkpt lat="42.03923617431819" lon="13.4279837172486"><ele>704.0</ele><time>2026-04-18T14:34:36Z</time></trkpt><trkpt lat="42.03930120765618" lon="13.42805115233607"><ele>704.0</ele><time>2026-04-18T14:34:37Z</time></trkpt><trkpt lat="42.03934805073166" lon="13.428116044614892"><ele>704.0</ele><time>2026-04-18T14:34:38Z</time></trkpt><trkpt lat="42.039394233658996" lon="13.428174519947554"><ele>704.0</ele><time>2026-04-18T14:34:39Z</time></trkpt><trkpt lat="42.03944919074259" lon="13.4282564316652"><ele>704.0</ele><time>2026-04-18T14:34:41Z</time></trkpt><trkpt lat="42.03947042387803" lon="13.428353863168658"><ele>704.0</ele><time>2026-04-18T14:35:22.999Z</time></trkpt></trkseg></trk></gpx>